Wetterdaten: Freitag, 05.01.2018
Datum Zeit Temp. A. Pool Temp. Feuchte A. Luftdruck Regen Wind Richtung Richtung Sonnenschein ET UV Solar Taupunkt Windchill Windben Empfang
05.01.2018 00:00 5,1 C 3,9 C 97 % 998,3 hPa 0,0 l/m 3,2 km/h (1 Bft) O 90 0 min 0,000 mm 0,0 UV-I 0 W/m 4,7 C 5,1 C 4,8 km/h (1 Bft) 91,30 %
05.01.2018 00:01 5,1 C 3,9 C 97 % 998,3 hPa 0,0 l/m 3,2 km/h (1 Bft) O 90 0 min 0,000 mm 0,0 UV-I 0 W/m 4,7 C 5,1 C 4,8 km/h (1 Bft) 91,30 %
05.01.2018 00:02 5,1 C 3,9 C 97 % 998,3 hPa 0,2 l/m 3,2 km/h (1 Bft) O 90 0 min 0,000 mm 0,0 UV-I 0 W/m 4,7 C 5,1 C 6,4 km/h (2 Bft) 100,00 %
05.01.2018 00:03 5,1 C 3,9 C 97 % 998,3 hPa 0,0 l/m 4,8 km/h (1 Bft) S 180 0 min 0,000 mm 0,0 UV-I 0 W/m 4,7 C 5,1 C 8,0 km/h (2 Bft) 95,65 %
05.01.2018 00:04 5,2 C 3,9 C 97 % 998,3 hPa 0,0 l/m 4,8 km/h (1 Bft) SO 135 0 min 0,000 mm 0,0 UV-I 0 W/m 4,8 C 5,2 C 6,4 km/h (2 Bft) 100,00 %
05.01.2018 00:05 5,4 C 3,9 C 98 % 998,2 hPa 0,0 l/m 3,2 km/h (1 Bft) S 180 0 min 0,000 mm 0,0 UV-I 0 W/m 5,1 C 5,4 C 4,8 km/h (1 Bft) 95,65 %
05.01.2018 00:06 5,7 C 3,9 C 98 % 998,3 hPa 0,2 l/m 4,8 km/h (1 Bft) S 180 0 min 0,000 mm 0,0 UV-I 0 W/m 5,4 C 5,7 C 6,4 km/h (2 Bft) 95,65 %
05.01.2018 00:07 5,9 C 3,9 C 98 % 998,2 hPa 0,0 l/m 4,8 km/h (1 Bft) S 180 0 min 0,000 mm 0,0 UV-I 0 W/m 5,6 C 5,9 C 8,0 km/h (2 Bft) 95,65 %
05.01.2018 00:08 6,2 C 3,9 C 98 % 998,1 hPa 0,0 l/m 6,4 km/h (2 Bft) S-SW 202 0 min 0,000 mm 0,0 UV-I 0 W/m 5,9 C 6,2 C 11,3 km/h (2 Bft) 95,65 %
05.01.2018 00:09 6,3 C 3,9 C 98 % 998,1 hPa 0,0 l/m 12,9 km/h (3 Bft) S-SW 202 0 min 0,000 mm 0,0 UV-I 0 W/m 6,0 C 1,7 C 17,7 km/h (3 Bft) 95,65 %
05.01.2018 00:10 6,6 C 3,9 C 98 % 998,1 hPa 0,2 l/m 12,9 km/h (3 Bft) S-SW 202 0 min 0,000 mm 0,0 UV-I 0 W/m 6,3 C 2,1 C 17,7 km/h (3 Bft) 95,65 %
05.01.2018 00:11 6,8 C 3,9 C 98 % 998,0 hPa 0,0 l/m 16,1 km/h (3 Bft) S-SW 202 0 min 0,000 mm 0,0 UV-I 0 W/m 6,5 C 0,7 C 22,5 km/h (4 Bft) 100,00 %
05.01.2018 00:12 7,1 C 3,9 C 98 % 997,9 hPa 0,0 l/m 14,5 km/h (3 Bft) S-SW 202 0 min 0,000 mm 0,0 UV-I 0 W/m 6,8 C 1,9 C 17,7 km/h (3 Bft) 91,30 %
05.01.2018 00:13 7,3 C 3,9 C 98 % 998,0 hPa 0,0 l/m 17,7 km/h (3 Bft) SW 225 0 min 0,000 mm 0,0 UV-I 0 W/m 7,0 C 0,7 C 30,6 km/h (5 Bft) 95,65 %
05.01.2018 00:14 7,4 C 3,9 C 98 % 998,0 hPa 0,0 l/m 16,1 km/h (3 Bft) SW 225 0 min 0,000 mm 0,0 UV-I 0 W/m 7,1 C 1,5 C 22,5 km/h (4 Bft) 91,30 %
05.01.2018 00:15 7,6 C 3,9 C 98 % 997,9 hPa 0,0 l/m 12,9 km/h (3 Bft) S-SW 202 0 min 0,000 mm 0,0 UV-I 0 W/m 7,3 C 3,3 C 32,2 km/h (5 Bft) 100,00 %
05.01.2018 00:16 7,7 C 3,9 C 98 % 998,0 hPa 0,0 l/m 14,5 km/h (3 Bft) W-SW 247 0 min 0,000 mm 0,0 UV-I 0 W/m 7,4 C 2,6 C 22,5 km/h (4 Bft) 95,65 %
05.01.2018 00:17 7,7 C 3,9 C 98 % 998,0 hPa 0,0 l/m 14,5 km/h (3 Bft) W-SW 247 0 min 0,000 mm 0,0 UV-I 0 W/m 7,4 C 2,6 C 22,5 km/h (4 Bft) 100,00 %
05.01.2018 00:18 7,9 C 3,9 C 98 % 998,0 hPa 0,0 l/m 16,1 km/h (3 Bft) W-SW 247 0 min 0,000 mm 0,0 UV-I 0 W/m 7,6 C 2,1 C 25,7 km/h (4 Bft) 100,00 %
05.01.2018 00:19 8,1 C 3,9 C 98 % 998,1 hPa 0,0 l/m 14,5 km/h (3 Bft) W-SW 247 0 min 0,000 mm 0,0 UV-I 0 W/m 7,8 C 3,1 C 19,3 km/h (3 Bft) 95,65 %
05.01.2018 00:20 8,2 C 3,9 C 98 % 998,2 hPa 0,0 l/m 17,7 km/h (3 Bft) W-SW 247 0 min 0,000 mm 0,0 UV-I 0 W/m 7,9 C 1,8 C 22,5 km/h (4 Bft) 95,65 %
05.01.2018 00:21 8,2 C 3,9 C 98 % 998,3 hPa 0,0 l/m 11,3 km/h (2 Bft) W-NW 292 0 min 0,000 mm 0,0 UV-I 0 W/m 7,9 C 4,8 C 16,1 km/h (3 Bft) 91,30 %
05.01.2018 00:22 8,1 C 3,9 C 98 % 998,5 hPa 0,0 l/m 6,4 km/h (2 Bft) NW 315 0 min 0,000 mm 0,0 UV-I 0 W/m 7,8 C 8,1 C 12,9 km/h (3 Bft) 100,00 %
05.01.2018 00:23 7,3 C 3,9 C 98 % 998,4 hPa 0,0 l/m 16,1 km/h (3 Bft) N-NW 337 0 min 0,000 mm 0,0 UV-I 0 W/m 7,0 C 1,4 C 27,4 km/h (4 Bft) 95,65 %
05.01.2018 00:24 6,7 C 3,9 C 98 % 998,2 hPa 0,0 l/m 12,9 km/h (3 Bft) NO 45 0 min 0,000 mm 0,0 UV-I 0 W/m 6,4 C 2,2 C 20,9 km/h (4 Bft) 100,00 %
05.01.2018 00:25 6,2 C 3,9 C 98 % 998,5 hPa 0,0 l/m 6,4 km/h (2 Bft) NW 315 0 min 0,000 mm 0,0 UV-I 0 W/m 5,9 C 6,2 C 12,9 km/h (3 Bft) 100,00 %
05.01.2018 00:26 6,1 C 3,9 C 97 % 998,4 hPa 0,0 l/m 6,4 km/h (2 Bft) N-NO 22 0 min 0,000 mm 0,0 UV-I 0 W/m 5,7 C 6,1 C 11,3 km/h (2 Bft) 100,00 %
05.01.2018 00:27 6,1 C 3,9 C 97 % 998,1 hPa 0,0 l/m 3,2 km/h (1 Bft) N-NW 337 0 min 0,000 mm 0,0 UV-I 0 W/m 5,7 C 6,1 C 9,7 km/h (2 Bft) 91,30 %
05.01.2018 00:28 6,2 C 3,9 C 97 % 998,3 hPa 0,0 l/m 6,4 km/h (2 Bft) W-SW 247 0 min 0,000 mm 0,0 UV-I 0 W/m 5,8 C 6,2 C 11,3 km/h (2 Bft) 100,00 %
05.01.2018 00:29 6,2 C 3,9 C 97 % 998,3 hPa 0,0 l/m 6,4 km/h (2 Bft) SW 225 0 min 0,000 mm 0,0 UV-I 0 W/m 5,8 C 6,2 C 9,7 km/h (2 Bft) 95,65 %
05.01.2018 00:30 6,2 C 3,9 C 97 % 998,2 hPa 0,0 l/m 8,0 km/h (2 Bft) SW 225 0 min 0,000 mm 0,0 UV-I 0 W/m 5,8 C 4,9 C 12,9 km/h (3 Bft) 95,65 %
05.01.2018 00:31 6,3 C 3,9 C 97 % 998,2 hPa 0,0 l/m 11,3 km/h (2 Bft) W-SW 247 0 min 0,000 mm 0,0 UV-I 0 W/m 5,9 C 2,7 C 19,3 km/h (3 Bft) 100,00 %
05.01.2018 00:32 6,5 C 3,9 C 97 % 998,2 hPa 0,0 l/m 8,0 km/h (2 Bft) S-SW 202 0 min 0,000 mm 0,0 UV-I 0 W/m 6,1 C 5,2 C 12,9 km/h (3 Bft) 95,65 %
05.01.2018 00:33 6,7 C 3,9 C 98 % 998,1 hPa 0,0 l/m 11,3 km/h (2 Bft) W-SW 247 0 min 0,000 mm 0,0 UV-I 0 W/m 6,4 C 3,1 C 14,5 km/h (3 Bft) 100,00 %
05.01.2018 00:34 6,9 C 3,9 C 98 % 998,1 hPa 0,2 l/m 14,5 km/h (3 Bft) SW 225 0 min 0,000 mm 0,0 UV-I 0 W/m 6,6 C 1,6 C 25,7 km/h (4 Bft) 91,30 %
05.01.2018 00:35 7,2 C 3,9 C 98 % 998,1 hPa 0,0 l/m 12,9 km/h (3 Bft) SW 225 0 min 0,000 mm 0,0 UV-I 0 W/m 6,9 C 2,8 C 17,7 km/h (3 Bft) 100,00 %
05.01.2018 00:36 7,3 C 3,9 C 98 % 998,0 hPa 0,0 l/m 11,3 km/h (2 Bft) W-SW 247 0 min 0,000 mm 0,0 UV-I 0 W/m 7,0 C 3,8 C 17,7 km/h (3 Bft) 95,65 %
05.01.2018 00:37 7,3 C 3,9 C 98 % 998,0 hPa 0,0 l/m 11,3 km/h (2 Bft) W-SW 247 0 min 0,000 mm 0,0 UV-I 0 W/m 7,0 C 3,8 C 14,5 km/h (3 Bft) 100,00 %
05.01.2018 00:38 7,3 C 3,9 C 98 % 998,1 hPa 0,0 l/m 9,7 km/h (2 Bft) W-SW 247 0 min 0,000 mm 0,0 UV-I 0 W/m 7,0 C 4,8 C 14,5 km/h (3 Bft) 95,65 %
05.01.2018 00:39 7,4 C 3,9 C 98 % 998,1 hPa 0,0 l/m 8,0 km/h (2 Bft) W 270 0 min 0,000 mm 0,0 UV-I 0 W/m 7,1 C 6,1 C 12,9 km/h (3 Bft) 100,00 %
05.01.2018 00:40 7,5 C 3,9 C 98 % 998,1 hPa 0,0 l/m 12,9 km/h (3 Bft) W 270 0 min 0,000 mm 0,0 UV-I 0 W/m 7,2 C 3,1 C 14,5 km/h (3 Bft) 95,65 %
05.01.2018 00:41 7,5 C 3,9 C 98 % 998,1 hPa 0,0 l/m 6,4 km/h (2 Bft) W-SW 247 0 min 0,000 mm 0,0 UV-I 0 W/m 7,2 C 7,5 C 8,0 km/h (2 Bft) 95,65 %
05.01.2018 00:42 7,6 C 3,9 C 98 % 998,1 hPa 0,0 l/m 9,7 km/h (2 Bft) W-SW 247 0 min 0,000 mm 0,0 UV-I 0 W/m 7,3 C 5,1 C 12,9 km/h (3 Bft) 95,65 %
05.01.2018 00:43 7,7 C 3,9 C 98 % 998,1 hPa 0,0 l/m 6,4 km/h (2 Bft) W 270 0 min 0,000 mm 0,0 UV-I 0 W/m 7,4 C 7,7 C 14,5 km/h (3 Bft) 100,00 %
05.01.2018 00:44 7,8 C 3,9 C 98 % 998,0 hPa 0,0 l/m 16,1 km/h (3 Bft) W-SW 247 0 min 0,000 mm 0,0 UV-I 0 W/m 7,5 C 2,0 C 25,7 km/h (4 Bft) 95,65 %
05.01.2018 00:45 8,0 C 3,9 C 98 % 998,0 hPa 0,0 l/m 12,9 km/h (3 Bft) W-SW 247 0 min 0,000 mm 0,0 UV-I 0 W/m 7,7 C 3,7 C 17,7 km/h (3 Bft) 95,65 %
05.01.2018 00:46 8,1 C 3,9 C 98 % 998,1 hPa 0,0 l/m 11,3 km/h (2 Bft) W-SW 247 0 min 0,000 mm 0,0 UV-I 0 W/m 7,8 C 4,7 C 16,1 km/h (3 Bft) 100,00 %
05.01.2018 00:47 8,1 C 3,9 C 98 % 998,1 hPa 0,0 l/m 8,0 km/h (2 Bft) SW 225 0 min 0,000 mm 0,0 UV-I 0 W/m 7,8 C 6,9 C 12,9 km/h (3 Bft) 100,00 %
05.01.2018 00:48 8,1 C 3,9 C 98 % 998,0 hPa 0,0 l/m 9,7 km/h (2 Bft) W-SW 247 0 min 0,000 mm 0,0 UV-I 0 W/m 7,8 C 5,7 C 14,5 km/h (3 Bft) 95,65 %
05.01.2018 00:49 8,1 C 3,9 C 98 % 998,1 hPa 0,0 l/m 16,1 km/h (3 Bft) W 270 0 min 0,000 mm 0,0 UV-I 0 W/m 7,8 C 2,3 C 29,0 km/h (5 Bft) 95,65 %
05.01.2018 00:50 8,3 C 3,9 C 98 % 998,0 hPa 0,0 l/m 16,1 km/h (3 Bft) W-SW 247 0 min 0,000 mm 0,0 UV-I 0 W/m 8,0 C 2,6 C 20,9 km/h (4 Bft) 100,00 %
05.01.2018 00:51 8,5 C 3,9 C 98 % 998,1 hPa 0,0 l/m 16,1 km/h (3 Bft) W-SW 247 0 min 0,000 mm 0,0 UV-I 0 W/m 8,2 C 2,8 C 20,9 km/h (4 Bft) 100,00 %
05.01.2018 00:52 8,7 C 3,9 C 98 % 998,0 hPa 0,0 l/m 17,7 km/h (3 Bft) W-SW 247 0 min 0,000 mm 0,0 UV-I 0 W/m 8,4 C 2,4 C 27,4 km/h (4 Bft) 100,00 %
05.01.2018 00:53 8,8 C 3,9 C 98 % 998,0 hPa 0,0 l/m 17,7 km/h (3 Bft) W-SW 247 0 min 0,000 mm 0,0 UV-I 0 W/m 8,5 C 2,6 C 22,5 km/h (4 Bft) 100,00 %
05.01.2018 00:54 8,9 C 3,9 C 98 % 998,0 hPa 0,0 l/m 16,1 km/h (3 Bft) SW 225 0 min 0,000 mm 0,0 UV-I 0 W/m 8,6 C 3,3 C 20,9 km/h (4 Bft) 95,65 %
05.01.2018 00:55 9,1 C 3,9 C 98 % 997,9 hPa 0,0 l/m 22,5 km/h (4 Bft) W-SW 247 0 min 0,000 mm 0,0 UV-I 0 W/m 8,8 C 1,3 C 30,6 km/h (5 Bft) 95,65 %
05.01.2018 00:56 9,2 C 3,9 C 97 % 997,9 hPa 0,0 l/m 22,5 km/h (4 Bft) SW 225 0 min 0,000 mm 0,0 UV-I 0 W/m 8,7 C 1,5 C 30,6 km/h (5 Bft) 95,65 %
05.01.2018 00:57 9,3 C 3,9 C 97 % 998,0 hPa 0,0 l/m 20,9 km/h (4 Bft) SW 225 0 min 0,000 mm 0,0 UV-I 0 W/m 8,8 C 2,1 C 27,4 km/h (4 Bft) 100,00 %
05.01.2018 00:58 9,4 C 3,9 C 97 % 998,0 hPa 0,0 l/m 19,3 km/h (3 Bft) SW 225 0 min 0,000 mm 0,0 UV-I 0 W/m 8,9 C 2,7 C 32,2 km/h (5 Bft) 100,00 %
05.01.2018 00:59 9,5 C 3,9 C 97 % 997,9 hPa 0,0 l/m 25,7 km/h (4 Bft) SW 225 0 min 0,000 mm 0,0 UV-I 0 W/m 9,0 C 1,0 C 37,0 km/h (5 Bft) 100,00 %
05.01.2018 01:00 9,7 C 3,9 C 96 % 998,0 hPa 0,0 l/m 24,1 km/h (4 Bft) W-SW 247 0 min 0,000 mm 0,0 UV-I 0 W/m 9,1 C 1,7 C 38,6 km/h (5 Bft) 100,00 %
05.01.2018 01:01 9,7 C 3,9 C 96 % 998,0 hPa 0,0 l/m 20,9 km/h (4 Bft) W-SW 247 0 min 0,000 mm 0,0 UV-I 0 W/m 9,1 C 2,6 C 30,6 km/h (5 Bft) 100,00 %
05.01.2018 01:02 9,8 C 3,9 C 96 % 997,9 hPa 0,0 l/m 22,5 km/h (4 Bft) W-SW 247 0 min 0,000 mm 0,0 UV-I 0 W/m 9,2 C 2,3 C 32,2 km/h (5 Bft) 95,65 %
05.01.2018 01:03 9,8 C 3,9 C 95 % 997,9 hPa 0,0 l/m 24,1 km/h (4 Bft) SW 225 0 min 0,000 mm 0,0 UV-I 0 W/m 9,0 C 1,8 C 32,2 km/h (5 Bft) 100,00 %
05.01.2018 01:04 9,9 C 3,9 C 95 % 997,9 hPa 0,0 l/m 25,7 km/h (4 Bft) W-SW 247 0 min 0,000 mm 0,0 UV-I 0 W/m 9,1 C 1,5 C 37,0 km/h (5 Bft) 100,00 %
05.01.2018 01:05 10,1 C 3,9 C 95 % 997,8 hPa 0,0 l/m 25,7 km/h (4 Bft) W-SW 247 0 min 0,000 mm 0,0 UV-I 0 W/m 9,3 C 1,8 C 33,8 km/h (5 Bft) 100,00 %
05.01.2018 01:06 10,1 C 3,9 C 94 % 997,8 hPa 0,0 l/m 30,6 km/h (5 Bft) W-SW 247 0 min 0,000 mm 0,0 UV-I 0 W/m 9,2 C 0,7 C 41,8 km/h (6 Bft) 100,00 %
05.01.2018 01:07 10,2 C 3,9 C 94 % 997,9 hPa 0,0 l/m 25,7 km/h (4 Bft) SW 225 0 min 0,000 mm 0,0 UV-I 0 W/m 9,3 C 1,9 C 40,2 km/h (6 Bft) 100,00 %
05.01.2018 01:08 10,2 C 3,9 C 93 % 997,8 hPa 0,0 l/m 30,6 km/h (5 Bft) SW 225 0 min 0,000 mm 0,0 UV-I 0 W/m 9,1 C 0,8 C 38,6 km/h (5 Bft) 100,00 %
05.01.2018 01:09 10,3 C 3,9 C 92 % 997,9 hPa 0,0 l/m 25,7 km/h (4 Bft) SW 225 0 min 0,000 mm 0,0 UV-I 0 W/m 9,1 C 2,1 C 40,2 km/h (6 Bft) 91,30 %
05.01.2018 01:10 10,3 C 3,9 C 92 % 997,8 hPa 0,0 l/m 29,0 km/h (5 Bft) W-SW 247 0 min 0,000 mm 0,0 UV-I 0 W/m 9,1 C 1,3 C 45,1 km/h (6 Bft) 100,00 %
05.01.2018 01:11 10,3 C 3,9 C 92 % 997,9 hPa 0,0 l/m 27,4 km/h (4 Bft) SW 225 0 min 0,000 mm 0,0 UV-I 0 W/m 9,1 C 1,7 C 41,8 km/h (6 Bft) 100,00 %
05.01.2018 01:12 10,3 C 3,9 C 91 % 998,0 hPa 0,0 l/m 24,1 km/h (4 Bft) SW 225 0 min 0,000 mm 0,0 UV-I 0 W/m 8,9 C 2,5 C 30,6 km/h (5 Bft) 100,00 %
05.01.2018 01:13 10,4 C 3,9 C 91 % 998,0 hPa 0,0 l/m 25,7 km/h (4 Bft) W-SW 247 0 min 0,000 mm 0,0 UV-I 0 W/m 9,0 C 2,2 C 37,0 km/h (5 Bft) 95,65 %
05.01.2018 01:14 10,4 C 3,9 C 91 % 997,9 hPa 0,0 l/m 25,7 km/h (4 Bft) SW 225 0 min 0,000 mm 0,0 UV-I 0 W/m 9,0 C 2,2 C 45,1 km/h (6 Bft) 100,00 %
05.01.2018 01:15 10,4 C 3,9 C 91 % 998,0 hPa 0,0 l/m 30,6 km/h (5 Bft) W-SW 247 0 min 0,000 mm 0,0 UV-I 0 W/m 9,0 C 1,1 C 41,8 km/h (6 Bft) 100,00 %
05.01.2018 01:16 10,4 C 3,9 C 90 % 997,9 hPa 0,0 l/m 37,0 km/h (5 Bft) SW 225 0 min 0,000 mm 0,0 UV-I 0 W/m 8,8 C -0,1 C 48,3 km/h (6 Bft) 95,65 %
05.01.2018 01:17 10,5 C 3,9 C 90 % 997,9 hPa 0,0 l/m 32,2 km/h (5 Bft) SW 225 0 min 0,000 mm 0,0 UV-I 0 W/m 8,9 C 0,9 C 48,3 km/h (6 Bft) 100,00 %
05.01.2018 01:18 10,6 C 3,9 C 90 % 997,9 hPa 0,0 l/m 32,2 km/h (5 Bft) SW 225 0 min 0,000 mm 0,0 UV-I 0 W/m 9,0 C 1,1 C 49,9 km/h (6 Bft) 100,00 %
05.01.2018 01:19 10,6 C 3,9 C 89 % 998,0 hPa 0,0 l/m 25,7 km/h (4 Bft) W-SW 247 0 min 0,000 mm 0,0 UV-I 0 W/m 8,9 C 2,5 C 37,0 km/h (5 Bft) 100,00 %
05.01.2018 01:20 10,6 C 3,9 C 89 % 998,2 hPa 0,0 l/m 30,6 km/h (5 Bft) W-SW 247 0 min 0,000 mm 0,0 UV-I 0 W/m 8,9 C 1,4 C 37,0 km/h (5 Bft) 100,00 %
05.01.2018 01:21 10,6 C 3,9 C 89 % 998,4 hPa 0,0 l/m 29,0 km/h (5 Bft) W 270 0 min 0,000 mm 0,0 UV-I 0 W/m 8,9 C 1,7 C 38,6 km/h (5 Bft) 95,65 %
05.01.2018 01:22 10,5 C 3,9 C 89 % 998,7 hPa 0,6 l/m 29,0 km/h (5 Bft) W-SW 247 0 min 0,000 mm 0,0 UV-I 0 W/m 8,8 C 1,6 C 38,6 km/h (5 Bft) 100,00 %
05.01.2018 01:23 10,4 C 3,9 C 90 % 999,1 hPa 0,2 l/m 19,3 km/h (3 Bft) W 270 0 min 0,000 mm 0,0 UV-I 0 W/m 8,8 C 4,0 C 33,8 km/h (5 Bft) 95,65 %
05.01.2018 01:24 10,3 C 3,9 C 91 % 999,4 hPa 0,0 l/m 29,0 km/h (5 Bft) W 270 0 min 0,000 mm 0,0 UV-I 0 W/m 8,9 C 1,3 C 43,5 km/h (6 Bft) 95,65 %
05.01.2018 01:25 10,2 C 3,9 C 91 % 999,5 hPa 0,2 l/m 24,1 km/h (4 Bft) W 270 0 min 0,000 mm 0,0 UV-I 0 W/m 8,8 C 2,3 C 46,7 km/h (6 Bft) 100,00 %
05.01.2018 01:26 10,1 C 3,9 C 91 % 999,6 hPa 0,0 l/m 24,1 km/h (4 Bft) W 270 0 min 0,000 mm 0,0 UV-I 0 W/m 8,7 C 2,2 C 35,4 km/h (5 Bft) 95,65 %
05.01.2018 01:27 9,9 C 3,9 C 91 % 999,5 hPa 0,0 l/m 27,4 km/h (4 Bft) W-SW 247 0 min 0,000 mm 0,0 UV-I 0 W/m 8,5 C 1,1 C 43,5 km/h (6 Bft) 100,00 %
05.01.2018 01:28 9,9 C 3,9 C 91 % 999,6 hPa 0,0 l/m 22,5 km/h (4 Bft) W-SW 247 0 min 0,000 mm 0,0 UV-I 0 W/m 8,5 C 2,4 C 49,9 km/h (6 Bft) 100,00 %
05.01.2018 01:29 9,8 C 3,9 C 91 % 999,7 hPa 0,0 l/m 14,5 km/h (3 Bft) W 270 0 min 0,000 mm 0,0 UV-I 0 W/m 8,4 C 5,1 C 49,9 km/h (6 Bft) 100,00 %
05.01.2018 01:30 9,7 C 3,9 C 92 % 999,8 hPa 0,2 l/m 12,9 km/h (3 Bft) W 270 0 min 0,000 mm 0,0 UV-I 0 W/m 8,5 C 5,7 C 22,5 km/h (4 Bft) 95,65 %
05.01.2018 01:31 9,6 C 3,9 C 92 % 999,9 hPa 0,0 l/m 14,5 km/h (3 Bft) W 270 0 min 0,000 mm 0,0 UV-I 0 W/m 8,4 C 4,9 C 22,5 km/h (4 Bft) 100,00 %
05.01.2018 01:32 9,4 C 3,9 C 92 % 999,9 hPa 0,0 l/m 11,3 km/h (2 Bft) W-NW 292 0 min 0,000 mm 0,0 UV-I 0 W/m 8,2 C 6,2 C 17,7 km/h (3 Bft) 100,00 %
05.01.2018 01:33 9,3 C 3,9 C 92 % 999,8 hPa 0,0 l/m 6,4 km/h (2 Bft) W 270 0 min 0,000 mm 0,0 UV-I 0 W/m 8,1 C 9,3 C 11,3 km/h (2 Bft) 100,00 %
05.01.2018 01:34 9,2 C 3,9 C 93 % 999,8 hPa 0,0 l/m 9,7 km/h (2 Bft) W 270 0 min 0,000 mm 0,0 UV-I 0 W/m 8,1 C 6,9 C 14,5 km/h (3 Bft) 95,65 %
05.01.2018 01:35 9,1 C 3,9 C 93 % 1000,1 hPa 0,2 l/m 8,0 km/h (2 Bft) W-SW 247 0 min 0,000 mm 0,0 UV-I 0 W/m 8,0 C 7,9 C 16,1 km/h (3 Bft) 100,00 %
05.01.2018 01:36 9,0 C 3,9 C 94 % 1000,0 hPa 0,0 l/m 6,4 km/h (2 Bft) W-SW 247 0 min 0,000 mm 0,0 UV-I 0 W/m 8,1 C 9,0 C 14,5 km/h (3 Bft) 100,00 %
05.01.2018 01:37 9,0 C 3,9 C 94 % 1000,0 hPa 0,2 l/m 11,3 km/h (2 Bft) W 270 0 min 0,000 mm 0,0 UV-I 0 W/m 8,1 C 5,7 C 16,1 km/h (3 Bft) 95,65 %
05.01.2018 01:38 8,9 C 3,9 C 94 % 1000,0 hPa 0,0 l/m 12,9 km/h (3 Bft) W-NW 292 0 min 0,000 mm 0,0 UV-I 0 W/m 8,0 C 4,8 C 19,3 km/h (3 Bft) 95,65 %
05.01.2018 01:39 8,9 C 3,9 C 94 % 999,9 hPa 0,2 l/m 8,0 km/h (2 Bft) W-SW 247 0 min 0,000 mm 0,0 UV-I 0 W/m 8,0 C 7,7 C 12,9 km/h (3 Bft) 100,00 %
05.01.2018 01:40 8,9 C 3,9 C 94 % 999,9 hPa 0,0 l/m 12,9 km/h (3 Bft) W 270 0 min 0,000 mm 0,0 UV-I 0 W/m 8,0 C 4,8 C 20,9 km/h (4 Bft) 95,65 %
05.01.2018 01:41 8,9 C 3,9 C 95 % 999,9 hPa 0,2 l/m 12,9 km/h (3 Bft) W 270 0 min 0,000 mm 0,0 UV-I 0 W/m 8,1 C 4,8 C 20,9 km/h (4 Bft) 100,00 %
05.01.2018 01:42 8,9 C 3,9 C 95 % 1000,0 hPa 0,0 l/m 3,2 km/h (1 Bft) W 270 0 min 0,000 mm 0,0 UV-I 0 W/m 8,1 C 8,9 C 3,2 km/h (1 Bft) 100,00 %
05.01.2018 01:43 8,8 C 3,9 C 95 % 999,9 hPa 0,2 l/m 3,2 km/h (1 Bft) W-SW 247 0 min 0,000 mm 0,0 UV-I 0 W/m 8,0 C 8,8 C 4,8 km/h (1 Bft) 100,00 %
05.01.2018 01:44 8,8 C 3,9 C 95 % 999,8 hPa 0,0 l/m 4,8 km/h (1 Bft) W-NW 292 0 min 0,000 mm 0,0 UV-I 0 W/m 8,0 C 8,8 C 6,4 km/h (2 Bft) 95,65 %
05.01.2018 01:45 8,8 C 3,9 C 95 % 999,8 hPa 0,0 l/m 4,8 km/h (1 Bft) W-NW 292 0 min 0,000 mm 0,0 UV-I 0 W/m 8,0 C 8,8 C 11,3 km/h (2 Bft) 100,00 %
05.01.2018 01:46 8,8 C 3,9 C 95 % 999,8 hPa 0,0 l/m 8,0 km/h (2 Bft) W 270 0 min 0,000 mm 0,0 UV-I 0 W/m 8,0 C 7,6 C 12,9 km/h (3 Bft) 100,00 %
05.01.2018 01:47 8,7 C 3,9 C 95 % 1000,0 hPa 0,0 l/m 6,4 km/h (2 Bft) W-NW 292 0 min 0,000 mm 0,0 UV-I 0 W/m 7,9 C 8,7 C 12,9 km/h (3 Bft) 91,30 %
05.01.2018 01:48 8,7 C 3,9 C 95 % 1000,1 hPa 0,2 l/m 4,8 km/h (1 Bft) W-SW 247 0 min 0,000 mm 0,0 UV-I 0 W/m 7,9 C 8,7 C 8,0 km/h (2 Bft) 95,65 %
05.01.2018 01:49 8,7 C 3,9 C 95 % 1000,1 hPa 0,0 l/m 8,0 km/h (2 Bft) W 270 0 min 0,000 mm 0,0 UV-I 0 W/m 7,9 C 7,5 C 11,3 km/h (2 Bft) 91,30 %
05.01.2018 01:50 8,7 C 3,9 C 95 % 1000,0 hPa 0,0 l/m 4,8 km/h (1 Bft) W-NW 292 0 min 0,000 mm 0,0 UV-I 0 W/m 7,9 C 8,7 C 12,9 km/h (3 Bft) 100,00 %
05.01.2018 01:51 8,6 C 3,9 C 95 % 999,9 hPa 0,0 l/m 8,0 km/h (2 Bft) W 270 0 min 0,000 mm 0,0 UV-I 0 W/m 7,8 C 7,4 C 11,3 km/h (2 Bft) 86,96 %
05.01.2018 01:52 8,6 C 3,9 C 95 % 1000,0 hPa 0,2 l/m 8,0 km/h (2 Bft) W-SW 247 0 min 0,000 mm 0,0 UV-I 0 W/m 7,8 C 7,4 C 17,7 km/h (3 Bft) 100,00 %
05.01.2018 01:53 8,6 C 3,9 C 95 % 1000,0 hPa 0,0 l/m 12,9 km/h (3 Bft) W 270 0 min 0,000 mm 0,0 UV-I 0 W/m 7,8 C 4,4 C 14,5 km/h (3 Bft) 91,30 %
05.01.2018 01:54 8,6 C 3,9 C 95 % 1000,0 hPa 0,0 l/m 8,0 km/h (2 Bft) W-SW 247 0 min 0,000 mm 0,0 UV-I 0 W/m 7,8 C 7,4 C 12,9 km/h (3 Bft) 91,30 %
05.01.2018 01:55 8,6 C 3,9 C 95 % 1000,0 hPa 0,0 l/m 9,7 km/h (2 Bft) W 270 0 min 0,000 mm 0,0 UV-I 0 W/m 7,8 C 6,2 C 11,3 km/h (2 Bft) 95,65 %
05.01.2018 01:56 8,6 C 3,9 C 95 % 1000,1 hPa 0,0 l/m 4,8 km/h (1 Bft) W-NW 292 0 min 0,000 mm 0,0 UV-I 0 W/m 7,8 C 8,6 C 9,7 km/h (2 Bft) 95,65 %
05.01.2018 01:57 8,6 C 3,9 C 95 % 1000,1 hPa 0,0 l/m 8,0 km/h (2 Bft) W 270 0 min 0,000 mm 0,0 UV-I 0 W/m 7,8 C 7,4 C 14,5 km/h (3 Bft) 95,65 %
05.01.2018 01:58 8,6 C 3,9 C 96 % 1000,1 hPa 0,0 l/m 8,0 km/h (2 Bft) W 270 0 min 0,000 mm 0,0 UV-I 0 W/m 8,0 C 7,4 C 12,9 km/h (3 Bft) 91,30 %
05.01.2018 01:59 8,5 C 3,9 C 96 % 1000,2 hPa 0,0 l/m 9,7 km/h (2 Bft) W-SW 247 0 min 0,000 mm 0,0 UV-I 0 W/m 7,9 C 6,1 C 12,9 km/h (3 Bft) 95,65 %
05.01.2018 02:00 8,5 C 3,9 C 96 % 1000,2 hPa 0,2 l/m 8,0 km/h (2 Bft) W-SW 247 0 min 0,025 mm 0,0 UV-I 0 W/m 7,9 C 7,3 C 11,3 km/h (2 Bft) 95,65 %
05.01.2018 02:01 8,5 C 3,9 C 96 % 1000,2 hPa 0,0 l/m 6,4 km/h (2 Bft) W-SW 247 0 min 0,000 mm 0,0 UV-I 0 W/m 7,9 C 8,5 C 9,7 km/h (2 Bft) 95,65 %
05.01.2018 02:02 8,5 C 3,9 C 96 % 1000,1 hPa 0,0 l/m 8,0 km/h (2 Bft) SW 225 0 min 0,000 mm 0,0 UV-I 0 W/m 7,9 C 7,3 C 11,3 km/h (2 Bft) 95,65 %
05.01.2018 02:03 8,5 C 3,9 C 96 % 1000,2 hPa 0,0 l/m 6,4 km/h (2 Bft) W 270 0 min 0,000 mm 0,0 UV-I 0 W/m 7,9 C 8,5 C 9,7 km/h (2 Bft) 91,30 %
05.01.2018 02:04 8,4 C 3,9 C 96 % 1000,2 hPa 0,0 l/m 8,0 km/h (2 Bft) W-SW 247 0 min 0,000 mm 0,0 UV-I 0 W/m 7,8 C 7,2 C 11,3 km/h (2 Bft) 86,96 %
05.01.2018 02:05 8,4 C 3,9 C 96 % 1000,1 hPa 0,0 l/m 6,4 km/h (2 Bft) SW 225 0 min 0,000 mm 0,0 UV-I 0 W/m 7,8 C 8,4 C 9,7 km/h (2 Bft) 91,30 %
05.01.2018 02:06 8,4 C 3,9 C 96 % 1000,1 hPa 0,2 l/m 8,0 km/h (2 Bft) SW 225 0 min 0,000 mm 0,0 UV-I 0 W/m 7,8 C 7,2 C 11,3 km/h (2 Bft) 95,65 %
05.01.2018 02:07 8,4 C 3,9 C 96 % 1000,1 hPa 0,0 l/m 6,4 km/h (2 Bft) W-SW 247 0 min 0,000 mm 0,0 UV-I 0 W/m 7,8 C 8,4 C 8,0 km/h (2 Bft) 95,65 %
05.01.2018 02:08 8,4 C 3,9 C 96 % 1000,2 hPa 0,0 l/m 4,8 km/h (1 Bft) W-SW 247 0 min 0,000 mm 0,0 UV-I 0 W/m 7,8 C 8,4 C 6,4 km/h (2 Bft) 91,30 %
05.01.2018 02:09 8,4 C 3,9 C 96 % 1000,1 hPa 0,0 l/m 4,8 km/h (1 Bft) W-SW 247 0 min 0,000 mm 0,0 UV-I 0 W/m 7,8 C 8,4 C 6,4 km/h (2 Bft) 91,30 %
05.01.2018 02:10 8,4 C 3,9 C 96 % 1000,2 hPa 0,0 l/m 6,4 km/h (2 Bft) SW 225 0 min 0,000 mm 0,0 UV-I 0 W/m 7,8 C 8,4 C 9,7 km/h (2 Bft) 95,65 %
05.01.2018 02:11 8,3 C 3,9 C 96 % 1000,2 hPa 0,0 l/m 8,0 km/h (2 Bft) S-SW 202 0 min 0,000 mm 0,0 UV-I 0 W/m 7,7 C 7,1 C 12,9 km/h (3 Bft) 95,65 %
05.01.2018 02:12 8,3 C 3,9 C 96 % 1000,2 hPa 0,0 l/m 6,4 km/h (2 Bft) W-SW 247 0 min 0,000 mm 0,0 UV-I 0 W/m 7,7 C 8,3 C 8,0 km/h (2 Bft) 91,30 %
05.01.2018 02:13 8,3 C 3,9 C 96 % 1000,4 hPa 0,0 l/m 6,4 km/h (2 Bft) W-SW 247 0 min 0,000 mm 0,0 UV-I 0 W/m 7,7 C 8,3 C 8,0 km/h (2 Bft) 100,00 %
05.01.2018 02:14 8,3 C 3,9 C 96 % 1000,4 hPa 0,0 l/m 6,4 km/h (2 Bft) SW 225 0 min 0,000 mm 0,0 UV-I 0 W/m 7,7 C 8,3 C 8,0 km/h (2 Bft) 95,65 %
05.01.2018 02:15 8,3 C 3,9 C 96 % 1000,4 hPa 0,0 l/m 8,0 km/h (2 Bft) SW 225 0 min 0,000 mm 0,0 UV-I 0 W/m 7,7 C 7,1 C 12,9 km/h (3 Bft) 100,00 %
05.01.2018 02:16 8,3 C 3,9 C 96 % 1000,5 hPa 0,0 l/m 8,0 km/h (2 Bft) SW 225 0 min 0,000 mm 0,0 UV-I 0 W/m 7,7 C 7,1 C 11,3 km/h (2 Bft) 91,30 %
05.01.2018 02:17 8,3 C 3,9 C 96 % 1000,5 hPa 0,0 l/m 8,0 km/h (2 Bft) SW 225 0 min 0,000 mm 0,0 UV-I 0 W/m 7,7 C 7,1 C 12,9 km/h (3 Bft) 100,00 %
05.01.2018 02:18 8,3 C 3,9 C 96 % 1000,5 hPa 0,0 l/m 8,0 km/h (2 Bft) S-SW 202 0 min 0,000 mm 0,0 UV-I 0 W/m 7,7 C 7,1 C 12,9 km/h (3 Bft) 95,65 %
05.01.2018 02:19 8,3 C 3,9 C 96 % 1000,6 hPa 0,2 l/m 11,3 km/h (2 Bft) S-SW 202 0 min 0,000 mm 0,0 UV-I 0 W/m 7,7 C 4,9 C 17,7 km/h (3 Bft) 95,65 %
05.01.2018 02:20 8,3 C 3,9 C 96 % 1000,5 hPa 0,0 l/m 12,9 km/h (3 Bft) S-SW 202 0 min 0,000 mm 0,0 UV-I 0 W/m 7,7 C 4,1 C 16,1 km/h (3 Bft) 95,65 %
05.01.2018 02:21 8,3 C 3,9 C 96 % 1000,6 hPa 0,0 l/m 11,3 km/h (2 Bft) SW 225 0 min 0,000 mm 0,0 UV-I 0 W/m 7,7 C 4,9 C 16,1 km/h (3 Bft) 91,30 %
05.01.2018 02:22 8,3 C 3,9 C 96 % 1000,6 hPa 0,2 l/m 9,7 km/h (2 Bft) W-SW 247 0 min 0,000 mm 0,0 UV-I 0 W/m 7,7 C 5,9 C 14,5 km/h (3 Bft) 100,00 %
05.01.2018 02:23 8,3 C 3,9 C 96 % 1000,6 hPa 0,0 l/m 9,7 km/h (2 Bft) SW 225 0 min 0,000 mm 0,0 UV-I 0 W/m 7,7 C 5,9 C 12,9 km/h (3 Bft) 95,65 %
05.01.2018 02:24 8,3 C 3,9 C 96 % 1000,7 hPa 0,0 l/m 9,7 km/h (2 Bft) W-SW 247 0 min 0,000 mm 0,0 UV-I 0 W/m 7,7 C 5,9 C 12,9 km/h (3 Bft) 95,65 %
05.01.2018 02:25 8,2 C 3,9 C 96 % 1000,7 hPa 0,0 l/m 9,7 km/h (2 Bft) SW 225 0 min 0,000 mm 0,0 UV-I 0 W/m 7,6 C 5,8 C 12,9 km/h (3 Bft) 100,00 %
05.01.2018 02:26 8,3 C 3,9 C 96 % 1000,6 hPa 0,2 l/m 17,7 km/h (3 Bft) W-SW 247 0 min 0,000 mm 0,0 UV-I 0 W/m 7,7 C 1,9 C 25,7 km/h (4 Bft) 95,65 %
05.01.2018 02:27 8,3 C 3,9 C 96 % 1000,5 hPa 0,0 l/m 22,5 km/h (4 Bft) SW 225 0 min 0,000 mm 0,0 UV-I 0 W/m 7,7 C 0,3 C 32,2 km/h (5 Bft) 100,00 %
05.01.2018 02:28 8,4 C 3,9 C 97 % 1000,7 hPa 0,0 l/m 16,1 km/h (3 Bft) SW 225 0 min 0,000 mm 0,0 UV-I 0 W/m 8,0 C 2,7 C 19,3 km/h (3 Bft) 100,00 %
05.01.2018 02:29 8,5 C 3,9 C 97 % 1000,7 hPa 0,0 l/m 17,7 km/h (3 Bft) W 270 0 min 0,000 mm 0,0 UV-I 0 W/m 8,1 C 2,2 C 24,1 km/h (4 Bft) 100,00 %
05.01.2018 02:30 8,6 C 3,9 C 97 % 1000,7 hPa 0,0 l/m 12,9 km/h (3 Bft) W 270 0 min 0,000 mm 0,0 UV-I 0 W/m 8,2 C 4,4 C 19,3 km/h (3 Bft) 100,00 %
05.01.2018 02:31 8,6 C 3,9 C 96 % 1000,6 hPa 0,2 l/m 17,7 km/h (3 Bft) W-SW 247 0 min 0,000 mm 0,0 UV-I 0 W/m 8,0 C 2,3 C 32,2 km/h (5 Bft) 100,00 %
05.01.2018 02:32 8,7 C 3,9 C 96 % 1000,7 hPa 0,0 l/m 25,7 km/h (4 Bft) W-SW 247 0 min 0,000 mm 0,0 UV-I 0 W/m 8,1 C -0,1 C 32,2 km/h (5 Bft) 100,00 %
05.01.2018 02:33 8,8 C 3,9 C 97 % 1000,7 hPa 0,0 l/m 16,1 km/h (3 Bft) W-SW 247 0 min 0,000 mm 0,0 UV-I 0 W/m 8,4 C 3,2 C 19,3 km/h (3 Bft) 95,65 %
05.01.2018 02:34 8,9 C 3,9 C 96 % 1000,6 hPa 0,0 l/m 16,1 km/h (3 Bft) W-SW 247 0 min 0,000 mm 0,0 UV-I 0 W/m 8,3 C 3,3 C 24,1 km/h (4 Bft) 100,00 %
05.01.2018 02:35 9,0 C 3,9 C 96 % 1000,6 hPa 0,0 l/m 14,5 km/h (3 Bft) W-SW 247 0 min 0,000 mm 0,0 UV-I 0 W/m 8,4 C 4,1 C 19,3 km/h (3 Bft) 100,00 %
05.01.2018 02:36 9,0 C 3,9 C 96 % 1000,6 hPa 0,0 l/m 17,7 km/h (3 Bft) W 270 0 min 0,000 mm 0,0 UV-I 0 W/m 8,4 C 2,8 C 22,5 km/h (4 Bft) 100,00 %
05.01.2018 02:37 9,1 C 3,9 C 96 % 1000,6 hPa 0,0 l/m 16,1 km/h (3 Bft) W-SW 247 0 min 0,000 mm 0,0 UV-I 0 W/m 8,5 C 3,6 C 22,5 km/h (4 Bft) 95,65 %
05.01.2018 02:38 9,2 C 3,9 C 96 % 1000,5 hPa 0,0 l/m 19,3 km/h (3 Bft) SW 225 0 min 0,000 mm 0,0 UV-I 0 W/m 8,6 C 2,5 C 33,8 km/h (5 Bft) 95,65 %
05.01.2018 02:39 9,2 C 3,9 C 95 % 1000,4 hPa 0,0 l/m 20,9 km/h (4 Bft) W-SW 247 0 min 0,000 mm 0,0 UV-I 0 W/m 8,4 C 2,0 C 35,4 km/h (5 Bft) 100,00 %
05.01.2018 02:40 9,3 C 3,9 C 95 % 1000,3 hPa 0,0 l/m 19,3 km/h (3 Bft) W-SW 247 0 min 0,000 mm 0,0 UV-I 0 W/m 8,5 C 2,6 C 27,4 km/h (4 Bft) 100,00 %
05.01.2018 02:41 9,4 C 3,9 C 95 % 1000,4 hPa 0,0 l/m 19,3 km/h (3 Bft) W-SW 247 0 min 0,000 mm 0,0 UV-I 0 W/m 8,6 C 2,7 C 22,5 km/h (4 Bft) 95,65 %
05.01.2018 02:42 9,5 C 3,9 C 94 % 1000,6 hPa 0,0 l/m 27,4 km/h (4 Bft) W-SW 247 0 min 0,000 mm 0,0 UV-I 0 W/m 8,6 C 0,5 C 40,2 km/h (6 Bft) 100,00 %
05.01.2018 02:43 9,6 C 3,9 C 94 % 1000,6 hPa 0,0 l/m 30,6 km/h (5 Bft) W-SW 247 0 min 0,000 mm 0,0 UV-I 0 W/m 8,7 C -0,0 C 48,3 km/h (6 Bft) 100,00 %
05.01.2018 02:44 9,7 C 3,9 C 94 % 1000,6 hPa 0,0 l/m 24,1 km/h (4 Bft) W-SW 247 0 min 0,000 mm 0,0 UV-I 0 W/m 8,8 C 1,7 C 35,4 km/h (5 Bft) 100,00 %
05.01.2018 02:45 9,7 C 3,9 C 93 % 1000,6 hPa 0,0 l/m 29,0 km/h (5 Bft) W 270 0 min 0,000 mm 0,0 UV-I 0 W/m 8,6 C 0,5 C 40,2 km/h (6 Bft) 100,00 %
05.01.2018 02:46 9,8 C 3,9 C 93 % 1000,7 hPa 0,0 l/m 25,7 km/h (4 Bft) W-SW 247 0 min 0,000 mm 0,0 UV-I 0 W/m 8,7 C 1,4 C 41,8 km/h (6 Bft) 95,65 %
05.01.2018 02:47 9,8 C 3,9 C 92 % 1000,8 hPa 0,0 l/m 29,0 km/h (5 Bft) W-SW 247 0 min 0,000 mm 0,0 UV-I 0 W/m 8,6 C 0,6 C 37,0 km/h (5 Bft) 95,65 %
05.01.2018 02:48 9,8 C 3,9 C 91 % 1000,8 hPa 0,0 l/m 19,3 km/h (3 Bft) W-SW 247 0 min 0,000 mm 0,0 UV-I 0 W/m 8,4 C 3,3 C 25,7 km/h (4 Bft) 100,00 %
05.01.2018 02:49 9,9 C 3,9 C 91 % 1000,9 hPa 0,0 l/m 16,1 km/h (3 Bft) W-SW 247 0 min 0,000 mm 0,0 UV-I 0 W/m 8,5 C 4,6 C 20,9 km/h (4 Bft) 100,00 %
05.01.2018 02:50 9,9 C 3,9 C 91 % 1001,0 hPa 0,0 l/m 22,5 km/h (4 Bft) W-SW 247 0 min 0,000 mm 0,0 UV-I 0 W/m 8,5 C 2,4 C 33,8 km/h (5 Bft) 100,00 %
05.01.2018 02:51 9,8 C 3,9 C 90 % 1001,0 hPa 0,0 l/m 24,1 km/h (4 Bft) W-SW 247 0 min 0,000 mm 0,0 UV-I 0 W/m 8,2 C 1,8 C 35,4 km/h (5 Bft) 100,00 %
05.01.2018 02:52 9,8 C 3,9 C 90 % 1001,0 hPa 0,2 l/m 33,8 km/h (5 Bft) W 270 0 min 0,000 mm 0,0 UV-I 0 W/m 8,2 C -0,4 C 54,7 km/h (7 Bft) 100,00 %
05.01.2018 02:53 9,9 C 3,9 C 89 % 1001,2 hPa 0,0 l/m 30,6 km/h (5 Bft) W 270 0 min 0,000 mm 0,0 UV-I 0 W/m 8,2 C 0,4 C 54,7 km/h (7 Bft) 100,00 %
05.01.2018 02:54 9,9 C 3,9 C 89 % 1001,1 hPa 0,0 l/m 27,4 km/h (4 Bft) W-SW 247 0 min 0,000 mm 0,0 UV-I 0 W/m 8,2 C 1,1 C 48,3 km/h (6 Bft) 95,65 %
05.01.2018 02:55 9,9 C 3,9 C 89 % 1001,2 hPa 0,0 l/m 32,2 km/h (5 Bft) W-SW 247 0 min 0,000 mm 0,0 UV-I 0 W/m 8,2 C 0,1 C 45,1 km/h (6 Bft) 100,00 %
05.01.2018 02:56 9,9 C 3,9 C 88 % 1001,2 hPa 0,0 l/m 27,4 km/h (4 Bft) W-SW 247 0 min 0,000 mm 0,0 UV-I 0 W/m 8,0 C 1,1 C 38,6 km/h (5 Bft) 100,00 %
05.01.2018 02:57 9,9 C 3,9 C 88 % 1001,2 hPa 0,0 l/m 20,9 km/h (4 Bft) W 270 0 min 0,000 mm 0,0 UV-I 0 W/m 8,0 C 2,9 C 25,7 km/h (4 Bft) 100,00 %
05.01.2018 02:58 9,9 C 3,9 C 88 % 1001,3 hPa 0,0 l/m 22,5 km/h (4 Bft) W 270 0 min 0,000 mm 0,0 UV-I 0 W/m 8,0 C 2,4 C 40,2 km/h (6 Bft) 100,00 %
05.01.2018 02:59 9,8 C 3,9 C 88 % 1001,3 hPa 0,0 l/m 19,3 km/h (3 Bft) W 270 0 min 0,000 mm 0,0 UV-I 0 W/m 7,9 C 3,3 C 38,6 km/h (5 Bft) 100,00 %
05.01.2018 03:00 9,8 C 3,9 C 88 % 1001,3 hPa 0,0 l/m 24,1 km/h (4 Bft) W-SW 247 0 min 0,000 mm 0,0 UV-I 0 W/m 7,9 C 1,8 C 37,0 km/h (5 Bft) 95,65 %
05.01.2018 03:01 9,8 C 3,9 C 88 % 1001,3 hPa 0,0 l/m 24,1 km/h (4 Bft) W-SW 247 0 min 0,000 mm 0,0 UV-I 0 W/m 7,9 C 1,8 C 32,2 km/h (5 Bft) 100,00 %
05.01.2018 03:02 9,7 C 3,9 C 88 % 1001,4 hPa 0,0 l/m 24,1 km/h (4 Bft) W-SW 247 0 min 0,000 mm 0,0 UV-I 0 W/m 7,8 C 1,7 C 33,8 km/h (5 Bft) 91,30 %
05.01.2018 03:03 9,7 C 3,9 C 88 % 1001,4 hPa 0,0 l/m 20,9 km/h (4 Bft) W-SW 247 0 min 0,000 mm 0,0 UV-I 0 W/m 7,8 C 2,6 C 29,0 km/h (5 Bft) 100,00 %
05.01.2018 03:04 9,6 C 3,9 C 88 % 1001,2 hPa 0,0 l/m 25,7 km/h (4 Bft) W-SW 247 0 min 0,000 mm 0,0 UV-I 0 W/m 7,7 C 1,1 C 41,8 km/h (6 Bft) 100,00 %
05.01.2018 03:05 9,6 C 3,9 C 88 % 1001,2 hPa 0,0 l/m 25,7 km/h (4 Bft) W 270 0 min 0,000 mm 0,0 UV-I 0 W/m 7,7 C 1,1 C 35,4 km/h (5 Bft) 100,00 %
05.01.2018 03:06 9,6 C 3,9 C 88 % 1001,2 hPa 0,0 l/m 19,3 km/h (3 Bft) W-SW 247 0 min 0,000 mm 0,0 UV-I 0 W/m 7,7 C 3,0 C 32,2 km/h (5 Bft) 100,00 %
05.01.2018 03:07 9,5 C 3,9 C 88 % 1001,2 hPa 0,0 l/m 17,7 km/h (3 Bft) W-SW 247 0 min 0,000 mm 0,0 UV-I 0 W/m 7,6 C 3,4 C 25,7 km/h (4 Bft) 100,00 %
05.01.2018 03:08 9,4 C 3,9 C 88 % 1001,2 hPa 0,2 l/m 25,7 km/h (4 Bft) W-SW 247 0 min 0,000 mm 0,0 UV-I 0 W/m 7,5 C 0,8 C 40,2 km/h (6 Bft) 100,00 %
05.01.2018 03:09 9,4 C 3,9 C 88 % 1001,3 hPa 0,0 l/m 27,4 km/h (4 Bft) W-SW 247 0 min 0,000 mm 0,0 UV-I 0 W/m 7,5 C 0,4 C 40,2 km/h (6 Bft) 95,65 %
05.01.2018 03:10 9,4 C 3,9 C 88 % 1001,3 hPa 0,0 l/m 19,3 km/h (3 Bft) W-SW 247 0 min 0,000 mm 0,0 UV-I 0 W/m 7,5 C 2,7 C 27,4 km/h (4 Bft) 95,65 %
05.01.2018 03:11 9,4 C 3,9 C 88 % 1001,3 hPa 0,0 l/m 24,1 km/h (4 Bft) W-SW 247 0 min 0,000 mm 0,0 UV-I 0 W/m 7,5 C 1,3 C 33,8 km/h (5 Bft) 100,00 %
05.01.2018 03:12 9,4 C 3,9 C 87 % 1001,2 hPa 0,0 l/m 25,7 km/h (4 Bft) W 270 0 min 0,000 mm 0,0 UV-I 0 W/m 7,3 C 0,8 C 35,4 km/h (5 Bft) 95,65 %
05.01.2018 03:13 9,3 C 3,9 C 87 % 1001,3 hPa 0,0 l/m 27,4 km/h (4 Bft) W-SW 247 0 min 0,000 mm 0,0 UV-I 0 W/m 7,2 C 0,3 C 38,6 km/h (5 Bft) 100,00 %
05.01.2018 03:14 9,3 C 3,9 C 87 % 1001,2 hPa 0,0 l/m 24,1 km/h (4 Bft) W-SW 247 0 min 0,000 mm 0,0 UV-I 0 W/m 7,2 C 1,1 C 32,2 km/h (5 Bft) 95,65 %
05.01.2018 03:15 9,3 C 3,9 C 86 % 1001,2 hPa 0,0 l/m 24,1 km/h (4 Bft) W-SW 247 0 min 0,000 mm 0,0 UV-I 0 W/m 7,1 C 1,1 C 30,6 km/h (5 Bft) 100,00 %
05.01.2018 03:16 9,3 C 3,9 C 87 % 1001,2 hPa 0,0 l/m 20,9 km/h (4 Bft) W-SW 247 0 min 0,000 mm 0,0 UV-I 0 W/m 7,2 C 2,1 C 25,7 km/h (4 Bft) 86,96 %
05.01.2018 03:17 9,2 C 3,9 C 87 % 1001,3 hPa 0,0 l/m 38,6 km/h (5 Bft) W 270 0 min 0,000 mm 0,0 UV-I 0 W/m 7,2 C -2,1 C 51,5 km/h (7 Bft) 100,00 %
05.01.2018 03:18 9,2 C 3,9 C 86 % 1001,2 hPa 0,0 l/m 22,5 km/h (4 Bft) W-SW 247 0 min 0,000 mm 0,0 UV-I 0 W/m 7,0 C 1,5 C 27,4 km/h (4 Bft) 95,65 %
05.01.2018 03:19 9,2 C 3,9 C 86 % 1001,3 hPa 0,0 l/m 20,9 km/h (4 Bft) W-SW 247 0 min 0,000 mm 0,0 UV-I 0 W/m 7,0 C 2,0 C 33,8 km/h (5 Bft) 95,65 %
05.01.2018 03:20 9,1 C 3,9 C 87 % 1001,3 hPa 0,0 l/m 20,9 km/h (4 Bft) W-SW 247 0 min 0,000 mm 0,0 UV-I 0 W/m 7,1 C 1,8 C 40,2 km/h (6 Bft) 95,65 %
05.01.2018 03:21 9,1 C 3,9 C 86 % 1001,4 hPa 0,0 l/m 27,4 km/h (4 Bft) W-SW 247 0 min 0,000 mm 0,0 UV-I 0 W/m 6,9 C -0,0 C 38,6 km/h (5 Bft) 100,00 %
05.01.2018 03:22 9,1 C 3,9 C 85 % 1001,3 hPa 0,0 l/m 24,1 km/h (4 Bft) W-SW 247 0 min 0,000 mm 0,0 UV-I 0 W/m 6,7 C 0,9 C 35,4 km/h (5 Bft) 95,65 %
05.01.2018 03:23 9,1 C 3,9 C 85 % 1001,3 hPa 0,0 l/m 22,5 km/h (4 Bft) W-SW 247 0 min 0,000 mm 0,0 UV-I 0 W/m 6,7 C 1,3 C 27,4 km/h (4 Bft) 95,65 %
05.01.2018 03:24 9,1 C 3,9 C 85 % 1001,3 hPa 0,0 l/m 22,5 km/h (4 Bft) W-SW 247 0 min 0,000 mm 0,0 UV-I 0 W/m 6,7 C 1,3 C 32,2 km/h (5 Bft) 95,65 %
05.01.2018 03:25 9,1 C 3,9 C 85 % 1001,3 hPa 0,0 l/m 17,7 km/h (3 Bft) SW 225 0 min 0,000 mm 0,0 UV-I 0 W/m 6,7 C 2,9 C 25,7 km/h (4 Bft) 95,65 %
05.01.2018 03:26 9,1 C 3,9 C 85 % 1001,3 hPa 0,0 l/m 24,1 km/h (4 Bft) W-SW 247 0 min 0,000 mm 0,0 UV-I 0 W/m 6,7 C 0,9 C 32,2 km/h (5 Bft) 100,00 %
05.01.2018 03:27 9,1 C 3,9 C 85 % 1001,3 hPa 0,0 l/m 22,5 km/h (4 Bft) W-SW 247 0 min 0,000 mm 0,0 UV-I 0 W/m 6,7 C 1,3 C 32,2 km/h (5 Bft) 95,65 %
05.01.2018 03:28 9,0 C 3,9 C 84 % 1001,4 hPa 0,2 l/m 29,0 km/h (5 Bft) W-SW 247 0 min 0,000 mm 0,0 UV-I 0 W/m 6,4 C -0,5 C 41,8 km/h (6 Bft) 100,00 %
05.01.2018 03:29 9,1 C 3,9 C 84 % 1001,4 hPa 0,0 l/m 24,1 km/h (4 Bft) SW 225 0 min 0,000 mm 0,0 UV-I 0 W/m 6,5 C 0,9 C 32,2 km/h (5 Bft) 95,65 %
05.01.2018 03:30 9,0 C 3,9 C 84 % 1001,5 hPa 0,0 l/m 20,9 km/h (4 Bft) W-SW 247 0 min 0,000 mm 0,0 UV-I 0 W/m 6,4 C 1,7 C 30,6 km/h (5 Bft) 95,65 %
05.01.2018 03:31 9,0 C 3,9 C 83 % 1001,5 hPa 0,0 l/m 24,1 km/h (4 Bft) W-SW 247 0 min 0,000 mm 0,0 UV-I 0 W/m 6,3 C 0,7 C 38,6 km/h (5 Bft) 95,65 %
05.01.2018 03:32 8,9 C 3,9 C 83 % 1001,5 hPa 0,0 l/m 29,0 km/h (5 Bft) W-SW 247 0 min 0,000 mm 0,0 UV-I 0 W/m 6,2 C -0,7 C 43,5 km/h (6 Bft) 100,00 %
05.01.2018 03:33 8,9 C 3,9 C 82 % 1001,6 hPa 0,0 l/m 24,1 km/h (4 Bft) W-SW 247 0 min 0,000 mm 0,0 UV-I 0 W/m 6,0 C 0,6 C 32,2 km/h (5 Bft) 91,30 %
05.01.2018 03:34 8,9 C 3,9 C 82 % 1001,6 hPa 0,0 l/m 20,9 km/h (4 Bft) W-SW 247 0 min 0,000 mm 0,0 UV-I 0 W/m 6,0 C 1,6 C 29,0 km/h (5 Bft) 95,65 %
05.01.2018 03:35 8,9 C 3,9 C 82 % 1001,6 hPa 0,0 l/m 25,7 km/h (4 Bft) W-SW 247 0 min 0,000 mm 0,0 UV-I 0 W/m 6,0 C 0,2 C 37,0 km/h (5 Bft) 95,65 %
05.01.2018 03:36 8,9 C 3,9 C 81 % 1001,7 hPa 0,0 l/m 24,1 km/h (4 Bft) W-SW 247 0 min 0,000 mm 0,0 UV-I 0 W/m 5,8 C 0,6 C 32,2 km/h (5 Bft) 95,65 %
05.01.2018 03:37 8,9 C 3,9 C 82 % 1001,7 hPa 0,0 l/m 24,1 km/h (4 Bft) SW 225 0 min 0,000 mm 0,0 UV-I 0 W/m 6,0 C 0,6 C 30,6 km/h (5 Bft) 91,30 %
05.01.2018 03:38 8,9 C 3,9 C 81 % 1001,7 hPa 0,0 l/m 24,1 km/h (4 Bft) W-SW 247 0 min 0,000 mm 0,0 UV-I 0 W/m 5,8 C 0,6 C 33,8 km/h (5 Bft) 95,65 %
05.01.2018 03:39 8,9 C 3,9 C 81 % 1001,8 hPa 0,0 l/m 27,4 km/h (4 Bft) W-SW 247 0 min 0,000 mm 0,0 UV-I 0 W/m 5,8 C -0,3 C 35,4 km/h (5 Bft) 100,00 %
05.01.2018 03:40 8,9 C 3,9 C 81 % 1001,9 hPa 0,0 l/m 25,7 km/h (4 Bft) W-SW 247 0 min 0,000 mm 0,0 UV-I 0 W/m 5,8 C 0,2 C 32,2 km/h (5 Bft) 100,00 %
05.01.2018 03:41 9,0 C 3,9 C 81 % 1001,8 hPa 0,0 l/m 25,7 km/h (4 Bft) W-SW 247 0 min 0,000 mm 0,0 UV-I 0 W/m 5,9 C 0,3 C 38,6 km/h (5 Bft) 100,00 %
05.01.2018 03:42 8,9 C 3,9 C 81 % 1001,9 hPa 0,0 l/m 22,5 km/h (4 Bft) W-SW 247 0 min 0,000 mm 0,0 UV-I 0 W/m 5,8 C 1,1 C 27,4 km/h (4 Bft) 100,00 %
05.01.2018 03:43 9,0 C 3,9 C 81 % 1002,0 hPa 0,0 l/m 17,7 km/h (3 Bft) W-SW 247 0 min 0,000 mm 0,0 UV-I 0 W/m 5,9 C 2,8 C 35,4 km/h (5 Bft) 100,00 %
05.01.2018 03:44 8,9 C 3,9 C 81 % 1002,0 hPa 0,0 l/m 24,1 km/h (4 Bft) W-SW 247 0 min 0,000 mm 0,0 UV-I 0 W/m 5,8 C 0,6 C 30,6 km/h (5 Bft) 91,30 %
05.01.2018 03:45 8,9 C 3,9 C 81 % 1002,0 hPa 0,0 l/m 22,5 km/h (4 Bft) W-SW 247 0 min 0,000 mm 0,0 UV-I 0 W/m 5,8 C 1,1 C 35,4 km/h (5 Bft) 100,00 %
05.01.2018 03:46 8,9 C 3,9 C 81 % 1002,1 hPa 0,0 l/m 25,7 km/h (4 Bft) W-SW 247 0 min 0,000 mm 0,0 UV-I 0 W/m 5,8 C 0,2 C 38,6 km/h (5 Bft) 95,65 %
05.01.2018 03:47 8,9 C 3,9 C 82 % 1002,1 hPa 0,0 l/m 24,1 km/h (4 Bft) W-SW 247 0 min 0,000 mm 0,0 UV-I 0 W/m 6,0 C 0,6 C 32,2 km/h (5 Bft) 95,65 %
05.01.2018 03:48 8,9 C 3,9 C 82 % 1002,2 hPa 0,0 l/m 24,1 km/h (4 Bft) W-SW 247 0 min 0,000 mm 0,0 UV-I 0 W/m 6,0 C 0,6 C 32,2 km/h (5 Bft) 100,00 %
05.01.2018 03:49 8,9 C 3,9 C 82 % 1002,2 hPa 0,0 l/m 24,1 km/h (4 Bft) W-SW 247 0 min 0,000 mm 0,0 UV-I 0 W/m 6,0 C 0,6 C 35,4 km/h (5 Bft) 100,00 %
05.01.2018 03:50 8,9 C 3,9 C 82 % 1002,2 hPa 0,0 l/m 20,9 km/h (4 Bft) W-SW 247 0 min 0,000 mm 0,0 UV-I 0 W/m 6,0 C 1,6 C 32,2 km/h (5 Bft) 100,00 %
05.01.2018 03:51 9,0 C 3,9 C 81 % 1002,1 hPa 0,0 l/m 25,7 km/h (4 Bft) W-SW 247 0 min 0,000 mm 0,0 UV-I 0 W/m 5,9 C 0,3 C 40,2 km/h (6 Bft) 95,65 %
05.01.2018 03:52 9,0 C 3,9 C 81 % 1002,2 hPa 0,0 l/m 22,5 km/h (4 Bft) W-SW 247 0 min 0,000 mm 0,0 UV-I 0 W/m 5,9 C 1,2 C 41,8 km/h (6 Bft) 100,00 %
05.01.2018 03:53 9,0 C 3,9 C 81 % 1002,3 hPa 0,0 l/m 22,5 km/h (4 Bft) W-SW 247 0 min 0,000 mm 0,0 UV-I 0 W/m 5,9 C 1,2 C 30,6 km/h (5 Bft) 100,00 %
05.01.2018 03:54 9,0 C 3,9 C 81 % 1002,3 hPa 0,0 l/m 22,5 km/h (4 Bft) W-SW 247 0 min 0,000 mm 0,0 UV-I 0 W/m 5,9 C 1,2 C 32,2 km/h (5 Bft) 100,00 %
05.01.2018 03:55 9,1 C 3,9 C 81 % 1002,2 hPa 0,0 l/m 24,1 km/h (4 Bft) W-SW 247 0 min 0,000 mm 0,0 UV-I 0 W/m 6,0 C 0,9 C 32,2 km/h (5 Bft) 95,65 %
05.01.2018 03:56 9,1 C 3,9 C 81 % 1002,2 hPa 0,0 l/m 22,5 km/h (4 Bft) W-SW 247 0 min 0,000 mm 0,0 UV-I 0 W/m 6,0 C 1,3 C 32,2 km/h (5 Bft) 100,00 %
05.01.2018 03:57 9,1 C 3,9 C 81 % 1002,3 hPa 0,0 l/m 22,5 km/h (4 Bft) W-SW 247 0 min 0,000 mm 0,0 UV-I 0 W/m 6,0 C 1,3 C 30,6 km/h (5 Bft) 100,00 %
05.01.2018 03:58 9,1 C 3,9 C 81 % 1002,3 hPa 0,0 l/m 22,5 km/h (4 Bft) W-SW 247 0 min 0,000 mm 0,0 UV-I 0 W/m 6,0 C 1,3 C 32,2 km/h (5 Bft) 95,65 %
05.01.2018 03:59 9,1 C 3,9 C 81 % 1002,4 hPa 0,0 l/m 24,1 km/h (4 Bft) W-SW 247 0 min 0,000 mm 0,0 UV-I 0 W/m 6,0 C 0,9 C 32,2 km/h (5 Bft) 100,00 %
05.01.2018 04:00 9,1 C 3,9 C 81 % 1002,4 hPa 0,0 l/m 19,3 km/h (3 Bft) W 270 0 min 0,051 mm 0,0 UV-I 0 W/m 6,0 C 2,4 C 29,0 km/h (5 Bft) 100,00 %
05.01.2018 04:01 9,0 C 3,9 C 81 % 1002,4 hPa 0,0 l/m 24,1 km/h (4 Bft) W-SW 247 0 min 0,000 mm 0,0 UV-I 0 W/m 5,9 C 0,7 C 33,8 km/h (5 Bft) 100,00 %
05.01.2018 04:02 9,0 C 3,9 C 81 % 1002,4 hPa 0,0 l/m 22,5 km/h (4 Bft) W 270 0 min 0,000 mm 0,0 UV-I 0 W/m 5,9 C 1,2 C 32,2 km/h (5 Bft) 91,30 %
05.01.2018 04:03 9,1 C 3,9 C 81 % 1002,3 hPa 0,0 l/m 24,1 km/h (4 Bft) W 270 0 min 0,000 mm 0,0 UV-I 0 W/m 6,0 C 0,9 C 29,0 km/h (5 Bft) 95,65 %
05.01.2018 04:04 9,0 C 3,9 C 81 % 1002,4 hPa 0,0 l/m 20,9 km/h (4 Bft) W-SW 247 0 min 0,000 mm 0,0 UV-I 0 W/m 5,9 C 1,7 C 33,8 km/h (5 Bft) 100,00 %
05.01.2018 04:05 9,0 C 3,9 C 81 % 1002,6 hPa 0,0 l/m 22,5 km/h (4 Bft) W-SW 247 0 min 0,000 mm 0,0 UV-I 0 W/m 5,9 C 1,2 C 30,6 km/h (5 Bft) 91,30 %
05.01.2018 04:06 9,0 C 3,9 C 81 % 1002,6 hPa 0,0 l/m 25,7 km/h (4 Bft) W 270 0 min 0,000 mm 0,0 UV-I 0 W/m 5,9 C 0,3 C 38,6 km/h (5 Bft) 100,00 %
05.01.2018 04:07 9,0 C 3,9 C 81 % 1002,4 hPa 0,0 l/m 17,7 km/h (3 Bft) W-SW 247 0 min 0,000 mm 0,0 UV-I 0 W/m 5,9 C 2,8 C 24,1 km/h (4 Bft) 95,65 %
05.01.2018 04:08 9,0 C 3,9 C 81 % 1002,6 hPa 0,0 l/m 22,5 km/h (4 Bft) W-SW 247 0 min 0,000 mm 0,0 UV-I 0 W/m 5,9 C 1,2 C 30,6 km/h (5 Bft) 95,65 %
05.01.2018 04:09 9,0 C 3,9 C 81 % 1002,6 hPa 0,0 l/m 20,9 km/h (4 Bft) W-SW 247 0 min 0,000 mm 0,0 UV-I 0 W/m 5,9 C 1,7 C 27,4 km/h (4 Bft) 95,65 %
05.01.2018 04:10 8,9 C 3,9 C 81 % 1002,7 hPa 0,0 l/m 20,9 km/h (4 Bft) W-SW 247 0 min 0,000 mm 0,0 UV-I 0 W/m 5,8 C 1,6 C 27,4 km/h (4 Bft) 100,00 %
05.01.2018 04:11 8,9 C 3,9 C 82 % 1002,7 hPa 0,0 l/m 20,9 km/h (4 Bft) W-SW 247 0 min 0,000 mm 0,0 UV-I 0 W/m 6,0 C 1,6 C 29,0 km/h (5 Bft) 91,30 %
05.01.2018 04:12 8,9 C 3,9 C 82 % 1002,8 hPa 0,0 l/m 20,9 km/h (4 Bft) W 270 0 min 0,000 mm 0,0 UV-I 0 W/m 6,0 C 1,6 C 29,0 km/h (5 Bft) 91,30 %
05.01.2018 04:13 8,9 C 3,9 C 82 % 1002,9 hPa 0,0 l/m 17,7 km/h (3 Bft) W-SW 247 0 min 0,000 mm 0,0 UV-I 0 W/m 6,0 C 2,7 C 24,1 km/h (4 Bft) 100,00 %
05.01.2018 04:14 8,8 C 3,9 C 82 % 1003,0 hPa 0,0 l/m 17,7 km/h (3 Bft) W 270 0 min 0,000 mm 0,0 UV-I 0 W/m 5,9 C 2,6 C 20,9 km/h (4 Bft) 95,65 %
05.01.2018 04:15 8,8 C 3,9 C 83 % 1003,0 hPa 0,0 l/m 14,5 km/h (3 Bft) W-SW 247 0 min 0,000 mm 0,0 UV-I 0 W/m 6,1 C 3,9 C 22,5 km/h (4 Bft) 100,00 %
05.01.2018 04:16 8,8 C 3,9 C 83 % 1002,9 hPa 0,0 l/m 17,7 km/h (3 Bft) W 270 0 min 0,000 mm 0,0 UV-I 0 W/m 6,1 C 2,6 C 25,7 km/h (4 Bft) 91,30 %
05.01.2018 04:17 8,8 C 3,9 C 83 % 1002,9 hPa 0,0 l/m 20,9 km/h (4 Bft) W-SW 247 0 min 0,000 mm 0,0 UV-I 0 W/m 6,1 C 1,4 C 29,0 km/h (5 Bft) 100,00 %
05.01.2018 04:18 8,8 C 3,9 C 83 % 1002,9 hPa 0,0 l/m 14,5 km/h (3 Bft) W-SW 247 0 min 0,000 mm 0,0 UV-I 0 W/m 6,1 C 3,9 C 19,3 km/h (3 Bft) 95,65 %
05.01.2018 04:19 8,8 C 3,9 C 83 % 1002,7 hPa 0,0 l/m 14,5 km/h (3 Bft) W-SW 247 0 min 0,000 mm 0,0 UV-I 0 W/m 6,1 C 3,9 C 17,7 km/h (3 Bft) 91,30 %
05.01.2018 04:20 8,7 C 3,9 C 83 % 1002,6 hPa 0,0 l/m 14,5 km/h (3 Bft) W-SW 247 0 min 0,000 mm 0,0 UV-I 0 W/m 6,0 C 3,8 C 17,7 km/h (3 Bft) 95,65 %
05.01.2018 04:21 8,7 C 3,9 C 83 % 1002,7 hPa 0,0 l/m 16,1 km/h (3 Bft) W 270 0 min 0,000 mm 0,0 UV-I 0 W/m 6,0 C 3,1 C 19,3 km/h (3 Bft) 95,65 %
05.01.2018 04:22 8,7 C 3,9 C 83 % 1002,7 hPa 0,0 l/m 12,9 km/h (3 Bft) W-SW 247 0 min 0,000 mm 0,0 UV-I 0 W/m 6,0 C 4,6 C 20,9 km/h (4 Bft) 100,00 %
05.01.2018 04:23 8,7 C 3,9 C 83 % 1002,7 hPa 0,0 l/m 9,7 km/h (2 Bft) W-SW 247 0 min 0,000 mm 0,0 UV-I 0 W/m 6,0 C 6,3 C 19,3 km/h (3 Bft) 95,65 %
05.01.2018 04:24 8,6 C 3,9 C 83 % 1002,6 hPa 0,0 l/m 11,3 km/h (2 Bft) W 270 0 min 0,000 mm 0,0 UV-I 0 W/m 5,9 C 5,3 C 17,7 km/h (3 Bft) 100,00 %
05.01.2018 04:25 8,6 C 3,9 C 83 % 1002,5 hPa 0,0 l/m 16,1 km/h (3 Bft) W-SW 247 0 min 0,000 mm 0,0 UV-I 0 W/m 5,9 C 3,0 C 20,9 km/h (4 Bft) 95,65 %
05.01.2018 04:26 8,6 C 3,9 C 83 % 1002,6 hPa 0,0 l/m 17,7 km/h (3 Bft) W-SW 247 0 min 0,000 mm 0,0 UV-I 0 W/m 5,9 C 2,3 C 24,1 km/h (4 Bft) 95,65 %
05.01.2018 04:27 8,6 C 3,9 C 83 % 1002,6 hPa 0,0 l/m 9,7 km/h (2 Bft) W 270 0 min 0,000 mm 0,0 UV-I 0 W/m 5,9 C 6,2 C 12,9 km/h (3 Bft) 95,65 %
05.01.2018 04:28 8,6 C 3,9 C 83 % 1002,5 hPa 0,0 l/m 11,3 km/h (2 Bft) W-SW 247 0 min 0,000 mm 0,0 UV-I 0 W/m 5,9 C 5,3 C 17,7 km/h (3 Bft) 100,00 %
05.01.2018 04:29 8,6 C 3,9 C 83 % 1002,7 hPa 0,0 l/m 17,7 km/h (3 Bft) W-SW 247 0 min 0,000 mm 0,0 UV-I 0 W/m 5,9 C 2,3 C 24,1 km/h (4 Bft) 95,65 %
05.01.2018 04:30 8,6 C 3,9 C 82 % 1002,8 hPa 0,0 l/m 16,1 km/h (3 Bft) W-SW 247 0 min 0,000 mm 0,0 UV-I 0 W/m 5,7 C 3,0 C 20,9 km/h (4 Bft) 95,65 %
05.01.2018 04:31 8,6 C 3,9 C 82 % 1002,9 hPa 0,0 l/m 19,3 km/h (3 Bft) W 270 0 min 0,000 mm 0,0 UV-I 0 W/m 5,7 C 1,7 C 29,0 km/h (5 Bft) 100,00 %
05.01.2018 04:32 8,6 C 3,9 C 82 % 1003,0 hPa 0,0 l/m 20,9 km/h (4 Bft) W-SW 247 0 min 0,000 mm 0,0 UV-I 0 W/m 5,7 C 1,2 C 27,4 km/h (4 Bft) 95,65 %
05.01.2018 04:33 8,6 C 3,9 C 81 % 1003,1 hPa 0,0 l/m 19,3 km/h (3 Bft) W 270 0 min 0,000 mm 0,0 UV-I 0 W/m 5,5 C 1,7 C 25,7 km/h (4 Bft) 95,65 %
05.01.2018 04:34 8,6 C 3,9 C 81 % 1003,1 hPa 0,0 l/m 17,7 km/h (3 Bft) W 270 0 min 0,000 mm 0,0 UV-I 0 W/m 5,5 C 2,3 C 24,1 km/h (4 Bft) 91,30 %
05.01.2018 04:35 8,6 C 3,9 C 81 % 1003,2 hPa 0,0 l/m 19,3 km/h (3 Bft) W-SW 247 0 min 0,000 mm 0,0 UV-I 0 W/m 5,5 C 1,7 C 24,1 km/h (4 Bft) 95,65 %
05.01.2018 04:36 8,7 C 3,9 C 81 % 1003,2 hPa 0,0 l/m 14,5 km/h (3 Bft) W 270 0 min 0,000 mm 0,0 UV-I 0 W/m 5,6 C 3,8 C 20,9 km/h (4 Bft) 95,65 %
05.01.2018 04:37 8,6 C 3,9 C 82 % 1003,2 hPa 0,0 l/m 12,9 km/h (3 Bft) W-SW 247 0 min 0,000 mm 0,0 UV-I 0 W/m 5,7 C 4,4 C 19,3 km/h (3 Bft) 95,65 %
05.01.2018 04:38 8,5 C 3,9 C 82 % 1003,2 hPa 0,0 l/m 14,5 km/h (3 Bft) W-SW 247 0 min 0,000 mm 0,0 UV-I 0 W/m 5,6 C 3,5 C 17,7 km/h (3 Bft) 91,30 %
05.01.2018 04:39 8,5 C 3,9 C 82 % 1003,2 hPa 0,0 l/m 14,5 km/h (3 Bft) SW 225 0 min 0,000 mm 0,0 UV-I 0 W/m 5,6 C 3,5 C 20,9 km/h (4 Bft) 91,30 %
05.01.2018 04:40 8,4 C 3,9 C 82 % 1003,2 hPa 0,0 l/m 14,5 km/h (3 Bft) W 270 0 min 0,000 mm 0,0 UV-I 0 W/m 5,5 C 3,4 C 22,5 km/h (4 Bft) 95,65 %
05.01.2018 04:41 8,4 C 3,9 C 82 % 1003,3 hPa 0,0 l/m 14,5 km/h (3 Bft) W-SW 247 0 min 0,000 mm 0,0 UV-I 0 W/m 5,5 C 3,4 C 17,7 km/h (3 Bft) 95,65 %
05.01.2018 04:42 8,4 C 3,9 C 82 % 1003,4 hPa 0,0 l/m 12,9 km/h (3 Bft) W-SW 247 0 min 0,000 mm 0,0 UV-I 0 W/m 5,5 C 4,2 C 14,5 km/h (3 Bft) 100,00 %
05.01.2018 04:43 8,4 C 3,9 C 82 % 1003,4 hPa 0,0 l/m 9,7 km/h (2 Bft) W 270 0 min 0,000 mm 0,0 UV-I 0 W/m 5,5 C 6,0 C 14,5 km/h (3 Bft) 95,65 %
05.01.2018 04:44 8,4 C 3,9 C 83 % 1003,4 hPa 0,0 l/m 8,0 km/h (2 Bft) W-SW 247 0 min 0,000 mm 0,0 UV-I 0 W/m 5,7 C 7,2 C 11,3 km/h (2 Bft) 95,65 %
05.01.2018 04:45 8,3 C 3,9 C 83 % 1003,4 hPa 0,0 l/m 14,5 km/h (3 Bft) W-SW 247 0 min 0,000 mm 0,0 UV-I 0 W/m 5,6 C 3,3 C 20,9 km/h (4 Bft) 100,00 %
05.01.2018 04:46 8,3 C 3,9 C 83 % 1003,3 hPa 0,0 l/m 6,4 km/h (2 Bft) W 270 0 min 0,000 mm 0,0 UV-I 0 W/m 5,6 C 8,3 C 12,9 km/h (3 Bft) 95,65 %
05.01.2018 04:47 8,3 C 3,9 C 83 % 1003,4 hPa 0,0 l/m 6,4 km/h (2 Bft) W-SW 247 0 min 0,000 mm 0,0 UV-I 0 W/m 5,6 C 8,3 C 9,7 km/h (2 Bft) 95,65 %
05.01.2018 04:48 8,3 C 3,9 C 83 % 1003,4 hPa 0,0 l/m 6,4 km/h (2 Bft) W-SW 247 0 min 0,000 mm 0,0 UV-I 0 W/m 5,6 C 8,3 C 8,0 km/h (2 Bft) 95,65 %
05.01.2018 04:49 8,3 C 3,9 C 83 % 1003,4 hPa 0,0 l/m 9,7 km/h (2 Bft) W 270 0 min 0,000 mm 0,0 UV-I 0 W/m 5,6 C 5,9 C 14,5 km/h (3 Bft) 100,00 %
05.01.2018 04:50 8,3 C 3,9 C 83 % 1003,4 hPa 0,0 l/m 12,9 km/h (3 Bft) W-SW 247 0 min 0,000 mm 0,0 UV-I 0 W/m 5,6 C 4,1 C 16,1 km/h (3 Bft) 95,65 %
05.01.2018 04:51 8,2 C 3,9 C 83 % 1003,4 hPa 0,0 l/m 9,7 km/h (2 Bft) W-SW 247 0 min 0,000 mm 0,0 UV-I 0 W/m 5,5 C 5,8 C 12,9 km/h (3 Bft) 100,00 %
05.01.2018 04:52 8,2 C 3,9 C 83 % 1003,4 hPa 0,0 l/m 8,0 km/h (2 Bft) W-SW 247 0 min 0,000 mm 0,0 UV-I 0 W/m 5,5 C 7,0 C 14,5 km/h (3 Bft) 95,65 %
05.01.2018 04:53 8,2 C 3,9 C 83 % 1003,5 hPa 0,0 l/m 11,3 km/h (2 Bft) W-SW 247 0 min 0,000 mm 0,0 UV-I 0 W/m 5,5 C 4,8 C 16,1 km/h (3 Bft) 95,65 %
05.01.2018 04:54 8,2 C 3,9 C 83 % 1003,5 hPa 0,0 l/m 14,5 km/h (3 Bft) W 270 0 min 0,000 mm 0,0 UV-I 0 W/m 5,5 C 3,2 C 19,3 km/h (3 Bft) 91,30 %
05.01.2018 04:55 8,2 C 3,9 C 83 % 1003,5 hPa 0,0 l/m 12,9 km/h (3 Bft) W-SW 247 0 min 0,000 mm 0,0 UV-I 0 W/m 5,5 C 4,0 C 16,1 km/h (3 Bft) 100,00 %
05.01.2018 04:56 8,2 C 3,9 C 83 % 1003,6 hPa 0,0 l/m 12,9 km/h (3 Bft) W 270 0 min 0,000 mm 0,0 UV-I 0 W/m 5,5 C 4,0 C 22,5 km/h (4 Bft) 95,65 %
05.01.2018 04:57 8,2 C 3,9 C 83 % 1003,6 hPa 0,0 l/m 8,0 km/h (2 Bft) W 270 0 min 0,000 mm 0,0 UV-I 0 W/m 5,5 C 7,0 C 12,9 km/h (3 Bft) 100,00 %
05.01.2018 04:58 8,2 C 3,9 C 83 % 1003,6 hPa 0,0 l/m 11,3 km/h (2 Bft) W 270 0 min 0,000 mm 0,0 UV-I 0 W/m 5,5 C 4,8 C 17,7 km/h (3 Bft) 95,65 %
05.01.2018 04:59 8,1 C 3,9 C 84 % 1003,6 hPa 0,0 l/m 14,5 km/h (3 Bft) W 270 0 min 0,000 mm 0,0 UV-I 0 W/m 5,6 C 3,1 C 17,7 km/h (3 Bft) 95,65 %
05.01.2018 05:00 8,1 C 3,9 C 83 % 1003,6 hPa 0,0 l/m 12,9 km/h (3 Bft) W-SW 247 0 min 0,025 mm 0,0 UV-I 0 W/m 5,4 C 3,8 C 16,1 km/h (3 Bft) 95,65 %
05.01.2018 05:01 8,1 C 3,9 C 83 % 1003,5 hPa 0,0 l/m 12,9 km/h (3 Bft) W-SW 247 0 min 0,000 mm 0,0 UV-I 0 W/m 5,4 C 3,8 C 20,9 km/h (4 Bft) 86,96 %
05.01.2018 05:02 8,2 C 3,9 C 83 % 1003,5 hPa 0,0 l/m 12,9 km/h (3 Bft) W-SW 247 0 min 0,000 mm 0,0 UV-I 0 W/m 5,5 C 4,0 C 19,3 km/h (3 Bft) 91,30 %
05.01.2018 05:03 8,2 C 3,9 C 83 % 1003,5 hPa 0,0 l/m 14,5 km/h (3 Bft) W 270 0 min 0,000 mm 0,0 UV-I 0 W/m 5,5 C 3,2 C 19,3 km/h (3 Bft) 95,65 %
05.01.2018 05:04 8,2 C 3,9 C 83 % 1003,5 hPa 0,0 l/m 12,9 km/h (3 Bft) W 270 0 min 0,000 mm 0,0 UV-I 0 W/m 5,5 C 4,0 C 16,1 km/h (3 Bft) 100,00 %
05.01.2018 05:05 8,1 C 3,9 C 83 % 1003,5 hPa 0,0 l/m 12,9 km/h (3 Bft) W 270 0 min 0,000 mm 0,0 UV-I 0 W/m 5,4 C 3,8 C 16,1 km/h (3 Bft) 100,00 %
05.01.2018 05:06 8,1 C 3,9 C 83 % 1003,4 hPa 0,0 l/m 8,0 km/h (2 Bft) W 270 0 min 0,000 mm 0,0 UV-I 0 W/m 5,4 C 6,9 C 11,3 km/h (2 Bft) 100,00 %
05.01.2018 05:07 8,1 C 3,9 C 83 % 1003,5 hPa 0,0 l/m 8,0 km/h (2 Bft) W 270 0 min 0,000 mm 0,0 UV-I 0 W/m 5,4 C 6,9 C 11,3 km/h (2 Bft) 100,00 %
05.01.2018 05:08 8,0 C 3,9 C 83 % 1003,5 hPa 0,0 l/m 8,0 km/h (2 Bft) W 270 0 min 0,000 mm 0,0 UV-I 0 W/m 5,3 C 6,8 C 11,3 km/h (2 Bft) 95,65 %
05.01.2018 05:09 7,9 C 3,9 C 83 % 1003,5 hPa 0,0 l/m 11,3 km/h (2 Bft) W-SW 247 0 min 0,000 mm 0,0 UV-I 0 W/m 5,2 C 4,5 C 14,5 km/h (3 Bft) 100,00 %
05.01.2018 05:10 7,8 C 3,9 C 84 % 1003,6 hPa 0,0 l/m 9,7 km/h (2 Bft) W 270 0 min 0,000 mm 0,0 UV-I 0 W/m 5,3 C 5,4 C 14,5 km/h (3 Bft) 100,00 %
05.01.2018 05:11 7,8 C 3,9 C 84 % 1003,6 hPa 0,0 l/m 11,3 km/h (2 Bft) W-SW 247 0 min 0,000 mm 0,0 UV-I 0 W/m 5,3 C 4,4 C 14,5 km/h (3 Bft) 100,00 %
05.01.2018 05:12 7,8 C 3,9 C 84 % 1003,6 hPa 0,0 l/m 8,0 km/h (2 Bft) W-SW 247 0 min 0,000 mm 0,0 UV-I 0 W/m 5,3 C 6,5 C 11,3 km/h (2 Bft) 100,00 %
05.01.2018 05:13 7,8 C 3,9 C 84 % 1003,6 hPa 0,0 l/m 9,7 km/h (2 Bft) W-SW 247 0 min 0,000 mm 0,0 UV-I 0 W/m 5,3 C 5,4 C 11,3 km/h (2 Bft) 100,00 %
05.01.2018 05:14 7,8 C 3,9 C 84 % 1003,6 hPa 0,0 l/m 9,7 km/h (2 Bft) W-SW 247 0 min 0,000 mm 0,0 UV-I 0 W/m 5,3 C 5,4 C 12,9 km/h (3 Bft) 100,00 %
05.01.2018 05:15 7,8 C 3,9 C 84 % 1003,6 hPa 0,0 l/m 9,7 km/h (2 Bft) W 270 0 min 0,000 mm 0,0 UV-I 0 W/m 5,3 C 5,4 C 12,9 km/h (3 Bft) 95,65 %
05.01.2018 05:16 7,8 C 3,9 C 84 % 1003,6 hPa 0,0 l/m 8,0 km/h (2 Bft) W-SW 247 0 min 0,000 mm 0,0 UV-I 0 W/m 5,3 C 6,5 C 12,9 km/h (3 Bft) 100,00 %
05.01.2018 05:17 7,7 C 3,9 C 85 % 1003,4 hPa 0,0 l/m 9,7 km/h (2 Bft) W-SW 247 0 min 0,000 mm 0,0 UV-I 0 W/m 5,3 C 5,2 C 12,9 km/h (3 Bft) 100,00 %
05.01.2018 05:18 7,7 C 3,9 C 85 % 1003,5 hPa 0,0 l/m 9,7 km/h (2 Bft) W 270 0 min 0,000 mm 0,0 UV-I 0 W/m 5,3 C 5,2 C 11,3 km/h (2 Bft) 100,00 %
05.01.2018 05:19 7,7 C 3,9 C 85 % 1003,5 hPa 0,0 l/m 8,0 km/h (2 Bft) W 270 0 min 0,000 mm 0,0 UV-I 0 W/m 5,3 C 6,4 C 11,3 km/h (2 Bft) 100,00 %
05.01.2018 05:20 7,7 C 3,9 C 85 % 1003,5 hPa 0,0 l/m 8,0 km/h (2 Bft) W 270 0 min 0,000 mm 0,0 UV-I 0 W/m 5,3 C 6,4 C 11,3 km/h (2 Bft) 100,00 %
05.01.2018 05:21 7,6 C 3,9 C 85 % 1003,5 hPa 0,0 l/m 9,7 km/h (2 Bft) W 270 0 min 0,000 mm 0,0 UV-I 0 W/m 5,2 C 5,1 C 12,9 km/h (3 Bft) 100,00 %
05.01.2018 05:22 7,6 C 3,9 C 85 % 1003,5 hPa 0,0 l/m 12,9 km/h (3 Bft) W 270 0 min 0,000 mm 0,0 UV-I 0 W/m 5,2 C 3,3 C 16,1 km/h (3 Bft) 91,30 %
05.01.2018 05:23 7,6 C 3,9 C 85 % 1003,5 hPa 0,0 l/m 11,3 km/h (2 Bft) W-SW 247 0 min 0,000 mm 0,0 UV-I 0 W/m 5,2 C 4,1 C 12,9 km/h (3 Bft) 95,65 %
05.01.2018 05:24 7,6 C 3,9 C 85 % 1003,5 hPa 0,0 l/m 12,9 km/h (3 Bft) W-SW 247 0 min 0,000 mm 0,0 UV-I 0 W/m 5,2 C 3,3 C 16,1 km/h (3 Bft) 100,00 %
05.01.2018 05:25 7,7 C 3,9 C 85 % 1003,6 hPa 0,0 l/m 12,9 km/h (3 Bft) W 270 0 min 0,000 mm 0,0 UV-I 0 W/m 5,3 C 3,4 C 16,1 km/h (3 Bft) 100,00 %
05.01.2018 05:26 7,7 C 3,9 C 84 % 1003,5 hPa 0,0 l/m 11,3 km/h (2 Bft) W 270 0 min 0,000 mm 0,0 UV-I 0 W/m 5,2 C 4,3 C 14,5 km/h (3 Bft) 100,00 %
05.01.2018 05:27 7,7 C 3,9 C 84 % 1003,6 hPa 0,0 l/m 11,3 km/h (2 Bft) W 270 0 min 0,000 mm 0,0 UV-I 0 W/m 5,2 C 4,3 C 12,9 km/h (3 Bft) 95,65 %
05.01.2018 05:28 7,7 C 3,9 C 84 % 1003,6 hPa 0,0 l/m 11,3 km/h (2 Bft) W 270 0 min 0,000 mm 0,0 UV-I 0 W/m 5,2 C 4,3 C 14,5 km/h (3 Bft) 100,00 %
05.01.2018 05:29 7,7 C 3,9 C 85 % 1003,6 hPa 0,0 l/m 11,3 km/h (2 Bft) W-SW 247 0 min 0,000 mm 0,0 UV-I 0 W/m 5,3 C 4,3 C 14,5 km/h (3 Bft) 95,65 %
05.01.2018 05:30 7,7 C 3,9 C 85 % 1003,6 hPa 0,0 l/m 9,7 km/h (2 Bft) W 270 0 min 0,000 mm 0,0 UV-I 0 W/m 5,3 C 5,2 C 14,5 km/h (3 Bft) 100,00 %
05.01.2018 05:31 7,7 C 3,9 C 85 % 1003,5 hPa 0,0 l/m 14,5 km/h (3 Bft) W-SW 247 0 min 0,000 mm 0,0 UV-I 0 W/m 5,3 C 2,6 C 17,7 km/h (3 Bft) 100,00 %
05.01.2018 05:32 7,7 C 3,9 C 85 % 1003,5 hPa 0,0 l/m 14,5 km/h (3 Bft) W-SW 247 0 min 0,000 mm 0,0 UV-I 0 W/m 5,3 C 2,6 C 19,3 km/h (3 Bft) 100,00 %
05.01.2018 05:33 7,7 C 3,9 C 84 % 1003,5 hPa 0,0 l/m 9,7 km/h (2 Bft) W 270 0 min 0,000 mm 0,0 UV-I 0 W/m 5,2 C 5,2 C 12,9 km/h (3 Bft) 100,00 %
05.01.2018 05:34 7,7 C 3,9 C 84 % 1003,6 hPa 0,0 l/m 12,9 km/h (3 Bft) W 270 0 min 0,000 mm 0,0 UV-I 0 W/m 5,2 C 3,4 C 19,3 km/h (3 Bft) 100,00 %
05.01.2018 05:35 7,7 C 3,9 C 84 % 1003,6 hPa 0,0 l/m 14,5 km/h (3 Bft) W 270 0 min 0,000 mm 0,0 UV-I 0 W/m 5,2 C 2,6 C 20,9 km/h (4 Bft) 95,65 %
05.01.2018 05:36 7,8 C 3,9 C 84 % 1003,7 hPa 0,0 l/m 12,9 km/h (3 Bft) W 270 0 min 0,000 mm 0,0 UV-I 0 W/m 5,3 C 3,5 C 19,3 km/h (3 Bft) 91,30 %
05.01.2018 05:37 7,7 C 3,9 C 85 % 1003,8 hPa 0,0 l/m 9,7 km/h (2 Bft) W 270 0 min 0,000 mm 0,0 UV-I 0 W/m 5,3 C 5,2 C 12,9 km/h (3 Bft) 100,00 %
05.01.2018 05:38 7,7 C 3,9 C 85 % 1003,7 hPa 0,0 l/m 12,9 km/h (3 Bft) W-SW 247 0 min 0,000 mm 0,0 UV-I 0 W/m 5,3 C 3,4 C 17,7 km/h (3 Bft) 100,00 %
05.01.2018 05:39 7,7 C 3,9 C 85 % 1003,8 hPa 0,0 l/m 9,7 km/h (2 Bft) W 270 0 min 0,000 mm 0,0 UV-I 0 W/m 5,3 C 5,2 C 12,9 km/h (3 Bft) 100,00 %
05.01.2018 05:40 7,6 C 3,9 C 85 % 1003,8 hPa 0,0 l/m 12,9 km/h (3 Bft) W 270 0 min 0,000 mm 0,0 UV-I 0 W/m 5,2 C 3,3 C 17,7 km/h (3 Bft) 95,65 %
05.01.2018 05:41 7,6 C 3,9 C 85 % 1003,7 hPa 0,0 l/m 12,9 km/h (3 Bft) W 270 0 min 0,000 mm 0,0 UV-I 0 W/m 5,2 C 3,3 C 16,1 km/h (3 Bft) 100,00 %
05.01.2018 05:42 7,5 C 3,9 C 85 % 1003,8 hPa 0,0 l/m 9,7 km/h (2 Bft) W 270 0 min 0,000 mm 0,0 UV-I 0 W/m 5,1 C 5,0 C 12,9 km/h (3 Bft) 100,00 %
05.01.2018 05:43 7,5 C 3,9 C 85 % 1003,8 hPa 0,0 l/m 12,9 km/h (3 Bft) W-SW 247 0 min 0,000 mm 0,0 UV-I 0 W/m 5,1 C 3,1 C 17,7 km/h (3 Bft) 95,65 %
05.01.2018 05:44 7,6 C 3,9 C 85 % 1003,8 hPa 0,0 l/m 16,1 km/h (3 Bft) W-SW 247 0 min 0,000 mm 0,0 UV-I 0 W/m 5,2 C 1,7 C 20,9 km/h (4 Bft) 95,65 %
05.01.2018 05:45 7,6 C 3,9 C 85 % 1003,8 hPa 0,0 l/m 12,9 km/h (3 Bft) W 270 0 min 0,000 mm 0,0 UV-I 0 W/m 5,2 C 3,3 C 19,3 km/h (3 Bft) 100,00 %
05.01.2018 05:46 7,6 C 3,9 C 85 % 1003,8 hPa 0,0 l/m 14,5 km/h (3 Bft) W-SW 247 0 min 0,000 mm 0,0 UV-I 0 W/m 5,2 C 2,5 C 20,9 km/h (4 Bft) 100,00 %
05.01.2018 05:47 7,7 C 3,9 C 85 % 1003,8 hPa 0,0 l/m 12,9 km/h (3 Bft) W 270 0 min 0,000 mm 0,0 UV-I 0 W/m 5,3 C 3,4 C 17,7 km/h (3 Bft) 100,00 %
05.01.2018 05:48 7,7 C 3,9 C 84 % 1003,8 hPa 0,0 l/m 14,5 km/h (3 Bft) W 270 0 min 0,000 mm 0,0 UV-I 0 W/m 5,2 C 2,6 C 22,5 km/h (4 Bft) 100,00 %
05.01.2018 05:49 7,7 C 3,9 C 84 % 1003,9 hPa 0,0 l/m 11,3 km/h (2 Bft) W 270 0 min 0,000 mm 0,0 UV-I 0 W/m 5,2 C 4,3 C 16,1 km/h (3 Bft) 100,00 %
05.01.2018 05:50 7,7 C 3,9 C 84 % 1004,0 hPa 0,0 l/m 11,3 km/h (2 Bft) W 270 0 min 0,000 mm 0,0 UV-I 0 W/m 5,2 C 4,3 C 14,5 km/h (3 Bft) 95,65 %
05.01.2018 05:51 7,7 C 3,9 C 84 % 1003,9 hPa 0,0 l/m 12,9 km/h (3 Bft) W 270 0 min 0,000 mm 0,0 UV-I 0 W/m 5,2 C 3,4 C 16,1 km/h (3 Bft) 100,00 %
05.01.2018 05:52 7,7 C 3,9 C 84 % 1004,0 hPa 0,0 l/m 11,3 km/h (2 Bft) W-SW 247 0 min 0,000 mm 0,0 UV-I 0 W/m 5,2 C 4,3 C 14,5 km/h (3 Bft) 95,65 %
05.01.2018 05:53 7,7 C 3,9 C 84 % 1003,9 hPa 0,0 l/m 12,9 km/h (3 Bft) W-SW 247 0 min 0,000 mm 0,0 UV-I 0 W/m 5,2 C 3,4 C 17,7 km/h (3 Bft) 100,00 %
05.01.2018 05:54 7,7 C 3,9 C 84 % 1003,9 hPa 0,0 l/m 14,5 km/h (3 Bft) W-SW 247 0 min 0,000 mm 0,0 UV-I 0 W/m 5,2 C 2,6 C 19,3 km/h (3 Bft) 100,00 %
05.01.2018 05:55 7,7 C 3,9 C 84 % 1003,9 hPa 0,0 l/m 12,9 km/h (3 Bft) W 270 0 min 0,000 mm 0,0 UV-I 0 W/m 5,2 C 3,4 C 16,1 km/h (3 Bft) 100,00 %
05.01.2018 05:56 7,7 C 3,9 C 84 % 1004,0 hPa 0,0 l/m 12,9 km/h (3 Bft) W-SW 247 0 min 0,000 mm 0,0 UV-I 0 W/m 5,2 C 3,4 C 16,1 km/h (3 Bft) 100,00 %
05.01.2018 05:57 7,7 C 3,9 C 84 % 1004,0 hPa 0,0 l/m 12,9 km/h (3 Bft) W-SW 247 0 min 0,000 mm 0,0 UV-I 0 W/m 5,2 C 3,4 C 17,7 km/h (3 Bft) 95,65 %
05.01.2018 05:58 7,7 C 3,9 C 84 % 1004,0 hPa 0,0 l/m 8,0 km/h (2 Bft) W-SW 247 0 min 0,000 mm 0,0 UV-I 0 W/m 5,2 C 6,4 C 11,3 km/h (2 Bft) 100,00 %
05.01.2018 05:59 7,7 C 3,9 C 85 % 1004,0 hPa 0,0 l/m 9,7 km/h (2 Bft) W-SW 247 0 min 0,000 mm 0,0 UV-I 0 W/m 5,3 C 5,2 C 19,3 km/h (3 Bft) 100,00 %
05.01.2018 06:00 7,7 C 3,9 C 85 % 1004,0 hPa 0,0 l/m 12,9 km/h (3 Bft) W-SW 247 0 min 0,025 mm 0,0 UV-I 0 W/m 5,3 C 3,4 C 17,7 km/h (3 Bft) 100,00 %
05.01.2018 06:01 7,7 C 3,9 C 84 % 1004,0 hPa 0,0 l/m 11,3 km/h (2 Bft) W-SW 247 0 min 0,000 mm 0,0 UV-I 0 W/m 5,2 C 4,3 C 16,1 km/h (3 Bft) 95,65 %
05.01.2018 06:02 7,7 C 3,9 C 84 % 1004,0 hPa 0,0 l/m 9,7 km/h (2 Bft) W 270 0 min 0,000 mm 0,0 UV-I 0 W/m 5,2 C 5,2 C 14,5 km/h (3 Bft) 100,00 %
05.01.2018 06:03 7,7 C 3,9 C 84 % 1004,0 hPa 0,0 l/m 9,7 km/h (2 Bft) W-SW 247 0 min 0,000 mm 0,0 UV-I 0 W/m 5,2 C 5,2 C 12,9 km/h (3 Bft) 100,00 %
05.01.2018 06:04 7,6 C 3,9 C 84 % 1004,0 hPa 0,0 l/m 9,7 km/h (2 Bft) W 270 0 min 0,000 mm 0,0 UV-I 0 W/m 5,1 C 5,1 C 12,9 km/h (3 Bft) 95,65 %
05.01.2018 06:05 7,6 C 3,9 C 85 % 1004,1 hPa 0,0 l/m 9,7 km/h (2 Bft) SW 225 0 min 0,000 mm 0,0 UV-I 0 W/m 5,2 C 5,1 C 12,9 km/h (3 Bft) 86,96 %
05.01.2018 06:06 7,6 C 3,9 C 85 % 1004,1 hPa 0,0 l/m 9,7 km/h (2 Bft) W-SW 247 0 min 0,000 mm 0,0 UV-I 0 W/m 5,2 C 5,1 C 12,9 km/h (3 Bft) 100,00 %
05.01.2018 06:07 7,6 C 3,9 C 85 % 1004,1 hPa 0,0 l/m 9,7 km/h (2 Bft) W-SW 247 0 min 0,000 mm 0,0 UV-I 0 W/m 5,2 C 5,1 C 14,5 km/h (3 Bft) 91,30 %
05.01.2018 06:08 7,6 C 3,9 C 85 % 1004,2 hPa 0,0 l/m 11,3 km/h (2 Bft) W-SW 247 0 min 0,000 mm 0,0 UV-I 0 W/m 5,2 C 4,1 C 16,1 km/h (3 Bft) 100,00 %
05.01.2018 06:09 7,5 C 3,9 C 85 % 1004,2 hPa 0,0 l/m 8,0 km/h (2 Bft) W-SW 247 0 min 0,000 mm 0,0 UV-I 0 W/m 5,1 C 6,2 C 11,3 km/h (2 Bft) 91,30 %
05.01.2018 06:10 7,4 C 3,9 C 85 % 1004,2 hPa 0,0 l/m 6,4 km/h (2 Bft) SW 225 0 min 0,000 mm 0,0 UV-I 0 W/m 5,0 C 7,4 C 9,7 km/h (2 Bft) 100,00 %
05.01.2018 06:11 7,4 C 3,9 C 85 % 1004,1 hPa 0,0 l/m 9,7 km/h (2 Bft) SW 225 0 min 0,000 mm 0,0 UV-I 0 W/m 5,0 C 4,9 C 11,3 km/h (2 Bft) 91,30 %
05.01.2018 06:12 7,4 C 3,9 C 85 % 1004,2 hPa 0,0 l/m 8,0 km/h (2 Bft) W-SW 247 0 min 0,000 mm 0,0 UV-I 0 W/m 5,0 C 6,1 C 12,9 km/h (3 Bft) 95,65 %
05.01.2018 06:13 7,4 C 3,9 C 85 % 1004,2 hPa 0,0 l/m 8,0 km/h (2 Bft) SW 225 0 min 0,000 mm 0,0 UV-I 0 W/m 5,0 C 6,1 C 11,3 km/h (2 Bft) 95,65 %
05.01.2018 06:14 7,4 C 3,9 C 85 % 1004,2 hPa 0,0 l/m 9,7 km/h (2 Bft) SW 225 0 min 0,000 mm 0,0 UV-I 0 W/m 5,0 C 4,9 C 14,5 km/h (3 Bft) 100,00 %
05.01.2018 06:15 7,4 C 3,9 C 85 % 1004,3 hPa 0,0 l/m 14,5 km/h (3 Bft) SW 225 0 min 0,000 mm 0,0 UV-I 0 W/m 5,0 C 2,2 C 17,7 km/h (3 Bft) 95,65 %
05.01.2018 06:16 7,4 C 3,9 C 86 % 1004,3 hPa 0,0 l/m 9,7 km/h (2 Bft) SW 225 0 min 0,000 mm 0,0 UV-I 0 W/m 5,2 C 4,9 C 12,9 km/h (3 Bft) 86,96 %
05.01.2018 06:17 7,4 C 3,9 C 86 % 1004,3 hPa 0,0 l/m 9,7 km/h (2 Bft) SW 225 0 min 0,000 mm 0,0 UV-I 0 W/m 5,2 C 4,9 C 14,5 km/h (3 Bft) 95,65 %
05.01.2018 06:18 7,4 C 3,9 C 86 % 1004,3 hPa 0,0 l/m 11,3 km/h (2 Bft) SW 225 0 min 0,000 mm 0,0 UV-I 0 W/m 5,2 C 3,9 C 14,5 km/h (3 Bft) 91,30 %
05.01.2018 06:19 7,4 C 3,9 C 86 % 1004,3 hPa 0,0 l/m 9,7 km/h (2 Bft) W-SW 247 0 min 0,000 mm 0,0 UV-I 0 W/m 5,2 C 4,9 C 14,5 km/h (3 Bft) 91,30 %
05.01.2018 06:20 7,4 C 3,9 C 85 % 1004,2 hPa 0,0 l/m 12,9 km/h (3 Bft) W-SW 247 0 min 0,000 mm 0,0 UV-I 0 W/m 5,0 C 3,0 C 16,1 km/h (3 Bft) 91,30 %
05.01.2018 06:21 7,4 C 3,9 C 85 % 1004,3 hPa 0,0 l/m 9,7 km/h (2 Bft) SW 225 0 min 0,000 mm 0,0 UV-I 0 W/m 5,0 C 4,9 C 16,1 km/h (3 Bft) 100,00 %
05.01.2018 06:22 7,4 C 3,9 C 85 % 1004,3 hPa 0,0 l/m 11,3 km/h (2 Bft) S-SW 202 0 min 0,000 mm 0,0 UV-I 0 W/m 5,0 C 3,9 C 19,3 km/h (3 Bft) 91,30 %
05.01.2018 06:23 7,4 C 3,9 C 85 % 1004,3 hPa 0,0 l/m 11,3 km/h (2 Bft) SW 225 0 min 0,000 mm 0,0 UV-I 0 W/m 5,0 C 3,9 C 14,5 km/h (3 Bft) 95,65 %
05.01.2018 06:24 7,4 C 3,9 C 85 % 1004,4 hPa 0,0 l/m 9,7 km/h (2 Bft) SW 225 0 min 0,000 mm 0,0 UV-I 0 W/m 5,0 C 4,9 C 12,9 km/h (3 Bft) 86,96 %
05.01.2018 06:25 7,4 C 3,9 C 85 % 1004,4 hPa 0,0 l/m 11,3 km/h (2 Bft) SW 225 0 min 0,000 mm 0,0 UV-I 0 W/m 5,0 C 3,9 C 12,9 km/h (3 Bft) 91,30 %
05.01.2018 06:26 7,4 C 3,9 C 85 % 1004,4 hPa 0,0 l/m 9,7 km/h (2 Bft) SW 225 0 min 0,000 mm 0,0 UV-I 0 W/m 5,0 C 4,9 C 16,1 km/h (3 Bft) 95,65 %
05.01.2018 06:27 7,4 C 3,9 C 85 % 1004,4 hPa 0,0 l/m 11,3 km/h (2 Bft) W-SW 247 0 min 0,000 mm 0,0 UV-I 0 W/m 5,0 C 3,9 C 19,3 km/h (3 Bft) 95,65 %
05.01.2018 06:28 7,4 C 3,9 C 86 % 1004,4 hPa 0,0 l/m 14,5 km/h (3 Bft) W-SW 247 0 min 0,000 mm 0,0 UV-I 0 W/m 5,2 C 2,2 C 24,1 km/h (4 Bft) 95,65 %
05.01.2018 06:29 7,4 C 3,9 C 86 % 1004,3 hPa 0,0 l/m 11,3 km/h (2 Bft) SW 225 0 min 0,000 mm 0,0 UV-I 0 W/m 5,2 C 3,9 C 16,1 km/h (3 Bft) 91,30 %
05.01.2018 06:30 7,4 C 3,9 C 86 % 1004,3 hPa 0,0 l/m 11,3 km/h (2 Bft) SW 225 0 min 0,000 mm 0,0 UV-I 0 W/m 5,2 C 3,9 C 12,9 km/h (3 Bft) 100,00 %
05.01.2018 06:31 7,4 C 3,9 C 85 % 1004,3 hPa 0,0 l/m 11,3 km/h (2 Bft) SW 225 0 min 0,000 mm 0,0 UV-I 0 W/m 5,0 C 3,9 C 12,9 km/h (3 Bft) 95,65 %
05.01.2018 06:32 7,4 C 3,9 C 85 % 1004,3 hPa 0,0 l/m 8,0 km/h (2 Bft) SW 225 0 min 0,000 mm 0,0 UV-I 0 W/m 5,0 C 6,1 C 11,3 km/h (2 Bft) 91,30 %
05.01.2018 06:33 7,4 C 3,9 C 85 % 1004,4 hPa 0,0 l/m 9,7 km/h (2 Bft) SW 225 0 min 0,000 mm 0,0 UV-I 0 W/m 5,0 C 4,9 C 14,5 km/h (3 Bft) 100,00 %
05.01.2018 06:34 7,3 C 3,9 C 86 % 1004,4 hPa 0,0 l/m 8,0 km/h (2 Bft) W-SW 247 0 min 0,000 mm 0,0 UV-I 0 W/m 5,1 C 6,0 C 12,9 km/h (3 Bft) 95,65 %
05.01.2018 06:35 7,3 C 3,9 C 86 % 1004,4 hPa 0,0 l/m 12,9 km/h (3 Bft) SW 225 0 min 0,000 mm 0,0 UV-I 0 W/m 5,1 C 2,9 C 17,7 km/h (3 Bft) 100,00 %
05.01.2018 06:36 7,3 C 3,9 C 86 % 1004,4 hPa 0,0 l/m 11,3 km/h (2 Bft) W-SW 247 0 min 0,000 mm 0,0 UV-I 0 W/m 5,1 C 3,8 C 16,1 km/h (3 Bft) 95,65 %
05.01.2018 06:37 7,3 C 3,9 C 86 % 1004,4 hPa 0,0 l/m 4,8 km/h (1 Bft) SW 225 0 min 0,000 mm 0,0 UV-I 0 W/m 5,1 C 7,3 C 9,7 km/h (2 Bft) 100,00 %
05.01.2018 06:38 7,3 C 3,9 C 86 % 1004,5 hPa 0,0 l/m 8,0 km/h (2 Bft) W-SW 247 0 min 0,000 mm 0,0 UV-I 0 W/m 5,1 C 6,0 C 11,3 km/h (2 Bft) 95,65 %
05.01.2018 06:39 7,3 C 3,9 C 86 % 1004,5 hPa 0,0 l/m 8,0 km/h (2 Bft) SW 225 0 min 0,000 mm 0,0 UV-I 0 W/m 5,1 C 6,0 C 11,3 km/h (2 Bft) 95,65 %
05.01.2018 06:40 7,3 C 3,9 C 86 % 1004,5 hPa 0,0 l/m 16,1 km/h (3 Bft) SW 225 0 min 0,000 mm 0,0 UV-I 0 W/m 5,1 C 1,4 C 27,4 km/h (4 Bft) 95,65 %
05.01.2018 06:41 7,4 C 3,9 C 86 % 1004,5 hPa 0,0 l/m 16,1 km/h (3 Bft) SW 225 0 min 0,000 mm 0,0 UV-I 0 W/m 5,2 C 1,5 C 24,1 km/h (4 Bft) 95,65 %
05.01.2018 06:42 7,4 C 3,9 C 85 % 1004,5 hPa 0,0 l/m 9,7 km/h (2 Bft) W-SW 247 0 min 0,000 mm 0,0 UV-I 0 W/m 5,0 C 4,9 C 12,9 km/h (3 Bft) 100,00 %
05.01.2018 06:43 7,4 C 3,9 C 85 % 1004,5 hPa 0,0 l/m 8,0 km/h (2 Bft) SW 225 0 min 0,000 mm 0,0 UV-I 0 W/m 5,0 C 6,1 C 9,7 km/h (2 Bft) 95,65 %
05.01.2018 06:44 7,4 C 3,9 C 85 % 1004,5 hPa 0,0 l/m 4,8 km/h (1 Bft) SW 225 0 min 0,000 mm 0,0 UV-I 0 W/m 5,0 C 7,4 C 6,4 km/h (2 Bft) 100,00 %
05.01.2018 06:45 7,3 C 3,9 C 85 % 1004,5 hPa 0,0 l/m 8,0 km/h (2 Bft) W-SW 247 0 min 0,000 mm 0,0 UV-I 0 W/m 4,9 C 6,0 C 11,3 km/h (2 Bft) 95,65 %
05.01.2018 06:46 7,3 C 3,9 C 85 % 1004,4 hPa 0,0 l/m 11,3 km/h (2 Bft) W-SW 247 0 min 0,000 mm 0,0 UV-I 0 W/m 4,9 C 3,8 C 17,7 km/h (3 Bft) 95,65 %
05.01.2018 06:47 7,3 C 3,9 C 85 % 1004,5 hPa 0,0 l/m 11,3 km/h (2 Bft) W-SW 247 0 min 0,000 mm 0,0 UV-I 0 W/m 4,9 C 3,8 C 16,1 km/h (3 Bft) 95,65 %
05.01.2018 06:48 7,3 C 3,9 C 85 % 1004,5 hPa 0,0 l/m 9,7 km/h (2 Bft) W-SW 247 0 min 0,000 mm 0,0 UV-I 0 W/m 4,9 C 4,8 C 14,5 km/h (3 Bft) 95,65 %
05.01.2018 06:49 7,3 C 3,9 C 85 % 1004,5 hPa 0,0 l/m 9,7 km/h (2 Bft) SW 225 0 min 0,000 mm 0,0 UV-I 0 W/m 4,9 C 4,8 C 14,5 km/h (3 Bft) 100,00 %
05.01.2018 06:50 7,3 C 3,9 C 85 % 1004,5 hPa 0,0 l/m 9,7 km/h (2 Bft) W-SW 247 0 min 0,000 mm 0,0 UV-I 0 W/m 4,9 C 4,8 C 14,5 km/h (3 Bft) 95,65 %
05.01.2018 06:51 7,4 C 3,9 C 85 % 1004,5 hPa 0,0 l/m 12,9 km/h (3 Bft) W-SW 247 0 min 0,000 mm 0,0 UV-I 0 W/m 5,0 C 3,0 C 16,1 km/h (3 Bft) 100,00 %
05.01.2018 06:52 7,4 C 3,9 C 85 % 1004,5 hPa 0,0 l/m 12,9 km/h (3 Bft) W-SW 247 0 min 0,000 mm 0,0 UV-I 0 W/m 5,0 C 3,0 C 16,1 km/h (3 Bft) 95,65 %
05.01.2018 06:53 7,4 C 3,9 C 85 % 1004,6 hPa 0,0 l/m 12,9 km/h (3 Bft) W-SW 247 0 min 0,000 mm 0,0 UV-I 0 W/m 5,0 C 3,0 C 16,1 km/h (3 Bft) 95,65 %
05.01.2018 06:54 7,4 C 3,9 C 85 % 1004,6 hPa 0,0 l/m 12,9 km/h (3 Bft) W 270 0 min 0,000 mm 0,0 UV-I 0 W/m 5,0 C 3,0 C 17,7 km/h (3 Bft) 91,30 %
05.01.2018 06:55 7,4 C 3,9 C 85 % 1004,6 hPa 0,0 l/m 14,5 km/h (3 Bft) W-SW 247 0 min 0,000 mm 0,0 UV-I 0 W/m 5,0 C 2,2 C 17,7 km/h (3 Bft) 100,00 %
05.01.2018 06:56 7,3 C 3,9 C 85 % 1004,6 hPa 0,0 l/m 12,9 km/h (3 Bft) W-SW 247 0 min 0,000 mm 0,0 UV-I 0 W/m 4,9 C 2,9 C 19,3 km/h (3 Bft) 95,65 %
05.01.2018 06:57 7,3 C 3,9 C 85 % 1004,7 hPa 0,0 l/m 11,3 km/h (2 Bft) W-SW 247 0 min 0,000 mm 0,0 UV-I 0 W/m 4,9 C 3,8 C 16,1 km/h (3 Bft) 100,00 %
05.01.2018 06:58 7,3 C 3,9 C 84 % 1004,7 hPa 0,0 l/m 11,3 km/h (2 Bft) W-SW 247 0 min 0,000 mm 0,0 UV-I 0 W/m 4,8 C 3,8 C 16,1 km/h (3 Bft) 95,65 %
05.01.2018 06:59 7,3 C 3,9 C 85 % 1004,8 hPa 0,0 l/m 9,7 km/h (2 Bft) W-SW 247 0 min 0,000 mm 0,0 UV-I 0 W/m 4,9 C 4,8 C 12,9 km/h (3 Bft) 100,00 %
05.01.2018 07:00 7,3 C 3,9 C 85 % 1004,8 hPa 0,0 l/m 9,7 km/h (2 Bft) W-SW 247 0 min 0,025 mm 0,0 UV-I 0 W/m 4,9 C 4,8 C 14,5 km/h (3 Bft) 95,65 %
05.01.2018 07:01 7,3 C 3,9 C 85 % 1004,8 hPa 0,0 l/m 12,9 km/h (3 Bft) W 270 0 min 0,000 mm 0,0 UV-I 0 W/m 4,9 C 2,9 C 16,1 km/h (3 Bft) 100,00 %
05.01.2018 07:02 7,3 C 3,9 C 85 % 1004,8 hPa 0,0 l/m 9,7 km/h (2 Bft) W 270 0 min 0,000 mm 0,0 UV-I 0 W/m 4,9 C 4,8 C 14,5 km/h (3 Bft) 100,00 %
05.01.2018 07:03 7,3 C 3,9 C 84 % 1004,8 hPa 0,0 l/m 11,3 km/h (2 Bft) W 270 0 min 0,000 mm 0,0 UV-I 0 W/m 4,8 C 3,8 C 16,1 km/h (3 Bft) 100,00 %
05.01.2018 07:04 7,3 C 3,9 C 85 % 1004,9 hPa 0,0 l/m 9,7 km/h (2 Bft) W 270 0 min 0,000 mm 0,0 UV-I 0 W/m 4,9 C 4,8 C 12,9 km/h (3 Bft) 100,00 %
05.01.2018 07:05 7,3 C 3,9 C 85 % 1004,9 hPa 0,0 l/m 8,0 km/h (2 Bft) W 270 0 min 0,000 mm 0,0 UV-I 0 W/m 4,9 C 6,0 C 11,3 km/h (2 Bft) 100,00 %
05.01.2018 07:06 7,2 C 3,9 C 85 % 1004,9 hPa 0,0 l/m 8,0 km/h (2 Bft) W 270 0 min 0,000 mm 0,0 UV-I 0 W/m 4,9 C 5,9 C 14,5 km/h (3 Bft) 100,00 %
05.01.2018 07:07 7,2 C 3,9 C 85 % 1004,9 hPa 0,0 l/m 9,7 km/h (2 Bft) W-SW 247 0 min 0,000 mm 0,0 UV-I 0 W/m 4,9 C 4,7 C 12,9 km/h (3 Bft) 95,65 %
05.01.2018 07:08 7,2 C 3,9 C 85 % 1004,9 hPa 0,0 l/m 9,7 km/h (2 Bft) W 270 0 min 0,000 mm 0,0 UV-I 0 W/m 4,9 C 4,7 C 12,9 km/h (3 Bft) 100,00 %
05.01.2018 07:09 7,3 C 3,9 C 85 % 1004,9 hPa 0,0 l/m 9,7 km/h (2 Bft) W-NW 292 0 min 0,000 mm 0,0 UV-I 0 W/m 4,9 C 4,8 C 14,5 km/h (3 Bft) 100,00 %
05.01.2018 07:10 7,3 C 3,9 C 85 % 1004,8 hPa 0,0 l/m 6,4 km/h (2 Bft) W 270 0 min 0,000 mm 0,0 UV-I 0 W/m 4,9 C 7,3 C 9,7 km/h (2 Bft) 100,00 %
05.01.2018 07:11 7,2 C 3,9 C 85 % 1004,8 hPa 0,0 l/m 6,4 km/h (2 Bft) W 270 0 min 0,000 mm 0,0 UV-I 0 W/m 4,9 C 7,2 C 9,7 km/h (2 Bft) 95,65 %
05.01.2018 07:12 7,2 C 3,9 C 85 % 1004,8 hPa 0,0 l/m 4,8 km/h (1 Bft) W 270 0 min 0,000 mm 0,0 UV-I 0 W/m 4,9 C 7,2 C 6,4 km/h (2 Bft) 100,00 %
05.01.2018 07:13 7,1 C 3,9 C 85 % 1004,7 hPa 0,0 l/m 4,8 km/h (1 Bft) W 270 0 min 0,000 mm 0,0 UV-I 0 W/m 4,8 C 7,1 C 6,4 km/h (2 Bft) 100,00 %
05.01.2018 07:14 7,0 C 3,9 C 85 % 1004,7 hPa 0,0 l/m 4,8 km/h (1 Bft) W 270 0 min 0,000 mm 0,0 UV-I 0 W/m 4,7 C 7,0 C 6,4 km/h (2 Bft) 95,65 %
05.01.2018 07:15 6,9 C 3,9 C 86 % 1004,7 hPa 0,0 l/m 6,4 km/h (2 Bft) W 270 0 min 0,000 mm 0,0 UV-I 0 W/m 4,7 C 6,9 C 9,7 km/h (2 Bft) 100,00 %
05.01.2018 07:16 6,9 C 3,9 C 86 % 1004,7 hPa 0,0 l/m 6,4 km/h (2 Bft) W 270 0 min 0,000 mm 0,0 UV-I 0 W/m 4,7 C 6,9 C 11,3 km/h (2 Bft) 100,00 %
05.01.2018 07:17 6,9 C 3,9 C 86 % 1004,8 hPa 0,0 l/m 6,4 km/h (2 Bft) W 270 0 min 0,000 mm 0,0 UV-I 0 W/m 4,7 C 6,9 C 9,7 km/h (2 Bft) 100,00 %
05.01.2018 07:18 6,9 C 3,9 C 86 % 1004,8 hPa 0,0 l/m 4,8 km/h (1 Bft) W 270 0 min 0,000 mm 0,0 UV-I 0 W/m 4,7 C 6,9 C 9,7 km/h (2 Bft) 100,00 %
05.01.2018 07:19 7,0 C 3,9 C 86 % 1004,8 hPa 0,0 l/m 4,8 km/h (1 Bft) W 270 0 min 0,000 mm 0,0 UV-I 0 W/m 4,8 C 7,0 C 6,4 km/h (2 Bft) 100,00 %
05.01.2018 07:20 7,0 C 3,9 C 86 % 1004,9 hPa 0,0 l/m 4,8 km/h (1 Bft) W-NW 292 0 min 0,000 mm 0,0 UV-I 0 W/m 4,8 C 7,0 C 9,7 km/h (2 Bft) 100,00 %
05.01.2018 07:21 7,0 C 3,9 C 86 % 1004,9 hPa 0,0 l/m 3,2 km/h (1 Bft) W 270 0 min 0,000 mm 0,0 UV-I 0 W/m 4,8 C 7,0 C 4,8 km/h (1 Bft) 95,65 %
05.01.2018 07:22 7,0 C 3,9 C 86 % 1004,9 hPa 0,0 l/m 4,8 km/h (1 Bft) W 270 0 min 0,000 mm 0,0 UV-I 0 W/m 4,8 C 7,0 C 6,4 km/h (2 Bft) 95,65 %
05.01.2018 07:23 6,9 C 3,9 C 86 % 1004,9 hPa 0,0 l/m 4,8 km/h (1 Bft) W 270 0 min 0,000 mm 0,0 UV-I 0 W/m 4,7 C 6,9 C 4,8 km/h (1 Bft) 95,65 %
05.01.2018 07:24 6,8 C 3,9 C 86 % 1004,8 hPa 0,0 l/m 4,8 km/h (1 Bft) W 270 0 min 0,000 mm 0,0 UV-I 0 W/m 4,6 C 6,8 C 4,8 km/h (1 Bft) 100,00 %
05.01.2018 07:25 6,8 C 3,9 C 87 % 1004,8 hPa 0,0 l/m 3,2 km/h (1 Bft) W 270 0 min 0,000 mm 0,0 UV-I 0 W/m 4,8 C 6,8 C 4,8 km/h (1 Bft) 95,65 %
05.01.2018 07:26 6,7 C 3,9 C 87 % 1004,8 hPa 0,0 l/m 3,2 km/h (1 Bft) W 270 0 min 0,000 mm 0,0 UV-I 0 W/m 4,7 C 6,7 C 4,8 km/h (1 Bft) 100,00 %
05.01.2018 07:27 6,7 C 3,9 C 87 % 1004,8 hPa 0,0 l/m 3,2 km/h (1 Bft) W 270 0 min 0,000 mm 0,0 UV-I 0 W/m 4,7 C 6,7 C 4,8 km/h (1 Bft) 100,00 %
05.01.2018 07:28 6,7 C 3,9 C 87 % 1004,8 hPa 0,0 l/m 3,2 km/h (1 Bft) W 270 0 min 0,000 mm 0,0 UV-I 0 W/m 4,7 C 6,7 C 4,8 km/h (1 Bft) 95,65 %
05.01.2018 07:29 6,7 C 3,9 C 87 % 1004,9 hPa 0,0 l/m 3,2 km/h (1 Bft) W 270 0 min 0,000 mm 0,0 UV-I 0 W/m 4,7 C 6,7 C 4,8 km/h (1 Bft) 100,00 %
05.01.2018 07:30 6,7 C 3,9 C 88 % 1004,8 hPa 0,0 l/m 3,2 km/h (1 Bft) W 270 0 min 0,000 mm 0,0 UV-I 0 W/m 4,9 C 6,7 C 4,8 km/h (1 Bft) 95,65 %
05.01.2018 07:31 6,7 C 3,9 C 88 % 1004,8 hPa 0,0 l/m 3,2 km/h (1 Bft) W 270 0 min 0,000 mm 0,0 UV-I 0 W/m 4,9 C 6,7 C 4,8 km/h (1 Bft) 100,00 %
05.01.2018 07:32 6,7 C 3,9 C 88 % 1004,8 hPa 0,0 l/m 4,8 km/h (1 Bft) W 270 0 min 0,000 mm 0,0 UV-I 0 W/m 4,9 C 6,7 C 4,8 km/h (1 Bft) 95,65 %
05.01.2018 07:33 6,7 C 3,9 C 88 % 1004,9 hPa 0,0 l/m 4,8 km/h (1 Bft) W 270 0 min 0,000 mm 0,0 UV-I 0 W/m 4,9 C 6,7 C 4,8 km/h (1 Bft) 100,00 %
05.01.2018 07:34 6,7 C 3,9 C 88 % 1004,8 hPa 0,0 l/m 3,2 km/h (1 Bft) W 270 0 min 0,000 mm 0,0 UV-I 0 W/m 4,9 C 6,7 C 4,8 km/h (1 Bft) 95,65 %
05.01.2018 07:35 6,7 C 3,9 C 88 % 1004,8 hPa 0,0 l/m 3,2 km/h (1 Bft) W 270 0 min 0,000 mm 0,0 UV-I 0 W/m 4,9 C 6,7 C 4,8 km/h (1 Bft) 95,65 %
05.01.2018 07:36 6,7 C 3,9 C 88 % 1004,8 hPa 0,0 l/m 3,2 km/h (1 Bft) W 270 0 min 0,000 mm 0,0 UV-I 0 W/m 4,9 C 6,7 C 4,8 km/h (1 Bft) 91,30 %
05.01.2018 07:37 6,7 C 3,9 C 88 % 1004,8 hPa 0,0 l/m 1,6 km/h (1 Bft) W 270 0 min 0,000 mm 0,0 UV-I 0 W/m 4,9 C 6,7 C 3,2 km/h (1 Bft) 100,00 %
05.01.2018 07:38 6,7 C 3,9 C 87 % 1004,9 hPa 0,0 l/m 3,2 km/h (1 Bft) W 270 0 min 0,000 mm 0,0 UV-I 0 W/m 4,7 C 6,7 C 4,8 km/h (1 Bft) 95,65 %
05.01.2018 07:39 6,6 C 3,9 C 88 % 1004,9 hPa 0,0 l/m 3,2 km/h (1 Bft) W 270 0 min 0,000 mm 0,0 UV-I 5 W/m 4,8 C 6,6 C 4,8 km/h (1 Bft) 95,65 %
05.01.2018 07:40 6,7 C 3,9 C 88 % 1004,9 hPa 0,0 l/m 3,2 km/h (1 Bft) W 270 0 min 0,000 mm 0,0 UV-I 5 W/m 4,9 C 6,7 C 3,2 km/h (1 Bft) 95,65 %
05.01.2018 07:41 6,7 C 3,9 C 88 % 1004,9 hPa 0,0 l/m 3,2 km/h (1 Bft) W 270 0 min 0,000 mm 0,0 UV-I 5 W/m 4,9 C 6,7 C 3,2 km/h (1 Bft) 95,65 %
05.01.2018 07:42 6,8 C 3,9 C 88 % 1004,9 hPa 0,0 l/m 3,2 km/h (1 Bft) W 270 0 min 0,000 mm 0,0 UV-I 5 W/m 5,0 C 6,8 C 3,2 km/h (1 Bft) 95,65 %
05.01.2018 07:43 6,8 C 3,9 C 87 % 1004,9 hPa 0,0 l/m 3,2 km/h (1 Bft) W 270 0 min 0,000 mm 0,0 UV-I 5 W/m 4,8 C 6,8 C 3,2 km/h (1 Bft) 95,65 %
05.01.2018 07:44 6,8 C 3,9 C 87 % 1004,9 hPa 0,0 l/m 1,6 km/h (1 Bft) W 270 0 min 0,000 mm 0,0 UV-I 5 W/m 4,8 C 6,8 C 3,2 km/h (1 Bft) 100,00 %
05.01.2018 07:45 6,8 C 3,9 C 87 % 1004,9 hPa 0,0 l/m 1,6 km/h (1 Bft) W 270 0 min 0,000 mm 0,0 UV-I 5 W/m 4,8 C 6,8 C 1,6 km/h (1 Bft) 95,65 %
05.01.2018 07:46 6,8 C 3,9 C 87 % 1004,9 hPa 0,0 l/m 1,6 km/h (1 Bft) W 270 0 min 0,000 mm 0,0 UV-I 5 W/m 4,8 C 6,8 C 1,6 km/h (1 Bft) 100,00 %
05.01.2018 07:47 6,7 C 3,9 C 87 % 1004,9 hPa 0,0 l/m 1,6 km/h (1 Bft) S 180 0 min 0,000 mm 0,0 UV-I 5 W/m 4,7 C 6,7 C 3,2 km/h (1 Bft) 91,30 %
05.01.2018 07:48 6,6 C 3,9 C 87 % 1004,9 hPa 0,0 l/m 1,6 km/h (1 Bft) S 180 0 min 0,000 mm 0,0 UV-I 7 W/m 4,6 C 6,6 C 4,8 km/h (1 Bft) 100,00 %
05.01.2018 07:49 6,4 C 3,9 C 87 % 1004,9 hPa 0,0 l/m 3,2 km/h (1 Bft) S 180 0 min 0,000 mm 0,0 UV-I 7 W/m 4,4 C 6,4 C 3,2 km/h (1 Bft) 91,30 %
05.01.2018 07:50 6,2 C 3,9 C 87 % 1004,8 hPa 0,0 l/m 1,6 km/h (1 Bft) S 180 0 min 0,000 mm 0,0 UV-I 7 W/m 4,2 C 6,2 C 3,2 km/h (1 Bft) 100,00 %
05.01.2018 07:51 5,9 C 3,9 C 88 % 1004,9 hPa 0,0 l/m 0,0 km/h (0 Bft) S 180 0 min 0,000 mm 0,0 UV-I 7 W/m 4,1 C 5,9 C 3,2 km/h (1 Bft) 95,65 %
05.01.2018 07:52 5,7 C 3,9 C 89 % 1004,9 hPa 0,0 l/m 0,0 km/h (0 Bft) S 180 0 min 0,000 mm 0,0 UV-I 7 W/m 4,0 C 5,7 C 3,2 km/h (1 Bft) 100,00 %
05.01.2018 07:53 5,7 C 3,9 C 90 % 1004,9 hPa 0,0 l/m 0,0 km/h (0 Bft) S 180 0 min 0,000 mm 0,0 UV-I 7 W/m 4,2 C 5,7 C 1,6 km/h (1 Bft) 95,65 %
05.01.2018 07:54 5,7 C 3,9 C 90 % 1004,9 hPa 0,0 l/m 0,0 km/h (0 Bft) S 180 0 min 0,000 mm 0,0 UV-I 7 W/m 4,2 C 5,7 C 1,6 km/h (1 Bft) 100,00 %
05.01.2018 07:55 5,7 C 3,9 C 90 % 1004,9 hPa 0,0 l/m 0,0 km/h (0 Bft) S 180 0 min 0,000 mm 0,0 UV-I 7 W/m 4,2 C 5,7 C 1,6 km/h (1 Bft) 95,65 %
05.01.2018 07:56 5,6 C 3,9 C 90 % 1004,9 hPa 0,0 l/m 0,0 km/h (0 Bft) S 180 0 min 0,000 mm 0,0 UV-I 7 W/m 4,1 C 5,6 C 1,6 km/h (1 Bft) 91,30 %
05.01.2018 07:57 5,6 C 3,9 C 91 % 1004,9 hPa 0,0 l/m 1,6 km/h (1 Bft) S 180 0 min 0,000 mm 0,0 UV-I 9 W/m 4,2 C 5,6 C 3,2 km/h (1 Bft) 95,65 %
05.01.2018 07:58 5,6 C 3,9 C 91 % 1004,9 hPa 0,0 l/m 1,6 km/h (1 Bft) S 180 0 min 0,000 mm 0,0 UV-I 9 W/m 4,2 C 5,6 C 1,6 km/h (1 Bft) 100,00 %
05.01.2018 07:59 5,6 C 3,9 C 91 % 1004,9 hPa 0,0 l/m 1,6 km/h (1 Bft) S 180 0 min 0,000 mm 0,0 UV-I 9 W/m 4,2 C 5,6 C 3,2 km/h (1 Bft) 100,00 %
05.01.2018 08:00 5,5 C 3,9 C 91 % 1004,9 hPa 0,0 l/m 1,6 km/h (1 Bft) S 180 0 min 0,000 mm 0,0 UV-I 9 W/m 4,2 C 5,5 C 3,2 km/h (1 Bft) 95,65 %
05.01.2018 08:01 5,5 C 3,9 C 92 % 1005,0 hPa 0,0 l/m 1,6 km/h (1 Bft) S 180 0 min 0,000 mm 0,0 UV-I 9 W/m 4,3 C 5,5 C 3,2 km/h (1 Bft) 95,65 %
05.01.2018 08:02 5,6 C 3,9 C 92 % 1005,0 hPa 0,0 l/m 1,6 km/h (1 Bft) S 180 0 min 0,000 mm 0,0 UV-I 7 W/m 4,4 C 5,6 C 3,2 km/h (1 Bft) 95,65 %
05.01.2018 08:03 5,6 C 3,9 C 92 % 1005,0 hPa 0,0 l/m 1,6 km/h (1 Bft) S 180 0 min 0,000 mm 0,0 UV-I 9 W/m 4,4 C 5,6 C 1,6 km/h (1 Bft) 100,00 %
05.01.2018 08:04 5,5 C 3,9 C 92 % 1005,0 hPa 0,0 l/m 1,6 km/h (1 Bft) S 180 0 min 0,000 mm 0,0 UV-I 9 W/m 4,3 C 5,5 C 3,2 km/h (1 Bft) 91,30 %
05.01.2018 08:05 5,4 C 3,9 C 92 % 1005,0 hPa 0,0 l/m 1,6 km/h (1 Bft) S 180 0 min 0,000 mm 0,0 UV-I 11 W/m 4,2 C 5,4 C 3,2 km/h (1 Bft) 100,00 %
05.01.2018 08:06 5,3 C 3,9 C 92 % 1005,0 hPa 0,0 l/m 3,2 km/h (1 Bft) S 180 1 min 0,000 mm 0,0 UV-I 11 W/m 4,1 C 5,3 C 3,2 km/h (1 Bft) 100,00 %
05.01.2018 08:07 5,3 C 3,9 C 92 % 1005,0 hPa 0,0 l/m 1,6 km/h (1 Bft) S 180 1 min 0,000 mm 0,0 UV-I 11 W/m 4,1 C 5,3 C 3,2 km/h (1 Bft) 100,00 %
05.01.2018 08:08 5,3 C 3,9 C 93 % 1005,0 hPa 0,0 l/m 1,6 km/h (1 Bft) S 180 1 min 0,000 mm 0,0 UV-I 12 W/m 4,3 C 5,3 C 3,2 km/h (1 Bft) 100,00 %
05.01.2018 08:09 5,4 C 3,9 C 93 % 1005,0 hPa 0,0 l/m 1,6 km/h (1 Bft) S 180 0 min 0,000 mm 0,0 UV-I 12 W/m 4,4 C 5,4 C 3,2 km/h (1 Bft) 95,65 %
05.01.2018 08:10 5,6 C 3,9 C 93 % 1005,0 hPa 0,0 l/m 1,6 km/h (1 Bft) S 180 0 min 0,000 mm 0,0 UV-I 12 W/m 4,6 C 5,6 C 1,6 km/h (1 Bft) 100,00 %
05.01.2018 08:11 5,7 C 3,9 C 93 % 1005,0 hPa 0,0 l/m 1,6 km/h (1 Bft) S 180 0 min 0,000 mm 0,0 UV-I 11 W/m 4,7 C 5,7 C 1,6 km/h (1 Bft) 95,65 %
05.01.2018 08:12 5,9 C 3,9 C 93 % 1005,1 hPa 0,0 l/m 1,6 km/h (1 Bft) S 180 0 min 0,000 mm 0,0 UV-I 11 W/m 4,9 C 5,9 C 3,2 km/h (1 Bft) 100,00 %
05.01.2018 08:13 5,9 C 3,9 C 92 % 1005,0 hPa 0,0 l/m 1,6 km/h (1 Bft) S 180 0 min 0,000 mm 0,0 UV-I 11 W/m 4,7 C 5,9 C 3,2 km/h (1 Bft) 100,00 %
05.01.2018 08:14 5,9 C 3,9 C 92 % 1005,0 hPa 0,0 l/m 3,2 km/h (1 Bft) S 180 0 min 0,000 mm 0,0 UV-I 11 W/m 4,7 C 5,9 C 3,2 km/h (1 Bft) 100,00 %
05.01.2018 08:15 5,8 C 3,9 C 92 % 1005,0 hPa 0,0 l/m 3,2 km/h (1 Bft) S 180 0 min 0,000 mm 0,0 UV-I 11 W/m 4,6 C 5,8 C 4,8 km/h (1 Bft) 100,00 %
05.01.2018 08:16 5,7 C 3,9 C 92 % 1005,0 hPa 0,0 l/m 3,2 km/h (1 Bft) S 180 0 min 0,000 mm 0,0 UV-I 9 W/m 4,5 C 5,7 C 4,8 km/h (1 Bft) 91,30 %
05.01.2018 08:17 5,7 C 3,9 C 92 % 1005,0 hPa 0,0 l/m 3,2 km/h (1 Bft) S 180 0 min 0,000 mm 0,0 UV-I 9 W/m 4,5 C 5,7 C 3,2 km/h (1 Bft) 100,00 %
05.01.2018 08:18 5,6 C 3,9 C 92 % 1005,0 hPa 0,0 l/m 3,2 km/h (1 Bft) S 180 0 min 0,000 mm 0,0 UV-I 11 W/m 4,4 C 5,6 C 4,8 km/h (1 Bft) 95,65 %
05.01.2018 08:19 5,4 C 3,9 C 93 % 1005,0 hPa 0,0 l/m 4,8 km/h (1 Bft) S 180 0 min 0,000 mm 0,0 UV-I 11 W/m 4,4 C 5,4 C 4,8 km/h (1 Bft) 95,65 %
05.01.2018 08:20 5,4 C 3,9 C 93 % 1005,0 hPa 0,0 l/m 3,2 km/h (1 Bft) S 180 0 min 0,000 mm 0,0 UV-I 11 W/m 4,4 C 5,4 C 4,8 km/h (1 Bft) 95,65 %
05.01.2018 08:21 5,4 C 3,9 C 94 % 1005,0 hPa 0,0 l/m 3,2 km/h (1 Bft) S 180 0 min 0,000 mm 0,0 UV-I 9 W/m 4,5 C 5,4 C 3,2 km/h (1 Bft) 100,00 %
05.01.2018 08:22 5,4 C 3,9 C 94 % 1005,0 hPa 0,0 l/m 1,6 km/h (1 Bft) S 180 0 min 0,000 mm 0,0 UV-I 11 W/m 4,5 C 5,4 C 3,2 km/h (1 Bft) 100,00 %
05.01.2018 08:23 5,4 C 3,9 C 94 % 1005,0 hPa 0,0 l/m 3,2 km/h (1 Bft) S 180 0 min 0,000 mm 0,0 UV-I 11 W/m 4,5 C 5,4 C 3,2 km/h (1 Bft) 95,65 %
05.01.2018 08:24 5,4 C 3,9 C 94 % 1005,1 hPa 0,0 l/m 3,2 km/h (1 Bft) S 180 0 min 0,000 mm 0,0 UV-I 12 W/m 4,5 C 5,4 C 4,8 km/h (1 Bft) 91,30 %
05.01.2018 08:25 5,5 C 3,9 C 95 % 1005,0 hPa 0,0 l/m 4,8 km/h (1 Bft) S 180 0 min 0,000 mm 0,0 UV-I 12 W/m 4,8 C 5,5 C 6,4 km/h (2 Bft) 95,65 %
05.01.2018 08:26 5,6 C 3,9 C 95 % 1005,1 hPa 0,0 l/m 6,4 km/h (2 Bft) S 180 0 min 0,000 mm 0,0 UV-I 12 W/m 4,9 C 5,6 C 8,0 km/h (2 Bft) 100,00 %
05.01.2018 08:27 5,6 C 3,9 C 95 % 1005,0 hPa 0,0 l/m 4,8 km/h (1 Bft) SO 135 0 min 0,000 mm 0,0 UV-I 12 W/m 4,9 C 5,6 C 6,4 km/h (2 Bft) 100,00 %
05.01.2018 08:28 5,6 C 3,9 C 95 % 1005,1 hPa 0,0 l/m 3,2 km/h (1 Bft) SO 135 0 min 0,000 mm 0,0 UV-I 12 W/m 4,9 C 5,6 C 4,8 km/h (1 Bft) 100,00 %
05.01.2018 08:29 5,7 C 3,9 C 95 % 1005,1 hPa 0,0 l/m 4,8 km/h (1 Bft) SO 135 0 min 0,000 mm 0,0 UV-I 14 W/m 5,0 C 5,7 C 6,4 km/h (2 Bft) 100,00 %
05.01.2018 08:30 5,7 C 3,9 C 95 % 1005,0 hPa 0,0 l/m 6,4 km/h (2 Bft) O-SO 112 0 min 0,000 mm 0,0 UV-I 14 W/m 5,0 C 5,7 C 9,7 km/h (2 Bft) 100,00 %
05.01.2018 08:31 5,7 C 3,9 C 95 % 1004,9 hPa 0,0 l/m 4,8 km/h (1 Bft) O-SO 112 0 min 0,000 mm 0,0 UV-I 16 W/m 5,0 C 5,7 C 6,4 km/h (2 Bft) 100,00 %
05.01.2018 08:32 5,7 C 3,9 C 95 % 1005,0 hPa 0,0 l/m 1,6 km/h (1 Bft) O-SO 112 0 min 0,000 mm 0,0 UV-I 16 W/m 5,0 C 5,7 C 4,8 km/h (1 Bft) 91,30 %
05.01.2018 08:33 5,8 C 3,9 C 95 % 1005,0 hPa 0,0 l/m 3,2 km/h (1 Bft) O-SO 112 0 min 0,000 mm 0,0 UV-I 20 W/m 5,1 C 5,8 C 4,8 km/h (1 Bft) 100,00 %
05.01.2018 08:34 5,8 C 3,9 C 95 % 1004,9 hPa 0,0 l/m 4,8 km/h (1 Bft) O-SO 112 0 min 0,000 mm 0,0 UV-I 23 W/m 5,1 C 5,8 C 6,4 km/h (2 Bft) 91,30 %
05.01.2018 08:35 5,9 C 3,9 C 95 % 1004,9 hPa 0,0 l/m 6,4 km/h (2 Bft) O-SO 112 0 min 0,000 mm 0,0 UV-I 25 W/m 5,2 C 5,9 C 9,7 km/h (2 Bft) 100,00 %
05.01.2018 08:36 5,8 C 3,9 C 95 % 1004,9 hPa 0,0 l/m 4,8 km/h (1 Bft) O-SO 112 0 min 0,000 mm 0,0 UV-I 26 W/m 5,1 C 5,8 C 4,8 km/h (1 Bft) 95,65 %
05.01.2018 08:37 5,8 C 3,9 C 94 % 1005,0 hPa 0,0 l/m 1,6 km/h (1 Bft) O-SO 112 0 min 0,000 mm 0,0 UV-I 25 W/m 4,9 C 5,8 C 3,2 km/h (1 Bft) 100,00 %
05.01.2018 08:38 5,9 C 3,9 C 95 % 1005,0 hPa 0,0 l/m 1,6 km/h (1 Bft) O-SO 112 0 min 0,000 mm 0,0 UV-I 26 W/m 5,2 C 5,9 C 3,2 km/h (1 Bft) 95,65 %
05.01.2018 08:39 5,9 C 3,9 C 94 % 1005,0 hPa 0,0 l/m 3,2 km/h (1 Bft) O-SO 112 0 min 0,000 mm 0,0 UV-I 32 W/m 5,0 C 5,9 C 4,8 km/h (1 Bft) 95,65 %
05.01.2018 08:40 5,9 C 3,9 C 94 % 1004,9 hPa 0,0 l/m 3,2 km/h (1 Bft) O-SO 112 0 min 0,000 mm 0,0 UV-I 32 W/m 5,0 C 5,9 C 4,8 km/h (1 Bft) 95,65 %
05.01.2018 08:41 5,9 C 3,9 C 94 % 1005,0 hPa 0,0 l/m 4,8 km/h (1 Bft) O-SO 112 0 min 0,000 mm 0,0 UV-I 32 W/m 5,0 C 5,9 C 4,8 km/h (1 Bft) 95,65 %
05.01.2018 08:42 5,9 C 3,9 C 94 % 1004,9 hPa 0,0 l/m 4,8 km/h (1 Bft) O-SO 112 0 min 0,000 mm 0,0 UV-I 33 W/m 5,0 C 5,9 C 8,0 km/h (2 Bft) 100,00 %
05.01.2018 08:43 6,0 C 3,9 C 94 % 1004,8 hPa 0,0 l/m 6,4 km/h (2 Bft) O-SO 112 0 min 0,000 mm 0,0 UV-I 35 W/m 5,1 C 6,0 C 11,3 km/h (2 Bft) 91,30 %
05.01.2018 08:44 6,1 C 3,9 C 94 % 1004,8 hPa 0,0 l/m 4,8 km/h (1 Bft) O 90 0 min 0,000 mm 0,0 UV-I 37 W/m 5,2 C 6,1 C 11,3 km/h (2 Bft) 100,00 %
05.01.2018 08:45 6,2 C 3,9 C 94 % 1005,0 hPa 0,0 l/m 0,0 km/h (0 Bft) O 90 0 min 0,000 mm 0,0 UV-I 37 W/m 5,3 C 6,2 C 3,2 km/h (1 Bft) 95,65 %
05.01.2018 08:46 6,2 C 3,9 C 94 % 1004,9 hPa 0,0 l/m 3,2 km/h (1 Bft) O 90 0 min 0,000 mm 0,0 UV-I 44 W/m 5,3 C 6,2 C 4,8 km/h (1 Bft) 95,65 %
05.01.2018 08:47 6,3 C 3,9 C 94 % 1004,8 hPa 0,0 l/m 4,8 km/h (1 Bft) SO 135 0 min 0,000 mm 0,0 UV-I 56 W/m 5,4 C 6,3 C 8,0 km/h (2 Bft) 91,30 %
05.01.2018 08:48 6,4 C 3,9 C 93 % 1004,9 hPa 0,0 l/m 1,6 km/h (1 Bft) SO 135 1 min 0,000 mm 0,0 UV-I 67 W/m 5,4 C 6,4 C 4,8 km/h (1 Bft) 100,00 %
05.01.2018 08:49 6,4 C 3,9 C 93 % 1004,9 hPa 0,0 l/m 1,6 km/h (1 Bft) SO 135 0 min 0,000 mm 0,0 UV-I 53 W/m 5,4 C 6,4 C 3,2 km/h (1 Bft) 95,65 %
05.01.2018 08:50 6,4 C 3,9 C 93 % 1004,9 hPa 0,0 l/m 3,2 km/h (1 Bft) SO 135 0 min 0,000 mm 0,0 UV-I 47 W/m 5,4 C 6,4 C 6,4 km/h (2 Bft) 95,65 %
05.01.2018 08:51 6,4 C 3,9 C 93 % 1004,9 hPa 0,0 l/m 4,8 km/h (1 Bft) SO 135 0 min 0,000 mm 0,0 UV-I 43 W/m 5,4 C 6,4 C 6,4 km/h (2 Bft) 100,00 %
05.01.2018 08:52 6,4 C 3,9 C 93 % 1004,9 hPa 0,0 l/m 3,2 km/h (1 Bft) SO 135 0 min 0,000 mm 0,0 UV-I 40 W/m 5,4 C 6,4 C 6,4 km/h (2 Bft) 95,65 %
05.01.2018 08:53 6,4 C 3,9 C 93 % 1005,1 hPa 0,0 l/m 3,2 km/h (1 Bft) SW 225 0 min 0,000 mm 0,0 UV-I 39 W/m 5,4 C 6,4 C 4,8 km/h (1 Bft) 95,65 %
05.01.2018 08:54 6,4 C 3,9 C 93 % 1005,1 hPa 0,0 l/m 1,6 km/h (1 Bft) SW 225 0 min 0,000 mm 0,0 UV-I 47 W/m 5,4 C 6,4 C 3,2 km/h (1 Bft) 95,65 %
05.01.2018 08:55 6,4 C 3,9 C 92 % 1004,9 hPa 0,0 l/m 3,2 km/h (1 Bft) SW 225 0 min 0,000 mm 0,0 UV-I 62 W/m 5,2 C 6,4 C 4,8 km/h (1 Bft) 100,00 %
05.01.2018 08:56 6,4 C 3,9 C 92 % 1005,0 hPa 0,0 l/m 1,6 km/h (1 Bft) S 180 0 min 0,000 mm 0,0 UV-I 60 W/m 5,2 C 6,4 C 3,2 km/h (1 Bft) 95,65 %
05.01.2018 08:57 6,4 C 3,9 C 92 % 1005,0 hPa 0,0 l/m 3,2 km/h (1 Bft) S 180 0 min 0,000 mm 0,0 UV-I 58 W/m 5,2 C 6,4 C 4,8 km/h (1 Bft) 95,65 %
05.01.2018 08:58 6,3 C 3,9 C 92 % 1004,9 hPa 0,0 l/m 1,6 km/h (1 Bft) S 180 0 min 0,000 mm 0,0 UV-I 58 W/m 5,1 C 6,3 C 3,2 km/h (1 Bft) 95,65 %
05.01.2018 08:59 6,3 C 3,9 C 92 % 1005,0 hPa 0,0 l/m 1,6 km/h (1 Bft) S 180 0 min 0,000 mm 0,0 UV-I 56 W/m 5,1 C 6,3 C 3,2 km/h (1 Bft) 91,30 %
05.01.2018 09:00 6,2 C 3,9 C 92 % 1005,0 hPa 0,0 l/m 0,0 km/h (0 Bft) S 180 0 min 0,025 mm 0,0 UV-I 58 W/m 5,0 C 6,2 C 1,6 km/h (1 Bft) 95,65 %
05.01.2018 09:01 6,2 C 3,9 C 93 % 1005,0 hPa 0,0 l/m 0,0 km/h (0 Bft) S 180 0 min 0,000 mm 0,0 UV-I 60 W/m 5,2 C 6,2 C 1,6 km/h (1 Bft) 95,65 %
05.01.2018 09:02 6,2 C 3,9 C 93 % 1005,0 hPa 0,0 l/m 1,6 km/h (1 Bft) S 180 0 min 0,000 mm 0,0 UV-I 57 W/m 5,2 C 6,2 C 3,2 km/h (1 Bft) 100,00 %
05.01.2018 09:03 6,2 C 3,9 C 93 % 1005,0 hPa 0,0 l/m 3,2 km/h (1 Bft) S 180 0 min 0,000 mm 0,0 UV-I 62 W/m 5,2 C 6,2 C 4,8 km/h (1 Bft) 95,65 %
05.01.2018 09:04 6,3 C 3,9 C 93 % 1005,0 hPa 0,0 l/m 3,2 km/h (1 Bft) S 180 0 min 0,000 mm 0,0 UV-I 67 W/m 5,3 C 6,3 C 6,4 km/h (2 Bft) 95,65 %
05.01.2018 09:05 6,3 C 3,9 C 93 % 1005,0 hPa 0,0 l/m 3,2 km/h (1 Bft) S 180 0 min 0,000 mm 0,0 UV-I 74 W/m 5,3 C 6,3 C 4,8 km/h (1 Bft) 95,65 %
05.01.2018 09:06 6,2 C 3,9 C 93 % 1005,0 hPa 0,0 l/m 4,8 km/h (1 Bft) SO 135 0 min 0,000 mm 0,0 UV-I 77 W/m 5,2 C 6,2 C 6,4 km/h (2 Bft) 95,65 %
05.01.2018 09:07 6,2 C 3,9 C 93 % 1005,0 hPa 0,0 l/m 4,8 km/h (1 Bft) SO 135 0 min 0,000 mm 0,0 UV-I 76 W/m 5,2 C 6,2 C 6,4 km/h (2 Bft) 91,30 %
05.01.2018 09:08 6,3 C 3,9 C 93 % 1005,0 hPa 0,0 l/m 3,2 km/h (1 Bft) SO 135 0 min 0,000 mm 0,0 UV-I 75 W/m 5,3 C 6,3 C 6,4 km/h (2 Bft) 91,30 %
05.01.2018 09:09 6,3 C 3,9 C 93 % 1005,1 hPa 0,0 l/m 1,6 km/h (1 Bft) SO 135 0 min 0,000 mm 0,0 UV-I 83 W/m 5,3 C 6,3 C 3,2 km/h (1 Bft) 100,00 %
05.01.2018 09:10 6,3 C 3,9 C 93 % 1005,1 hPa 0,0 l/m 0,0 km/h (0 Bft) SO 135 0 min 0,000 mm 0,0 UV-I 79 W/m 5,3 C 6,3 C 1,6 km/h (1 Bft) 91,30 %
05.01.2018 09:11 6,3 C 3,9 C 93 % 1005,1 hPa 0,0 l/m 0,0 km/h (0 Bft) N 0 0 min 0,000 mm 0,0 UV-I 76 W/m 5,3 C 6,3 C 0,0 km/h (0 Bft) 100,00 %
05.01.2018 09:12 6,4 C 3,9 C 93 % 1005,2 hPa 0,0 l/m 0,0 km/h (0 Bft) SO 135 0 min 0,000 mm 0,0 UV-I 74 W/m 5,4 C 6,4 C 1,6 km/h (1 Bft) 91,30 %
05.01.2018 09:13 6,4 C 3,9 C 93 % 1005,2 hPa 0,0 l/m 0,0 km/h (0 Bft) N 0 0 min 0,000 mm 0,0 UV-I 76 W/m 5,4 C 6,4 C 0,0 km/h (0 Bft) 21,74 %
05.01.2018 09:14 6,2 C 3,9 C 92 % 1005,2 hPa 0,0 l/m 1,6 km/h (1 Bft) SO 135 0 min 0,000 mm 0,0 UV-I 84 W/m 5,0 C 6,2 C 3,2 km/h (1 Bft) 47,83 %
05.01.2018 09:15 6,2 C 3,9 C 92 % 1005,2 hPa 0,0 l/m 3,2 km/h (1 Bft) SO 135 0 min 0,000 mm 0,0 UV-I 84 W/m 5,0 C 6,2 C 3,2 km/h (1 Bft) 100,00 %
05.01.2018 09:16 6,1 C 3,9 C 92 % 1005,1 hPa 0,0 l/m 3,2 km/h (1 Bft) SO 135 0 min 0,000 mm 0,0 UV-I 84 W/m 4,9 C 6,1 C 3,2 km/h (1 Bft) 100,00 %
05.01.2018 09:17 6,2 C 3,9 C 93 % 1005,1 hPa 0,0 l/m 3,2 km/h (1 Bft) SO 135 0 min 0,000 mm 0,0 UV-I 86 W/m 5,2 C 6,2 C 4,8 km/h (1 Bft) 95,65 %
05.01.2018 09:18 6,3 C 3,9 C 93 % 1005,1 hPa 0,0 l/m 3,2 km/h (1 Bft) SO 135 0 min 0,000 mm 0,0 UV-I 88 W/m 5,3 C 6,3 C 4,8 km/h (1 Bft) 100,00 %
05.01.2018 09:19 6,4 C 3,9 C 93 % 1005,1 hPa 0,0 l/m 3,2 km/h (1 Bft) SO 135 0 min 0,000 mm 0,0 UV-I 90 W/m 5,4 C 6,4 C 4,8 km/h (1 Bft) 95,65 %
05.01.2018 09:20 6,6 C 3,9 C 93 % 1005,1 hPa 0,0 l/m 1,6 km/h (1 Bft) SO 135 0 min 0,000 mm 0,0 UV-I 88 W/m 5,6 C 6,6 C 3,2 km/h (1 Bft) 100,00 %
05.01.2018 09:21 6,6 C 3,9 C 93 % 1005,0 hPa 0,0 l/m 1,6 km/h (1 Bft) SO 135 0 min 0,000 mm 0,0 UV-I 90 W/m 5,6 C 6,6 C 3,2 km/h (1 Bft) 91,30 %
05.01.2018 09:22 6,6 C 3,9 C 92 % 1005,0 hPa 0,0 l/m 1,6 km/h (1 Bft) SO 135 0 min 0,000 mm 0,0 UV-I 90 W/m 5,4 C 6,6 C 3,2 km/h (1 Bft) 100,00 %
05.01.2018 09:23 6,6 C 3,9 C 92 % 1005,0 hPa 0,0 l/m 0,0 km/h (0 Bft) SO 135 0 min 0,000 mm 0,0 UV-I 95 W/m 5,4 C 6,6 C 1,6 km/h (1 Bft) 91,30 %
05.01.2018 09:24 6,6 C 3,9 C 92 % 1005,0 hPa 0,0 l/m 0,0 km/h (0 Bft) N 0 0 min 0,000 mm 0,0 UV-I 98 W/m 5,4 C 6,6 C 0,0 km/h (0 Bft) 100,00 %
05.01.2018 09:25 6,4 C 3,9 C 92 % 1005,0 hPa 0,0 l/m 1,6 km/h (1 Bft) SO 135 1 min 0,000 mm 0,0 UV-I 102 W/m 5,2 C 6,4 C 1,6 km/h (1 Bft) 95,65 %
05.01.2018 09:26 6,4 C 3,9 C 92 % 1005,0 hPa 0,0 l/m 1,6 km/h (1 Bft) SO 135 1 min 0,000 mm 0,0 UV-I 107 W/m 5,2 C 6,4 C 3,2 km/h (1 Bft) 100,00 %
05.01.2018 09:27 6,4 C 3,9 C 93 % 1005,0 hPa 0,0 l/m 1,6 km/h (1 Bft) SO 135 1 min 0,000 mm 0,0 UV-I 130 W/m 5,4 C 6,4 C 3,2 km/h (1 Bft) 91,30 %
05.01.2018 09:28 6,5 C 3,9 C 93 % 1005,1 hPa 0,0 l/m 1,6 km/h (1 Bft) SO 135 1 min 0,000 mm 0,0 UV-I 127 W/m 5,5 C 6,5 C 3,2 km/h (1 Bft) 95,65 %
05.01.2018 09:29 6,4 C 3,9 C 93 % 1005,1 hPa 0,0 l/m 1,6 km/h (1 Bft) SO 135 1 min 0,000 mm 0,0 UV-I 130 W/m 5,4 C 6,4 C 3,2 km/h (1 Bft) 100,00 %
05.01.2018 09:30 6,4 C 3,9 C 93 % 1005,1 hPa 0,0 l/m 1,6 km/h (1 Bft) SO 135 1 min 0,000 mm 0,0 UV-I 146 W/m 5,4 C 6,4 C 3,2 km/h (1 Bft) 95,65 %
05.01.2018 09:31 6,4 C 3,9 C 93 % 1005,1 hPa 0,0 l/m 1,6 km/h (1 Bft) SO 135 1 min 0,000 mm 0,0 UV-I 132 W/m 5,4 C 6,4 C 3,2 km/h (1 Bft) 100,00 %
05.01.2018 09:32 6,4 C 3,9 C 93 % 1005,1 hPa 0,0 l/m 1,6 km/h (1 Bft) SO 135 1 min 0,000 mm 0,0 UV-I 125 W/m 5,4 C 6,4 C 3,2 km/h (1 Bft) 100,00 %
05.01.2018 09:33 6,5 C 3,9 C 93 % 1005,0 hPa 0,0 l/m 1,6 km/h (1 Bft) SO 135 1 min 0,000 mm 0,0 UV-I 123 W/m 5,5 C 6,5 C 3,2 km/h (1 Bft) 95,65 %
05.01.2018 09:34 6,6 C 3,9 C 93 % 1005,0 hPa 0,0 l/m 3,2 km/h (1 Bft) SO 135 0 min 0,000 mm 0,0 UV-I 109 W/m 5,6 C 6,6 C 3,2 km/h (1 Bft) 100,00 %
05.01.2018 09:35 6,6 C 3,9 C 94 % 1005,1 hPa 0,0 l/m 1,6 km/h (1 Bft) SO 135 0 min 0,000 mm 0,0 UV-I 105 W/m 5,7 C 6,6 C 3,2 km/h (1 Bft) 95,65 %
05.01.2018 09:36 6,6 C 3,9 C 94 % 1005,1 hPa 0,0 l/m 1,6 km/h (1 Bft) SO 135 0 min 0,000 mm 0,0 UV-I 105 W/m 5,7 C 6,6 C 1,6 km/h (1 Bft) 100,00 %
05.01.2018 09:37 6,6 C 3,9 C 94 % 1005,1 hPa 0,0 l/m 3,2 km/h (1 Bft) SO 135 0 min 0,000 mm 0,0 UV-I 111 W/m 5,7 C 6,6 C 4,8 km/h (1 Bft) 100,00 %
05.01.2018 09:38 6,6 C 3,9 C 94 % 1005,0 hPa 0,0 l/m 3,2 km/h (1 Bft) SO 135 1 min 0,000 mm 0,0 UV-I 115 W/m 5,7 C 6,6 C 6,4 km/h (2 Bft) 100,00 %
05.01.2018 09:39 6,7 C 3,9 C 94 % 1005,0 hPa 0,0 l/m 3,2 km/h (1 Bft) SO 135 0 min 0,000 mm 0,0 UV-I 113 W/m 5,8 C 6,7 C 6,4 km/h (2 Bft) 100,00 %
05.01.2018 09:40 6,7 C 3,9 C 94 % 1005,0 hPa 0,0 l/m 1,6 km/h (1 Bft) SO 135 0 min 0,000 mm 0,0 UV-I 113 W/m 5,8 C 6,7 C 4,8 km/h (1 Bft) 100,00 %
05.01.2018 09:41 6,7 C 3,9 C 94 % 1005,0 hPa 0,0 l/m 0,0 km/h (0 Bft) SO 135 0 min 0,000 mm 0,0 UV-I 113 W/m 5,8 C 6,7 C 1,6 km/h (1 Bft) 95,65 %
05.01.2018 09:42 6,7 C 3,9 C 94 % 1005,0 hPa 0,0 l/m 1,6 km/h (1 Bft) SO 135 0 min 0,000 mm 0,0 UV-I 114 W/m 5,8 C 6,7 C 3,2 km/h (1 Bft) 95,65 %
05.01.2018 09:43 6,7 C 3,9 C 93 % 1005,0 hPa 0,0 l/m 1,6 km/h (1 Bft) SO 135 1 min 0,000 mm 0,0 UV-I 122 W/m 5,6 C 6,7 C 3,2 km/h (1 Bft) 100,00 %
05.01.2018 09:44 6,7 C 3,9 C 93 % 1004,9 hPa 0,0 l/m 0,0 km/h (0 Bft) SO 135 1 min 0,000 mm 0,0 UV-I 132 W/m 5,6 C 6,7 C 1,6 km/h (1 Bft) 100,00 %
05.01.2018 09:45 6,7 C 3,9 C 93 % 1004,9 hPa 0,0 l/m 0,0 km/h (0 Bft) N 0 1 min 0,000 mm 0,0 UV-I 146 W/m 5,6 C 6,7 C 0,0 km/h (0 Bft) 100,00 %
05.01.2018 09:46 6,7 C 3,9 C 93 % 1004,9 hPa 0,0 l/m 0,0 km/h (0 Bft) SO 135 1 min 0,000 mm 0,0 UV-I 146 W/m 5,6 C 6,7 C 1,6 km/h (1 Bft) 100,00 %
05.01.2018 09:47 6,7 C 3,9 C 93 % 1004,9 hPa 0,0 l/m 1,6 km/h (1 Bft) SO 135 1 min 0,000 mm 0,0 UV-I 214 W/m 5,6 C 6,7 C 1,6 km/h (1 Bft) 100,00 %
05.01.2018 09:48 6,7 C 3,9 C 93 % 1004,8 hPa 0,0 l/m 0,0 km/h (0 Bft) N 0 1 min 0,000 mm 0,0 UV-I 202 W/m 5,6 C 6,7 C 0,0 km/h (0 Bft) 100,00 %
05.01.2018 09:49 6,7 C 3,9 C 93 % 1004,9 hPa 0,0 l/m 0,0 km/h (0 Bft) SO 135 1 min 0,000 mm 0,0 UV-I 187 W/m 5,6 C 6,7 C 1,6 km/h (1 Bft) 95,65 %
05.01.2018 09:50 6,7 C 3,9 C 93 % 1004,8 hPa 0,0 l/m 1,6 km/h (1 Bft) SO 135 1 min 0,000 mm 0,0 UV-I 163 W/m 5,6 C 6,7 C 3,2 km/h (1 Bft) 100,00 %
05.01.2018 09:51 6,7 C 3,9 C 93 % 1004,8 hPa 0,0 l/m 1,6 km/h (1 Bft) SO 135 1 min 0,000 mm 0,0 UV-I 165 W/m 5,6 C 6,7 C 3,2 km/h (1 Bft) 95,65 %
05.01.2018 09:52 6,8 C 3,9 C 93 % 1004,9 hPa 0,0 l/m 1,6 km/h (1 Bft) SO 135 1 min 0,000 mm 0,0 UV-I 144 W/m 5,7 C 6,8 C 3,2 km/h (1 Bft) 100,00 %
05.01.2018 09:53 6,8 C 3,9 C 93 % 1004,9 hPa 0,0 l/m 0,0 km/h (0 Bft) SO 135 1 min 0,000 mm 0,0 UV-I 141 W/m 5,7 C 6,8 C 3,2 km/h (1 Bft) 100,00 %
05.01.2018 09:54 6,8 C 3,9 C 93 % 1004,9 hPa 0,0 l/m 1,6 km/h (1 Bft) SO 135 1 min 0,000 mm 0,0 UV-I 137 W/m 5,7 C 6,8 C 1,6 km/h (1 Bft) 100,00 %
05.01.2018 09:55 6,8 C 3,9 C 93 % 1004,8 hPa 0,0 l/m 0,0 km/h (0 Bft) SO 135 1 min 0,000 mm 0,0 UV-I 160 W/m 5,7 C 6,8 C 1,6 km/h (1 Bft) 100,00 %
05.01.2018 09:56 6,9 C 3,9 C 93 % 1004,9 hPa 0,0 l/m 0,0 km/h (0 Bft) SO 135 1 min 0,000 mm 0,0 UV-I 176 W/m 5,8 C 6,9 C 1,6 km/h (1 Bft) 95,65 %
05.01.2018 09:57 7,0 C 3,9 C 93 % 1004,9 hPa 0,0 l/m 0,0 km/h (0 Bft) SO 135 1 min 0,000 mm 0,0 UV-I 165 W/m 5,9 C 7,0 C 1,6 km/h (1 Bft) 100,00 %
05.01.2018 09:58 7,0 C 3,9 C 93 % 1004,9 hPa 0,0 l/m 1,6 km/h (1 Bft) SO 135 1 min 0,000 mm 0,0 UV-I 163 W/m 5,9 C 7,0 C 3,2 km/h (1 Bft) 95,65 %
05.01.2018 09:59 7,0 C 3,9 C 92 % 1004,9 hPa 0,0 l/m 1,6 km/h (1 Bft) SO 135 1 min 0,000 mm 0,0 UV-I 156 W/m 5,8 C 7,0 C 3,2 km/h (1 Bft) 95,65 %
05.01.2018 10:00 6,9 C 3,9 C 92 % 1004,8 hPa 0,0 l/m 1,6 km/h (1 Bft) SO 135 1 min 0,051 mm 0,0 UV-I 176 W/m 5,7 C 6,9 C 1,6 km/h (1 Bft) 100,00 %
05.01.2018 10:01 6,9 C 3,9 C 92 % 1004,8 hPa 0,0 l/m 3,2 km/h (1 Bft) SO 135 1 min 0,000 mm 0,0 UV-I 258 W/m 5,7 C 6,9 C 4,8 km/h (1 Bft) 95,65 %
05.01.2018 10:02 7,1 C 3,9 C 92 % 1004,8 hPa 0,0 l/m 3,2 km/h (1 Bft) SO 135 1 min 0,000 mm 0,0 UV-I 276 W/m 5,9 C 7,1 C 4,8 km/h (1 Bft) 95,65 %
05.01.2018 10:03 7,2 C 3,9 C 93 % 1004,8 hPa 0,0 l/m 6,4 km/h (2 Bft) O-SO 112 1 min 0,000 mm 0,0 UV-I 207 W/m 6,1 C 7,2 C 11,3 km/h (2 Bft) 95,65 %
05.01.2018 10:04 7,4 C 3,9 C 93 % 1004,8 hPa 0,0 l/m 6,4 km/h (2 Bft) O 90 1 min 0,000 mm 0,0 UV-I 171 W/m 6,3 C 7,4 C 9,7 km/h (2 Bft) 100,00 %
05.01.2018 10:05 7,6 C 3,9 C 92 % 1004,7 hPa 0,0 l/m 3,2 km/h (1 Bft) S-SO 157 1 min 0,000 mm 0,0 UV-I 209 W/m 6,4 C 7,6 C 4,8 km/h (1 Bft) 100,00 %
05.01.2018 10:06 7,7 C 3,9 C 92 % 1004,7 hPa 0,0 l/m 1,6 km/h (1 Bft) S-SO 157 1 min 0,000 mm 0,0 UV-I 209 W/m 6,5 C 7,7 C 3,2 km/h (1 Bft) 95,65 %
05.01.2018 10:07 7,8 C 3,9 C 91 % 1004,8 hPa 0,0 l/m 1,6 km/h (1 Bft) S-SO 157 1 min 0,000 mm 0,0 UV-I 213 W/m 6,4 C 7,8 C 4,8 km/h (1 Bft) 95,65 %
05.01.2018 10:08 7,9 C 3,9 C 91 % 1004,9 hPa 0,0 l/m 3,2 km/h (1 Bft) S-SO 157 1 min 0,000 mm 0,0 UV-I 265 W/m 6,5 C 7,9 C 6,4 km/h (2 Bft) 100,00 %
05.01.2018 10:09 7,9 C 3,9 C 91 % 1004,9 hPa 0,0 l/m 4,8 km/h (1 Bft) S-SO 157 1 min 0,000 mm 0,0 UV-I 262 W/m 6,5 C 7,9 C 6,4 km/h (2 Bft) 100,00 %
05.01.2018 10:10 8,1 C 3,9 C 91 % 1004,9 hPa 0,0 l/m 4,8 km/h (1 Bft) S-SO 157 1 min 0,000 mm 0,0 UV-I 288 W/m 6,7 C 8,1 C 6,4 km/h (2 Bft) 95,65 %
05.01.2018 10:11 8,1 C 3,9 C 90 % 1004,9 hPa 0,0 l/m 4,8 km/h (1 Bft) S-SO 157 1 min 0,000 mm 0,0 UV-I 243 W/m 6,6 C 8,1 C 6,4 km/h (2 Bft) 95,65 %
05.01.2018 10:12 8,2 C 3,9 C 90 % 1004,9 hPa 0,0 l/m 1,6 km/h (1 Bft) SO 135 1 min 0,000 mm 0,0 UV-I 241 W/m 6,7 C 8,2 C 4,8 km/h (1 Bft) 100,00 %
05.01.2018 10:13 8,2 C 3,9 C 90 % 1005,0 hPa 0,0 l/m 1,6 km/h (1 Bft) SO 135 1 min 0,000 mm 0,0 UV-I 174 W/m 6,7 C 8,2 C 6,4 km/h (2 Bft) 91,30 %
05.01.2018 10:14 8,2 C 3,9 C 90 % 1005,0 hPa 0,0 l/m 4,8 km/h (1 Bft) SO 135 0 min 0,000 mm 0,0 UV-I 137 W/m 6,7 C 8,2 C 6,4 km/h (2 Bft) 100,00 %
05.01.2018 10:15 8,2 C 3,9 C 89 % 1005,0 hPa 0,0 l/m 3,2 km/h (1 Bft) SO 135 0 min 0,000 mm 0,0 UV-I 137 W/m 6,5 C 8,2 C 4,8 km/h (1 Bft) 91,30 %
05.01.2018 10:16 8,2 C 3,9 C 89 % 1005,0 hPa 0,0 l/m 1,6 km/h (1 Bft) SO 135 0 min 0,000 mm 0,0 UV-I 137 W/m 6,5 C 8,2 C 3,2 km/h (1 Bft) 95,65 %
05.01.2018 10:17 8,2 C 3,9 C 89 % 1005,0 hPa 0,0 l/m 1,6 km/h (1 Bft) SO 135 1 min 0,000 mm 0,0 UV-I 274 W/m 6,5 C 8,2 C 3,2 km/h (1 Bft) 95,65 %
05.01.2018 10:18 8,2 C 3,9 C 89 % 1005,0 hPa 0,0 l/m 1,6 km/h (1 Bft) SO 135 1 min 0,000 mm 0,0 UV-I 211 W/m 6,5 C 8,2 C 3,2 km/h (1 Bft) 100,00 %
05.01.2018 10:19 8,3 C 3,9 C 89 % 1005,1 hPa 0,0 l/m 1,6 km/h (1 Bft) SO 135 1 min 0,000 mm 0,0 UV-I 208 W/m 6,6 C 8,3 C 3,2 km/h (1 Bft) 100,00 %
05.01.2018 10:20 8,3 C 3,9 C 89 % 1005,0 hPa 0,0 l/m 3,2 km/h (1 Bft) SO 135 1 min 0,000 mm 0,0 UV-I 264 W/m 6,6 C 8,3 C 3,2 km/h (1 Bft) 100,00 %
05.01.2018 10:21 8,3 C 3,9 C 89 % 1005,0 hPa 0,0 l/m 0,0 km/h (0 Bft) SO 135 1 min 0,000 mm 0,0 UV-I 288 W/m 6,6 C 8,3 C 1,6 km/h (1 Bft) 95,65 %
05.01.2018 10:22 8,3 C 3,9 C 89 % 1005,0 hPa 0,0 l/m 0,0 km/h (0 Bft) SO 135 1 min 0,000 mm 0,0 UV-I 239 W/m 6,6 C 8,3 C 1,6 km/h (1 Bft) 95,65 %
05.01.2018 10:23 8,4 C 3,9 C 89 % 1005,0 hPa 0,0 l/m 1,6 km/h (1 Bft) SO 135 1 min 0,000 mm 0,0 UV-I 262 W/m 6,7 C 8,4 C 3,2 km/h (1 Bft) 100,00 %
05.01.2018 10:24 8,4 C 3,9 C 89 % 1004,9 hPa 0,0 l/m 3,2 km/h (1 Bft) SO 135 1 min 0,000 mm 0,0 UV-I 221 W/m 6,7 C 8,4 C 4,8 km/h (1 Bft) 95,65 %
05.01.2018 10:25 8,4 C 3,9 C 89 % 1004,9 hPa 0,0 l/m 1,6 km/h (1 Bft) SO 135 1 min 0,000 mm 0,0 UV-I 213 W/m 6,7 C 8,4 C 3,2 km/h (1 Bft) 100,00 %
05.01.2018 10:26 8,4 C 3,9 C 89 % 1004,9 hPa 0,0 l/m 3,2 km/h (1 Bft) SO 135 1 min 0,000 mm 0,0 UV-I 232 W/m 6,7 C 8,4 C 4,8 km/h (1 Bft) 95,65 %
05.01.2018 10:27 8,6 C 3,9 C 89 % 1004,9 hPa 0,0 l/m 3,2 km/h (1 Bft) SO 135 1 min 0,000 mm 0,0 UV-I 246 W/m 6,9 C 8,6 C 4,8 km/h (1 Bft) 100,00 %
05.01.2018 10:28 8,6 C 3,9 C 89 % 1004,8 hPa 0,0 l/m 3,2 km/h (1 Bft) SO 135 1 min 0,000 mm 0,0 UV-I 230 W/m 6,9 C 8,6 C 4,8 km/h (1 Bft) 100,00 %
05.01.2018 10:29 8,7 C 3,9 C 89 % 1004,8 hPa 0,0 l/m 4,8 km/h (1 Bft) SO 135 1 min 0,000 mm 0,0 UV-I 204 W/m 7,0 C 8,7 C 6,4 km/h (2 Bft) 91,30 %
05.01.2018 10:30 8,7 C 3,9 C 89 % 1004,8 hPa 0,0 l/m 3,2 km/h (1 Bft) SO 135 1 min 0,000 mm 0,0 UV-I 238 W/m 7,0 C 8,7 C 4,8 km/h (1 Bft) 100,00 %
05.01.2018 10:31 8,7 C 3,9 C 89 % 1004,9 hPa 0,0 l/m 3,2 km/h (1 Bft) SO 135 1 min 0,000 mm 0,0 UV-I 246 W/m 7,0 C 8,7 C 4,8 km/h (1 Bft) 91,30 %
05.01.2018 10:32 8,7 C 3,9 C 88 % 1004,9 hPa 0,0 l/m 4,8 km/h (1 Bft) O 90 1 min 0,000 mm 0,0 UV-I 243 W/m 6,8 C 8,7 C 6,4 km/h (2 Bft) 100,00 %
05.01.2018 10:33 8,8 C 3,9 C 89 % 1004,9 hPa 0,0 l/m 4,8 km/h (1 Bft) O 90 1 min 0,000 mm 0,0 UV-I 230 W/m 7,1 C 8,8 C 6,4 km/h (2 Bft) 95,65 %
05.01.2018 10:34 8,8 C 3,9 C 88 % 1004,9 hPa 0,0 l/m 6,4 km/h (2 Bft) O-NO 67 1 min 0,000 mm 0,0 UV-I 248 W/m 6,9 C 8,8 C 8,0 km/h (2 Bft) 95,65 %
05.01.2018 10:35 8,9 C 3,9 C 88 % 1004,8 hPa 0,0 l/m 4,8 km/h (1 Bft) O-NO 67 1 min 0,000 mm 0,0 UV-I 278 W/m 7,0 C 8,9 C 6,4 km/h (2 Bft) 100,00 %
05.01.2018 10:36 9,0 C 3,9 C 87 % 1004,8 hPa 0,0 l/m 4,8 km/h (1 Bft) O-NO 67 1 min 0,000 mm 0,5 UV-I 286 W/m 7,0 C 9,0 C 9,7 km/h (2 Bft) 91,30 %
05.01.2018 10:37 9,1 C 3,9 C 86 % 1004,8 hPa 0,0 l/m 6,4 km/h (2 Bft) O-NO 67 1 min 0,000 mm 0,5 UV-I 290 W/m 6,9 C 9,1 C 9,7 km/h (2 Bft) 100,00 %
05.01.2018 10:38 9,1 C 3,9 C 86 % 1004,7 hPa 0,0 l/m 6,4 km/h (2 Bft) O-NO 67 1 min 0,000 mm 0,5 UV-I 299 W/m 6,9 C 9,1 C 9,7 km/h (2 Bft) 91,30 %
05.01.2018 10:39 9,1 C 3,9 C 86 % 1004,8 hPa 0,0 l/m 6,4 km/h (2 Bft) O-NO 67 1 min 0,000 mm 0,5 UV-I 301 W/m 6,9 C 9,1 C 8,0 km/h (2 Bft) 100,00 %
05.01.2018 10:40 9,1 C 3,9 C 86 % 1004,9 hPa 0,0 l/m 6,4 km/h (2 Bft) O-NO 67 1 min 0,000 mm 0,5 UV-I 315 W/m 6,9 C 9,1 C 9,7 km/h (2 Bft) 86,96 %
05.01.2018 10:41 9,1 C 3,9 C 86 % 1004,7 hPa 0,0 l/m 6,4 km/h (2 Bft) O-NO 67 1 min 0,000 mm 0,5 UV-I 315 W/m 6,9 C 9,1 C 12,9 km/h (3 Bft) 91,30 %
05.01.2018 10:42 9,2 C 3,9 C 86 % 1004,7 hPa 0,0 l/m 8,0 km/h (2 Bft) O-NO 67 1 min 0,000 mm 0,5 UV-I 300 W/m 7,0 C 8,0 C 9,7 km/h (2 Bft) 91,30 %
05.01.2018 10:43 9,2 C 3,9 C 85 % 1004,7 hPa 0,0 l/m 6,4 km/h (2 Bft) O-NO 67 1 min 0,000 mm 0,5 UV-I 295 W/m 6,8 C 9,2 C 9,7 km/h (2 Bft) 91,30 %
05.01.2018 10:44 9,2 C 3,9 C 85 % 1004,6 hPa 0,0 l/m 6,4 km/h (2 Bft) O-NO 67 1 min 0,000 mm 0,5 UV-I 283 W/m 6,8 C 9,2 C 6,4 km/h (2 Bft) 95,65 %
05.01.2018 10:45 9,2 C 3,9 C 86 % 1004,7 hPa 0,0 l/m 6,4 km/h (2 Bft) O-NO 67 1 min 0,000 mm 0,5 UV-I 257 W/m 7,0 C 9,2 C 8,0 km/h (2 Bft) 91,30 %
05.01.2018 10:46 9,2 C 3,9 C 86 % 1004,7 hPa 0,0 l/m 6,4 km/h (2 Bft) O-NO 67 1 min 0,000 mm 0,5 UV-I 253 W/m 7,0 C 9,2 C 8,0 km/h (2 Bft) 91,30 %
05.01.2018 10:47 9,2 C 3,9 C 86 % 1004,7 hPa 0,0 l/m 6,4 km/h (2 Bft) O-NO 67 1 min 0,000 mm 0,5 UV-I 255 W/m 7,0 C 9,2 C 8,0 km/h (2 Bft) 95,65 %
05.01.2018 10:48 9,2 C 3,9 C 86 % 1004,7 hPa 0,0 l/m 4,8 km/h (1 Bft) O-NO 67 1 min 0,000 mm 0,5 UV-I 283 W/m 7,0 C 9,2 C 8,0 km/h (2 Bft) 95,65 %
05.01.2018 10:49 9,2 C 3,9 C 87 % 1004,7 hPa 0,0 l/m 4,8 km/h (1 Bft) O-NO 67 1 min 0,000 mm 0,5 UV-I 302 W/m 7,2 C 9,2 C 6,4 km/h (2 Bft) 95,65 %
05.01.2018 10:50 9,3 C 3,9 C 87 % 1004,6 hPa 0,0 l/m 3,2 km/h (1 Bft) O-NO 67 1 min 0,000 mm 0,5 UV-I 308 W/m 7,2 C 9,3 C 4,8 km/h (1 Bft) 95,65 %
05.01.2018 10:51 9,3 C 3,9 C 87 % 1004,7 hPa 0,0 l/m 3,2 km/h (1 Bft) O-NO 67 1 min 0,000 mm 0,5 UV-I 315 W/m 7,2 C 9,3 C 4,8 km/h (1 Bft) 91,30 %
05.01.2018 10:52 9,3 C 3,9 C 87 % 1004,7 hPa 0,0 l/m 3,2 km/h (1 Bft) O-NO 67 1 min 0,000 mm 0,5 UV-I 308 W/m 7,2 C 9,3 C 4,8 km/h (1 Bft) 91,30 %
05.01.2018 10:53 9,4 C 3,9 C 87 % 1004,7 hPa 0,0 l/m 4,8 km/h (1 Bft) O-NO 67 1 min 0,000 mm 0,5 UV-I 318 W/m 7,3 C 9,4 C 6,4 km/h (2 Bft) 95,65 %
05.01.2018 10:54 9,5 C 3,9 C 85 % 1004,6 hPa 0,0 l/m 3,2 km/h (1 Bft) O-SO 112 1 min 0,000 mm 0,5 UV-I 344 W/m 7,1 C 9,5 C 6,4 km/h (2 Bft) 95,65 %
05.01.2018 10:55 9,6 C 3,9 C 85 % 1004,6 hPa 0,0 l/m 3,2 km/h (1 Bft) O-SO 112 1 min 0,000 mm 0,6 UV-I 350 W/m 7,2 C 9,6 C 4,8 km/h (1 Bft) 95,65 %
05.01.2018 10:56 9,6 C 3,9 C 85 % 1004,6 hPa 0,0 l/m 4,8 km/h (1 Bft) O-SO 112 1 min 0,000 mm 0,6 UV-I 350 W/m 7,2 C 9,6 C 6,4 km/h (2 Bft) 95,65 %
05.01.2018 10:57 9,7 C 3,9 C 84 % 1004,5 hPa 0,0 l/m 6,4 km/h (2 Bft) O-NO 67 1 min 0,000 mm 0,6 UV-I 352 W/m 7,1 C 9,7 C 8,0 km/h (2 Bft) 91,30 %
05.01.2018 10:58 9,7 C 3,9 C 84 % 1004,5 hPa 0,0 l/m 6,4 km/h (2 Bft) O-NO 67 1 min 0,000 mm 0,6 UV-I 352 W/m 7,1 C 9,7 C 9,7 km/h (2 Bft) 95,65 %
05.01.2018 10:59 9,8 C 3,9 C 84 % 1004,4 hPa 0,0 l/m 4,8 km/h (1 Bft) O-NO 67 1 min 0,000 mm 0,6 UV-I 352 W/m 7,2 C 9,8 C 6,4 km/h (2 Bft) 91,30 %
05.01.2018 11:00 9,8 C 3,9 C 84 % 1004,5 hPa 0,0 l/m 4,8 km/h (1 Bft) O-NO 67 1 min 0,127 mm 0,6 UV-I 352 W/m 7,2 C 9,8 C 6,4 km/h (2 Bft) 100,00 %
05.01.2018 11:01 9,8 C 3,9 C 84 % 1004,5 hPa 0,0 l/m 4,8 km/h (1 Bft) O-NO 67 1 min 0,000 mm 0,6 UV-I 332 W/m 7,2 C 9,8 C 6,4 km/h (2 Bft) 91,30 %
05.01.2018 11:02 9,9 C 3,9 C 84 % 1004,5 hPa 0,0 l/m 3,2 km/h (1 Bft) O-NO 67 1 min 0,000 mm 0,6 UV-I 346 W/m 7,3 C 9,9 C 6,4 km/h (2 Bft) 100,00 %
05.01.2018 11:03 10,0 C 3,9 C 84 % 1004,5 hPa 0,0 l/m 4,8 km/h (1 Bft) O-NO 67 1 min 0,000 mm 0,6 UV-I 325 W/m 7,4 C 10,0 C 6,4 km/h (2 Bft) 95,65 %
05.01.2018 11:04 10,0 C 3,9 C 84 % 1004,5 hPa 0,0 l/m 4,8 km/h (1 Bft) O 90 1 min 0,000 mm 0,6 UV-I 318 W/m 7,4 C 10,0 C 4,8 km/h (1 Bft) 100,00 %
05.01.2018 11:05 10,0 C 3,9 C 84 % 1004,5 hPa 0,0 l/m 3,2 km/h (1 Bft) O 90 1 min 0,000 mm 0,6 UV-I 313 W/m 7,4 C 10,0 C 4,8 km/h (1 Bft) 95,65 %
05.01.2018 11:06 9,9 C 3,9 C 84 % 1004,5 hPa 0,0 l/m 3,2 km/h (1 Bft) O 90 1 min 0,000 mm 0,6 UV-I 329 W/m 7,3 C 9,9 C 4,8 km/h (1 Bft) 91,30 %
05.01.2018 11:07 9,9 C 3,9 C 84 % 1004,5 hPa 0,0 l/m 4,8 km/h (1 Bft) O 90 1 min 0,000 mm 0,6 UV-I 318 W/m 7,3 C 9,9 C 6,4 km/h (2 Bft) 95,65 %
05.01.2018 11:08 9,9 C 3,9 C 84 % 1004,5 hPa 0,0 l/m 3,2 km/h (1 Bft) O 90 1 min 0,000 mm 0,6 UV-I 281 W/m 7,3 C 9,9 C 4,8 km/h (1 Bft) 91,30 %
05.01.2018 11:09 10,1 C 3,9 C 85 % 1004,5 hPa 0,0 l/m 4,8 km/h (1 Bft) O 90 1 min 0,000 mm 0,6 UV-I 318 W/m 7,7 C 10,1 C 6,4 km/h (2 Bft) 100,00 %
05.01.2018 11:10 10,2 C 3,9 C 84 % 1004,5 hPa 0,0 l/m 4,8 km/h (1 Bft) SO 135 1 min 0,000 mm 0,6 UV-I 318 W/m 7,6 C 10,2 C 6,4 km/h (2 Bft) 100,00 %
05.01.2018 11:11 10,2 C 3,9 C 84 % 1004,5 hPa 0,0 l/m 6,4 km/h (2 Bft) SO 135 1 min 0,000 mm 0,6 UV-I 333 W/m 7,6 C 10,2 C 8,0 km/h (2 Bft) 100,00 %
05.01.2018 11:12 10,2 C 3,9 C 83 % 1004,5 hPa 0,0 l/m 6,4 km/h (2 Bft) SO 135 1 min 0,000 mm 0,6 UV-I 338 W/m 7,4 C 10,2 C 8,0 km/h (2 Bft) 100,00 %
05.01.2018 11:13 10,3 C 3,9 C 84 % 1004,5 hPa 0,0 l/m 4,8 km/h (1 Bft) SO 135 1 min 0,000 mm 0,6 UV-I 362 W/m 7,7 C 10,3 C 6,4 km/h (2 Bft) 95,65 %
05.01.2018 11:14 10,3 C 3,9 C 84 % 1004,5 hPa 0,0 l/m 6,4 km/h (2 Bft) SO 135 1 min 0,000 mm 0,6 UV-I 373 W/m 7,7 C 10,3 C 6,4 km/h (2 Bft) 100,00 %
05.01.2018 11:15 10,3 C 3,9 C 83 % 1004,4 hPa 0,0 l/m 4,8 km/h (1 Bft) SO 135 1 min 0,000 mm 0,6 UV-I 387 W/m 7,5 C 10,3 C 6,4 km/h (2 Bft) 100,00 %
05.01.2018 11:16 10,4 C 3,9 C 83 % 1004,4 hPa 0,0 l/m 6,4 km/h (2 Bft) O-SO 112 1 min 0,000 mm 0,6 UV-I 388 W/m 7,6 C 10,4 C 9,7 km/h (2 Bft) 100,00 %
05.01.2018 11:17 10,4 C 3,9 C 82 % 1004,4 hPa 0,0 l/m 4,8 km/h (1 Bft) O-SO 112 1 min 0,000 mm 0,6 UV-I 410 W/m 7,5 C 10,4 C 6,4 km/h (2 Bft) 100,00 %
05.01.2018 11:18 10,4 C 3,9 C 82 % 1004,4 hPa 0,0 l/m 3,2 km/h (1 Bft) O-SO 112 1 min 0,000 mm 0,6 UV-I 420 W/m 7,5 C 10,4 C 4,8 km/h (1 Bft) 95,65 %
05.01.2018 11:19 10,4 C 3,9 C 82 % 1004,4 hPa 0,0 l/m 4,8 km/h (1 Bft) O-SO 112 1 min 0,000 mm 0,6 UV-I 427 W/m 7,5 C 10,4 C 4,8 km/h (1 Bft) 100,00 %
05.01.2018 11:20 10,6 C 3,9 C 83 % 1004,4 hPa 0,0 l/m 4,8 km/h (1 Bft) O-NO 67 1 min 0,000 mm 0,6 UV-I 403 W/m 7,8 C 10,6 C 6,4 km/h (2 Bft) 95,65 %
05.01.2018 11:21 10,7 C 3,9 C 83 % 1004,4 hPa 0,0 l/m 4,8 km/h (1 Bft) O-NO 67 1 min 0,000 mm 0,6 UV-I 343 W/m 7,9 C 10,7 C 4,8 km/h (1 Bft) 100,00 %
05.01.2018 11:22 10,8 C 3,9 C 82 % 1004,3 hPa 0,0 l/m 4,8 km/h (1 Bft) O-NO 67 1 min 0,000 mm 0,6 UV-I 353 W/m 7,9 C 10,8 C 4,8 km/h (1 Bft) 100,00 %
05.01.2018 11:23 10,8 C 3,9 C 82 % 1004,3 hPa 0,0 l/m 4,8 km/h (1 Bft) O-NO 67 1 min 0,000 mm 0,6 UV-I 353 W/m 7,9 C 10,8 C 6,4 km/h (2 Bft) 100,00 %
05.01.2018 11:24 10,9 C 3,9 C 83 % 1004,3 hPa 0,0 l/m 4,8 km/h (1 Bft) O-NO 67 1 min 0,000 mm 0,6 UV-I 362 W/m 8,1 C 10,9 C 6,4 km/h (2 Bft) 100,00 %
05.01.2018 11:25 10,8 C 3,9 C 82 % 1004,4 hPa 0,0 l/m 3,2 km/h (1 Bft) O-NO 67 1 min 0,000 mm 0,6 UV-I 338 W/m 7,9 C 10,8 C 6,4 km/h (2 Bft) 100,00 %
05.01.2018 11:26 10,9 C 3,9 C 81 % 1004,4 hPa 0,0 l/m 4,8 km/h (1 Bft) O-NO 67 1 min 0,000 mm 0,6 UV-I 279 W/m 7,8 C 10,9 C 6,4 km/h (2 Bft) 95,65 %
05.01.2018 11:27 10,8 C 3,9 C 81 % 1004,4 hPa 0,0 l/m 3,2 km/h (1 Bft) O 90 1 min 0,000 mm 0,6 UV-I 255 W/m 7,7 C 10,8 C 4,8 km/h (1 Bft) 95,65 %
05.01.2018 11:28 10,8 C 3,9 C 81 % 1004,4 hPa 0,0 l/m 1,6 km/h (1 Bft) O 90 1 min 0,000 mm 0,6 UV-I 276 W/m 7,7 C 10,8 C 1,6 km/h (1 Bft) 100,00 %
05.01.2018 11:29 10,7 C 3,9 C 81 % 1004,4 hPa 0,0 l/m 1,6 km/h (1 Bft) O 90 1 min 0,000 mm 0,6 UV-I 304 W/m 7,6 C 10,7 C 3,2 km/h (1 Bft) 100,00 %
05.01.2018 11:30 10,7 C 3,9 C 82 % 1004,3 hPa 0,0 l/m 3,2 km/h (1 Bft) O 90 1 min 0,000 mm 0,6 UV-I 299 W/m 7,8 C 10,7 C 6,4 km/h (2 Bft) 100,00 %
05.01.2018 11:31 10,8 C 3,9 C 82 % 1004,3 hPa 0,0 l/m 6,4 km/h (2 Bft) O-NO 67 1 min 0,000 mm 0,6 UV-I 329 W/m 7,9 C 10,8 C 8,0 km/h (2 Bft) 100,00 %
05.01.2018 11:32 10,8 C 3,9 C 82 % 1004,3 hPa 0,0 l/m 6,4 km/h (2 Bft) O-NO 67 1 min 0,000 mm 0,6 UV-I 232 W/m 7,9 C 10,8 C 8,0 km/h (2 Bft) 100,00 %
05.01.2018 11:33 10,8 C 3,9 C 82 % 1004,3 hPa 0,0 l/m 4,8 km/h (1 Bft) O-SO 112 1 min 0,000 mm 0,6 UV-I 288 W/m 7,9 C 10,8 C 6,4 km/h (2 Bft) 100,00 %
05.01.2018 11:34 10,7 C 3,9 C 82 % 1004,3 hPa 0,0 l/m 4,8 km/h (1 Bft) O-SO 112 1 min 0,000 mm 0,6 UV-I 376 W/m 7,8 C 10,7 C 9,7 km/h (2 Bft) 95,65 %
05.01.2018 11:35 10,7 C 3,9 C 82 % 1004,2 hPa 0,0 l/m 6,4 km/h (2 Bft) O-SO 112 1 min 0,000 mm 0,6 UV-I 344 W/m 7,8 C 10,7 C 9,7 km/h (2 Bft) 95,65 %
05.01.2018 11:36 10,7 C 3,9 C 83 % 1004,2 hPa 0,0 l/m 8,0 km/h (2 Bft) O 90 1 min 0,000 mm 0,6 UV-I 304 W/m 7,9 C 9,6 C 11,3 km/h (2 Bft) 100,00 %
05.01.2018 11:37 10,7 C 3,9 C 83 % 1004,2 hPa 0,0 l/m 3,2 km/h (1 Bft) O-SO 112 1 min 0,000 mm 0,6 UV-I 253 W/m 7,9 C 10,7 C 6,4 km/h (2 Bft) 100,00 %
05.01.2018 11:38 10,8 C 3,9 C 82 % 1004,2 hPa 0,0 l/m 4,8 km/h (1 Bft) SO 135 1 min 0,000 mm 0,6 UV-I 274 W/m 7,9 C 10,8 C 6,4 km/h (2 Bft) 100,00 %
05.01.2018 11:39 10,8 C 3,9 C 82 % 1004,2 hPa 0,0 l/m 4,8 km/h (1 Bft) S-SO 157 1 min 0,000 mm 0,6 UV-I 325 W/m 7,9 C 10,8 C 8,0 km/h (2 Bft) 100,00 %
05.01.2018 11:40 10,8 C 3,9 C 83 % 1004,2 hPa 0,0 l/m 4,8 km/h (1 Bft) O 90 1 min 0,000 mm 0,6 UV-I 325 W/m 8,0 C 10,8 C 9,7 km/h (2 Bft) 100,00 %
05.01.2018 11:41 10,8 C 3,9 C 83 % 1004,1 hPa 0,0 l/m 3,2 km/h (1 Bft) O-SO 112 0 min 0,000 mm 0,6 UV-I 169 W/m 8,0 C 10,8 C 6,4 km/h (2 Bft) 95,65 %
05.01.2018 11:42 10,8 C 3,9 C 82 % 1004,1 hPa 0,0 l/m 3,2 km/h (1 Bft) S 180 1 min 0,000 mm 0,6 UV-I 346 W/m 7,9 C 10,8 C 6,4 km/h (2 Bft) 95,65 %
05.01.2018 11:43 10,8 C 3,9 C 82 % 1004,2 hPa 0,0 l/m 3,2 km/h (1 Bft) S-SO 157 1 min 0,000 mm 0,6 UV-I 301 W/m 7,9 C 10,8 C 6,4 km/h (2 Bft) 100,00 %
05.01.2018 11:44 10,8 C 3,9 C 83 % 1004,2 hPa 0,0 l/m 4,8 km/h (1 Bft) O-SO 112 1 min 0,000 mm 0,6 UV-I 294 W/m 8,0 C 10,8 C 9,7 km/h (2 Bft) 100,00 %
05.01.2018 11:45 10,9 C 3,9 C 82 % 1004,1 hPa 0,0 l/m 6,4 km/h (2 Bft) O 90 1 min 0,000 mm 0,6 UV-I 281 W/m 7,9 C 10,9 C 9,7 km/h (2 Bft) 100,00 %
05.01.2018 11:46 10,9 C 3,9 C 82 % 1004,1 hPa 0,0 l/m 3,2 km/h (1 Bft) O-SO 112 1 min 0,000 mm 0,7 UV-I 348 W/m 7,9 C 10,9 C 6,4 km/h (2 Bft) 100,00 %
05.01.2018 11:47 11,0 C 3,9 C 82 % 1004,2 hPa 0,0 l/m 4,8 km/h (1 Bft) SO 135 1 min 0,000 mm 0,7 UV-I 320 W/m 8,0 C 11,0 C 9,7 km/h (2 Bft) 100,00 %
05.01.2018 11:48 11,0 C 3,9 C 81 % 1004,2 hPa 0,0 l/m 6,4 km/h (2 Bft) O-SO 112 1 min 0,000 mm 0,7 UV-I 345 W/m 7,9 C 11,0 C 11,3 km/h (2 Bft) 95,65 %
05.01.2018 11:49 11,0 C 3,9 C 81 % 1004,1 hPa 0,0 l/m 9,7 km/h (2 Bft) O-SO 112 1 min 0,000 mm 0,7 UV-I 387 W/m 7,9 C 8,9 C 12,9 km/h (3 Bft) 100,00 %
05.01.2018 11:50 11,0 C 3,9 C 80 % 1004,1 hPa 0,0 l/m 8,0 km/h (2 Bft) O-SO 112 1 min 0,000 mm 0,7 UV-I 376 W/m 7,7 C 9,9 C 11,3 km/h (2 Bft) 100,00 %
05.01.2018 11:51 10,9 C 3,9 C 81 % 1004,1 hPa 0,0 l/m 4,8 km/h (1 Bft) SO 135 1 min 0,000 mm 0,6 UV-I 323 W/m 7,8 C 10,9 C 11,3 km/h (2 Bft) 100,00 %
05.01.2018 11:52 11,0 C 3,9 C 81 % 1004,1 hPa 0,0 l/m 6,4 km/h (2 Bft) SO 135 1 min 0,000 mm 0,6 UV-I 287 W/m 7,9 C 11,0 C 11,3 km/h (2 Bft) 100,00 %
05.01.2018 11:53 10,9 C 3,9 C 80 % 1004,1 hPa 0,0 l/m 8,0 km/h (2 Bft) SO 135 1 min 0,000 mm 0,7 UV-I 350 W/m 7,6 C 9,8 C 9,7 km/h (2 Bft) 100,00 %
05.01.2018 11:54 11,0 C 3,9 C 81 % 1004,0 hPa 0,0 l/m 9,7 km/h (2 Bft) O-SO 112 1 min 0,000 mm 0,6 UV-I 308 W/m 7,9 C 8,9 C 11,3 km/h (2 Bft) 100,00 %
05.01.2018 11:55 11,1 C 3,9 C 82 % 1004,1 hPa 0,0 l/m 8,0 km/h (2 Bft) O-SO 112 1 min 0,000 mm 0,6 UV-I 299 W/m 8,1 C 10,0 C 11,3 km/h (2 Bft) 95,65 %
05.01.2018 11:56 11,1 C 3,9 C 81 % 1004,0 hPa 0,0 l/m 8,0 km/h (2 Bft) O 90 1 min 0,000 mm 0,6 UV-I 206 W/m 8,0 C 10,0 C 11,3 km/h (2 Bft) 95,65 %
05.01.2018 11:57 11,1 C 3,9 C 81 % 1004,0 hPa 0,0 l/m 8,0 km/h (2 Bft) O 90 1 min 0,000 mm 0,6 UV-I 283 W/m 8,0 C 10,0 C 11,3 km/h (2 Bft) 100,00 %
05.01.2018 11:58 11,1 C 3,9 C 82 % 1004,0 hPa 0,0 l/m 6,4 km/h (2 Bft) O-SO 112 1 min 0,000 mm 0,6 UV-I 318 W/m 8,1 C 11,1 C 11,3 km/h (2 Bft) 95,65 %
05.01.2018 11:59 11,1 C 3,9 C 82 % 1004,0 hPa 0,0 l/m 6,4 km/h (2 Bft) O-SO 112 1 min 0,000 mm 0,6 UV-I 320 W/m 8,1 C 11,1 C 11,3 km/h (2 Bft) 95,65 %
05.01.2018 12:00 11,1 C 3,9 C 82 % 1004,0 hPa 0,0 l/m 3,2 km/h (1 Bft) S 180 1 min 0,152 mm 0,6 UV-I 323 W/m 8,1 C 11,1 C 6,4 km/h (2 Bft) 100,00 %
05.01.2018 12:01 11,1 C 3,9 C 81 % 1004,0 hPa 0,0 l/m 1,6 km/h (1 Bft) S 180 1 min 0,000 mm 0,6 UV-I 285 W/m 8,0 C 11,1 C 3,2 km/h (1 Bft) 100,00 %
05.01.2018 12:02 11,2 C 3,9 C 81 % 1004,0 hPa 0,0 l/m 3,2 km/h (1 Bft) S 180 1 min 0,000 mm 0,6 UV-I 276 W/m 8,1 C 11,2 C 6,4 km/h (2 Bft) 95,65 %
05.01.2018 12:03 11,2 C 3,9 C 81 % 1003,9 hPa 0,0 l/m 6,4 km/h (2 Bft) O-SO 112 1 min 0,000 mm 0,6 UV-I 311 W/m 8,1 C 11,2 C 11,3 km/h (2 Bft) 100,00 %
05.01.2018 12:04 11,2 C 3,9 C 81 % 1003,9 hPa 0,0 l/m 6,4 km/h (2 Bft) SO 135 1 min 0,000 mm 0,6 UV-I 326 W/m 8,1 C 11,2 C 11,3 km/h (2 Bft) 95,65 %
05.01.2018 12:05 11,2 C 3,9 C 82 % 1003,8 hPa 0,0 l/m 6,4 km/h (2 Bft) O-SO 112 1 min 0,000 mm 0,6 UV-I 283 W/m 8,2 C 11,2 C 9,7 km/h (2 Bft) 100,00 %
05.01.2018 12:06 11,3 C 3,9 C 82 % 1003,8 hPa 0,0 l/m 3,2 km/h (1 Bft) SO 135 1 min 0,000 mm 0,6 UV-I 306 W/m 8,3 C 11,3 C 3,2 km/h (1 Bft) 95,65 %
05.01.2018 12:07 11,3 C 3,9 C 82 % 1003,8 hPa 0,0 l/m 4,8 km/h (1 Bft) SO 135 1 min 0,000 mm 0,6 UV-I 294 W/m 8,3 C 11,3 C 9,7 km/h (2 Bft) 100,00 %
05.01.2018 12:08 11,3 C 3,9 C 81 % 1003,8 hPa 0,0 l/m 9,7 km/h (2 Bft) SO 135 1 min 0,000 mm 0,6 UV-I 287 W/m 8,2 C 9,2 C 12,9 km/h (3 Bft) 95,65 %
05.01.2018 12:09 11,3 C 3,9 C 80 % 1003,7 hPa 0,0 l/m 8,0 km/h (2 Bft) SO 135 1 min 0,000 mm 0,6 UV-I 276 W/m 8,0 C 10,2 C 11,3 km/h (2 Bft) 91,30 %
05.01.2018 12:10 11,3 C 3,9 C 81 % 1003,7 hPa 0,0 l/m 8,0 km/h (2 Bft) O-SO 112 1 min 0,000 mm 0,6 UV-I 274 W/m 8,2 C 10,2 C 11,3 km/h (2 Bft) 100,00 %
05.01.2018 12:11 11,3 C 3,9 C 81 % 1003,7 hPa 0,0 l/m 8,0 km/h (2 Bft) O-SO 112 1 min 0,000 mm 0,6 UV-I 243 W/m 8,2 C 10,2 C 11,3 km/h (2 Bft) 95,65 %
05.01.2018 12:12 11,2 C 3,9 C 81 % 1003,7 hPa 0,0 l/m 6,4 km/h (2 Bft) O-SO 112 1 min 0,000 mm 0,6 UV-I 288 W/m 8,1 C 11,2 C 11,3 km/h (2 Bft) 100,00 %
05.01.2018 12:13 11,2 C 3,9 C 82 % 1003,7 hPa 0,0 l/m 6,4 km/h (2 Bft) SO 135 1 min 0,000 mm 0,6 UV-I 283 W/m 8,2 C 11,2 C 11,3 km/h (2 Bft) 95,65 %
05.01.2018 12:14 11,3 C 3,9 C 81 % 1003,7 hPa 0,0 l/m 11,3 km/h (2 Bft) O-SO 112 1 min 0,000 mm 0,6 UV-I 262 W/m 8,2 C 8,4 C 14,5 km/h (3 Bft) 100,00 %
05.01.2018 12:15 11,2 C 3,9 C 82 % 1003,6 hPa 0,0 l/m 9,7 km/h (2 Bft) O-SO 112 1 min 0,000 mm 0,6 UV-I 262 W/m 8,2 C 9,1 C 12,9 km/h (3 Bft) 95,65 %
05.01.2018 12:16 11,2 C 3,9 C 82 % 1003,6 hPa 0,0 l/m 8,0 km/h (2 Bft) O-SO 112 1 min 0,000 mm 0,6 UV-I 302 W/m 8,2 C 10,1 C 11,3 km/h (2 Bft) 91,30 %
05.01.2018 12:17 11,3 C 3,9 C 82 % 1003,7 hPa 0,0 l/m 8,0 km/h (2 Bft) O-SO 112 1 min 0,000 mm 0,6 UV-I 313 W/m 8,3 C 10,2 C 11,3 km/h (2 Bft) 95,65 %
05.01.2018 12:18 11,3 C 3,9 C 82 % 1003,7 hPa 0,0 l/m 4,8 km/h (1 Bft) O-NO 67 1 min 0,000 mm 0,6 UV-I 246 W/m 8,3 C 11,3 C 8,0 km/h (2 Bft) 95,65 %
05.01.2018 12:19 11,3 C 3,9 C 82 % 1003,7 hPa 0,0 l/m 3,2 km/h (1 Bft) O 90 1 min 0,000 mm 0,6 UV-I 241 W/m 8,3 C 11,3 C 8,0 km/h (2 Bft) 100,00 %
05.01.2018 12:20 11,3 C 3,9 C 81 % 1003,7 hPa 0,0 l/m 6,4 km/h (2 Bft) SO 135 1 min 0,000 mm 0,6 UV-I 269 W/m 8,2 C 11,3 C 8,0 km/h (2 Bft) 95,65 %
05.01.2018 12:21 11,4 C 3,9 C 81 % 1003,7 hPa 0,0 l/m 8,0 km/h (2 Bft) SO 135 1 min 0,000 mm 0,6 UV-I 268 W/m 8,3 C 10,3 C 12,9 km/h (3 Bft) 100,00 %
05.01.2018 12:22 11,3 C 3,9 C 81 % 1003,7 hPa 0,0 l/m 8,0 km/h (2 Bft) O-SO 112 1 min 0,000 mm 0,6 UV-I 269 W/m 8,2 C 10,2 C 12,9 km/h (3 Bft) 95,65 %
05.01.2018 12:23 11,3 C 3,9 C 81 % 1003,7 hPa 0,0 l/m 6,4 km/h (2 Bft) O-SO 112 1 min 0,000 mm 0,6 UV-I 279 W/m 8,2 C 11,3 C 9,7 km/h (2 Bft) 95,65 %
05.01.2018 12:24 11,4 C 3,9 C 82 % 1003,7 hPa 0,0 l/m 8,0 km/h (2 Bft) O-SO 112 1 min 0,000 mm 0,6 UV-I 281 W/m 8,4 C 10,3 C 12,9 km/h (3 Bft) 95,65 %
05.01.2018 12:25 11,3 C 3,9 C 81 % 1003,7 hPa 0,0 l/m 8,0 km/h (2 Bft) O-SO 112 1 min 0,000 mm 0,6 UV-I 267 W/m 8,2 C 10,2 C 11,3 km/h (2 Bft) 100,00 %
05.01.2018 12:26 11,3 C 3,9 C 81 % 1003,7 hPa 0,0 l/m 4,8 km/h (1 Bft) O-SO 112 1 min 0,000 mm 0,6 UV-I 316 W/m 8,2 C 11,3 C 6,4 km/h (2 Bft) 86,96 %
05.01.2018 12:27 11,3 C 3,9 C 83 % 1003,7 hPa 0,0 l/m 1,6 km/h (1 Bft) O-SO 112 1 min 0,000 mm 0,6 UV-I 274 W/m 8,5 C 11,3 C 3,2 km/h (1 Bft) 95,65 %
05.01.2018 12:28 11,3 C 3,9 C 83 % 1003,7 hPa 0,0 l/m 3,2 km/h (1 Bft) O-SO 112 1 min 0,000 mm 0,6 UV-I 281 W/m 8,5 C 11,3 C 4,8 km/h (1 Bft) 100,00 %
05.01.2018 12:29 11,4 C 3,9 C 82 % 1003,7 hPa 0,0 l/m 4,8 km/h (1 Bft) O-NO 67 1 min 0,000 mm 0,6 UV-I 271 W/m 8,4 C 11,4 C 6,4 km/h (2 Bft) 95,65 %
05.01.2018 12:30 11,4 C 3,9 C 82 % 1003,7 hPa 0,0 l/m 3,2 km/h (1 Bft) O-NO 67 1 min 0,000 mm 0,6 UV-I 292 W/m 8,4 C 11,4 C 4,8 km/h (1 Bft) 95,65 %
05.01.2018 12:31 11,4 C 3,9 C 82 % 1003,7 hPa 0,0 l/m 1,6 km/h (1 Bft) O-NO 67 1 min 0,000 mm 0,6 UV-I 304 W/m 8,4 C 11,4 C 3,2 km/h (1 Bft) 91,30 %
05.01.2018 12:32 11,4 C 3,9 C 82 % 1003,6 hPa 0,0 l/m 3,2 km/h (1 Bft) O-NO 67 1 min 0,000 mm 0,6 UV-I 304 W/m 8,4 C 11,4 C 6,4 km/h (2 Bft) 100,00 %
05.01.2018 12:33 11,5 C 3,9 C 82 % 1003,7 hPa 0,0 l/m 3,2 km/h (1 Bft) O-NO 67 1 min 0,000 mm 0,6 UV-I 318 W/m 8,5 C 11,5 C 6,4 km/h (2 Bft) 91,30 %
05.01.2018 12:34 11,6 C 3,9 C 82 % 1003,7 hPa 0,0 l/m 1,6 km/h (1 Bft) O-NO 67 1 min 0,000 mm 0,6 UV-I 315 W/m 8,6 C 11,6 C 3,2 km/h (1 Bft) 100,00 %
05.01.2018 12:35 11,7 C 3,9 C 82 % 1003,6 hPa 0,0 l/m 1,6 km/h (1 Bft) O-NO 67 1 min 0,000 mm 0,6 UV-I 281 W/m 8,7 C 11,7 C 3,2 km/h (1 Bft) 91,30 %
05.01.2018 12:36 11,7 C 3,9 C 82 % 1003,6 hPa 0,0 l/m 1,6 km/h (1 Bft) O-NO 67 1 min 0,000 mm 0,6 UV-I 274 W/m 8,7 C 11,7 C 4,8 km/h (1 Bft) 100,00 %
05.01.2018 12:37 11,7 C 3,9 C 81 % 1003,6 hPa 0,0 l/m 3,2 km/h (1 Bft) O-SO 112 1 min 0,000 mm 0,6 UV-I 258 W/m 8,5 C 11,7 C 6,4 km/h (2 Bft) 91,30 %
05.01.2018 12:38 11,7 C 3,9 C 81 % 1003,6 hPa 0,0 l/m 1,6 km/h (1 Bft) O-SO 112 1 min 0,000 mm 0,6 UV-I 292 W/m 8,5 C 11,7 C 1,6 km/h (1 Bft) 95,65 %
05.01.2018 12:39 11,7 C 3,9 C 81 % 1003,7 hPa 0,0 l/m 1,6 km/h (1 Bft) SO 135 1 min 0,000 mm 0,6 UV-I 285 W/m 8,5 C 11,7 C 3,2 km/h (1 Bft) 95,65 %
05.01.2018 12:40 11,7 C 3,9 C 81 % 1003,6 hPa 0,0 l/m 1,6 km/h (1 Bft) SO 135 1 min 0,000 mm 0,6 UV-I 297 W/m 8,5 C 11,7 C 3,2 km/h (1 Bft) 95,65 %
05.01.2018 12:41 11,7 C 3,9 C 81 % 1003,6 hPa 0,0 l/m 4,8 km/h (1 Bft) O-SO 112 1 min 0,000 mm 0,6 UV-I 285 W/m 8,5 C 11,7 C 6,4 km/h (2 Bft) 95,65 %
05.01.2018 12:42 11,7 C 3,9 C 81 % 1003,6 hPa 0,0 l/m 4,8 km/h (1 Bft) O 90 1 min 0,000 mm 0,6 UV-I 287 W/m 8,5 C 11,7 C 4,8 km/h (1 Bft) 100,00 %
05.01.2018 12:43 11,7 C 3,9 C 82 % 1003,6 hPa 0,0 l/m 3,2 km/h (1 Bft) O-SO 112 1 min 0,000 mm 0,6 UV-I 253 W/m 8,7 C 11,7 C 4,8 km/h (1 Bft) 95,65 %
05.01.2018 12:44 11,8 C 3,9 C 81 % 1003,6 hPa 0,0 l/m 3,2 km/h (1 Bft) O-SO 112 1 min 0,000 mm 0,6 UV-I 243 W/m 8,6 C 11,8 C 4,8 km/h (1 Bft) 95,65 %
05.01.2018 12:45 11,8 C 3,9 C 81 % 1003,6 hPa 0,0 l/m 3,2 km/h (1 Bft) O-SO 112 1 min 0,000 mm 0,6 UV-I 256 W/m 8,6 C 11,8 C 4,8 km/h (1 Bft) 95,65 %
05.01.2018 12:46 11,8 C 3,9 C 80 % 1003,6 hPa 0,0 l/m 3,2 km/h (1 Bft) SO 135 1 min 0,000 mm 0,6 UV-I 244 W/m 8,5 C 11,8 C 4,8 km/h (1 Bft) 95,65 %
05.01.2018 12:47 11,8 C 3,9 C 80 % 1003,6 hPa 0,0 l/m 3,2 km/h (1 Bft) SO 135 1 min 0,000 mm 0,6 UV-I 264 W/m 8,5 C 11,8 C 3,2 km/h (1 Bft) 100,00 %
05.01.2018 12:48 11,9 C 3,9 C 79 % 1003,6 hPa 0,0 l/m 3,2 km/h (1 Bft) SO 135 1 min 0,000 mm 0,6 UV-I 255 W/m 8,4 C 11,9 C 3,2 km/h (1 Bft) 95,65 %
05.01.2018 12:49 11,8 C 3,9 C 80 % 1003,6 hPa 0,0 l/m 1,6 km/h (1 Bft) SO 135 1 min 0,000 mm 0,6 UV-I 244 W/m 8,5 C 11,8 C 4,8 km/h (1 Bft) 100,00 %
05.01.2018 12:50 11,9 C 3,9 C 81 % 1003,6 hPa 0,0 l/m 3,2 km/h (1 Bft) O-SO 112 1 min 0,000 mm 0,6 UV-I 262 W/m 8,7 C 11,9 C 4,8 km/h (1 Bft) 95,65 %
05.01.2018 12:51 11,9 C 3,9 C 80 % 1003,6 hPa 0,0 l/m 3,2 km/h (1 Bft) O-SO 112 1 min 0,000 mm 0,6 UV-I 255 W/m 8,6 C 11,9 C 4,8 km/h (1 Bft) 100,00 %
05.01.2018 12:52 12,0 C 3,9 C 80 % 1003,6 hPa 0,0 l/m 3,2 km/h (1 Bft) O 90 1 min 0,000 mm 0,6 UV-I 267 W/m 8,7 C 12,0 C 4,8 km/h (1 Bft) 91,30 %
05.01.2018 12:53 12,0 C 3,9 C 80 % 1003,7 hPa 0,0 l/m 1,6 km/h (1 Bft) O 90 1 min 0,000 mm 0,6 UV-I 248 W/m 8,7 C 12,0 C 4,8 km/h (1 Bft) 95,65 %
05.01.2018 12:54 12,0 C 3,9 C 80 % 1003,6 hPa 0,0 l/m 1,6 km/h (1 Bft) O 90 1 min 0,000 mm 0,6 UV-I 283 W/m 8,7 C 12,0 C 3,2 km/h (1 Bft) 91,30 %
05.01.2018 12:55 12,0 C 3,9 C 80 % 1003,6 hPa 0,0 l/m 4,8 km/h (1 Bft) O-NO 67 1 min 0,000 mm 0,6 UV-I 264 W/m 8,7 C 12,0 C 6,4 km/h (2 Bft) 100,00 %
05.01.2018 12:56 12,1 C 3,9 C 80 % 1003,6 hPa 0,0 l/m 4,8 km/h (1 Bft) O-NO 67 1 min 0,000 mm 0,6 UV-I 272 W/m 8,8 C 12,1 C 4,8 km/h (1 Bft) 91,30 %
05.01.2018 12:57 12,1 C 3,9 C 80 % 1003,6 hPa 0,0 l/m 4,8 km/h (1 Bft) NO 45 1 min 0,000 mm 0,6 UV-I 275 W/m 8,8 C 12,1 C 6,4 km/h (2 Bft) 100,00 %
05.01.2018 12:58 12,2 C 3,9 C 80 % 1003,6 hPa 0,0 l/m 4,8 km/h (1 Bft) NO 45 1 min 0,000 mm 0,6 UV-I 260 W/m 8,9 C 12,2 C 6,4 km/h (2 Bft) 95,65 %
05.01.2018 12:59 12,2 C 3,9 C 80 % 1003,6 hPa 0,0 l/m 4,8 km/h (1 Bft) NO 45 1 min 0,000 mm 0,5 UV-I 223 W/m 8,9 C 12,2 C 6,4 km/h (2 Bft) 91,30 %
05.01.2018 13:00 12,2 C 3,9 C 80 % 1003,6 hPa 0,0 l/m 4,8 km/h (1 Bft) NO 45 1 min 0,152 mm 0,6 UV-I 243 W/m 8,9 C 12,2 C 8,0 km/h (2 Bft) 100,00 %
05.01.2018 13:01 12,2 C 3,9 C 79 % 1003,6 hPa 0,0 l/m 4,8 km/h (1 Bft) NO 45 1 min 0,000 mm 0,5 UV-I 246 W/m 8,7 C 12,2 C 6,4 km/h (2 Bft) 95,65 %
05.01.2018 13:02 12,2 C 3,9 C 80 % 1003,7 hPa 0,0 l/m 4,8 km/h (1 Bft) NO 45 1 min 0,000 mm 0,5 UV-I 263 W/m 8,9 C 12,2 C 6,4 km/h (2 Bft) 100,00 %
05.01.2018 13:03 12,2 C 3,9 C 80 % 1003,7 hPa 0,0 l/m 6,4 km/h (2 Bft) O-NO 67 1 min 0,000 mm 0,6 UV-I 246 W/m 8,9 C 12,2 C 6,4 km/h (2 Bft) 100,00 %
05.01.2018 13:04 12,1 C 3,9 C 80 % 1003,7 hPa 0,0 l/m 4,8 km/h (1 Bft) NO 45 1 min 0,000 mm 0,6 UV-I 241 W/m 8,8 C 12,1 C 8,0 km/h (2 Bft) 100,00 %
05.01.2018 13:05 12,1 C 3,9 C 80 % 1003,7 hPa 0,0 l/m 6,4 km/h (2 Bft) NO 45 1 min 0,000 mm 0,6 UV-I 279 W/m 8,8 C 12,1 C 8,0 km/h (2 Bft) 100,00 %
05.01.2018 13:06 12,1 C 3,9 C 80 % 1003,7 hPa 0,0 l/m 8,0 km/h (2 Bft) O-NO 67 1 min 0,000 mm 0,6 UV-I 287 W/m 8,8 C 11,1 C 9,7 km/h (2 Bft) 91,30 %
05.01.2018 13:07 12,1 C 3,9 C 80 % 1003,7 hPa 0,0 l/m 6,4 km/h (2 Bft) O-NO 67 1 min 0,000 mm 0,6 UV-I 301 W/m 8,8 C 12,1 C 8,0 km/h (2 Bft) 100,00 %
05.01.2018 13:08 12,1 C 3,9 C 80 % 1003,7 hPa 0,0 l/m 4,8 km/h (1 Bft) NO 45 1 min 0,000 mm 0,6 UV-I 310 W/m 8,8 C 12,1 C 6,4 km/h (2 Bft) 100,00 %
05.01.2018 13:09 12,2 C 3,9 C 81 % 1003,7 hPa 0,0 l/m 6,4 km/h (2 Bft) NO 45 1 min 0,000 mm 0,6 UV-I 299 W/m 9,0 C 12,2 C 8,0 km/h (2 Bft) 100,00 %
05.01.2018 13:10 12,2 C 3,9 C 81 % 1003,7 hPa 0,0 l/m 4,8 km/h (1 Bft) NO 45 1 min 0,000 mm 0,5 UV-I 243 W/m 9,0 C 12,2 C 8,0 km/h (2 Bft) 95,65 %
05.01.2018 13:11 12,2 C 3,9 C 80 % 1003,7 hPa 0,0 l/m 6,4 km/h (2 Bft) NO 45 1 min 0,000 mm 0,5 UV-I 223 W/m 8,9 C 12,2 C 8,0 km/h (2 Bft) 95,65 %
05.01.2018 13:12 12,2 C 3,9 C 81 % 1003,7 hPa 0,0 l/m 6,4 km/h (2 Bft) NO 45 1 min 0,000 mm 0,5 UV-I 269 W/m 9,0 C 12,2 C 8,0 km/h (2 Bft) 95,65 %
05.01.2018 13:13 12,2 C 3,9 C 80 % 1003,6 hPa 0,0 l/m 8,0 km/h (2 Bft) O-NO 67 1 min 0,000 mm 0,5 UV-I 243 W/m 8,9 C 11,2 C 9,7 km/h (2 Bft) 95,65 %
05.01.2018 13:14 12,2 C 3,9 C 80 % 1003,6 hPa 0,0 l/m 6,4 km/h (2 Bft) NO 45 1 min 0,000 mm 0,5 UV-I 272 W/m 8,9 C 12,2 C 8,0 km/h (2 Bft) 100,00 %
05.01.2018 13:15 12,2 C 3,9 C 79 % 1003,6 hPa 0,0 l/m 6,4 km/h (2 Bft) NO 45 1 min 0,000 mm 0,5 UV-I 276 W/m 8,7 C 12,2 C 6,4 km/h (2 Bft) 100,00 %
05.01.2018 13:16 12,2 C 3,9 C 79 % 1003,6 hPa 0,0 l/m 6,4 km/h (2 Bft) O-NO 67 1 min 0,000 mm 0,5 UV-I 262 W/m 8,7 C 12,2 C 8,0 km/h (2 Bft) 100,00 %
05.01.2018 13:17 12,2 C 3,9 C 79 % 1003,6 hPa 0,0 l/m 4,8 km/h (1 Bft) O-NO 67 1 min 0,000 mm 0,5 UV-I 251 W/m 8,7 C 12,2 C 6,4 km/h (2 Bft) 100,00 %
05.01.2018 13:18 12,2 C 3,9 C 79 % 1003,5 hPa 0,0 l/m 4,8 km/h (1 Bft) NO 45 1 min 0,000 mm 0,5 UV-I 257 W/m 8,7 C 12,2 C 6,4 km/h (2 Bft) 100,00 %
05.01.2018 13:19 12,2 C 3,9 C 80 % 1003,5 hPa 0,0 l/m 6,4 km/h (2 Bft) NO 45 1 min 0,000 mm 0,5 UV-I 278 W/m 8,9 C 12,2 C 8,0 km/h (2 Bft) 100,00 %
05.01.2018 13:20 12,3 C 3,9 C 80 % 1003,5 hPa 0,0 l/m 6,4 km/h (2 Bft) O-NO 67 1 min 0,000 mm 0,5 UV-I 280 W/m 8,9 C 12,3 C 8,0 km/h (2 Bft) 95,65 %
05.01.2018 13:21 12,3 C 3,9 C 79 % 1003,5 hPa 0,0 l/m 4,8 km/h (1 Bft) O-NO 67 1 min 0,000 mm 0,5 UV-I 183 W/m 8,8 C 12,3 C 8,0 km/h (2 Bft) 100,00 %
05.01.2018 13:22 12,3 C 3,9 C 79 % 1003,5 hPa 0,0 l/m 6,4 km/h (2 Bft) O-NO 67 1 min 0,000 mm 0,5 UV-I 274 W/m 8,8 C 12,3 C 11,3 km/h (2 Bft) 100,00 %
05.01.2018 13:23 12,3 C 3,9 C 79 % 1003,5 hPa 0,0 l/m 6,4 km/h (2 Bft) O 90 1 min 0,000 mm 0,5 UV-I 237 W/m 8,8 C 12,3 C 11,3 km/h (2 Bft) 100,00 %
05.01.2018 13:24 12,3 C 3,9 C 78 % 1003,5 hPa 0,0 l/m 6,4 km/h (2 Bft) O-NO 67 1 min 0,000 mm 0,5 UV-I 169 W/m 8,6 C 12,3 C 8,0 km/h (2 Bft) 100,00 %
05.01.2018 13:25 12,3 C 3,9 C 79 % 1003,6 hPa 0,0 l/m 6,4 km/h (2 Bft) O-NO 67 1 min 0,000 mm 0,5 UV-I 169 W/m 8,8 C 12,3 C 8,0 km/h (2 Bft) 100,00 %
05.01.2018 13:26 12,2 C 3,9 C 79 % 1003,6 hPa 0,0 l/m 4,8 km/h (1 Bft) O-NO 67 1 min 0,000 mm 0,5 UV-I 200 W/m 8,7 C 12,2 C 6,4 km/h (2 Bft) 100,00 %
05.01.2018 13:27 12,2 C 3,9 C 79 % 1003,6 hPa 0,0 l/m 4,8 km/h (1 Bft) O-NO 67 1 min 0,000 mm 0,5 UV-I 209 W/m 8,7 C 12,2 C 4,8 km/h (1 Bft) 95,65 %
05.01.2018 13:28 12,2 C 3,9 C 80 % 1003,5 hPa 0,0 l/m 6,4 km/h (2 Bft) O-NO 67 1 min 0,000 mm 0,5 UV-I 186 W/m 8,9 C 12,2 C 8,0 km/h (2 Bft) 100,00 %
05.01.2018 13:29 12,2 C 3,9 C 80 % 1003,5 hPa 0,0 l/m 6,4 km/h (2 Bft) NO 45 1 min 0,000 mm 0,5 UV-I 179 W/m 8,9 C 12,2 C 8,0 km/h (2 Bft) 95,65 %
05.01.2018 13:30 12,2 C 3,9 C 80 % 1003,5 hPa 0,0 l/m 6,4 km/h (2 Bft) NO 45 1 min 0,000 mm 0,5 UV-I 221 W/m 8,9 C 12,2 C 8,0 km/h (2 Bft) 100,00 %
05.01.2018 13:31 12,2 C 3,9 C 80 % 1003,5 hPa 0,0 l/m 4,8 km/h (1 Bft) NO 45 1 min 0,000 mm 0,5 UV-I 271 W/m 8,9 C 12,2 C 6,4 km/h (2 Bft) 100,00 %
05.01.2018 13:32 12,2 C 3,9 C 80 % 1003,5 hPa 0,0 l/m 4,8 km/h (1 Bft) NO 45 1 min 0,000 mm 0,5 UV-I 253 W/m 8,9 C 12,2 C 6,4 km/h (2 Bft) 100,00 %
05.01.2018 13:33 12,2 C 3,9 C 80 % 1003,5 hPa 0,0 l/m 3,2 km/h (1 Bft) NO 45 1 min 0,000 mm 0,5 UV-I 267 W/m 8,9 C 12,2 C 6,4 km/h (2 Bft) 100,00 %
05.01.2018 13:34 12,2 C 3,9 C 80 % 1003,5 hPa 0,0 l/m 4,8 km/h (1 Bft) O-NO 67 1 min 0,000 mm 0,5 UV-I 244 W/m 8,9 C 12,2 C 6,4 km/h (2 Bft) 95,65 %
05.01.2018 13:35 12,2 C 3,9 C 80 % 1003,4 hPa 0,0 l/m 4,8 km/h (1 Bft) O-NO 67 1 min 0,000 mm 0,5 UV-I 251 W/m 8,9 C 12,2 C 6,4 km/h (2 Bft) 95,65 %
05.01.2018 13:36 12,2 C 3,9 C 79 % 1003,4 hPa 0,0 l/m 4,8 km/h (1 Bft) O-NO 67 1 min 0,000 mm 0,5 UV-I 248 W/m 8,7 C 12,2 C 8,0 km/h (2 Bft) 100,00 %
05.01.2018 13:37 12,2 C 3,9 C 79 % 1003,4 hPa 0,0 l/m 6,4 km/h (2 Bft) O-NO 67 1 min 0,000 mm 0,5 UV-I 278 W/m 8,7 C 12,2 C 8,0 km/h (2 Bft) 95,65 %
05.01.2018 13:38 12,3 C 3,9 C 79 % 1003,4 hPa 0,0 l/m 4,8 km/h (1 Bft) O-NO 67 1 min 0,000 mm 0,5 UV-I 226 W/m 8,8 C 12,3 C 8,0 km/h (2 Bft) 100,00 %
05.01.2018 13:39 12,3 C 3,9 C 79 % 1003,4 hPa 0,0 l/m 4,8 km/h (1 Bft) O-NO 67 1 min 0,000 mm 0,5 UV-I 241 W/m 8,8 C 12,3 C 4,8 km/h (1 Bft) 95,65 %
05.01.2018 13:40 12,3 C 3,9 C 79 % 1003,4 hPa 0,0 l/m 4,8 km/h (1 Bft) O-NO 67 1 min 0,000 mm 0,5 UV-I 243 W/m 8,8 C 12,3 C 6,4 km/h (2 Bft) 100,00 %
05.01.2018 13:41 12,3 C 3,9 C 79 % 1003,4 hPa 0,0 l/m 6,4 km/h (2 Bft) O-NO 67 1 min 0,000 mm 0,5 UV-I 207 W/m 8,8 C 12,3 C 9,7 km/h (2 Bft) 91,30 %
05.01.2018 13:42 12,3 C 3,9 C 78 % 1003,3 hPa 0,0 l/m 6,4 km/h (2 Bft) O-NO 67 1 min 0,000 mm 0,5 UV-I 265 W/m 8,6 C 12,3 C 8,0 km/h (2 Bft) 91,30 %
05.01.2018 13:43 12,3 C 3,9 C 78 % 1003,3 hPa 0,0 l/m 4,8 km/h (1 Bft) O-NO 67 1 min 0,000 mm 0,5 UV-I 223 W/m 8,6 C 12,3 C 6,4 km/h (2 Bft) 100,00 %
05.01.2018 13:44 12,3 C 3,9 C 79 % 1003,3 hPa 0,0 l/m 6,4 km/h (2 Bft) O-NO 67 1 min 0,000 mm 0,0 UV-I 269 W/m 8,8 C 12,3 C 6,4 km/h (2 Bft) 100,00 %
05.01.2018 13:45 12,4 C 3,9 C 79 % 1003,3 hPa 0,0 l/m 4,8 km/h (1 Bft) NO 45 1 min 0,000 mm 0,3 UV-I 237 W/m 8,9 C 12,4 C 6,4 km/h (2 Bft) 95,65 %
05.01.2018 13:46 12,4 C 3,9 C 79 % 1003,3 hPa 0,0 l/m 4,8 km/h (1 Bft) O-NO 67 1 min 0,000 mm 0,0 UV-I 287 W/m 8,9 C 12,4 C 6,4 km/h (2 Bft) 95,65 %
05.01.2018 13:47 12,4 C 3,9 C 79 % 1003,3 hPa 0,0 l/m 4,8 km/h (1 Bft) O-NO 67 1 min 0,000 mm 0,0 UV-I 265 W/m 8,9 C 12,4 C 8,0 km/h (2 Bft) 100,00 %
05.01.2018 13:48 12,3 C 3,9 C 79 % 1003,3 hPa 0,0 l/m 4,8 km/h (1 Bft) O-NO 67 1 min 0,000 mm 0,0 UV-I 230 W/m 8,8 C 12,3 C 8,0 km/h (2 Bft) 91,30 %
05.01.2018 13:49 12,3 C 3,9 C 78 % 1003,2 hPa 0,0 l/m 4,8 km/h (1 Bft) O-NO 67 1 min 0,000 mm 0,0 UV-I 257 W/m 8,6 C 12,3 C 6,4 km/h (2 Bft) 100,00 %
05.01.2018 13:50 12,4 C 3,9 C 78 % 1003,3 hPa 0,0 l/m 6,4 km/h (2 Bft) O-NO 67 1 min 0,000 mm 0,0 UV-I 267 W/m 8,7 C 12,4 C 8,0 km/h (2 Bft) 91,30 %
05.01.2018 13:51 12,4 C 3,9 C 79 % 1003,3 hPa 0,0 l/m 6,4 km/h (2 Bft) O-NO 67 1 min 0,000 mm 0,0 UV-I 262 W/m 8,9 C 12,4 C 11,3 km/h (2 Bft) 100,00 %
05.01.2018 13:52 12,4 C 3,9 C 79 % 1003,3 hPa 0,0 l/m 8,0 km/h (2 Bft) O-NO 67 1 min 0,000 mm 0,0 UV-I 225 W/m 8,9 C 11,4 C 11,3 km/h (2 Bft) 95,65 %
05.01.2018 13:53 12,4 C 3,9 C 78 % 1003,2 hPa 0,0 l/m 8,0 km/h (2 Bft) O 90 1 min 0,000 mm 0,0 UV-I 216 W/m 8,7 C 11,4 C 11,3 km/h (2 Bft) 95,65 %
05.01.2018 13:54 12,4 C 3,9 C 78 % 1003,2 hPa 0,0 l/m 8,0 km/h (2 Bft) O-NO 67 1 min 0,000 mm 0,0 UV-I 179 W/m 8,7 C 11,4 C 9,7 km/h (2 Bft) 100,00 %
05.01.2018 13:55 12,5 C 3,9 C 77 % 1003,3 hPa 0,0 l/m 8,0 km/h (2 Bft) O-NO 67 1 min 0,000 mm 0,0 UV-I 208 W/m 8,6 C 11,5 C 12,9 km/h (3 Bft) 91,30 %
05.01.2018 13:56 12,5 C 3,9 C 78 % 1003,2 hPa 0,0 l/m 8,0 km/h (2 Bft) O-NO 67 1 min 0,000 mm 0,0 UV-I 232 W/m 8,8 C 11,5 C 8,0 km/h (2 Bft) 100,00 %
05.01.2018 13:57 12,5 C 3,9 C 78 % 1003,2 hPa 0,0 l/m 8,0 km/h (2 Bft) O-NO 67 1 min 0,000 mm 0,0 UV-I 262 W/m 8,8 C 11,5 C 11,3 km/h (2 Bft) 95,65 %
05.01.2018 13:58 12,5 C 3,9 C 78 % 1003,2 hPa 0,0 l/m 6,4 km/h (2 Bft) O-NO 67 1 min 0,000 mm 0,0 UV-I 213 W/m 8,8 C 12,5 C 8,0 km/h (2 Bft) 100,00 %
05.01.2018 13:59 12,6 C 3,9 C 78 % 1003,2 hPa 0,0 l/m 6,4 km/h (2 Bft) O-NO 67 1 min 0,000 mm 0,0 UV-I 209 W/m 8,9 C 12,6 C 8,0 km/h (2 Bft) 95,65 %
05.01.2018 14:00 12,6 C 3,9 C 79 % 1003,1 hPa 0,0 l/m 4,8 km/h (1 Bft) O-NO 67 1 min 0,127 mm 0,0 UV-I 248 W/m 9,1 C 12,6 C 9,7 km/h (2 Bft) 100,00 %
05.01.2018 14:01 12,6 C 3,9 C 79 % 1003,1 hPa 0,0 l/m 6,4 km/h (2 Bft) O-SO 112 1 min 0,000 mm 0,0 UV-I 199 W/m 9,1 C 12,6 C 9,7 km/h (2 Bft) 95,65 %
05.01.2018 14:02 12,6 C 3,9 C 78 % 1003,1 hPa 0,0 l/m 4,8 km/h (1 Bft) O 90 1 min 0,000 mm 0,0 UV-I 214 W/m 8,9 C 12,6 C 4,8 km/h (1 Bft) 91,30 %
05.01.2018 14:03 12,5 C 3,9 C 79 % 1003,1 hPa 0,0 l/m 3,2 km/h (1 Bft) O 90 1 min 0,000 mm 0,0 UV-I 202 W/m 9,0 C 12,5 C 6,4 km/h (2 Bft) 95,65 %
05.01.2018 14:04 12,5 C 3,9 C 79 % 1003,1 hPa 0,0 l/m 3,2 km/h (1 Bft) O 90 1 min 0,000 mm 0,0 UV-I 229 W/m 9,0 C 12,5 C 4,8 km/h (1 Bft) 95,65 %
05.01.2018 14:05 12,5 C 3,9 C 79 % 1003,1 hPa 0,0 l/m 4,8 km/h (1 Bft) O-NO 67 1 min 0,000 mm 0,0 UV-I 213 W/m 9,0 C 12,5 C 6,4 km/h (2 Bft) 100,00 %
05.01.2018 14:06 12,6 C 3,9 C 79 % 1003,1 hPa 0,0 l/m 6,4 km/h (2 Bft) O-NO 67 1 min 0,000 mm 0,0 UV-I 229 W/m 9,1 C 12,6 C 9,7 km/h (2 Bft) 95,65 %
05.01.2018 14:07 12,6 C 3,9 C 78 % 1003,1 hPa 0,0 l/m 6,4 km/h (2 Bft) O-NO 67 1 min 0,000 mm 0,0 UV-I 222 W/m 8,9 C 12,6 C 8,0 km/h (2 Bft) 100,00 %
05.01.2018 14:08 12,6 C 3,9 C 78 % 1003,1 hPa 0,0 l/m 6,4 km/h (2 Bft) O-NO 67 1 min 0,000 mm 0,0 UV-I 257 W/m 8,9 C 12,6 C 6,4 km/h (2 Bft) 95,65 %
05.01.2018 14:09 12,6 C 3,9 C 78 % 1003,1 hPa 0,0 l/m 6,4 km/h (2 Bft) O-NO 67 1 min 0,000 mm 0,0 UV-I 283 W/m 8,9 C 12,6 C 9,7 km/h (2 Bft) 95,65 %
05.01.2018 14:10 12,6 C 3,9 C 78 % 1003,1 hPa 0,0 l/m 8,0 km/h (2 Bft) O-NO 67 1 min 0,000 mm 0,0 UV-I 272 W/m 8,9 C 11,6 C 11,3 km/h (2 Bft) 95,65 %
05.01.2018 14:11 12,7 C 3,9 C 78 % 1003,1 hPa 0,0 l/m 6,4 km/h (2 Bft) O-NO 67 1 min 0,000 mm 0,0 UV-I 250 W/m 9,0 C 12,7 C 8,0 km/h (2 Bft) 95,65 %
05.01.2018 14:12 12,7 C 3,9 C 78 % 1003,1 hPa 0,0 l/m 6,4 km/h (2 Bft) O-NO 67 1 min 0,000 mm 0,0 UV-I 267 W/m 9,0 C 12,7 C 8,0 km/h (2 Bft) 100,00 %
05.01.2018 14:13 12,6 C 3,9 C 78 % 1003,1 hPa 0,0 l/m 8,0 km/h (2 Bft) O-NO 67 1 min 0,000 mm 0,0 UV-I 266 W/m 8,9 C 11,6 C 9,7 km/h (2 Bft) 95,65 %
05.01.2018 14:14 12,6 C 3,9 C 78 % 1003,1 hPa 0,0 l/m 4,8 km/h (1 Bft) O-NO 67 1 min 0,000 mm 0,0 UV-I 262 W/m 8,9 C 12,6 C 8,0 km/h (2 Bft) 100,00 %
05.01.2018 14:15 12,6 C 3,9 C 78 % 1003,1 hPa 0,0 l/m 4,8 km/h (1 Bft) O-NO 67 1 min 0,000 mm 0,0 UV-I 230 W/m 8,9 C 12,6 C 6,4 km/h (2 Bft) 95,65 %
05.01.2018 14:16 12,6 C 3,9 C 79 % 1003,1 hPa 0,0 l/m 4,8 km/h (1 Bft) O-NO 67 1 min 0,000 mm 0,0 UV-I 216 W/m 9,1 C 12,6 C 6,4 km/h (2 Bft) 95,65 %
05.01.2018 14:17 12,6 C 3,9 C 79 % 1003,1 hPa 0,0 l/m 3,2 km/h (1 Bft) O 90 1 min 0,000 mm 0,0 UV-I 165 W/m 9,1 C 12,6 C 4,8 km/h (1 Bft) 95,65 %
05.01.2018 14:18 12,6 C 3,9 C 79 % 1003,1 hPa 0,0 l/m 4,8 km/h (1 Bft) O-NO 67 1 min 0,000 mm 0,0 UV-I 183 W/m 9,1 C 12,6 C 6,4 km/h (2 Bft) 95,65 %
05.01.2018 14:19 12,6 C 3,9 C 79 % 1003,0 hPa 0,0 l/m 4,8 km/h (1 Bft) O-NO 67 1 min 0,000 mm 0,0 UV-I 154 W/m 9,1 C 12,6 C 6,4 km/h (2 Bft) 100,00 %
05.01.2018 14:20 12,6 C 3,9 C 79 % 1003,0 hPa 0,0 l/m 4,8 km/h (1 Bft) O-NO 67 1 min 0,000 mm 0,0 UV-I 174 W/m 9,1 C 12,6 C 6,4 km/h (2 Bft) 95,65 %
05.01.2018 14:21 12,6 C 3,9 C 78 % 1003,0 hPa 0,0 l/m 3,2 km/h (1 Bft) O-NO 67 1 min 0,000 mm 0,0 UV-I 221 W/m 8,9 C 12,6 C 4,8 km/h (1 Bft) 100,00 %
05.01.2018 14:22 12,6 C 3,9 C 79 % 1003,0 hPa 0,0 l/m 3,2 km/h (1 Bft) O-NO 67 1 min 0,000 mm 0,0 UV-I 213 W/m 9,1 C 12,6 C 4,8 km/h (1 Bft) 95,65 %
05.01.2018 14:23 12,6 C 3,9 C 79 % 1002,9 hPa 0,0 l/m 4,8 km/h (1 Bft) O-NO 67 1 min 0,000 mm 0,0 UV-I 216 W/m 9,1 C 12,6 C 6,4 km/h (2 Bft) 91,30 %
05.01.2018 14:24 12,6 C 3,9 C 79 % 1002,9 hPa 0,0 l/m 3,2 km/h (1 Bft) O-NO 67 1 min 0,000 mm 0,0 UV-I 212 W/m 9,1 C 12,6 C 4,8 km/h (1 Bft) 95,65 %
05.01.2018 14:25 12,6 C 3,9 C 79 % 1002,9 hPa 0,0 l/m 4,8 km/h (1 Bft) O-NO 67 1 min 0,000 mm 0,0 UV-I 206 W/m 9,1 C 12,6 C 6,4 km/h (2 Bft) 100,00 %
05.01.2018 14:26 12,7 C 3,9 C 79 % 1002,9 hPa 0,0 l/m 4,8 km/h (1 Bft) O-NO 67 1 min 0,000 mm 0,0 UV-I 202 W/m 9,2 C 12,7 C 6,4 km/h (2 Bft) 95,65 %
05.01.2018 14:27 12,7 C 3,9 C 79 % 1002,9 hPa 0,0 l/m 3,2 km/h (1 Bft) O-NO 67 1 min 0,000 mm 0,0 UV-I 216 W/m 9,2 C 12,7 C 4,8 km/h (1 Bft) 100,00 %
05.01.2018 14:28 12,7 C 3,9 C 79 % 1002,9 hPa 0,0 l/m 3,2 km/h (1 Bft) O-NO 67 1 min 0,000 mm 0,0 UV-I 223 W/m 9,2 C 12,7 C 4,8 km/h (1 Bft) 95,65 %
05.01.2018 14:29 12,6 C 3,9 C 79 % 1002,9 hPa 0,0 l/m 3,2 km/h (1 Bft) O-NO 67 1 min 0,000 mm 0,0 UV-I 204 W/m 9,1 C 12,6 C 4,8 km/h (1 Bft) 100,00 %
05.01.2018 14:30 12,6 C 3,9 C 79 % 1003,0 hPa 0,0 l/m 4,8 km/h (1 Bft) O-NO 67 1 min 0,000 mm 0,0 UV-I 189 W/m 9,1 C 12,6 C 6,4 km/h (2 Bft) 91,30 %
05.01.2018 14:31 12,7 C 3,9 C 78 % 1003,0 hPa 0,0 l/m 3,2 km/h (1 Bft) O-NO 67 1 min 0,000 mm 0,0 UV-I 207 W/m 9,0 C 12,7 C 4,8 km/h (1 Bft) 100,00 %
05.01.2018 14:32 12,7 C 3,9 C 78 % 1003,0 hPa 0,0 l/m 3,2 km/h (1 Bft) O-NO 67 1 min 0,000 mm 0,0 UV-I 213 W/m 9,0 C 12,7 C 6,4 km/h (2 Bft) 95,65 %
05.01.2018 14:33 12,7 C 3,9 C 78 % 1003,0 hPa 0,0 l/m 4,8 km/h (1 Bft) O 90 1 min 0,000 mm 0,0 UV-I 230 W/m 9,0 C 12,7 C 6,4 km/h (2 Bft) 100,00 %
05.01.2018 14:34 12,8 C 3,9 C 78 % 1003,1 hPa 0,0 l/m 3,2 km/h (1 Bft) O-SO 112 1 min 0,000 mm 0,0 UV-I 213 W/m 9,1 C 12,8 C 4,8 km/h (1 Bft) 91,30 %
05.01.2018 14:35 12,8 C 3,9 C 78 % 1003,0 hPa 0,0 l/m 3,2 km/h (1 Bft) O-SO 112 1 min 0,000 mm 0,0 UV-I 190 W/m 9,1 C 12,8 C 4,8 km/h (1 Bft) 95,65 %
05.01.2018 14:36 12,8 C 3,9 C 78 % 1003,0 hPa 0,0 l/m 4,8 km/h (1 Bft) O 90 1 min 0,000 mm 0,0 UV-I 223 W/m 9,1 C 12,8 C 6,4 km/h (2 Bft) 100,00 %
05.01.2018 14:37 12,8 C 3,9 C 76 % 1003,1 hPa 0,0 l/m 4,8 km/h (1 Bft) O 90 1 min 0,000 mm 0,0 UV-I 181 W/m 8,7 C 12,8 C 11,3 km/h (2 Bft) 91,30 %
05.01.2018 14:38 12,9 C 3,9 C 76 % 1003,1 hPa 0,0 l/m 9,7 km/h (2 Bft) O-SO 112 1 min 0,000 mm 0,0 UV-I 178 W/m 8,8 C 11,0 C 11,3 km/h (2 Bft) 95,65 %
05.01.2018 14:39 12,9 C 3,9 C 76 % 1003,1 hPa 0,0 l/m 6,4 km/h (2 Bft) O-SO 112 1 min 0,000 mm 0,0 UV-I 156 W/m 8,8 C 12,9 C 9,7 km/h (2 Bft) 95,65 %
05.01.2018 14:40 12,8 C 3,9 C 76 % 1003,1 hPa 0,0 l/m 6,4 km/h (2 Bft) O-SO 112 1 min 0,000 mm 0,0 UV-I 171 W/m 8,7 C 12,8 C 6,4 km/h (2 Bft) 100,00 %
05.01.2018 14:41 12,8 C 3,9 C 75 % 1003,2 hPa 0,0 l/m 9,7 km/h (2 Bft) O 90 1 min 0,000 mm 0,0 UV-I 132 W/m 8,5 C 10,8 C 11,3 km/h (2 Bft) 95,65 %
05.01.2018 14:42 12,8 C 3,9 C 74 % 1003,2 hPa 0,0 l/m 9,7 km/h (2 Bft) O-SO 112 1 min 0,000 mm 0,0 UV-I 159 W/m 8,3 C 10,8 C 11,3 km/h (2 Bft) 100,00 %
05.01.2018 14:43 12,8 C 3,9 C 75 % 1003,2 hPa 0,0 l/m 8,0 km/h (2 Bft) O-SO 112 1 min 0,000 mm 0,0 UV-I 193 W/m 8,5 C 11,8 C 11,3 km/h (2 Bft) 95,65 %
05.01.2018 14:44 12,7 C 3,9 C 75 % 1003,2 hPa 0,0 l/m 4,8 km/h (1 Bft) O-SO 112 1 min 0,000 mm 0,0 UV-I 181 W/m 8,4 C 12,7 C 6,4 km/h (2 Bft) 95,65 %
05.01.2018 14:45 12,8 C 3,9 C 76 % 1003,2 hPa 0,0 l/m 4,8 km/h (1 Bft) O-SO 112 1 min 0,000 mm 0,0 UV-I 171 W/m 8,7 C 12,8 C 6,4 km/h (2 Bft) 100,00 %
05.01.2018 14:46 12,7 C 3,9 C 76 % 1003,2 hPa 0,0 l/m 8,0 km/h (2 Bft) O-SO 112 1 min 0,000 mm 0,0 UV-I 171 W/m 8,6 C 11,7 C 11,3 km/h (2 Bft) 100,00 %
05.01.2018 14:47 12,7 C 3,9 C 75 % 1003,2 hPa 0,0 l/m 8,0 km/h (2 Bft) O-SO 112 1 min 0,000 mm 0,0 UV-I 185 W/m 8,4 C 11,7 C 9,7 km/h (2 Bft) 100,00 %
05.01.2018 14:48 12,7 C 3,9 C 75 % 1003,2 hPa 0,0 l/m 4,8 km/h (1 Bft) O 90 1 min 0,000 mm 0,0 UV-I 171 W/m 8,4 C 12,7 C 6,4 km/h (2 Bft) 100,00 %
05.01.2018 14:49 12,7 C 3,9 C 77 % 1003,2 hPa 0,0 l/m 6,4 km/h (2 Bft) O 90 1 min 0,000 mm 0,0 UV-I 186 W/m 8,8 C 12,7 C 9,7 km/h (2 Bft) 95,65 %
05.01.2018 14:50 12,7 C 3,9 C 75 % 1003,2 hPa 0,0 l/m 9,7 km/h (2 Bft) O 90 1 min 0,000 mm 0,0 UV-I 179 W/m 8,4 C 10,7 C 12,9 km/h (3 Bft) 95,65 %
05.01.2018 14:51 12,7 C 3,9 C 75 % 1003,2 hPa 0,0 l/m 6,4 km/h (2 Bft) O 90 1 min 0,000 mm 0,0 UV-I 176 W/m 8,4 C 12,7 C 9,7 km/h (2 Bft) 95,65 %
05.01.2018 14:52 12,8 C 3,9 C 76 % 1003,1 hPa 0,0 l/m 8,0 km/h (2 Bft) O 90 1 min 0,000 mm 0,0 UV-I 142 W/m 8,7 C 11,8 C 9,7 km/h (2 Bft) 100,00 %
05.01.2018 14:53 12,8 C 3,9 C 76 % 1003,1 hPa 0,0 l/m 8,0 km/h (2 Bft) O 90 1 min 0,000 mm 0,0 UV-I 171 W/m 8,7 C 11,8 C 9,7 km/h (2 Bft) 100,00 %
05.01.2018 14:54 12,8 C 3,9 C 76 % 1003,1 hPa 0,0 l/m 6,4 km/h (2 Bft) O 90 1 min 0,000 mm 0,0 UV-I 112 W/m 8,7 C 12,8 C 9,7 km/h (2 Bft) 95,65 %
05.01.2018 14:55 12,7 C 3,9 C 75 % 1003,1 hPa 0,0 l/m 4,8 km/h (1 Bft) O-SO 112 0 min 0,000 mm 0,0 UV-I 69 W/m 8,4 C 12,7 C 6,4 km/h (2 Bft) 100,00 %
05.01.2018 14:56 12,7 C 3,9 C 75 % 1003,1 hPa 0,0 l/m 4,8 km/h (1 Bft) O 90 0 min 0,000 mm 0,0 UV-I 63 W/m 8,4 C 12,7 C 6,4 km/h (2 Bft) 100,00 %
05.01.2018 14:57 12,7 C 3,9 C 76 % 1003,1 hPa 0,0 l/m 4,8 km/h (1 Bft) O 90 0 min 0,000 mm 0,0 UV-I 60 W/m 8,6 C 12,7 C 6,4 km/h (2 Bft) 100,00 %
05.01.2018 14:58 12,6 C 3,9 C 75 % 1003,0 hPa 0,0 l/m 6,4 km/h (2 Bft) O 90 0 min 0,000 mm 0,0 UV-I 60 W/m 8,3 C 12,6 C 8,0 km/h (2 Bft) 100,00 %
05.01.2018 14:59 12,6 C 3,9 C 75 % 1003,0 hPa 0,0 l/m 3,2 km/h (1 Bft) O 90 0 min 0,000 mm 0,0 UV-I 60 W/m 8,3 C 12,6 C 6,4 km/h (2 Bft) 95,65 %
05.01.2018 15:00 12,6 C 3,9 C 75 % 1003,0 hPa 0,0 l/m 4,8 km/h (1 Bft) O 90 0 min 0,102 mm 0,0 UV-I 60 W/m 8,3 C 12,6 C 6,4 km/h (2 Bft) 100,00 %
05.01.2018 15:01 12,4 C 3,9 C 76 % 1003,0 hPa 0,0 l/m 4,8 km/h (1 Bft) O-NO 67 0 min 0,000 mm 0,0 UV-I 53 W/m 8,3 C 12,4 C 4,8 km/h (1 Bft) 100,00 %
05.01.2018 15:02 12,4 C 3,9 C 76 % 1003,0 hPa 0,0 l/m 4,8 km/h (1 Bft) O-NO 67 0 min 0,000 mm 0,0 UV-I 51 W/m 8,3 C 12,4 C 8,0 km/h (2 Bft) 100,00 %
05.01.2018 15:03 12,3 C 3,9 C 76 % 1003,0 hPa 0,0 l/m 4,8 km/h (1 Bft) O-NO 67 0 min 0,000 mm 0,0 UV-I 49 W/m 8,2 C 12,3 C 4,8 km/h (1 Bft) 100,00 %
05.01.2018 15:04 12,3 C 3,9 C 76 % 1002,9 hPa 0,0 l/m 6,4 km/h (2 Bft) O-NO 67 0 min 0,000 mm 0,0 UV-I 47 W/m 8,2 C 12,3 C 8,0 km/h (2 Bft) 100,00 %
05.01.2018 15:05 12,3 C 3,9 C 76 % 1002,9 hPa 0,0 l/m 4,8 km/h (1 Bft) O-NO 67 0 min 0,000 mm 0,0 UV-I 46 W/m 8,2 C 12,3 C 6,4 km/h (2 Bft) 95,65 %
05.01.2018 15:06 12,3 C 3,9 C 76 % 1003,0 hPa 0,0 l/m 6,4 km/h (2 Bft) O-NO 67 0 min 0,000 mm 0,0 UV-I 44 W/m 8,2 C 12,3 C 8,0 km/h (2 Bft) 100,00 %
05.01.2018 15:07 12,4 C 3,9 C 76 % 1003,0 hPa 0,0 l/m 6,4 km/h (2 Bft) O-NO 67 0 min 0,000 mm 0,0 UV-I 44 W/m 8,3 C 12,4 C 8,0 km/h (2 Bft) 100,00 %
05.01.2018 15:08 12,4 C 3,9 C 76 % 1002,9 hPa 0,0 l/m 6,4 km/h (2 Bft) O-NO 67 0 min 0,000 mm 0,0 UV-I 44 W/m 8,3 C 12,4 C 8,0 km/h (2 Bft) 100,00 %
05.01.2018 15:09 12,4 C 3,9 C 76 % 1003,0 hPa 0,0 l/m 6,4 km/h (2 Bft) O-NO 67 0 min 0,000 mm 0,0 UV-I 44 W/m 8,3 C 12,4 C 8,0 km/h (2 Bft) 100,00 %
05.01.2018 15:10 12,4 C 3,9 C 76 % 1002,9 hPa 0,0 l/m 6,4 km/h (2 Bft) O-NO 67 0 min 0,000 mm 0,0 UV-I 44 W/m 8,3 C 12,4 C 6,4 km/h (2 Bft) 100,00 %
05.01.2018 15:11 12,3 C 3,9 C 76 % 1002,9 hPa 0,0 l/m 6,4 km/h (2 Bft) O-NO 67 0 min 0,000 mm 0,0 UV-I 45 W/m 8,2 C 12,3 C 8,0 km/h (2 Bft) 100,00 %
05.01.2018 15:12 12,3 C 3,9 C 77 % 1002,9 hPa 0,0 l/m 6,4 km/h (2 Bft) O-NO 67 0 min 0,000 mm 0,0 UV-I 44 W/m 8,4 C 12,3 C 8,0 km/h (2 Bft) 95,65 %
05.01.2018 15:13 12,3 C 3,9 C 77 % 1002,9 hPa 0,0 l/m 6,4 km/h (2 Bft) O-NO 67 0 min 0,000 mm 0,0 UV-I 42 W/m 8,4 C 12,3 C 8,0 km/h (2 Bft) 100,00 %
05.01.2018 15:14 12,2 C 3,9 C 77 % 1002,9 hPa 0,0 l/m 8,0 km/h (2 Bft) O-NO 67 0 min 0,000 mm 0,0 UV-I 40 W/m 8,3 C 11,2 C 9,7 km/h (2 Bft) 95,65 %
05.01.2018 15:15 12,2 C 3,9 C 77 % 1002,9 hPa 0,0 l/m 8,0 km/h (2 Bft) O-NO 67 0 min 0,000 mm 0,0 UV-I 39 W/m 8,3 C 11,2 C 11,3 km/h (2 Bft) 100,00 %
05.01.2018 15:16 12,2 C 3,9 C 77 % 1002,9 hPa 0,0 l/m 8,0 km/h (2 Bft) O-NO 67 0 min 0,000 mm 0,0 UV-I 37 W/m 8,3 C 11,2 C 11,3 km/h (2 Bft) 100,00 %
05.01.2018 15:17 12,1 C 3,9 C 77 % 1002,9 hPa 0,0 l/m 8,0 km/h (2 Bft) O 90 0 min 0,000 mm 0,0 UV-I 36 W/m 8,2 C 11,1 C 11,3 km/h (2 Bft) 100,00 %
05.01.2018 15:18 12,1 C 3,9 C 78 % 1003,0 hPa 0,0 l/m 6,4 km/h (2 Bft) O 90 0 min 0,000 mm 0,0 UV-I 35 W/m 8,4 C 12,1 C 8,0 km/h (2 Bft) 95,65 %
05.01.2018 15:19 11,9 C 3,9 C 78 % 1003,0 hPa 0,0 l/m 6,4 km/h (2 Bft) O-NO 67 0 min 0,000 mm 0,0 UV-I 33 W/m 8,2 C 11,9 C 8,0 km/h (2 Bft) 95,65 %
05.01.2018 15:20 11,9 C 3,9 C 78 % 1003,1 hPa 0,0 l/m 4,8 km/h (1 Bft) O-NO 67 0 min 0,000 mm 0,0 UV-I 33 W/m 8,2 C 11,9 C 6,4 km/h (2 Bft) 100,00 %
05.01.2018 15:21 12,0 C 3,9 C 77 % 1003,1 hPa 0,0 l/m 4,8 km/h (1 Bft) O-NO 67 0 min 0,000 mm 0,0 UV-I 33 W/m 8,1 C 12,0 C 6,4 km/h (2 Bft) 100,00 %
05.01.2018 15:22 12,0 C 3,9 C 77 % 1003,1 hPa 0,0 l/m 4,8 km/h (1 Bft) O-NO 67 0 min 0,000 mm 0,0 UV-I 32 W/m 8,1 C 12,0 C 6,4 km/h (2 Bft) 100,00 %
05.01.2018 15:23 12,0 C 3,9 C 77 % 1003,1 hPa 0,0 l/m 4,8 km/h (1 Bft) O-NO 67 0 min 0,000 mm 0,0 UV-I 32 W/m 8,1 C 12,0 C 4,8 km/h (1 Bft) 100,00 %
05.01.2018 15:24 12,0 C 3,9 C 77 % 1003,1 hPa 0,0 l/m 4,8 km/h (1 Bft) O-NO 67 0 min 0,000 mm 0,0 UV-I 32 W/m 8,1 C 12,0 C 4,8 km/h (1 Bft) 100,00 %
05.01.2018 15:25 12,0 C 3,9 C 78 % 1003,1 hPa 0,0 l/m 4,8 km/h (1 Bft) O-NO 67 0 min 0,000 mm 0,0 UV-I 32 W/m 8,3 C 12,0 C 4,8 km/h (1 Bft) 95,65 %
05.01.2018 15:26 11,9 C 3,9 C 78 % 1003,1 hPa 0,0 l/m 4,8 km/h (1 Bft) O-NO 67 0 min 0,000 mm 0,0 UV-I 32 W/m 8,2 C 11,9 C 6,4 km/h (2 Bft) 95,65 %
05.01.2018 15:27 11,9 C 3,9 C 78 % 1003,1 hPa 0,0 l/m 4,8 km/h (1 Bft) O-NO 67 0 min 0,000 mm 0,0 UV-I 30 W/m 8,2 C 11,9 C 6,4 km/h (2 Bft) 100,00 %
05.01.2018 15:28 11,9 C 3,9 C 78 % 1003,1 hPa 0,0 l/m 4,8 km/h (1 Bft) O-NO 67 0 min 0,000 mm 0,0 UV-I 30 W/m 8,2 C 11,9 C 4,8 km/h (1 Bft) 100,00 %
05.01.2018 15:29 11,9 C 3,9 C 78 % 1003,2 hPa 0,0 l/m 3,2 km/h (1 Bft) O-NO 67 0 min 0,000 mm 0,0 UV-I 30 W/m 8,2 C 11,9 C 4,8 km/h (1 Bft) 100,00 %
05.01.2018 15:30 11,8 C 3,9 C 78 % 1003,3 hPa 0,0 l/m 3,2 km/h (1 Bft) O-NO 67 0 min 0,000 mm 0,0 UV-I 30 W/m 8,1 C 11,8 C 3,2 km/h (1 Bft) 100,00 %
05.01.2018 15:31 11,8 C 3,9 C 78 % 1003,3 hPa 0,0 l/m 3,2 km/h (1 Bft) O-NO 67 0 min 0,000 mm 0,0 UV-I 32 W/m 8,1 C 11,8 C 3,2 km/h (1 Bft) 100,00 %
05.01.2018 15:32 11,8 C 3,9 C 78 % 1003,3 hPa 0,0 l/m 3,2 km/h (1 Bft) O-NO 67 0 min 0,000 mm 0,0 UV-I 30 W/m 8,1 C 11,8 C 3,2 km/h (1 Bft) 95,65 %
05.01.2018 15:33 11,7 C 3,9 C 78 % 1003,3 hPa 0,0 l/m 3,2 km/h (1 Bft) O-NO 67 0 min 0,000 mm 0,0 UV-I 30 W/m 8,0 C 11,7 C 3,2 km/h (1 Bft) 95,65 %
05.01.2018 15:34 11,7 C 3,9 C 78 % 1003,3 hPa 0,0 l/m 3,2 km/h (1 Bft) O-NO 67 0 min 0,000 mm 0,0 UV-I 30 W/m 8,0 C 11,7 C 4,8 km/h (1 Bft) 95,65 %
05.01.2018 15:35 11,7 C 3,9 C 79 % 1003,3 hPa 0,0 l/m 3,2 km/h (1 Bft) O-NO 67 0 min 0,000 mm 0,0 UV-I 29 W/m 8,2 C 11,7 C 4,8 km/h (1 Bft) 95,65 %
05.01.2018 15:36 11,7 C 3,9 C 79 % 1003,3 hPa 0,0 l/m 3,2 km/h (1 Bft) O-NO 67 0 min 0,000 mm 0,0 UV-I 28 W/m 8,2 C 11,7 C 4,8 km/h (1 Bft) 100,00 %
05.01.2018 15:37 11,6 C 3,9 C 79 % 1003,2 hPa 0,0 l/m 4,8 km/h (1 Bft) O-NO 67 0 min 0,000 mm 0,0 UV-I 26 W/m 8,1 C 11,6 C 6,4 km/h (2 Bft) 91,30 %
05.01.2018 15:38 11,6 C 3,9 C 79 % 1003,3 hPa 0,0 l/m 3,2 km/h (1 Bft) O-NO 67 0 min 0,000 mm 0,0 UV-I 26 W/m 8,1 C 11,6 C 4,8 km/h (1 Bft) 95,65 %
05.01.2018 15:39 11,6 C 3,9 C 79 % 1003,3 hPa 0,0 l/m 3,2 km/h (1 Bft) O-NO 67 0 min 0,000 mm 0,0 UV-I 25 W/m 8,1 C 11,6 C 4,8 km/h (1 Bft) 95,65 %
05.01.2018 15:40 11,5 C 3,9 C 79 % 1003,2 hPa 0,0 l/m 3,2 km/h (1 Bft) O-NO 67 0 min 0,000 mm 0,0 UV-I 25 W/m 8,0 C 11,5 C 4,8 km/h (1 Bft) 95,65 %
05.01.2018 15:41 11,4 C 3,9 C 79 % 1003,3 hPa 0,0 l/m 3,2 km/h (1 Bft) O-NO 67 0 min 0,000 mm 0,0 UV-I 24 W/m 7,9 C 11,4 C 4,8 km/h (1 Bft) 95,65 %
05.01.2018 15:42 11,4 C 3,9 C 79 % 1003,3 hPa 0,0 l/m 3,2 km/h (1 Bft) O-NO 67 0 min 0,000 mm 0,0 UV-I 23 W/m 7,9 C 11,4 C 4,8 km/h (1 Bft) 100,00 %
05.01.2018 15:43 11,3 C 3,9 C 79 % 1003,3 hPa 0,0 l/m 3,2 km/h (1 Bft) O-NO 67 0 min 0,000 mm 0,0 UV-I 23 W/m 7,8 C 11,3 C 3,2 km/h (1 Bft) 95,65 %
05.01.2018 15:44 11,2 C 3,9 C 80 % 1003,3 hPa 0,0 l/m 3,2 km/h (1 Bft) O-NO 67 0 min 0,000 mm 0,0 UV-I 23 W/m 7,9 C 11,2 C 3,2 km/h (1 Bft) 95,65 %
05.01.2018 15:45 11,2 C 3,9 C 80 % 1003,3 hPa 0,0 l/m 3,2 km/h (1 Bft) O-NO 67 0 min 0,000 mm 0,0 UV-I 23 W/m 7,9 C 11,2 C 3,2 km/h (1 Bft) 95,65 %
05.01.2018 15:46 11,2 C 3,9 C 80 % 1003,4 hPa 0,0 l/m 1,6 km/h (1 Bft) O-NO 67 0 min 0,000 mm 0,0 UV-I 23 W/m 7,9 C 11,2 C 3,2 km/h (1 Bft) 95,65 %
05.01.2018 15:47 11,1 C 3,9 C 80 % 1003,3 hPa 0,0 l/m 1,6 km/h (1 Bft) O-NO 67 0 min 0,000 mm 0,0 UV-I 25 W/m 7,8 C 11,1 C 3,2 km/h (1 Bft) 95,65 %
05.01.2018 15:48 11,1 C 3,9 C 81 % 1003,3 hPa 0,0 l/m 3,2 km/h (1 Bft) O-NO 67 0 min 0,000 mm 0,0 UV-I 25 W/m 8,0 C 11,1 C 3,2 km/h (1 Bft) 95,65 %
05.01.2018 15:49 11,1 C 3,9 C 80 % 1003,3 hPa 0,0 l/m 3,2 km/h (1 Bft) O-NO 67 0 min 0,000 mm 0,0 UV-I 25 W/m 7,8 C 11,1 C 4,8 km/h (1 Bft) 100,00 %
05.01.2018 15:50 10,9 C 3,9 C 80 % 1003,3 hPa 0,0 l/m 4,8 km/h (1 Bft) O-NO 67 0 min 0,000 mm 0,0 UV-I 25 W/m 7,6 C 10,9 C 4,8 km/h (1 Bft) 91,30 %
05.01.2018 15:51 10,7 C 3,9 C 81 % 1003,3 hPa 0,0 l/m 4,8 km/h (1 Bft) O-NO 67 0 min 0,000 mm 0,0 UV-I 25 W/m 7,6 C 10,7 C 4,8 km/h (1 Bft) 100,00 %
05.01.2018 15:52 10,6 C 3,9 C 82 % 1003,2 hPa 0,0 l/m 4,8 km/h (1 Bft) O-NO 67 0 min 0,000 mm 0,0 UV-I 26 W/m 7,7 C 10,6 C 6,4 km/h (2 Bft) 95,65 %
05.01.2018 15:53 10,5 C 3,9 C 82 % 1003,2 hPa 0,0 l/m 4,8 km/h (1 Bft) O-NO 67 0 min 0,000 mm 0,0 UV-I 26 W/m 7,6 C 10,5 C 4,8 km/h (1 Bft) 95,65 %
05.01.2018 15:54 10,6 C 3,9 C 82 % 1003,2 hPa 0,0 l/m 3,2 km/h (1 Bft) O-NO 67 0 min 0,000 mm 0,0 UV-I 26 W/m 7,7 C 10,6 C 4,8 km/h (1 Bft) 91,30 %
05.01.2018 15:55 10,7 C 3,9 C 82 % 1003,1 hPa 0,0 l/m 3,2 km/h (1 Bft) O-NO 67 0 min 0,000 mm 0,0 UV-I 26 W/m 7,8 C 10,7 C 4,8 km/h (1 Bft) 91,30 %
05.01.2018 15:56 10,8 C 3,9 C 81 % 1003,2 hPa 0,0 l/m 1,6 km/h (1 Bft) O-NO 67 0 min 0,000 mm 0,0 UV-I 25 W/m 7,7 C 10,8 C 4,8 km/h (1 Bft) 95,65 %
05.01.2018 15:57 10,6 C 3,9 C 82 % 1003,2 hPa 0,0 l/m 1,6 km/h (1 Bft) O-NO 67 0 min 0,000 mm 0,0 UV-I 25 W/m 7,7 C 10,6 C 3,2 km/h (1 Bft) 95,65 %
05.01.2018 15:58 10,3 C 3,9 C 83 % 1003,3 hPa 0,0 l/m 1,6 km/h (1 Bft) N-NO 22 0 min 0,000 mm 0,0 UV-I 24 W/m 7,5 C 10,3 C 1,6 km/h (1 Bft) 91,30 %
05.01.2018 15:59 10,2 C 3,9 C 84 % 1003,3 hPa 0,0 l/m 1,6 km/h (1 Bft) N 360 0 min 0,000 mm 0,0 UV-I 23 W/m 7,6 C 10,2 C 3,2 km/h (1 Bft) 95,65 %
05.01.2018 16:00 9,9 C 3,9 C 84 % 1003,4 hPa 0,0 l/m 1,6 km/h (1 Bft) N 360 0 min 0,025 mm 0,0 UV-I 21 W/m 7,3 C 9,9 C 3,2 km/h (1 Bft) 95,65 %
05.01.2018 16:01 9,7 C 3,9 C 85 % 1003,4 hPa 0,0 l/m 1,6 km/h (1 Bft) N 360 0 min 0,000 mm 0,0 UV-I 21 W/m 7,3 C 9,7 C 3,2 km/h (1 Bft) 91,30 %
05.01.2018 16:02 9,6 C 3,9 C 87 % 1003,5 hPa 0,0 l/m 0,0 km/h (0 Bft) N 0 0 min 0,000 mm 0,0 UV-I 19 W/m 7,5 C 9,6 C 0,0 km/h (0 Bft) 95,65 %
05.01.2018 16:03 9,5 C 3,9 C 87 % 1003,5 hPa 0,0 l/m 1,6 km/h (1 Bft) N 360 0 min 0,000 mm 0,0 UV-I 19 W/m 7,4 C 9,5 C 3,2 km/h (1 Bft) 95,65 %
05.01.2018 16:04 9,5 C 3,9 C 87 % 1003,5 hPa 0,0 l/m 3,2 km/h (1 Bft) N 360 0 min 0,000 mm 0,0 UV-I 18 W/m 7,4 C 9,5 C 4,8 km/h (1 Bft) 91,30 %
05.01.2018 16:05 9,4 C 3,9 C 88 % 1003,5 hPa 0,0 l/m 4,8 km/h (1 Bft) N 360 0 min 0,000 mm 0,0 UV-I 18 W/m 7,5 C 9,4 C 6,4 km/h (2 Bft) 95,65 %
05.01.2018 16:06 9,5 C 3,9 C 88 % 1003,5 hPa 0,0 l/m 4,8 km/h (1 Bft) N 360 0 min 0,000 mm 0,0 UV-I 16 W/m 7,6 C 9,5 C 6,4 km/h (2 Bft) 91,30 %
05.01.2018 16:07 9,6 C 3,9 C 88 % 1003,5 hPa 0,0 l/m 3,2 km/h (1 Bft) N 360 1 min 0,000 mm 0,0 UV-I 16 W/m 7,7 C 9,6 C 4,8 km/h (1 Bft) 100,00 %
05.01.2018 16:08 9,4 C 3,9 C 87 % 1003,5 hPa 0,0 l/m 4,8 km/h (1 Bft) N 360 0 min 0,000 mm 0,0 UV-I 14 W/m 7,3 C 9,4 C 4,8 km/h (1 Bft) 86,96 %
05.01.2018 16:09 9,4 C 3,9 C 87 % 1003,5 hPa 0,0 l/m 4,8 km/h (1 Bft) N 360 1 min 0,000 mm 0,0 UV-I 14 W/m 7,3 C 9,4 C 4,8 km/h (1 Bft) 100,00 %
05.01.2018 16:10 9,5 C 3,9 C 87 % 1003,5 hPa 0,0 l/m 3,2 km/h (1 Bft) N 360 1 min 0,000 mm 0,0 UV-I 13 W/m 7,4 C 9,5 C 4,8 km/h (1 Bft) 91,30 %
05.01.2018 16:11 9,6 C 3,9 C 87 % 1003,5 hPa 0,0 l/m 3,2 km/h (1 Bft) N 360 1 min 0,000 mm 0,0 UV-I 12 W/m 7,5 C 9,6 C 3,2 km/h (1 Bft) 86,96 %
05.01.2018 16:12 9,7 C 3,9 C 87 % 1003,6 hPa 0,0 l/m 1,6 km/h (1 Bft) N 360 1 min 0,000 mm 0,0 UV-I 12 W/m 7,6 C 9,7 C 3,2 km/h (1 Bft) 100,00 %
05.01.2018 16:13 9,7 C 3,9 C 86 % 1003,6 hPa 0,0 l/m 3,2 km/h (1 Bft) NW 315 0 min 0,000 mm 0,0 UV-I 12 W/m 7,5 C 9,7 C 6,4 km/h (2 Bft) 91,30 %
05.01.2018 16:14 9,4 C 3,9 C 86 % 1003,6 hPa 0,0 l/m 1,6 km/h (1 Bft) NW 315 0 min 0,000 mm 0,0 UV-I 12 W/m 7,2 C 9,4 C 3,2 km/h (1 Bft) 100,00 %
05.01.2018 16:15 9,2 C 3,9 C 87 % 1003,6 hPa 0,0 l/m 1,6 km/h (1 Bft) NW 315 0 min 0,000 mm 0,0 UV-I 12 W/m 7,2 C 9,2 C 3,2 km/h (1 Bft) 86,96 %
05.01.2018 16:16 9,1 C 3,9 C 88 % 1003,7 hPa 0,0 l/m 0,0 km/h (0 Bft) N 0 0 min 0,000 mm 0,0 UV-I 11 W/m 7,2 C 9,1 C 0,0 km/h (0 Bft) 100,00 %
05.01.2018 16:17 9,1 C 3,9 C 89 % 1003,6 hPa 0,0 l/m 0,0 km/h (0 Bft) NW 315 0 min 0,000 mm 0,0 UV-I 11 W/m 7,4 C 9,1 C 1,6 km/h (1 Bft) 100,00 %
05.01.2018 16:18 9,2 C 3,9 C 89 % 1003,5 hPa 0,0 l/m 1,6 km/h (1 Bft) NW 315 0 min 0,000 mm 0,0 UV-I 9 W/m 7,5 C 9,2 C 3,2 km/h (1 Bft) 100,00 %
05.01.2018 16:19 9,1 C 3,9 C 88 % 1003,5 hPa 0,0 l/m 3,2 km/h (1 Bft) NW 315 0 min 0,000 mm 0,0 UV-I 9 W/m 7,2 C 9,1 C 4,8 km/h (1 Bft) 100,00 %
05.01.2018 16:20 8,9 C 3,9 C 87 % 1003,5 hPa 0,0 l/m 4,8 km/h (1 Bft) O-SO 112 0 min 0,000 mm 0,0 UV-I 9 W/m 6,9 C 8,9 C 4,8 km/h (1 Bft) 100,00 %
05.01.2018 16:21 8,8 C 3,9 C 88 % 1003,6 hPa 0,0 l/m 3,2 km/h (1 Bft) O-SO 112 0 min 0,000 mm 0,0 UV-I 9 W/m 6,9 C 8,8 C 4,8 km/h (1 Bft) 100,00 %
05.01.2018 16:22 8,7 C 3,9 C 88 % 1003,6 hPa 0,0 l/m 3,2 km/h (1 Bft) O-SO 112 0 min 0,000 mm 0,0 UV-I 9 W/m 6,8 C 8,7 C 4,8 km/h (1 Bft) 95,65 %
05.01.2018 16:23 8,6 C 3,9 C 89 % 1003,6 hPa 0,0 l/m 3,2 km/h (1 Bft) O-SO 112 0 min 0,000 mm 0,0 UV-I 7 W/m 6,9 C 8,6 C 4,8 km/h (1 Bft) 100,00 %
05.01.2018 16:24 8,6 C 3,9 C 89 % 1003,7 hPa 0,0 l/m 3,2 km/h (1 Bft) O-SO 112 0 min 0,000 mm 0,0 UV-I 7 W/m 6,9 C 8,6 C 4,8 km/h (1 Bft) 100,00 %
05.01.2018 16:25 8,6 C 3,9 C 89 % 1003,7 hPa 0,0 l/m 1,6 km/h (1 Bft) O-SO 112 0 min 0,000 mm 0,0 UV-I 7 W/m 6,9 C 8,6 C 3,2 km/h (1 Bft) 100,00 %
05.01.2018 16:26 8,5 C 3,9 C 89 % 1003,7 hPa 0,0 l/m 1,6 km/h (1 Bft) O-SO 112 0 min 0,000 mm 0,0 UV-I 7 W/m 6,8 C 8,5 C 3,2 km/h (1 Bft) 95,65 %
05.01.2018 16:27 8,5 C 3,9 C 89 % 1003,7 hPa 0,0 l/m 1,6 km/h (1 Bft) O-SO 112 0 min 0,000 mm 0,0 UV-I 7 W/m 6,8 C 8,5 C 3,2 km/h (1 Bft) 95,65 %
05.01.2018 16:28 8,5 C 3,9 C 89 % 1003,7 hPa 0,0 l/m 1,6 km/h (1 Bft) O-SO 112 0 min 0,000 mm 0,0 UV-I 5 W/m 6,8 C 8,5 C 3,2 km/h (1 Bft) 95,65 %
05.01.2018 16:29 8,5 C 3,9 C 90 % 1003,7 hPa 0,0 l/m 0,0 km/h (0 Bft) O-SO 112 0 min 0,000 mm 0,0 UV-I 5 W/m 7,0 C 8,5 C 1,6 km/h (1 Bft) 100,00 %
05.01.2018 16:30 8,5 C 3,9 C 89 % 1003,7 hPa 0,0 l/m 0,0 km/h (0 Bft) O-SO 112 0 min 0,000 mm 0,0 UV-I 5 W/m 6,8 C 8,5 C 1,6 km/h (1 Bft) 95,65 %
05.01.2018 16:31 8,6 C 3,9 C 90 % 1003,7 hPa 0,0 l/m 1,6 km/h (1 Bft) O-SO 112 0 min 0,000 mm 0,0 UV-I 5 W/m 7,1 C 8,6 C 1,6 km/h (1 Bft) 100,00 %
05.01.2018 16:32 8,7 C 3,9 C 90 % 1003,6 hPa 0,0 l/m 1,6 km/h (1 Bft) O-SO 112 0 min 0,000 mm 0,0 UV-I 5 W/m 7,2 C 8,7 C 3,2 km/h (1 Bft) 100,00 %
05.01.2018 16:33 8,6 C 3,9 C 89 % 1003,5 hPa 0,0 l/m 3,2 km/h (1 Bft) O-SO 112 0 min 0,000 mm 0,0 UV-I 5 W/m 6,9 C 8,6 C 4,8 km/h (1 Bft) 100,00 %
05.01.2018 16:34 8,6 C 3,9 C 90 % 1003,4 hPa 0,0 l/m 4,8 km/h (1 Bft) O-SO 112 0 min 0,000 mm 0,0 UV-I 5 W/m 7,1 C 8,6 C 4,8 km/h (1 Bft) 100,00 %
05.01.2018 16:35 8,4 C 3,9 C 90 % 1003,4 hPa 0,0 l/m 4,8 km/h (1 Bft) O-SO 112 0 min 0,000 mm 0,0 UV-I 5 W/m 6,9 C 8,4 C 6,4 km/h (2 Bft) 100,00 %
05.01.2018 16:36 8,1 C 3,9 C 89 % 1003,3 hPa 0,0 l/m 4,8 km/h (1 Bft) O-SO 112 0 min 0,000 mm 0,0 UV-I 5 W/m 6,4 C 8,1 C 6,4 km/h (2 Bft) 100,00 %
05.01.2018 16:37 8,1 C 3,9 C 91 % 1003,3 hPa 0,0 l/m 4,8 km/h (1 Bft) O 90 0 min 0,000 mm 0,0 UV-I 5 W/m 6,7 C 8,1 C 6,4 km/h (2 Bft) 95,65 %
05.01.2018 16:38 8,1 C 3,9 C 92 % 1003,3 hPa 0,0 l/m 4,8 km/h (1 Bft) O 90 0 min 0,000 mm 0,0 UV-I 5 W/m 6,9 C 8,1 C 6,4 km/h (2 Bft) 95,65 %
05.01.2018 16:39 8,2 C 3,9 C 92 % 1003,2 hPa 0,0 l/m 4,8 km/h (1 Bft) O 90 0 min 0,000 mm 0,0 UV-I 5 W/m 7,0 C 8,2 C 6,4 km/h (2 Bft) 100,00 %
05.01.2018 16:40 8,3 C 3,9 C 92 % 1003,2 hPa 0,0 l/m 4,8 km/h (1 Bft) O 90 0 min 0,000 mm 0,0 UV-I 5 W/m 7,1 C 8,3 C 4,8 km/h (1 Bft) 100,00 %
05.01.2018 16:41 8,3 C 3,9 C 91 % 1003,3 hPa 0,0 l/m 3,2 km/h (1 Bft) O 90 0 min 0,000 mm 0,0 UV-I 0 W/m 6,9 C 8,3 C 4,8 km/h (1 Bft) 100,00 %
05.01.2018 16:42 8,2 C 3,9 C 90 % 1003,2 hPa 0,0 l/m 4,8 km/h (1 Bft) O 90 0 min 0,000 mm 0,0 UV-I 0 W/m 6,7 C 8,2 C 6,4 km/h (2 Bft) 100,00 %
05.01.2018 16:43 8,0 C 3,9 C 90 % 1003,1 hPa 0,0 l/m 4,8 km/h (1 Bft) O 90 0 min 0,000 mm 0,0 UV-I 0 W/m 6,5 C 8,0 C 6,4 km/h (2 Bft) 100,00 %
05.01.2018 16:44 7,8 C 3,9 C 90 % 1003,1 hPa 0,0 l/m 4,8 km/h (1 Bft) O 90 0 min 0,000 mm 0,0 UV-I 0 W/m 6,3 C 7,8 C 6,4 km/h (2 Bft) 95,65 %
05.01.2018 16:45 7,6 C 3,9 C 91 % 1003,1 hPa 0,0 l/m 4,8 km/h (1 Bft) O 90 0 min 0,000 mm 0,0 UV-I 0 W/m 6,2 C 7,6 C 6,4 km/h (2 Bft) 100,00 %
05.01.2018 16:46 7,5 C 3,9 C 91 % 1003,1 hPa 0,0 l/m 4,8 km/h (1 Bft) O-NO 67 0 min 0,000 mm 0,0 UV-I 0 W/m 6,1 C 7,5 C 6,4 km/h (2 Bft) 100,00 %
05.01.2018 16:47 7,4 C 3,9 C 92 % 1003,1 hPa 0,0 l/m 4,8 km/h (1 Bft) O-NO 67 0 min 0,000 mm 0,0 UV-I 0 W/m 6,2 C 7,4 C 6,4 km/h (2 Bft) 100,00 %
05.01.2018 16:48 7,4 C 3,9 C 92 % 1003,1 hPa 0,0 l/m 4,8 km/h (1 Bft) O-NO 67 0 min 0,000 mm 0,0 UV-I 0 W/m 6,2 C 7,4 C 6,4 km/h (2 Bft) 91,30 %
05.01.2018 16:49 7,4 C 3,9 C 93 % 1003,1 hPa 0,0 l/m 3,2 km/h (1 Bft) O-NO 67 0 min 0,000 mm 0,0 UV-I 0 W/m 6,3 C 7,4 C 4,8 km/h (1 Bft) 100,00 %
05.01.2018 16:50 7,5 C 3,9 C 93 % 1003,2 hPa 0,0 l/m 1,6 km/h (1 Bft) O-NO 67 0 min 0,000 mm 0,0 UV-I 0 W/m 6,4 C 7,5 C 3,2 km/h (1 Bft) 100,00 %
05.01.2018 16:51 7,5 C 3,9 C 92 % 1003,2 hPa 0,0 l/m 0,0 km/h (0 Bft) N 0 0 min 0,000 mm 0,0 UV-I 0 W/m 6,3 C 7,5 C 0,0 km/h (0 Bft) 95,65 %
05.01.2018 16:52 7,4 C 3,9 C 91 % 1003,3 hPa 0,0 l/m 0,0 km/h (0 Bft) N 0 0 min 0,000 mm 0,0 UV-I 0 W/m 6,0 C 7,4 C 0,0 km/h (0 Bft) 100,00 %
05.01.2018 16:53 7,4 C 3,9 C 92 % 1003,3 hPa 0,0 l/m 0,0 km/h (0 Bft) O-NO 67 0 min 0,000 mm 0,0 UV-I 0 W/m 6,2 C 7,4 C 3,2 km/h (1 Bft) 95,65 %
05.01.2018 16:54 7,6 C 3,9 C 93 % 1003,2 hPa 0,0 l/m 0,0 km/h (0 Bft) O-NO 67 0 min 0,000 mm 0,0 UV-I 0 W/m 6,5 C 7,6 C 1,6 km/h (1 Bft) 100,00 %
05.01.2018 16:55 7,6 C 3,9 C 93 % 1003,3 hPa 0,0 l/m 1,6 km/h (1 Bft) O-NO 67 0 min 0,000 mm 0,0 UV-I 0 W/m 6,5 C 7,6 C 1,6 km/h (1 Bft) 100,00 %
05.01.2018 16:56 7,6 C 3,9 C 93 % 1003,3 hPa 0,0 l/m 1,6 km/h (1 Bft) O-NO 67 0 min 0,000 mm 0,0 UV-I 0 W/m 6,5 C 7,6 C 3,2 km/h (1 Bft) 95,65 %
05.01.2018 16:57 7,5 C 3,9 C 93 % 1003,4 hPa 0,0 l/m 1,6 km/h (1 Bft) O-NO 67 0 min 0,000 mm 0,0 UV-I 0 W/m 6,4 C 7,5 C 3,2 km/h (1 Bft) 95,65 %
05.01.2018 16:58 7,4 C 3,9 C 92 % 1003,4 hPa 0,0 l/m 1,6 km/h (1 Bft) O-NO 67 0 min 0,000 mm 0,0 UV-I 0 W/m 6,2 C 7,4 C 1,6 km/h (1 Bft) 95,65 %
05.01.2018 16:59 7,4 C 3,9 C 93 % 1003,4 hPa 0,0 l/m 1,6 km/h (1 Bft) O-NO 67 0 min 0,000 mm 0,0 UV-I 0 W/m 6,3 C 7,4 C 1,6 km/h (1 Bft) 95,65 %
05.01.2018 17:00 7,4 C 3,9 C 93 % 1003,4 hPa 0,0 l/m 1,6 km/h (1 Bft) O-NO 67 0 min 0,000 mm 0,0 UV-I 0 W/m 6,3 C 7,4 C 3,2 km/h (1 Bft) 100,00 %
05.01.2018 17:01 7,4 C 3,9 C 93 % 1003,4 hPa 0,0 l/m 1,6 km/h (1 Bft) O-NO 67 0 min 0,000 mm 0,0 UV-I 0 W/m 6,3 C 7,4 C 1,6 km/h (1 Bft) 100,00 %
05.01.2018 17:02 7,4 C 3,9 C 93 % 1003,4 hPa 0,0 l/m 0,0 km/h (0 Bft) N 0 0 min 0,000 mm 0,0 UV-I 0 W/m 6,3 C 7,4 C 0,0 km/h (0 Bft) 100,00 %
05.01.2018 17:03 7,4 C 3,9 C 93 % 1003,4 hPa 0,0 l/m 0,0 km/h (0 Bft) N 0 0 min 0,000 mm 0,0 UV-I 0 W/m 6,3 C 7,4 C 0,0 km/h (0 Bft) 95,65 %
05.01.2018 17:04 7,5 C 3,9 C 93 % 1003,4 hPa 0,0 l/m 1,6 km/h (1 Bft) O-NO 67 0 min 0,000 mm 0,0 UV-I 0 W/m 6,4 C 7,5 C 3,2 km/h (1 Bft) 95,65 %
05.01.2018 17:05 7,5 C 3,9 C 93 % 1003,4 hPa 0,0 l/m 0,0 km/h (0 Bft) O-NO 67 0 min 0,000 mm 0,0 UV-I 0 W/m 6,4 C 7,5 C 1,6 km/h (1 Bft) 95,65 %
05.01.2018 17:06 7,4 C 3,9 C 92 % 1003,5 hPa 0,0 l/m 0,0 km/h (0 Bft) N 0 0 min 0,000 mm 0,0 UV-I 0 W/m 6,2 C 7,4 C 0,0 km/h (0 Bft) 100,00 %
05.01.2018 17:07 7,4 C 3,9 C 93 % 1003,5 hPa 0,0 l/m 0,0 km/h (0 Bft) O-NO 67 0 min 0,000 mm 0,0 UV-I 0 W/m 6,3 C 7,4 C 1,6 km/h (1 Bft) 95,65 %
05.01.2018 17:08 7,4 C 3,9 C 92 % 1003,5 hPa 0,0 l/m 0,0 km/h (0 Bft) O-NO 67 0 min 0,000 mm 0,0 UV-I 0 W/m 6,2 C 7,4 C 1,6 km/h (1 Bft) 100,00 %
05.01.2018 17:09 7,2 C 3,9 C 92 % 1003,5 hPa 0,0 l/m 1,6 km/h (1 Bft) O-NO 67 0 min 0,000 mm 0,0 UV-I 0 W/m 6,0 C 7,2 C 3,2 km/h (1 Bft) 100,00 %
05.01.2018 17:10 7,1 C 3,9 C 92 % 1003,5 hPa 0,0 l/m 1,6 km/h (1 Bft) O-NO 67 0 min 0,000 mm 0,0 UV-I 0 W/m 5,9 C 7,1 C 3,2 km/h (1 Bft) 100,00 %
05.01.2018 17:11 6,9 C 3,9 C 92 % 1003,5 hPa 0,0 l/m 1,6 km/h (1 Bft) O 90 0 min 0,000 mm 0,0 UV-I 0 W/m 5,7 C 6,9 C 4,8 km/h (1 Bft) 100,00 %
05.01.2018 17:12 6,9 C 3,9 C 93 % 1003,5 hPa 0,0 l/m 1,6 km/h (1 Bft) O 90 0 min 0,000 mm 0,0 UV-I 0 W/m 5,8 C 6,9 C 4,8 km/h (1 Bft) 95,65 %
05.01.2018 17:13 6,8 C 3,9 C 93 % 1003,5 hPa 0,0 l/m 1,6 km/h (1 Bft) O-SO 112 0 min 0,000 mm 0,0 UV-I 0 W/m 5,7 C 6,8 C 4,8 km/h (1 Bft) 100,00 %
05.01.2018 17:14 6,9 C 3,9 C 94 % 1003,5 hPa 0,0 l/m 3,2 km/h (1 Bft) O-SO 112 0 min 0,000 mm 0,0 UV-I 0 W/m 6,0 C 6,9 C 4,8 km/h (1 Bft) 95,65 %
05.01.2018 17:15 7,0 C 3,9 C 94 % 1003,5 hPa 0,0 l/m 3,2 km/h (1 Bft) O-SO 112 0 min 0,000 mm 0,0 UV-I 0 W/m 6,1 C 7,0 C 4,8 km/h (1 Bft) 100,00 %
05.01.2018 17:16 7,2 C 3,9 C 94 % 1003,5 hPa 0,0 l/m 3,2 km/h (1 Bft) O-SO 112 0 min 0,000 mm 0,0 UV-I 0 W/m 6,3 C 7,2 C 4,8 km/h (1 Bft) 95,65 %
05.01.2018 17:17 7,2 C 3,9 C 94 % 1003,5 hPa 0,0 l/m 4,8 km/h (1 Bft) O-SO 112 0 min 0,000 mm 0,0 UV-I 0 W/m 6,3 C 7,2 C 6,4 km/h (2 Bft) 100,00 %
05.01.2018 17:18 7,4 C 3,9 C 94 % 1003,5 hPa 0,0 l/m 4,8 km/h (1 Bft) SO 135 0 min 0,000 mm 0,0 UV-I 0 W/m 6,5 C 7,4 C 6,4 km/h (2 Bft) 95,65 %
05.01.2018 17:19 7,5 C 3,9 C 94 % 1003,5 hPa 0,0 l/m 3,2 km/h (1 Bft) SO 135 0 min 0,000 mm 0,0 UV-I 0 W/m 6,6 C 7,5 C 6,4 km/h (2 Bft) 95,65 %
05.01.2018 17:20 7,4 C 3,9 C 93 % 1003,6 hPa 0,0 l/m 3,2 km/h (1 Bft) SO 135 0 min 0,000 mm 0,0 UV-I 0 W/m 6,3 C 7,4 C 4,8 km/h (1 Bft) 95,65 %
05.01.2018 17:21 7,4 C 3,9 C 93 % 1003,6 hPa 0,0 l/m 3,2 km/h (1 Bft) SO 135 0 min 0,000 mm 0,0 UV-I 0 W/m 6,3 C 7,4 C 4,8 km/h (1 Bft) 100,00 %
05.01.2018 17:22 7,4 C 3,9 C 93 % 1003,6 hPa 0,0 l/m 4,8 km/h (1 Bft) SO 135 0 min 0,000 mm 0,0 UV-I 0 W/m 6,3 C 7,4 C 6,4 km/h (2 Bft) 100,00 %
05.01.2018 17:23 7,4 C 3,9 C 93 % 1003,6 hPa 0,0 l/m 4,8 km/h (1 Bft) SO 135 0 min 0,000 mm 0,0 UV-I 0 W/m 6,3 C 7,4 C 4,8 km/h (1 Bft) 100,00 %
05.01.2018 17:24 7,5 C 3,9 C 93 % 1003,5 hPa 0,0 l/m 4,8 km/h (1 Bft) SO 135 0 min 0,000 mm 0,0 UV-I 0 W/m 6,4 C 7,5 C 6,4 km/h (2 Bft) 95,65 %
05.01.2018 17:25 7,6 C 3,9 C 93 % 1003,5 hPa 0,0 l/m 4,8 km/h (1 Bft) SO 135 0 min 0,000 mm 0,0 UV-I 0 W/m 6,5 C 7,6 C 8,0 km/h (2 Bft) 95,65 %
05.01.2018 17:26 7,6 C 3,9 C 93 % 1003,5 hPa 0,0 l/m 4,8 km/h (1 Bft) SO 135 0 min 0,000 mm 0,0 UV-I 0 W/m 6,5 C 7,6 C 6,4 km/h (2 Bft) 95,65 %
05.01.2018 17:27 7,5 C 3,9 C 93 % 1003,5 hPa 0,0 l/m 4,8 km/h (1 Bft) SO 135 0 min 0,000 mm 0,0 UV-I 0 W/m 6,4 C 7,5 C 6,4 km/h (2 Bft) 95,65 %
05.01.2018 17:28 7,4 C 3,9 C 93 % 1003,5 hPa 0,0 l/m 6,4 km/h (2 Bft) SO 135 0 min 0,000 mm 0,0 UV-I 0 W/m 6,3 C 7,4 C 8,0 km/h (2 Bft) 95,65 %
05.01.2018 17:29 7,5 C 3,9 C 93 % 1003,5 hPa 0,0 l/m 4,8 km/h (1 Bft) SO 135 0 min 0,000 mm 0,0 UV-I 0 W/m 6,4 C 7,5 C 6,4 km/h (2 Bft) 95,65 %
05.01.2018 17:30 7,5 C 3,9 C 93 % 1003,4 hPa 0,0 l/m 4,8 km/h (1 Bft) SO 135 0 min 0,000 mm 0,0 UV-I 0 W/m 6,4 C 7,5 C 8,0 km/h (2 Bft) 95,65 %
05.01.2018 17:31 7,5 C 3,9 C 93 % 1003,4 hPa 0,0 l/m 6,4 km/h (2 Bft) SO 135 0 min 0,000 mm 0,0 UV-I 0 W/m 6,4 C 7,5 C 9,7 km/h (2 Bft) 100,00 %
05.01.2018 17:32 7,6 C 3,9 C 93 % 1003,4 hPa 0,0 l/m 6,4 km/h (2 Bft) SO 135 0 min 0,000 mm 0,0 UV-I 0 W/m 6,5 C 7,6 C 11,3 km/h (2 Bft) 95,65 %
05.01.2018 17:33 7,6 C 3,9 C 92 % 1003,3 hPa 0,0 l/m 6,4 km/h (2 Bft) SO 135 0 min 0,000 mm 0,0 UV-I 0 W/m 6,4 C 7,6 C 11,3 km/h (2 Bft) 95,65 %
05.01.2018 17:34 7,7 C 3,9 C 92 % 1003,3 hPa 0,0 l/m 8,0 km/h (2 Bft) SO 135 0 min 0,000 mm 0,0 UV-I 0 W/m 6,5 C 6,4 C 11,3 km/h (2 Bft) 95,65 %
05.01.2018 17:35 7,7 C 3,9 C 92 % 1003,3 hPa 0,0 l/m 9,7 km/h (2 Bft) O-SO 112 0 min 0,000 mm 0,0 UV-I 0 W/m 6,5 C 5,2 C 12,9 km/h (3 Bft) 100,00 %
05.01.2018 17:36 7,8 C 3,9 C 92 % 1003,2 hPa 0,0 l/m 11,3 km/h (2 Bft) O-SO 112 0 min 0,000 mm 0,0 UV-I 0 W/m 6,6 C 4,4 C 12,9 km/h (3 Bft) 95,65 %
05.01.2018 17:37 7,9 C 3,9 C 91 % 1003,1 hPa 0,0 l/m 11,3 km/h (2 Bft) SO 135 0 min 0,000 mm 0,0 UV-I 0 W/m 6,5 C 4,5 C 14,5 km/h (3 Bft) 100,00 %
05.01.2018 17:38 8,1 C 3,9 C 91 % 1003,1 hPa 0,0 l/m 11,3 km/h (2 Bft) O-SO 112 0 min 0,000 mm 0,0 UV-I 0 W/m 6,7 C 4,7 C 17,7 km/h (3 Bft) 95,65 %
05.01.2018 17:39 8,2 C 3,9 C 91 % 1003,1 hPa 0,0 l/m 12,9 km/h (3 Bft) SO 135 0 min 0,000 mm 0,0 UV-I 0 W/m 6,8 C 4,0 C 17,7 km/h (3 Bft) 100,00 %
05.01.2018 17:40 8,3 C 3,9 C 90 % 1003,1 hPa 0,0 l/m 6,4 km/h (2 Bft) SO 135 0 min 0,000 mm 0,0 UV-I 0 W/m 6,8 C 8,3 C 11,3 km/h (2 Bft) 91,30 %
05.01.2018 17:41 8,4 C 3,9 C 88 % 1003,2 hPa 0,0 l/m 8,0 km/h (2 Bft) SO 135 0 min 0,000 mm 0,0 UV-I 0 W/m 6,5 C 7,2 C 12,9 km/h (3 Bft) 100,00 %
05.01.2018 17:42 8,5 C 3,9 C 88 % 1003,2 hPa 0,0 l/m 6,4 km/h (2 Bft) SO 135 0 min 0,000 mm 0,0 UV-I 0 W/m 6,6 C 8,5 C 12,9 km/h (3 Bft) 95,65 %
05.01.2018 17:43 8,6 C 3,9 C 87 % 1003,3 hPa 0,0 l/m 3,2 km/h (1 Bft) S-SO 157 0 min 0,000 mm 0,0 UV-I 0 W/m 6,6 C 8,6 C 9,7 km/h (2 Bft) 100,00 %
05.01.2018 17:44 8,7 C 3,9 C 87 % 1003,3 hPa 0,0 l/m 4,8 km/h (1 Bft) S-SO 157 0 min 0,000 mm 0,0 UV-I 0 W/m 6,7 C 8,7 C 9,7 km/h (2 Bft) 91,30 %
05.01.2018 17:45 8,8 C 3,9 C 86 % 1003,3 hPa 0,0 l/m 3,2 km/h (1 Bft) S-SO 157 0 min 0,000 mm 0,0 UV-I 0 W/m 6,6 C 8,8 C 6,4 km/h (2 Bft) 100,00 %
05.01.2018 17:46 8,8 C 3,9 C 86 % 1003,3 hPa 0,0 l/m 3,2 km/h (1 Bft) S-SO 157 0 min 0,000 mm 0,0 UV-I 0 W/m 6,6 C 8,8 C 3,2 km/h (1 Bft) 95,65 %
05.01.2018 17:47 8,8 C 3,9 C 85 % 1003,3 hPa 0,0 l/m 1,6 km/h (1 Bft) S-SO 157 0 min 0,000 mm 0,0 UV-I 0 W/m 6,4 C 8,8 C 3,2 km/h (1 Bft) 91,30 %
05.01.2018 17:48 8,8 C 3,9 C 85 % 1003,3 hPa 0,0 l/m 1,6 km/h (1 Bft) S-SO 157 0 min 0,000 mm 0,0 UV-I 0 W/m 6,4 C 8,8 C 6,4 km/h (2 Bft) 91,30 %
05.01.2018 17:49 8,7 C 3,9 C 85 % 1003,3 hPa 0,0 l/m 1,6 km/h (1 Bft) S-SO 157 0 min 0,000 mm 0,0 UV-I 0 W/m 6,3 C 8,7 C 3,2 km/h (1 Bft) 95,65 %
05.01.2018 17:50 8,6 C 3,9 C 85 % 1003,3 hPa 0,0 l/m 0,0 km/h (0 Bft) S-SO 157 0 min 0,000 mm 0,0 UV-I 0 W/m 6,2 C 8,6 C 1,6 km/h (1 Bft) 100,00 %
05.01.2018 17:51 8,4 C 3,9 C 85 % 1003,3 hPa 0,0 l/m 1,6 km/h (1 Bft) S-SO 157 0 min 0,000 mm 0,0 UV-I 0 W/m 6,0 C 8,4 C 3,2 km/h (1 Bft) 95,65 %
05.01.2018 17:52 8,3 C 3,9 C 85 % 1003,3 hPa 0,0 l/m 0,0 km/h (0 Bft) S-SO 157 0 min 0,000 mm 0,0 UV-I 0 W/m 5,9 C 8,3 C 1,6 km/h (1 Bft) 100,00 %
05.01.2018 17:53 8,1 C 3,9 C 86 % 1003,3 hPa 0,0 l/m 1,6 km/h (1 Bft) S-SO 157 0 min 0,000 mm 0,0 UV-I 0 W/m 5,9 C 8,1 C 3,2 km/h (1 Bft) 95,65 %
05.01.2018 17:54 7,9 C 3,9 C 87 % 1003,3 hPa 0,0 l/m 3,2 km/h (1 Bft) S-SO 157 0 min 0,000 mm 0,0 UV-I 0 W/m 5,9 C 7,9 C 3,2 km/h (1 Bft) 95,65 %
05.01.2018 17:55 7,8 C 3,9 C 87 % 1003,3 hPa 0,0 l/m 3,2 km/h (1 Bft) S-SO 157 0 min 0,000 mm 0,0 UV-I 0 W/m 5,8 C 7,8 C 6,4 km/h (2 Bft) 100,00 %
05.01.2018 17:56 7,8 C 3,9 C 88 % 1003,4 hPa 0,0 l/m 4,8 km/h (1 Bft) S 180 0 min 0,000 mm 0,0 UV-I 0 W/m 5,9 C 7,8 C 6,4 km/h (2 Bft) 100,00 %
05.01.2018 17:57 7,7 C 3,9 C 88 % 1003,4 hPa 0,0 l/m 4,8 km/h (1 Bft) S 180 0 min 0,000 mm 0,0 UV-I 0 W/m 5,8 C 7,7 C 6,4 km/h (2 Bft) 95,65 %
05.01.2018 17:58 7,6 C 3,9 C 88 % 1003,4 hPa 0,0 l/m 3,2 km/h (1 Bft) S 180 0 min 0,000 mm 0,0 UV-I 0 W/m 5,7 C 7,6 C 3,2 km/h (1 Bft) 100,00 %
05.01.2018 17:59 7,6 C 3,9 C 89 % 1003,4 hPa 0,0 l/m 3,2 km/h (1 Bft) S 180 0 min 0,000 mm 0,0 UV-I 0 W/m 5,9 C 7,6 C 3,2 km/h (1 Bft) 95,65 %
05.01.2018 18:00 7,6 C 3,9 C 89 % 1003,4 hPa 0,0 l/m 1,6 km/h (1 Bft) S 180 0 min 0,000 mm 0,0 UV-I 0 W/m 5,9 C 7,6 C 3,2 km/h (1 Bft) 100,00 %
05.01.2018 18:01 7,6 C 3,9 C 89 % 1003,4 hPa 0,0 l/m 1,6 km/h (1 Bft) S 180 0 min 0,000 mm 0,0 UV-I 0 W/m 5,9 C 7,6 C 3,2 km/h (1 Bft) 91,30 %
05.01.2018 18:02 7,6 C 3,9 C 89 % 1003,4 hPa 0,0 l/m 1,6 km/h (1 Bft) S 180 0 min 0,000 mm 0,0 UV-I 0 W/m 5,9 C 7,6 C 3,2 km/h (1 Bft) 91,30 %
05.01.2018 18:03 7,6 C 3,9 C 89 % 1003,3 hPa 0,0 l/m 1,6 km/h (1 Bft) S 180 0 min 0,000 mm 0,0 UV-I 0 W/m 5,9 C 7,6 C 1,6 km/h (1 Bft) 95,65 %
05.01.2018 18:04 7,4 C 3,9 C 88 % 1003,4 hPa 0,0 l/m 3,2 km/h (1 Bft) S 180 0 min 0,000 mm 0,0 UV-I 0 W/m 5,5 C 7,4 C 6,4 km/h (2 Bft) 95,65 %
05.01.2018 18:05 7,3 C 3,9 C 89 % 1003,4 hPa 0,0 l/m 3,2 km/h (1 Bft) S 180 0 min 0,000 mm 0,0 UV-I 0 W/m 5,6 C 7,3 C 3,2 km/h (1 Bft) 100,00 %
05.01.2018 18:06 7,1 C 3,9 C 89 % 1003,4 hPa 0,0 l/m 3,2 km/h (1 Bft) S 180 0 min 0,000 mm 0,0 UV-I 0 W/m 5,4 C 7,1 C 6,4 km/h (2 Bft) 95,65 %
05.01.2018 18:07 6,9 C 3,9 C 89 % 1003,5 hPa 0,0 l/m 3,2 km/h (1 Bft) S 180 0 min 0,000 mm 0,0 UV-I 0 W/m 5,2 C 6,9 C 4,8 km/h (1 Bft) 95,65 %
05.01.2018 18:08 6,9 C 3,9 C 90 % 1003,5 hPa 0,0 l/m 3,2 km/h (1 Bft) S 180 0 min 0,000 mm 0,0 UV-I 0 W/m 5,4 C 6,9 C 4,8 km/h (1 Bft) 91,30 %
05.01.2018 18:09 7,1 C 3,9 C 91 % 1003,5 hPa 0,0 l/m 1,6 km/h (1 Bft) S 180 0 min 0,000 mm 0,0 UV-I 0 W/m 5,7 C 7,1 C 3,2 km/h (1 Bft) 100,00 %
05.01.2018 18:10 7,1 C 3,9 C 90 % 1003,5 hPa 0,0 l/m 1,6 km/h (1 Bft) S 180 0 min 0,000 mm 0,0 UV-I 0 W/m 5,6 C 7,1 C 3,2 km/h (1 Bft) 95,65 %
05.01.2018 18:11 7,1 C 3,9 C 90 % 1003,5 hPa 0,0 l/m 1,6 km/h (1 Bft) S 180 0 min 0,000 mm 0,0 UV-I 0 W/m 5,6 C 7,1 C 3,2 km/h (1 Bft) 100,00 %
05.01.2018 18:12 7,1 C 3,9 C 89 % 1003,5 hPa 0,0 l/m 1,6 km/h (1 Bft) S 180 0 min 0,000 mm 0,0 UV-I 0 W/m 5,4 C 7,1 C 3,2 km/h (1 Bft) 95,65 %
05.01.2018 18:13 7,1 C 3,9 C 90 % 1003,5 hPa 0,0 l/m 3,2 km/h (1 Bft) S 180 0 min 0,000 mm 0,0 UV-I 0 W/m 5,6 C 7,1 C 3,2 km/h (1 Bft) 95,65 %
05.01.2018 18:14 7,1 C 3,9 C 90 % 1003,4 hPa 0,0 l/m 1,6 km/h (1 Bft) S 180 0 min 0,000 mm 0,0 UV-I 0 W/m 5,6 C 7,1 C 3,2 km/h (1 Bft) 100,00 %
05.01.2018 18:15 7,1 C 3,9 C 90 % 1003,4 hPa 0,0 l/m 1,6 km/h (1 Bft) S 180 0 min 0,000 mm 0,0 UV-I 0 W/m 5,6 C 7,1 C 3,2 km/h (1 Bft) 91,30 %
05.01.2018 18:16 7,0 C 3,9 C 90 % 1003,4 hPa 0,0 l/m 1,6 km/h (1 Bft) S 180 0 min 0,000 mm 0,0 UV-I 0 W/m 5,5 C 7,0 C 3,2 km/h (1 Bft) 100,00 %
05.01.2018 18:17 7,1 C 3,9 C 90 % 1003,4 hPa 0,0 l/m 1,6 km/h (1 Bft) S 180 0 min 0,000 mm 0,0 UV-I 0 W/m 5,6 C 7,1 C 3,2 km/h (1 Bft) 95,65 %
05.01.2018 18:18 7,2 C 3,9 C 90 % 1003,3 hPa 0,0 l/m 1,6 km/h (1 Bft) S 180 0 min 0,000 mm 0,0 UV-I 0 W/m 5,7 C 7,2 C 3,2 km/h (1 Bft) 100,00 %
05.01.2018 18:19 7,3 C 3,9 C 90 % 1003,3 hPa 0,0 l/m 0,0 km/h (0 Bft) S 180 0 min 0,000 mm 0,0 UV-I 0 W/m 5,8 C 7,3 C 1,6 km/h (1 Bft) 91,30 %
05.01.2018 18:20 7,3 C 3,9 C 89 % 1003,3 hPa 0,0 l/m 0,0 km/h (0 Bft) S 180 0 min 0,000 mm 0,0 UV-I 0 W/m 5,6 C 7,3 C 1,6 km/h (1 Bft) 100,00 %
05.01.2018 18:21 7,3 C 3,9 C 89 % 1003,2 hPa 0,0 l/m 0,0 km/h (0 Bft) N 0 0 min 0,000 mm 0,0 UV-I 0 W/m 5,6 C 7,3 C 0,0 km/h (0 Bft) 95,65 %
05.01.2018 18:22 7,3 C 3,9 C 89 % 1003,2 hPa 0,0 l/m 0,0 km/h (0 Bft) N 0 0 min 0,000 mm 0,0 UV-I 0 W/m 5,6 C 7,3 C 0,0 km/h (0 Bft) 82,61 %
05.01.2018 18:23 7,3 C 3,9 C 89 % 1003,3 hPa 0,0 l/m 0,0 km/h (0 Bft) S 180 0 min 0,000 mm 0,0 UV-I 0 W/m 5,6 C 7,3 C 1,6 km/h (1 Bft) 100,00 %
05.01.2018 18:24 7,4 C 3,9 C 89 % 1003,3 hPa 0,0 l/m 0,0 km/h (0 Bft) S 180 0 min 0,000 mm 0,0 UV-I 0 W/m 5,7 C 7,4 C 1,6 km/h (1 Bft) 91,30 %
05.01.2018 18:25 7,4 C 3,9 C 88 % 1003,3 hPa 0,0 l/m 0,0 km/h (0 Bft) S 180 0 min 0,000 mm 0,0 UV-I 0 W/m 5,5 C 7,4 C 1,6 km/h (1 Bft) 100,00 %
05.01.2018 18:26 7,3 C 3,9 C 88 % 1003,2 hPa 0,0 l/m 0,0 km/h (0 Bft) S 180 0 min 0,000 mm 0,0 UV-I 0 W/m 5,4 C 7,3 C 1,6 km/h (1 Bft) 95,65 %
05.01.2018 18:27 7,2 C 3,9 C 88 % 1003,3 hPa 0,0 l/m 0,0 km/h (0 Bft) S 180 0 min 0,000 mm 0,0 UV-I 0 W/m 5,3 C 7,2 C 1,6 km/h (1 Bft) 100,00 %
05.01.2018 18:28 6,9 C 3,9 C 89 % 1003,2 hPa 0,0 l/m 0,0 km/h (0 Bft) S 180 0 min 0,000 mm 0,0 UV-I 0 W/m 5,2 C 6,9 C 1,6 km/h (1 Bft) 95,65 %
05.01.2018 18:29 6,7 C 3,9 C 89 % 1003,2 hPa 0,0 l/m 0,0 km/h (0 Bft) S 180 0 min 0,000 mm 0,0 UV-I 0 W/m 5,0 C 6,7 C 1,6 km/h (1 Bft) 95,65 %
05.01.2018 18:30 6,6 C 3,9 C 90 % 1003,2 hPa 0,0 l/m 0,0 km/h (0 Bft) S 180 0 min 0,000 mm 0,0 UV-I 0 W/m 5,1 C 6,6 C 1,6 km/h (1 Bft) 95,65 %
05.01.2018 18:31 6,4 C 3,9 C 90 % 1003,2 hPa 0,0 l/m 0,0 km/h (0 Bft) S 180 0 min 0,000 mm 0,0 UV-I 0 W/m 4,9 C 6,4 C 1,6 km/h (1 Bft) 95,65 %
05.01.2018 18:32 6,4 C 3,9 C 91 % 1003,2 hPa 0,0 l/m 0,0 km/h (0 Bft) N 0 0 min 0,000 mm 0,0 UV-I 0 W/m 5,0 C 6,4 C 0,0 km/h (0 Bft) 100,00 %
05.01.2018 18:33 6,6 C 3,9 C 92 % 1003,3 hPa 0,0 l/m 3,2 km/h (1 Bft) S 180 0 min 0,000 mm 0,0 UV-I 0 W/m 5,4 C 6,6 C 4,8 km/h (1 Bft) 91,30 %
05.01.2018 18:34 6,6 C 3,9 C 91 % 1003,3 hPa 0,0 l/m 4,8 km/h (1 Bft) SW 225 0 min 0,000 mm 0,0 UV-I 0 W/m 5,2 C 6,6 C 6,4 km/h (2 Bft) 100,00 %
05.01.2018 18:35 6,6 C 3,9 C 91 % 1003,3 hPa 0,0 l/m 3,2 km/h (1 Bft) SW 225 0 min 0,000 mm 0,0 UV-I 0 W/m 5,2 C 6,6 C 4,8 km/h (1 Bft) 95,65 %
05.01.2018 18:36 6,6 C 3,9 C 91 % 1003,3 hPa 0,0 l/m 3,2 km/h (1 Bft) SW 225 0 min 0,000 mm 0,0 UV-I 0 W/m 5,2 C 6,6 C 3,2 km/h (1 Bft) 95,65 %
05.01.2018 18:37 6,6 C 3,9 C 91 % 1003,3 hPa 0,0 l/m 3,2 km/h (1 Bft) SW 225 0 min 0,000 mm 0,0 UV-I 0 W/m 5,2 C 6,6 C 4,8 km/h (1 Bft) 95,65 %
05.01.2018 18:38 6,6 C 3,9 C 91 % 1003,3 hPa 0,0 l/m 3,2 km/h (1 Bft) S-SW 202 0 min 0,000 mm 0,0 UV-I 0 W/m 5,2 C 6,6 C 3,2 km/h (1 Bft) 100,00 %
05.01.2018 18:39 6,6 C 3,9 C 91 % 1003,3 hPa 0,0 l/m 3,2 km/h (1 Bft) S-SW 202 0 min 0,000 mm 0,0 UV-I 0 W/m 5,2 C 6,6 C 3,2 km/h (1 Bft) 95,65 %
05.01.2018 18:40 6,6 C 3,9 C 91 % 1003,4 hPa 0,0 l/m 3,2 km/h (1 Bft) S-SW 202 0 min 0,000 mm 0,0 UV-I 0 W/m 5,2 C 6,6 C 3,2 km/h (1 Bft) 95,65 %
05.01.2018 18:41 6,4 C 3,9 C 90 % 1003,4 hPa 0,0 l/m 1,6 km/h (1 Bft) S-SW 202 0 min 0,000 mm 0,0 UV-I 0 W/m 4,9 C 6,4 C 4,8 km/h (1 Bft) 100,00 %
05.01.2018 18:42 6,3 C 3,9 C 90 % 1003,4 hPa 0,0 l/m 1,6 km/h (1 Bft) S-SW 202 0 min 0,000 mm 0,0 UV-I 0 W/m 4,8 C 6,3 C 3,2 km/h (1 Bft) 100,00 %
05.01.2018 18:43 6,3 C 3,9 C 91 % 1003,4 hPa 0,0 l/m 1,6 km/h (1 Bft) S-SW 202 0 min 0,000 mm 0,0 UV-I 0 W/m 4,9 C 6,3 C 3,2 km/h (1 Bft) 95,65 %
05.01.2018 18:44 6,2 C 3,9 C 91 % 1003,4 hPa 0,0 l/m 3,2 km/h (1 Bft) S-SW 202 0 min 0,000 mm 0,0 UV-I 0 W/m 4,8 C 6,2 C 4,8 km/h (1 Bft) 95,65 %
05.01.2018 18:45 6,2 C 3,9 C 91 % 1003,4 hPa 0,0 l/m 3,2 km/h (1 Bft) W 270 0 min 0,000 mm 0,0 UV-I 0 W/m 4,8 C 6,2 C 4,8 km/h (1 Bft) 95,65 %
05.01.2018 18:46 6,1 C 3,9 C 92 % 1003,4 hPa 0,0 l/m 1,6 km/h (1 Bft) W 270 0 min 0,000 mm 0,0 UV-I 0 W/m 4,9 C 6,1 C 3,2 km/h (1 Bft) 100,00 %
05.01.2018 18:47 6,1 C 3,9 C 92 % 1003,4 hPa 0,0 l/m 1,6 km/h (1 Bft) W 270 0 min 0,000 mm 0,0 UV-I 0 W/m 4,9 C 6,1 C 3,2 km/h (1 Bft) 100,00 %
05.01.2018 18:48 6,2 C 3,9 C 92 % 1003,3 hPa 0,0 l/m 0,0 km/h (0 Bft) W 270 0 min 0,000 mm 0,0 UV-I 0 W/m 5,0 C 6,2 C 1,6 km/h (1 Bft) 95,65 %
05.01.2018 18:49 6,3 C 3,9 C 92 % 1003,3 hPa 0,0 l/m 0,0 km/h (0 Bft) N 0 0 min 0,000 mm 0,0 UV-I 0 W/m 5,1 C 6,3 C 0,0 km/h (0 Bft) 100,00 %
05.01.2018 18:50 6,4 C 3,9 C 92 % 1003,2 hPa 0,0 l/m 0,0 km/h (0 Bft) N 0 0 min 0,000 mm 0,0 UV-I 0 W/m 5,2 C 6,4 C 0,0 km/h (0 Bft) 95,65 %
05.01.2018 18:51 6,5 C 3,9 C 91 % 1003,2 hPa 0,0 l/m 0,0 km/h (0 Bft) N 0 0 min 0,000 mm 0,0 UV-I 0 W/m 5,1 C 6,5 C 0,0 km/h (0 Bft) 100,00 %
05.01.2018 18:52 6,6 C 3,9 C 91 % 1003,2 hPa 0,0 l/m 3,2 km/h (1 Bft) W 270 0 min 0,000 mm 0,0 UV-I 0 W/m 5,2 C 6,6 C 3,2 km/h (1 Bft) 100,00 %
05.01.2018 18:53 6,5 C 3,9 C 90 % 1003,2 hPa 0,0 l/m 1,6 km/h (1 Bft) W 270 0 min 0,000 mm 0,0 UV-I 0 W/m 5,0 C 6,5 C 4,8 km/h (1 Bft) 100,00 %
05.01.2018 18:54 6,5 C 3,9 C 90 % 1003,2 hPa 0,0 l/m 3,2 km/h (1 Bft) S 180 0 min 0,000 mm 0,0 UV-I 0 W/m 5,0 C 6,5 C 4,8 km/h (1 Bft) 95,65 %
05.01.2018 18:55 6,6 C 3,9 C 91 % 1003,2 hPa 0,0 l/m 3,2 km/h (1 Bft) S 180 0 min 0,000 mm 0,0 UV-I 0 W/m 5,2 C 6,6 C 6,4 km/h (2 Bft) 95,65 %
05.01.2018 18:56 6,6 C 3,9 C 90 % 1003,2 hPa 0,0 l/m 3,2 km/h (1 Bft) S 180 0 min 0,000 mm 0,0 UV-I 0 W/m 5,1 C 6,6 C 4,8 km/h (1 Bft) 100,00 %
05.01.2018 18:57 6,6 C 3,9 C 89 % 1003,1 hPa 0,0 l/m 4,8 km/h (1 Bft) S 180 0 min 0,000 mm 0,0 UV-I 0 W/m 4,9 C 6,6 C 4,8 km/h (1 Bft) 95,65 %
05.01.2018 18:58 6,4 C 3,9 C 89 % 1003,1 hPa 0,0 l/m 4,8 km/h (1 Bft) SO 135 0 min 0,000 mm 0,0 UV-I 0 W/m 4,7 C 6,4 C 6,4 km/h (2 Bft) 100,00 %
05.01.2018 18:59 6,2 C 3,9 C 89 % 1003,1 hPa 0,0 l/m 4,8 km/h (1 Bft) SO 135 0 min 0,000 mm 0,0 UV-I 0 W/m 4,5 C 6,2 C 4,8 km/h (1 Bft) 100,00 %
05.01.2018 19:00 5,9 C 3,9 C 90 % 1003,1 hPa 0,0 l/m 3,2 km/h (1 Bft) SO 135 0 min 0,000 mm 0,0 UV-I 0 W/m 4,4 C 5,9 C 4,8 km/h (1 Bft) 95,65 %
05.01.2018 19:01 5,9 C 3,9 C 91 % 1003,2 hPa 0,0 l/m 1,6 km/h (1 Bft) SO 135 0 min 0,000 mm 0,0 UV-I 0 W/m 4,5 C 5,9 C 4,8 km/h (1 Bft) 95,65 %
05.01.2018 19:02 5,8 C 3,9 C 91 % 1003,2 hPa 0,0 l/m 4,8 km/h (1 Bft) W 270 0 min 0,000 mm 0,0 UV-I 0 W/m 4,4 C 5,8 C 4,8 km/h (1 Bft) 95,65 %
05.01.2018 19:03 5,6 C 3,9 C 91 % 1003,3 hPa 0,0 l/m 4,8 km/h (1 Bft) W-NW 292 0 min 0,000 mm 0,0 UV-I 0 W/m 4,2 C 5,6 C 6,4 km/h (2 Bft) 95,65 %
05.01.2018 19:04 5,4 C 3,9 C 91 % 1003,3 hPa 0,0 l/m 3,2 km/h (1 Bft) W-NW 292 0 min 0,000 mm 0,0 UV-I 0 W/m 4,1 C 5,4 C 4,8 km/h (1 Bft) 91,30 %
05.01.2018 19:05 5,4 C 3,9 C 92 % 1003,3 hPa 0,0 l/m 1,6 km/h (1 Bft) W-NW 292 0 min 0,000 mm 0,0 UV-I 0 W/m 4,2 C 5,4 C 3,2 km/h (1 Bft) 91,30 %
05.01.2018 19:06 5,4 C 3,9 C 93 % 1003,3 hPa 0,0 l/m 1,6 km/h (1 Bft) W-NW 292 0 min 0,000 mm 0,0 UV-I 0 W/m 4,4 C 5,4 C 1,6 km/h (1 Bft) 95,65 %
05.01.2018 19:07 5,5 C 3,9 C 93 % 1003,3 hPa 0,0 l/m 1,6 km/h (1 Bft) W-NW 292 0 min 0,000 mm 0,0 UV-I 0 W/m 4,5 C 5,5 C 3,2 km/h (1 Bft) 100,00 %
05.01.2018 19:08 5,6 C 3,9 C 93 % 1003,4 hPa 0,0 l/m 3,2 km/h (1 Bft) W-NW 292 0 min 0,000 mm 0,0 UV-I 0 W/m 4,6 C 5,6 C 4,8 km/h (1 Bft) 95,65 %
05.01.2018 19:09 5,6 C 3,9 C 93 % 1003,4 hPa 0,0 l/m 4,8 km/h (1 Bft) W-NW 292 0 min 0,000 mm 0,0 UV-I 0 W/m 4,6 C 5,6 C 6,4 km/h (2 Bft) 100,00 %
05.01.2018 19:10 5,6 C 3,9 C 93 % 1003,4 hPa 0,0 l/m 4,8 km/h (1 Bft) W-NW 292 0 min 0,000 mm 0,0 UV-I 0 W/m 4,6 C 5,6 C 4,8 km/h (1 Bft) 95,65 %
05.01.2018 19:11 5,6 C 3,9 C 93 % 1003,4 hPa 0,0 l/m 4,8 km/h (1 Bft) W-NW 292 0 min 0,000 mm 0,0 UV-I 0 W/m 4,6 C 5,6 C 4,8 km/h (1 Bft) 95,65 %
05.01.2018 19:12 5,6 C 3,9 C 93 % 1003,5 hPa 0,0 l/m 1,6 km/h (1 Bft) W-NW 292 0 min 0,000 mm 0,0 UV-I 0 W/m 4,6 C 5,6 C 3,2 km/h (1 Bft) 91,30 %
05.01.2018 19:13 5,7 C 3,9 C 93 % 1003,5 hPa 0,0 l/m 0,0 km/h (0 Bft) W-NW 292 0 min 0,000 mm 0,0 UV-I 0 W/m 4,7 C 5,7 C 1,6 km/h (1 Bft) 95,65 %
05.01.2018 19:14 5,7 C 3,9 C 93 % 1003,5 hPa 0,0 l/m 0,0 km/h (0 Bft) W-NW 292 0 min 0,000 mm 0,0 UV-I 0 W/m 4,7 C 5,7 C 1,6 km/h (1 Bft) 95,65 %
05.01.2018 19:15 5,7 C 3,9 C 92 % 1003,5 hPa 0,0 l/m 1,6 km/h (1 Bft) W-NW 292 0 min 0,000 mm 0,0 UV-I 0 W/m 4,5 C 5,7 C 3,2 km/h (1 Bft) 95,65 %
05.01.2018 19:16 5,4 C 3,9 C 91 % 1003,5 hPa 0,0 l/m 3,2 km/h (1 Bft) W-NW 292 0 min 0,000 mm 0,0 UV-I 0 W/m 4,1 C 5,4 C 4,8 km/h (1 Bft) 95,65 %
05.01.2018 19:17 5,3 C 3,9 C 92 % 1003,5 hPa 0,0 l/m 1,6 km/h (1 Bft) W-NW 292 0 min 0,000 mm 0,0 UV-I 0 W/m 4,1 C 5,3 C 3,2 km/h (1 Bft) 100,00 %
05.01.2018 19:18 5,2 C 3,9 C 92 % 1003,5 hPa 0,0 l/m 0,0 km/h (0 Bft) N 0 0 min 0,000 mm 0,0 UV-I 0 W/m 4,0 C 5,2 C 0,0 km/h (0 Bft) 91,30 %
05.01.2018 19:19 5,3 C 3,9 C 93 % 1003,5 hPa 0,0 l/m 0,0 km/h (0 Bft) N 0 0 min 0,000 mm 0,0 UV-I 0 W/m 4,3 C 5,3 C 0,0 km/h (0 Bft) 95,65 %
05.01.2018 19:20 5,3 C 3,9 C 93 % 1003,5 hPa 0,0 l/m 1,6 km/h (1 Bft) W-NW 292 0 min 0,000 mm 0,0 UV-I 0 W/m 4,3 C 5,3 C 3,2 km/h (1 Bft) 91,30 %
05.01.2018 19:21 5,3 C 3,9 C 93 % 1003,5 hPa 0,0 l/m 0,0 km/h (0 Bft) W-NW 292 0 min 0,000 mm 0,0 UV-I 0 W/m 4,3 C 5,3 C 1,6 km/h (1 Bft) 100,00 %
05.01.2018 19:22 5,3 C 3,9 C 93 % 1003,5 hPa 0,0 l/m 0,0 km/h (0 Bft) N 0 0 min 0,000 mm 0,0 UV-I 0 W/m 4,3 C 5,3 C 0,0 km/h (0 Bft) 91,30 %
05.01.2018 19:23 5,4 C 3,9 C 93 % 1003,5 hPa 0,0 l/m 0,0 km/h (0 Bft) W-NW 292 0 min 0,000 mm 0,0 UV-I 0 W/m 4,4 C 5,4 C 3,2 km/h (1 Bft) 95,65 %
05.01.2018 19:24 5,4 C 3,9 C 93 % 1003,5 hPa 0,0 l/m 3,2 km/h (1 Bft) W-NW 292 0 min 0,000 mm 0,0 UV-I 0 W/m 4,4 C 5,4 C 4,8 km/h (1 Bft) 95,65 %
05.01.2018 19:25 5,3 C 3,9 C 93 % 1003,5 hPa 0,0 l/m 3,2 km/h (1 Bft) W-NW 292 0 min 0,000 mm 0,0 UV-I 0 W/m 4,3 C 5,3 C 3,2 km/h (1 Bft) 91,30 %
05.01.2018 19:26 5,3 C 3,9 C 93 % 1003,6 hPa 0,0 l/m 1,6 km/h (1 Bft) W-NW 292 0 min 0,000 mm 0,0 UV-I 0 W/m 4,3 C 5,3 C 3,2 km/h (1 Bft) 100,00 %
05.01.2018 19:27 5,2 C 3,9 C 93 % 1003,6 hPa 0,0 l/m 0,0 km/h (0 Bft) W-NW 292 0 min 0,000 mm 0,0 UV-I 0 W/m 4,2 C 5,2 C 1,6 km/h (1 Bft) 95,65 %
05.01.2018 19:28 5,3 C 3,9 C 93 % 1003,6 hPa 0,0 l/m 0,0 km/h (0 Bft) W-NW 292 0 min 0,000 mm 0,0 UV-I 0 W/m 4,3 C 5,3 C 1,6 km/h (1 Bft) 100,00 %
05.01.2018 19:29 5,3 C 3,9 C 93 % 1003,6 hPa 0,0 l/m 1,6 km/h (1 Bft) W-NW 292 0 min 0,000 mm 0,0 UV-I 0 W/m 4,3 C 5,3 C 3,2 km/h (1 Bft) 95,65 %
05.01.2018 19:30 5,3 C 3,9 C 93 % 1003,7 hPa 0,0 l/m 3,2 km/h (1 Bft) W-NW 292 0 min 0,000 mm 0,0 UV-I 0 W/m 4,3 C 5,3 C 4,8 km/h (1 Bft) 100,00 %
05.01.2018 19:31 5,2 C 3,9 C 93 % 1003,6 hPa 0,0 l/m 1,6 km/h (1 Bft) W-NW 292 0 min 0,000 mm 0,0 UV-I 0 W/m 4,2 C 5,2 C 1,6 km/h (1 Bft) 100,00 %
05.01.2018 19:32 5,2 C 3,9 C 93 % 1003,6 hPa 0,0 l/m 0,0 km/h (0 Bft) N 0 0 min 0,000 mm 0,0 UV-I 0 W/m 4,2 C 5,2 C 0,0 km/h (0 Bft) 91,30 %
05.01.2018 19:33 5,3 C 3,9 C 93 % 1003,6 hPa 0,0 l/m 0,0 km/h (0 Bft) N 0 0 min 0,000 mm 0,0 UV-I 0 W/m 4,3 C 5,3 C 0,0 km/h (0 Bft) 95,65 %
05.01.2018 19:34 5,3 C 3,9 C 94 % 1003,6 hPa 0,0 l/m 0,0 km/h (0 Bft) N 0 0 min 0,000 mm 0,0 UV-I 0 W/m 4,4 C 5,3 C 0,0 km/h (0 Bft) 100,00 %
05.01.2018 19:35 5,4 C 3,9 C 93 % 1003,6 hPa 0,0 l/m 0,0 km/h (0 Bft) W-NW 292 0 min 0,000 mm 0,0 UV-I 0 W/m 4,4 C 5,4 C 3,2 km/h (1 Bft) 100,00 %
05.01.2018 19:36 5,4 C 3,9 C 93 % 1003,6 hPa 0,0 l/m 3,2 km/h (1 Bft) W-NW 292 0 min 0,000 mm 0,0 UV-I 0 W/m 4,4 C 5,4 C 4,8 km/h (1 Bft) 100,00 %
05.01.2018 19:37 5,3 C 3,9 C 93 % 1003,6 hPa 0,0 l/m 3,2 km/h (1 Bft) W-NW 292 0 min 0,000 mm 0,0 UV-I 0 W/m 4,3 C 5,3 C 4,8 km/h (1 Bft) 100,00 %
05.01.2018 19:38 5,3 C 3,9 C 92 % 1003,7 hPa 0,0 l/m 1,6 km/h (1 Bft) W-NW 292 0 min 0,000 mm 0,0 UV-I 0 W/m 4,1 C 5,3 C 3,2 km/h (1 Bft) 95,65 %
05.01.2018 19:39 5,3 C 3,9 C 93 % 1003,7 hPa 0,0 l/m 3,2 km/h (1 Bft) W-NW 292 0 min 0,000 mm 0,0 UV-I 0 W/m 4,3 C 5,3 C 4,8 km/h (1 Bft) 95,65 %
05.01.2018 19:40 5,3 C 3,9 C 93 % 1003,8 hPa 0,0 l/m 1,6 km/h (1 Bft) W-NW 292 0 min 0,000 mm 0,0 UV-I 0 W/m 4,3 C 5,3 C 3,2 km/h (1 Bft) 100,00 %
05.01.2018 19:41 5,4 C 3,9 C 93 % 1003,7 hPa 0,0 l/m 0,0 km/h (0 Bft) N 0 0 min 0,000 mm 0,0 UV-I 0 W/m 4,4 C 5,4 C 0,0 km/h (0 Bft) 95,65 %
05.01.2018 19:42 5,4 C 3,9 C 93 % 1003,7 hPa 0,0 l/m 1,6 km/h (1 Bft) W-NW 292 0 min 0,000 mm 0,0 UV-I 0 W/m 4,4 C 5,4 C 4,8 km/h (1 Bft) 100,00 %
05.01.2018 19:43 5,3 C 3,9 C 93 % 1003,6 hPa 0,0 l/m 3,2 km/h (1 Bft) W-NW 292 0 min 0,000 mm 0,0 UV-I 0 W/m 4,3 C 5,3 C 4,8 km/h (1 Bft) 100,00 %
05.01.2018 19:44 5,3 C 3,9 C 93 % 1003,7 hPa 0,0 l/m 3,2 km/h (1 Bft) W-NW 292 0 min 0,000 mm 0,0 UV-I 0 W/m 4,3 C 5,3 C 4,8 km/h (1 Bft) 100,00 %
05.01.2018 19:45 5,3 C 3,9 C 93 % 1003,6 hPa 0,0 l/m 3,2 km/h (1 Bft) W-NW 292 0 min 0,000 mm 0,0 UV-I 0 W/m 4,3 C 5,3 C 4,8 km/h (1 Bft) 100,00 %
05.01.2018 19:46 5,3 C 3,9 C 93 % 1003,7 hPa 0,0 l/m 1,6 km/h (1 Bft) W-NW 292 0 min 0,000 mm 0,0 UV-I 0 W/m 4,3 C 5,3 C 3,2 km/h (1 Bft) 95,65 %
05.01.2018 19:47 5,2 C 3,9 C 93 % 1003,7 hPa 0,0 l/m 0,0 km/h (0 Bft) W-NW 292 0 min 0,000 mm 0,0 UV-I 0 W/m 4,2 C 5,2 C 1,6 km/h (1 Bft) 100,00 %
05.01.2018 19:48 5,2 C 3,9 C 93 % 1003,7 hPa 0,0 l/m 1,6 km/h (1 Bft) W-NW 292 0 min 0,000 mm 0,0 UV-I 0 W/m 4,2 C 5,2 C 3,2 km/h (1 Bft) 100,00 %
05.01.2018 19:49 5,3 C 3,9 C 93 % 1003,7 hPa 0,0 l/m 1,6 km/h (1 Bft) W-NW 292 0 min 0,000 mm 0,0 UV-I 0 W/m 4,3 C 5,3 C 1,6 km/h (1 Bft) 100,00 %
05.01.2018 19:50 5,3 C 3,9 C 93 % 1003,7 hPa 0,0 l/m 0,0 km/h (0 Bft) N 0 0 min 0,000 mm 0,0 UV-I 0 W/m 4,3 C 5,3 C 0,0 km/h (0 Bft) 100,00 %
05.01.2018 19:51 5,3 C 3,9 C 93 % 1003,7 hPa 0,0 l/m 1,6 km/h (1 Bft) W-NW 292 0 min 0,000 mm 0,0 UV-I 0 W/m 4,3 C 5,3 C 3,2 km/h (1 Bft) 100,00 %
05.01.2018 19:52 5,2 C 3,9 C 93 % 1003,7 hPa 0,0 l/m 1,6 km/h (1 Bft) W-NW 292 0 min 0,000 mm 0,0 UV-I 0 W/m 4,2 C 5,2 C 3,2 km/h (1 Bft) 100,00 %
05.01.2018 19:53 5,2 C 3,9 C 93 % 1003,7 hPa 0,0 l/m 3,2 km/h (1 Bft) W-NW 292 0 min 0,000 mm 0,0 UV-I 0 W/m 4,2 C 5,2 C 4,8 km/h (1 Bft) 95,65 %
05.01.2018 19:54 5,2 C 3,9 C 93 % 1003,7 hPa 0,0 l/m 4,8 km/h (1 Bft) O-NO 67 0 min 0,000 mm 0,0 UV-I 0 W/m 4,2 C 5,2 C 4,8 km/h (1 Bft) 100,00 %
05.01.2018 19:55 5,2 C 3,9 C 93 % 1003,7 hPa 0,0 l/m 4,8 km/h (1 Bft) O-NO 67 0 min 0,000 mm 0,0 UV-I 0 W/m 4,2 C 5,2 C 6,4 km/h (2 Bft) 100,00 %
05.01.2018 19:56 5,4 C 3,9 C 94 % 1003,7 hPa 0,0 l/m 3,2 km/h (1 Bft) O-NO 67 0 min 0,000 mm 0,0 UV-I 0 W/m 4,5 C 5,4 C 4,8 km/h (1 Bft) 100,00 %
05.01.2018 19:57 5,7 C 3,9 C 94 % 1003,7 hPa 0,0 l/m 3,2 km/h (1 Bft) O-NO 67 0 min 0,000 mm 0,0 UV-I 0 W/m 4,8 C 5,7 C 3,2 km/h (1 Bft) 100,00 %
05.01.2018 19:58 5,9 C 3,9 C 93 % 1003,8 hPa 0,0 l/m 3,2 km/h (1 Bft) W-NW 292 0 min 0,000 mm 0,0 UV-I 0 W/m 4,9 C 5,9 C 4,8 km/h (1 Bft) 100,00 %
05.01.2018 19:59 5,8 C 3,9 C 92 % 1003,8 hPa 0,0 l/m 3,2 km/h (1 Bft) W-NW 292 0 min 0,000 mm 0,0 UV-I 0 W/m 4,6 C 5,8 C 4,8 km/h (1 Bft) 100,00 %
05.01.2018 20:00 5,7 C 3,9 C 92 % 1003,9 hPa 0,0 l/m 1,6 km/h (1 Bft) W-NW 292 0 min 0,000 mm 0,0 UV-I 0 W/m 4,5 C 5,7 C 3,2 km/h (1 Bft) 91,30 %
05.01.2018 20:01 5,6 C 3,9 C 92 % 1003,9 hPa 0,0 l/m 1,6 km/h (1 Bft) W-NW 292 0 min 0,000 mm 0,0 UV-I 0 W/m 4,4 C 5,6 C 3,2 km/h (1 Bft) 95,65 %
05.01.2018 20:02 5,4 C 3,9 C 92 % 1003,9 hPa 0,0 l/m 0,0 km/h (0 Bft) W-NW 292 0 min 0,000 mm 0,0 UV-I 0 W/m 4,2 C 5,4 C 3,2 km/h (1 Bft) 100,00 %
05.01.2018 20:03 5,2 C 3,9 C 92 % 1004,0 hPa 0,0 l/m 0,0 km/h (0 Bft) N 0 0 min 0,000 mm 0,0 UV-I 0 W/m 4,0 C 5,2 C 0,0 km/h (0 Bft) 100,00 %
05.01.2018 20:04 5,2 C 3,9 C 92 % 1003,9 hPa 0,0 l/m 0,0 km/h (0 Bft) W-NW 292 0 min 0,000 mm 0,0 UV-I 0 W/m 4,0 C 5,2 C 1,6 km/h (1 Bft) 100,00 %
05.01.2018 20:05 5,1 C 3,9 C 93 % 1003,9 hPa 0,0 l/m 3,2 km/h (1 Bft) W-NW 292 0 min 0,000 mm 0,0 UV-I 0 W/m 4,1 C 5,1 C 4,8 km/h (1 Bft) 100,00 %
05.01.2018 20:06 5,1 C 3,9 C 93 % 1003,9 hPa 0,0 l/m 3,2 km/h (1 Bft) W-NW 292 0 min 0,000 mm 0,0 UV-I 0 W/m 4,1 C 5,1 C 4,8 km/h (1 Bft) 95,65 %
05.01.2018 20:07 5,3 C 3,9 C 94 % 1003,9 hPa 0,0 l/m 0,0 km/h (0 Bft) W-NW 292 0 min 0,000 mm 0,0 UV-I 0 W/m 4,4 C 5,3 C 1,6 km/h (1 Bft) 95,65 %
05.01.2018 20:08 5,5 C 3,9 C 94 % 1003,9 hPa 0,0 l/m 0,0 km/h (0 Bft) S 180 0 min 0,000 mm 0,0 UV-I 0 W/m 4,6 C 5,5 C 3,2 km/h (1 Bft) 100,00 %
05.01.2018 20:09 5,5 C 3,9 C 93 % 1003,9 hPa 0,0 l/m 1,6 km/h (1 Bft) S-SO 157 0 min 0,000 mm 0,0 UV-I 0 W/m 4,5 C 5,5 C 3,2 km/h (1 Bft) 100,00 %
05.01.2018 20:10 5,5 C 3,9 C 93 % 1003,9 hPa 0,0 l/m 1,6 km/h (1 Bft) S-SO 157 0 min 0,000 mm 0,0 UV-I 0 W/m 4,5 C 5,5 C 3,2 km/h (1 Bft) 100,00 %
05.01.2018 20:11 5,5 C 3,9 C 93 % 1003,9 hPa 0,0 l/m 6,4 km/h (2 Bft) SO 135 0 min 0,000 mm 0,0 UV-I 0 W/m 4,5 C 5,5 C 6,4 km/h (2 Bft) 100,00 %
05.01.2018 20:12 5,3 C 3,9 C 92 % 1004,0 hPa 0,0 l/m 6,4 km/h (2 Bft) SO 135 0 min 0,000 mm 0,0 UV-I 0 W/m 4,1 C 5,3 C 6,4 km/h (2 Bft) 95,65 %
05.01.2018 20:13 5,1 C 3,9 C 92 % 1004,0 hPa 0,0 l/m 6,4 km/h (2 Bft) O-SO 112 0 min 0,000 mm 0,0 UV-I 0 W/m 3,9 C 5,1 C 6,4 km/h (2 Bft) 100,00 %
05.01.2018 20:14 4,9 C 3,9 C 92 % 1004,0 hPa 0,0 l/m 4,8 km/h (1 Bft) O-SO 112 0 min 0,000 mm 0,0 UV-I 0 W/m 3,7 C 4,9 C 6,4 km/h (2 Bft) 95,65 %
05.01.2018 20:15 4,9 C 3,9 C 92 % 1004,0 hPa 0,0 l/m 3,2 km/h (1 Bft) O-SO 112 0 min 0,000 mm 0,0 UV-I 0 W/m 3,7 C 4,9 C 4,8 km/h (1 Bft) 100,00 %
05.01.2018 20:16 5,2 C 3,9 C 94 % 1004,0 hPa 0,0 l/m 3,2 km/h (1 Bft) O-SO 112 0 min 0,000 mm 0,0 UV-I 0 W/m 4,3 C 5,2 C 6,4 km/h (2 Bft) 100,00 %
05.01.2018 20:17 5,4 C 3,9 C 94 % 1004,0 hPa 0,0 l/m 4,8 km/h (1 Bft) O 90 0 min 0,000 mm 0,0 UV-I 0 W/m 4,5 C 5,4 C 6,4 km/h (2 Bft) 100,00 %
05.01.2018 20:18 5,6 C 3,9 C 94 % 1004,0 hPa 0,0 l/m 4,8 km/h (1 Bft) O 90 0 min 0,000 mm 0,0 UV-I 0 W/m 4,7 C 5,6 C 6,4 km/h (2 Bft) 100,00 %
05.01.2018 20:19 5,8 C 3,9 C 93 % 1004,0 hPa 0,0 l/m 4,8 km/h (1 Bft) O 90 0 min 0,000 mm 0,0 UV-I 0 W/m 4,8 C 5,8 C 6,4 km/h (2 Bft) 100,00 %
05.01.2018 20:20 5,8 C 3,9 C 92 % 1004,0 hPa 0,0 l/m 4,8 km/h (1 Bft) O 90 0 min 0,000 mm 0,0 UV-I 0 W/m 4,6 C 5,8 C 4,8 km/h (1 Bft) 100,00 %
05.01.2018 20:21 5,6 C 3,9 C 91 % 1004,1 hPa 0,0 l/m 3,2 km/h (1 Bft) O 90 0 min 0,000 mm 0,0 UV-I 0 W/m 4,2 C 5,6 C 3,2 km/h (1 Bft) 91,30 %
05.01.2018 20:22 5,5 C 3,9 C 91 % 1004,1 hPa 0,0 l/m 1,6 km/h (1 Bft) O 90 0 min 0,000 mm 0,0 UV-I 0 W/m 4,2 C 5,5 C 3,2 km/h (1 Bft) 100,00 %
05.01.2018 20:23 5,4 C 3,9 C 92 % 1004,1 hPa 0,0 l/m 3,2 km/h (1 Bft) W-SW 247 0 min 0,000 mm 0,0 UV-I 0 W/m 4,2 C 5,4 C 6,4 km/h (2 Bft) 100,00 %
05.01.2018 20:24 5,3 C 3,9 C 92 % 1004,1 hPa 0,0 l/m 4,8 km/h (1 Bft) W-SW 247 0 min 0,000 mm 0,0 UV-I 0 W/m 4,1 C 5,3 C 6,4 km/h (2 Bft) 95,65 %
05.01.2018 20:25 5,2 C 3,9 C 92 % 1004,1 hPa 0,0 l/m 4,8 km/h (1 Bft) W-SW 247 0 min 0,000 mm 0,0 UV-I 0 W/m 4,0 C 5,2 C 6,4 km/h (2 Bft) 95,65 %
05.01.2018 20:26 5,2 C 3,9 C 92 % 1004,1 hPa 0,0 l/m 3,2 km/h (1 Bft) W-SW 247 0 min 0,000 mm 0,0 UV-I 0 W/m 4,0 C 5,2 C 6,4 km/h (2 Bft) 95,65 %
05.01.2018 20:27 5,1 C 3,9 C 92 % 1004,1 hPa 0,0 l/m 3,2 km/h (1 Bft) W-SW 247 0 min 0,000 mm 0,0 UV-I 0 W/m 3,9 C 5,1 C 4,8 km/h (1 Bft) 100,00 %
05.01.2018 20:28 5,0 C 3,9 C 93 % 1004,1 hPa 0,0 l/m 3,2 km/h (1 Bft) W-SW 247 0 min 0,000 mm 0,0 UV-I 0 W/m 4,0 C 5,0 C 4,8 km/h (1 Bft) 91,30 %
05.01.2018 20:29 5,0 C 3,9 C 93 % 1004,1 hPa 0,0 l/m 4,8 km/h (1 Bft) W-SW 247 0 min 0,000 mm 0,0 UV-I 0 W/m 4,0 C 5,0 C 4,8 km/h (1 Bft) 91,30 %
05.01.2018 20:30 5,1 C 3,9 C 93 % 1004,2 hPa 0,0 l/m 4,8 km/h (1 Bft) W-SW 247 0 min 0,000 mm 0,0 UV-I 0 W/m 4,1 C 5,1 C 6,4 km/h (2 Bft) 95,65 %
05.01.2018 20:31 5,0 C 3,9 C 93 % 1004,2 hPa 0,0 l/m 4,8 km/h (1 Bft) W-SW 247 0 min 0,000 mm 0,0 UV-I 0 W/m 4,0 C 5,0 C 6,4 km/h (2 Bft) 95,65 %
05.01.2018 20:32 4,9 C 3,9 C 93 % 1004,2 hPa 0,0 l/m 3,2 km/h (1 Bft) W-SW 247 0 min 0,000 mm 0,0 UV-I 0 W/m 3,9 C 4,9 C 4,8 km/h (1 Bft) 100,00 %
05.01.2018 20:33 4,9 C 3,9 C 93 % 1004,2 hPa 0,0 l/m 3,2 km/h (1 Bft) W-SW 247 0 min 0,000 mm 0,0 UV-I 0 W/m 3,9 C 4,9 C 4,8 km/h (1 Bft) 95,65 %
05.01.2018 20:34 4,9 C 3,9 C 93 % 1004,2 hPa 0,0 l/m 3,2 km/h (1 Bft) W-SW 247 0 min 0,000 mm 0,0 UV-I 0 W/m 3,9 C 4,9 C 4,8 km/h (1 Bft) 100,00 %
05.01.2018 20:35 4,8 C 3,9 C 93 % 1004,2 hPa 0,0 l/m 3,2 km/h (1 Bft) W-SW 247 0 min 0,000 mm 0,0 UV-I 0 W/m 3,8 C 4,8 C 4,8 km/h (1 Bft) 91,30 %
05.01.2018 20:36 4,7 C 3,9 C 93 % 1004,2 hPa 0,0 l/m 3,2 km/h (1 Bft) W-SW 247 0 min 0,000 mm 0,0 UV-I 0 W/m 3,7 C 4,7 C 4,8 km/h (1 Bft) 100,00 %
05.01.2018 20:37 4,6 C 3,9 C 93 % 1004,2 hPa 0,0 l/m 1,6 km/h (1 Bft) W-SW 247 0 min 0,000 mm 0,0 UV-I 0 W/m 3,6 C 4,6 C 4,8 km/h (1 Bft) 95,65 %
05.01.2018 20:38 4,6 C 3,9 C 94 % 1004,2 hPa 0,0 l/m 0,0 km/h (0 Bft) W-SW 247 0 min 0,000 mm 0,0 UV-I 0 W/m 3,7 C 4,6 C 1,6 km/h (1 Bft) 100,00 %
05.01.2018 20:39 4,5 C 3,9 C 93 % 1004,2 hPa 0,0 l/m 0,0 km/h (0 Bft) N 0 0 min 0,000 mm 0,0 UV-I 0 W/m 3,5 C 4,5 C 0,0 km/h (0 Bft) 91,30 %
05.01.2018 20:40 4,4 C 3,9 C 94 % 1004,2 hPa 0,0 l/m 0,0 km/h (0 Bft) N 0 0 min 0,000 mm 0,0 UV-I 0 W/m 3,5 C 4,4 C 0,0 km/h (0 Bft) 91,30 %
05.01.2018 20:41 4,4 C 3,9 C 94 % 1004,1 hPa 0,0 l/m 0,0 km/h (0 Bft) W-SW 247 0 min 0,000 mm 0,0 UV-I 0 W/m 3,5 C 4,4 C 1,6 km/h (1 Bft) 95,65 %
05.01.2018 20:42 4,4 C 3,9 C 94 % 1004,2 hPa 0,0 l/m 0,0 km/h (0 Bft) N 0 0 min 0,000 mm 0,0 UV-I 0 W/m 3,5 C 4,4 C 0,0 km/h (0 Bft) 86,96 %
05.01.2018 20:43 4,6 C 3,9 C 95 % 1004,1 hPa 0,0 l/m 0,0 km/h (0 Bft) N 0 0 min 0,000 mm 0,0 UV-I 0 W/m 3,9 C 4,6 C 0,0 km/h (0 Bft) 100,00 %
05.01.2018 20:44 4,7 C 3,9 C 95 % 1004,2 hPa 0,0 l/m 0,0 km/h (0 Bft) W-SW 247 0 min 0,000 mm 0,0 UV-I 0 W/m 4,0 C 4,7 C 1,6 km/h (1 Bft) 91,30 %
05.01.2018 20:45 4,8 C 3,9 C 95 % 1004,2 hPa 0,0 l/m 1,6 km/h (1 Bft) W-SW 247 0 min 0,000 mm 0,0 UV-I 0 W/m 4,1 C 4,8 C 3,2 km/h (1 Bft) 100,00 %
05.01.2018 20:46 4,9 C 3,9 C 95 % 1004,2 hPa 0,0 l/m 0,0 km/h (0 Bft) W-SW 247 0 min 0,000 mm 0,0 UV-I 0 W/m 4,2 C 4,9 C 1,6 km/h (1 Bft) 91,30 %
05.01.2018 20:47 5,0 C 3,9 C 95 % 1004,2 hPa 0,0 l/m 1,6 km/h (1 Bft) W-SW 247 0 min 0,000 mm 0,0 UV-I 0 W/m 4,3 C 5,0 C 3,2 km/h (1 Bft) 100,00 %
05.01.2018 20:48 5,1 C 3,9 C 95 % 1004,2 hPa 0,0 l/m 1,6 km/h (1 Bft) W-SW 247 0 min 0,000 mm 0,0 UV-I 0 W/m 4,4 C 5,1 C 3,2 km/h (1 Bft) 91,30 %
05.01.2018 20:49 5,3 C 3,9 C 95 % 1004,3 hPa 0,0 l/m 1,6 km/h (1 Bft) W-SW 247 0 min 0,000 mm 0,0 UV-I 0 W/m 4,6 C 5,3 C 3,2 km/h (1 Bft) 86,96 %
05.01.2018 20:50 5,4 C 3,9 C 95 % 1004,3 hPa 0,0 l/m 1,6 km/h (1 Bft) W-SW 247 0 min 0,000 mm 0,0 UV-I 0 W/m 4,7 C 5,4 C 3,2 km/h (1 Bft) 91,30 %
05.01.2018 20:51 5,4 C 3,9 C 94 % 1004,3 hPa 0,0 l/m 1,6 km/h (1 Bft) W-SW 247 0 min 0,000 mm 0,0 UV-I 0 W/m 4,5 C 5,4 C 3,2 km/h (1 Bft) 95,65 %
05.01.2018 20:52 5,5 C 3,9 C 94 % 1004,3 hPa 0,0 l/m 1,6 km/h (1 Bft) W-SW 247 0 min 0,000 mm 0,0 UV-I 0 W/m 4,6 C 5,5 C 3,2 km/h (1 Bft) 95,65 %
05.01.2018 20:53 5,4 C 3,9 C 93 % 1004,3 hPa 0,0 l/m 1,6 km/h (1 Bft) W-SW 247 0 min 0,000 mm 0,0 UV-I 0 W/m 4,4 C 5,4 C 3,2 km/h (1 Bft) 91,30 %
05.01.2018 20:54 5,3 C 3,9 C 93 % 1004,3 hPa 0,0 l/m 1,6 km/h (1 Bft) W-SW 247 0 min 0,000 mm 0,0 UV-I 0 W/m 4,3 C 5,3 C 1,6 km/h (1 Bft) 95,65 %
05.01.2018 20:55 5,3 C 3,9 C 93 % 1004,3 hPa 0,0 l/m 0,0 km/h (0 Bft) N 0 0 min 0,000 mm 0,0 UV-I 0 W/m 4,3 C 5,3 C 0,0 km/h (0 Bft) 95,65 %
05.01.2018 20:56 5,2 C 3,9 C 93 % 1004,2 hPa 0,0 l/m 0,0 km/h (0 Bft) W-SW 247 0 min 0,000 mm 0,0 UV-I 0 W/m 4,2 C 5,2 C 1,6 km/h (1 Bft) 91,30 %
05.01.2018 20:57 5,2 C 3,9 C 93 % 1004,3 hPa 0,0 l/m 0,0 km/h (0 Bft) N 0 0 min 0,000 mm 0,0 UV-I 0 W/m 4,2 C 5,2 C 0,0 km/h (0 Bft) 95,65 %
05.01.2018 20:58 5,2 C 3,9 C 94 % 1004,3 hPa 0,0 l/m 0,0 km/h (0 Bft) W-SW 247 0 min 0,000 mm 0,0 UV-I 0 W/m 4,3 C 5,2 C 1,6 km/h (1 Bft) 91,30 %
05.01.2018 20:59 5,2 C 3,9 C 94 % 1004,3 hPa 0,0 l/m 0,0 km/h (0 Bft) N 0 0 min 0,000 mm 0,0 UV-I 0 W/m 4,3 C 5,2 C 0,0 km/h (0 Bft) 95,65 %
05.01.2018 21:00 5,2 C 3,9 C 94 % 1004,3 hPa 0,0 l/m 0,0 km/h (0 Bft) W-SW 247 0 min 0,000 mm 0,0 UV-I 0 W/m 4,3 C 5,2 C 1,6 km/h (1 Bft) 95,65 %
05.01.2018 21:01 5,2 C 3,9 C 94 % 1004,3 hPa 0,0 l/m 0,0 km/h (0 Bft) N 0 0 min 0,000 mm 0,0 UV-I 0 W/m 4,3 C 5,2 C 0,0 km/h (0 Bft) 95,65 %
05.01.2018 21:02 5,2 C 3,9 C 94 % 1004,3 hPa 0,0 l/m 0,0 km/h (0 Bft) W-SW 247 0 min 0,000 mm 0,0 UV-I 0 W/m 4,3 C 5,2 C 1,6 km/h (1 Bft) 95,65 %
05.01.2018 21:03 5,3 C 3,9 C 94 % 1004,3 hPa 0,0 l/m 1,6 km/h (1 Bft) W-SW 247 0 min 0,000 mm 0,0 UV-I 0 W/m 4,4 C 5,3 C 4,8 km/h (1 Bft) 86,96 %
05.01.2018 21:04 5,3 C 3,9 C 94 % 1004,2 hPa 0,0 l/m 4,8 km/h (1 Bft) W-SW 247 0 min 0,000 mm 0,0 UV-I 0 W/m 4,4 C 5,3 C 4,8 km/h (1 Bft) 95,65 %
05.01.2018 21:05 5,4 C 3,9 C 94 % 1004,2 hPa 0,0 l/m 3,2 km/h (1 Bft) W-SW 247 0 min 0,000 mm 0,0 UV-I 0 W/m 4,5 C 5,4 C 4,8 km/h (1 Bft) 95,65 %
05.01.2018 21:06 5,6 C 3,9 C 94 % 1004,2 hPa 0,0 l/m 3,2 km/h (1 Bft) W-SW 247 0 min 0,000 mm 0,0 UV-I 0 W/m 4,7 C 5,6 C 3,2 km/h (1 Bft) 95,65 %
05.01.2018 21:07 5,6 C 3,9 C 94 % 1004,2 hPa 0,0 l/m 3,2 km/h (1 Bft) W-SW 247 0 min 0,000 mm 0,0 UV-I 0 W/m 4,7 C 5,6 C 4,8 km/h (1 Bft) 95,65 %
05.01.2018 21:08 5,6 C 3,9 C 93 % 1004,2 hPa 0,0 l/m 3,2 km/h (1 Bft) W-SW 247 0 min 0,000 mm 0,0 UV-I 0 W/m 4,6 C 5,6 C 3,2 km/h (1 Bft) 100,00 %
05.01.2018 21:09 5,6 C 3,9 C 93 % 1004,2 hPa 0,0 l/m 1,6 km/h (1 Bft) W-SW 247 0 min 0,000 mm 0,0 UV-I 0 W/m 4,6 C 5,6 C 3,2 km/h (1 Bft) 100,00 %
05.01.2018 21:10 5,6 C 3,9 C 93 % 1004,2 hPa 0,0 l/m 1,6 km/h (1 Bft) W-SW 247 0 min 0,000 mm 0,0 UV-I 0 W/m 4,6 C 5,6 C 1,6 km/h (1 Bft) 95,65 %
05.01.2018 21:11 5,6 C 3,9 C 93 % 1004,2 hPa 0,0 l/m 1,6 km/h (1 Bft) W-SW 247 0 min 0,000 mm 0,0 UV-I 0 W/m 4,6 C 5,6 C 3,2 km/h (1 Bft) 95,65 %
05.01.2018 21:12 5,6 C 3,9 C 93 % 1004,2 hPa 0,0 l/m 1,6 km/h (1 Bft) W-SW 247 0 min 0,000 mm 0,0 UV-I 0 W/m 4,6 C 5,6 C 3,2 km/h (1 Bft) 100,00 %
05.01.2018 21:13 5,6 C 3,9 C 93 % 1004,2 hPa 0,0 l/m 1,6 km/h (1 Bft) W-SW 247 0 min 0,000 mm 0,0 UV-I 0 W/m 4,6 C 5,6 C 1,6 km/h (1 Bft) 95,65 %
05.01.2018 21:14 5,5 C 3,9 C 93 % 1004,2 hPa 0,0 l/m 1,6 km/h (1 Bft) W-SW 247 0 min 0,000 mm 0,0 UV-I 0 W/m 4,5 C 5,5 C 1,6 km/h (1 Bft) 100,00 %
05.01.2018 21:15 5,5 C 3,9 C 93 % 1004,1 hPa 0,0 l/m 1,6 km/h (1 Bft) W-SW 247 0 min 0,000 mm 0,0 UV-I 0 W/m 4,5 C 5,5 C 3,2 km/h (1 Bft) 100,00 %
05.01.2018 21:16 5,5 C 3,9 C 94 % 1004,2 hPa 0,0 l/m 1,6 km/h (1 Bft) W-SW 247 0 min 0,000 mm 0,0 UV-I 0 W/m 4,6 C 5,5 C 3,2 km/h (1 Bft) 100,00 %
05.01.2018 21:17 5,5 C 3,9 C 94 % 1004,2 hPa 0,0 l/m 1,6 km/h (1 Bft) W-SW 247 0 min 0,000 mm 0,0 UV-I 0 W/m 4,6 C 5,5 C 3,2 km/h (1 Bft) 95,65 %
05.01.2018 21:18 5,5 C 3,9 C 94 % 1004,2 hPa 0,0 l/m 0,0 km/h (0 Bft) W-SW 247 0 min 0,000 mm 0,0 UV-I 0 W/m 4,6 C 5,5 C 1,6 km/h (1 Bft) 100,00 %
05.01.2018 21:19 5,5 C 3,9 C 94 % 1004,2 hPa 0,0 l/m 0,0 km/h (0 Bft) W-SW 247 0 min 0,000 mm 0,0 UV-I 0 W/m 4,6 C 5,5 C 1,6 km/h (1 Bft) 100,00 %
05.01.2018 21:20 5,6 C 3,9 C 94 % 1004,2 hPa 0,0 l/m 0,0 km/h (0 Bft) W-SW 247 0 min 0,000 mm 0,0 UV-I 0 W/m 4,7 C 5,6 C 1,6 km/h (1 Bft) 100,00 %
05.01.2018 21:21 5,7 C 3,9 C 94 % 1004,2 hPa 0,0 l/m 0,0 km/h (0 Bft) W-SW 247 0 min 0,000 mm 0,0 UV-I 0 W/m 4,8 C 5,7 C 1,6 km/h (1 Bft) 100,00 %
05.01.2018 21:22 5,8 C 3,9 C 94 % 1004,2 hPa 0,0 l/m 3,2 km/h (1 Bft) W-SW 247 0 min 0,000 mm 0,0 UV-I 0 W/m 4,9 C 5,8 C 3,2 km/h (1 Bft) 100,00 %
05.01.2018 21:23 5,8 C 3,9 C 93 % 1004,1 hPa 0,0 l/m 1,6 km/h (1 Bft) W-SW 247 0 min 0,000 mm 0,0 UV-I 0 W/m 4,8 C 5,8 C 3,2 km/h (1 Bft) 100,00 %
05.01.2018 21:24 5,7 C 3,9 C 93 % 1004,1 hPa 0,0 l/m 0,0 km/h (0 Bft) W-SW 247 0 min 0,000 mm 0,0 UV-I 0 W/m 4,7 C 5,7 C 1,6 km/h (1 Bft) 95,65 %
05.01.2018 21:25 5,8 C 3,9 C 93 % 1004,1 hPa 0,0 l/m 0,0 km/h (0 Bft) N 0 0 min 0,000 mm 0,0 UV-I 0 W/m 4,8 C 5,8 C 0,0 km/h (0 Bft) 100,00 %
05.01.2018 21:26 5,7 C 3,9 C 93 % 1004,1 hPa 0,0 l/m 0,0 km/h (0 Bft) N 0 0 min 0,000 mm 0,0 UV-I 0 W/m 4,7 C 5,7 C 0,0 km/h (0 Bft) 100,00 %
05.01.2018 21:27 5,7 C 3,9 C 93 % 1004,1 hPa 0,0 l/m 0,0 km/h (0 Bft) W-SW 247 0 min 0,000 mm 0,0 UV-I 0 W/m 4,7 C 5,7 C 1,6 km/h (1 Bft) 100,00 %
05.01.2018 21:28 5,6 C 3,9 C 93 % 1004,1 hPa 0,0 l/m 0,0 km/h (0 Bft) W-SW 247 0 min 0,000 mm 0,0 UV-I 0 W/m 4,6 C 5,6 C 1,6 km/h (1 Bft) 100,00 %
05.01.2018 21:29 5,6 C 3,9 C 93 % 1004,1 hPa 0,0 l/m 3,2 km/h (1 Bft) W-SW 247 0 min 0,000 mm 0,0 UV-I 0 W/m 4,6 C 5,6 C 3,2 km/h (1 Bft) 100,00 %
05.01.2018 21:30 5,6 C 3,9 C 93 % 1004,1 hPa 0,0 l/m 1,6 km/h (1 Bft) W-SW 247 0 min 0,000 mm 0,0 UV-I 0 W/m 4,6 C 5,6 C 3,2 km/h (1 Bft) 95,65 %
05.01.2018 21:31 5,6 C 3,9 C 93 % 1004,2 hPa 0,0 l/m 0,0 km/h (0 Bft) W-SW 247 0 min 0,000 mm 0,0 UV-I 0 W/m 4,6 C 5,6 C 1,6 km/h (1 Bft) 100,00 %
05.01.2018 21:32 5,5 C 3,9 C 93 % 1004,2 hPa 0,0 l/m 0,0 km/h (0 Bft) W-SW 247 0 min 0,000 mm 0,0 UV-I 0 W/m 4,5 C 5,5 C 1,6 km/h (1 Bft) 95,65 %
05.01.2018 21:33 5,5 C 3,9 C 93 % 1004,1 hPa 0,0 l/m 0,0 km/h (0 Bft) W-SW 247 0 min 0,000 mm 0,0 UV-I 0 W/m 4,5 C 5,5 C 1,6 km/h (1 Bft) 100,00 %
05.01.2018 21:34 5,4 C 3,9 C 93 % 1004,2 hPa 0,0 l/m 0,0 km/h (0 Bft) N 0 0 min 0,000 mm 0,0 UV-I 0 W/m 4,4 C 5,4 C 0,0 km/h (0 Bft) 100,00 %
05.01.2018 21:35 5,4 C 3,9 C 93 % 1004,2 hPa 0,0 l/m 0,0 km/h (0 Bft) N 0 0 min 0,000 mm 0,0 UV-I 0 W/m 4,4 C 5,4 C 0,0 km/h (0 Bft) 100,00 %
05.01.2018 21:36 5,4 C 3,9 C 93 % 1004,2 hPa 0,0 l/m 0,0 km/h (0 Bft) N 0 0 min 0,000 mm 0,0 UV-I 0 W/m 4,4 C 5,4 C 0,0 km/h (0 Bft) 100,00 %
05.01.2018 21:37 5,4 C 3,9 C 93 % 1004,2 hPa 0,0 l/m 0,0 km/h (0 Bft) N 0 0 min 0,000 mm 0,0 UV-I 0 W/m 4,4 C 5,4 C 0,0 km/h (0 Bft) 100,00 %
05.01.2018 21:38 5,5 C 3,9 C 94 % 1004,2 hPa 0,0 l/m 0,0 km/h (0 Bft) N 0 0 min 0,000 mm 0,0 UV-I 0 W/m 4,6 C 5,5 C 0,0 km/h (0 Bft) 95,65 %
05.01.2018 21:39 5,6 C 3,9 C 94 % 1004,2 hPa 0,0 l/m 0,0 km/h (0 Bft) W-SW 247 0 min 0,000 mm 0,0 UV-I 0 W/m 4,7 C 5,6 C 1,6 km/h (1 Bft) 100,00 %
05.01.2018 21:40 5,7 C 3,9 C 93 % 1004,2 hPa 0,0 l/m 3,2 km/h (1 Bft) W-SW 247 0 min 0,000 mm 0,0 UV-I 0 W/m 4,7 C 5,7 C 3,2 km/h (1 Bft) 100,00 %
05.01.2018 21:41 5,7 C 3,9 C 93 % 1004,2 hPa 0,0 l/m 3,2 km/h (1 Bft) W-SW 247 0 min 0,000 mm 0,0 UV-I 0 W/m 4,7 C 5,7 C 3,2 km/h (1 Bft) 100,00 %
05.01.2018 21:42 5,7 C 3,9 C 93 % 1004,2 hPa 0,0 l/m 3,2 km/h (1 Bft) W-SW 247 0 min 0,000 mm 0,0 UV-I 0 W/m 4,7 C 5,7 C 4,8 km/h (1 Bft) 100,00 %
05.01.2018 21:43 5,7 C 3,9 C 93 % 1004,2 hPa 0,0 l/m 3,2 km/h (1 Bft) O 90 0 min 0,000 mm 0,0 UV-I 0 W/m 4,7 C 5,7 C 4,8 km/h (1 Bft) 100,00 %
05.01.2018 21:44 5,7 C 3,9 C 93 % 1004,2 hPa 0,0 l/m 3,2 km/h (1 Bft) O 90 0 min 0,000 mm 0,0 UV-I 0 W/m 4,7 C 5,7 C 4,8 km/h (1 Bft) 100,00 %
05.01.2018 21:45 5,8 C 3,9 C 93 % 1004,2 hPa 0,0 l/m 1,6 km/h (1 Bft) O 90 0 min 0,000 mm 0,0 UV-I 0 W/m 4,8 C 5,8 C 3,2 km/h (1 Bft) 91,30 %
05.01.2018 21:46 5,8 C 3,9 C 93 % 1004,3 hPa 0,0 l/m 1,6 km/h (1 Bft) O 90 0 min 0,000 mm 0,0 UV-I 0 W/m 4,8 C 5,8 C 3,2 km/h (1 Bft) 95,65 %
05.01.2018 21:47 5,8 C 3,9 C 92 % 1004,3 hPa 0,0 l/m 1,6 km/h (1 Bft) O 90 0 min 0,000 mm 0,0 UV-I 0 W/m 4,6 C 5,8 C 1,6 km/h (1 Bft) 100,00 %
05.01.2018 21:48 5,8 C 3,9 C 92 % 1004,3 hPa 0,0 l/m 0,0 km/h (0 Bft) O 90 0 min 0,000 mm 0,0 UV-I 0 W/m 4,6 C 5,8 C 1,6 km/h (1 Bft) 100,00 %
05.01.2018 21:49 5,8 C 3,9 C 92 % 1004,2 hPa 0,0 l/m 0,0 km/h (0 Bft) N 0 0 min 0,000 mm 0,0 UV-I 0 W/m 4,6 C 5,8 C 0,0 km/h (0 Bft) 100,00 %
05.01.2018 21:50 5,7 C 3,9 C 92 % 1004,3 hPa 0,0 l/m 0,0 km/h (0 Bft) N 0 0 min 0,000 mm 0,0 UV-I 0 W/m 4,5 C 5,7 C 0,0 km/h (0 Bft) 100,00 %
05.01.2018 21:51 5,6 C 3,9 C 92 % 1004,3 hPa 0,0 l/m 0,0 km/h (0 Bft) O 90 0 min 0,000 mm 0,0 UV-I 0 W/m 4,4 C 5,6 C 3,2 km/h (1 Bft) 100,00 %
05.01.2018 21:52 5,6 C 3,9 C 92 % 1004,2 hPa 0,0 l/m 1,6 km/h (1 Bft) O 90 0 min 0,000 mm 0,0 UV-I 0 W/m 4,4 C 5,6 C 3,2 km/h (1 Bft) 100,00 %
05.01.2018 21:53 5,7 C 3,9 C 93 % 1004,3 hPa 0,0 l/m 3,2 km/h (1 Bft) O 90 0 min 0,000 mm 0,0 UV-I 0 W/m 4,7 C 5,7 C 3,2 km/h (1 Bft) 91,30 %
05.01.2018 21:54 5,7 C 3,9 C 93 % 1004,3 hPa 0,0 l/m 1,6 km/h (1 Bft) O 90 0 min 0,000 mm 0,0 UV-I 0 W/m 4,7 C 5,7 C 3,2 km/h (1 Bft) 100,00 %
05.01.2018 21:55 5,8 C 3,9 C 93 % 1004,3 hPa 0,0 l/m 3,2 km/h (1 Bft) O 90 0 min 0,000 mm 0,0 UV-I 0 W/m 4,8 C 5,8 C 3,2 km/h (1 Bft) 100,00 %
05.01.2018 21:56 5,8 C 3,9 C 93 % 1004,3 hPa 0,0 l/m 1,6 km/h (1 Bft) O 90 0 min 0,000 mm 0,0 UV-I 0 W/m 4,8 C 5,8 C 3,2 km/h (1 Bft) 100,00 %
05.01.2018 21:57 5,7 C 3,9 C 92 % 1004,3 hPa 0,0 l/m 1,6 km/h (1 Bft) O 90 0 min 0,000 mm 0,0 UV-I 0 W/m 4,5 C 5,7 C 3,2 km/h (1 Bft) 100,00 %
05.01.2018 21:58 5,7 C 3,9 C 92 % 1004,3 hPa 0,0 l/m 1,6 km/h (1 Bft) O 90 0 min 0,000 mm 0,0 UV-I 0 W/m 4,5 C 5,7 C 3,2 km/h (1 Bft) 100,00 %
05.01.2018 21:59 5,5 C 3,9 C 92 % 1004,3 hPa 0,0 l/m 1,6 km/h (1 Bft) O 90 0 min 0,000 mm 0,0 UV-I 0 W/m 4,3 C 5,5 C 3,2 km/h (1 Bft) 100,00 %
05.01.2018 22:00 5,4 C 3,9 C 92 % 1004,3 hPa 0,0 l/m 0,0 km/h (0 Bft) O 90 0 min 0,000 mm 0,0 UV-I 0 W/m 4,2 C 5,4 C 1,6 km/h (1 Bft) 91,30 %
05.01.2018 22:01 5,4 C 3,9 C 93 % 1004,3 hPa 0,0 l/m 0,0 km/h (0 Bft) N 0 0 min 0,000 mm 0,0 UV-I 0 W/m 4,4 C 5,4 C 0,0 km/h (0 Bft) 100,00 %
05.01.2018 22:02 5,3 C 3,9 C 93 % 1004,3 hPa 0,0 l/m 1,6 km/h (1 Bft) O 90 0 min 0,000 mm 0,0 UV-I 0 W/m 4,3 C 5,3 C 3,2 km/h (1 Bft) 100,00 %
05.01.2018 22:03 5,3 C 3,9 C 93 % 1004,4 hPa 0,0 l/m 1,6 km/h (1 Bft) O 90 0 min 0,000 mm 0,0 UV-I 0 W/m 4,3 C 5,3 C 1,6 km/h (1 Bft) 100,00 %
05.01.2018 22:04 5,3 C 3,9 C 93 % 1004,3 hPa 0,0 l/m 0,0 km/h (0 Bft) O 90 0 min 0,000 mm 0,0 UV-I 0 W/m 4,3 C 5,3 C 1,6 km/h (1 Bft) 100,00 %
05.01.2018 22:05 5,3 C 3,9 C 93 % 1004,4 hPa 0,0 l/m 0,0 km/h (0 Bft) N 0 0 min 0,000 mm 0,0 UV-I 0 W/m 4,3 C 5,3 C 0,0 km/h (0 Bft) 100,00 %
05.01.2018 22:06 5,2 C 3,9 C 93 % 1004,3 hPa 0,0 l/m 0,0 km/h (0 Bft) N 0 0 min 0,000 mm 0,0 UV-I 0 W/m 4,2 C 5,2 C 0,0 km/h (0 Bft) 100,00 %
05.01.2018 22:07 5,2 C 3,9 C 93 % 1004,3 hPa 0,0 l/m 0,0 km/h (0 Bft) O 90 0 min 0,000 mm 0,0 UV-I 0 W/m 4,2 C 5,2 C 3,2 km/h (1 Bft) 95,65 %
05.01.2018 22:08 5,1 C 3,9 C 93 % 1004,3 hPa 0,0 l/m 1,6 km/h (1 Bft) O 90 0 min 0,000 mm 0,0 UV-I 0 W/m 4,1 C 5,1 C 3,2 km/h (1 Bft) 100,00 %
05.01.2018 22:09 5,1 C 3,9 C 93 % 1004,3 hPa 0,0 l/m 0,0 km/h (0 Bft) O 90 0 min 0,000 mm 0,0 UV-I 0 W/m 4,1 C 5,1 C 1,6 km/h (1 Bft) 100,00 %
05.01.2018 22:10 5,0 C 3,9 C 93 % 1004,3 hPa 0,0 l/m 1,6 km/h (1 Bft) O 90 0 min 0,000 mm 0,0 UV-I 0 W/m 4,0 C 5,0 C 3,2 km/h (1 Bft) 100,00 %
05.01.2018 22:11 5,0 C 3,9 C 94 % 1004,3 hPa 0,0 l/m 1,6 km/h (1 Bft) O 90 0 min 0,000 mm 0,0 UV-I 0 W/m 4,1 C 5,0 C 1,6 km/h (1 Bft) 100,00 %
05.01.2018 22:12 5,0 C 3,9 C 94 % 1004,3 hPa 0,0 l/m 0,0 km/h (0 Bft) O 90 0 min 0,000 mm 0,0 UV-I 0 W/m 4,1 C 5,0 C 1,6 km/h (1 Bft) 100,00 %
05.01.2018 22:13 4,9 C 3,9 C 94 % 1004,3 hPa 0,0 l/m 0,0 km/h (0 Bft) O 90 0 min 0,000 mm 0,0 UV-I 0 W/m 4,0 C 4,9 C 1,6 km/h (1 Bft) 100,00 %
05.01.2018 22:14 4,9 C 3,9 C 94 % 1004,3 hPa 0,0 l/m 0,0 km/h (0 Bft) O 90 0 min 0,000 mm 0,0 UV-I 0 W/m 4,0 C 4,9 C 1,6 km/h (1 Bft) 95,65 %
05.01.2018 22:15 4,9 C 3,9 C 94 % 1004,3 hPa 0,0 l/m 3,2 km/h (1 Bft) O 90 0 min 0,000 mm 0,0 UV-I 0 W/m 4,0 C 4,9 C 3,2 km/h (1 Bft) 95,65 %
05.01.2018 22:16 4,8 C 3,9 C 94 % 1004,3 hPa 0,0 l/m 3,2 km/h (1 Bft) O 90 0 min 0,000 mm 0,0 UV-I 0 W/m 3,9 C 4,8 C 3,2 km/h (1 Bft) 100,00 %
05.01.2018 22:17 4,8 C 3,9 C 94 % 1004,4 hPa 0,0 l/m 3,2 km/h (1 Bft) O 90 0 min 0,000 mm 0,0 UV-I 0 W/m 3,9 C 4,8 C 3,2 km/h (1 Bft) 95,65 %
05.01.2018 22:18 4,8 C 3,9 C 94 % 1004,4 hPa 0,0 l/m 3,2 km/h (1 Bft) O 90 0 min 0,000 mm 0,0 UV-I 0 W/m 3,9 C 4,8 C 4,8 km/h (1 Bft) 95,65 %
05.01.2018 22:19 4,8 C 3,9 C 94 % 1004,4 hPa 0,0 l/m 1,6 km/h (1 Bft) S 180 0 min 0,000 mm 0,0 UV-I 0 W/m 3,9 C 4,8 C 3,2 km/h (1 Bft) 100,00 %
05.01.2018 22:20 4,9 C 3,9 C 94 % 1004,4 hPa 0,0 l/m 1,6 km/h (1 Bft) S 180 0 min 0,000 mm 0,0 UV-I 0 W/m 4,0 C 4,9 C 3,2 km/h (1 Bft) 95,65 %
05.01.2018 22:21 4,9 C 3,9 C 95 % 1004,4 hPa 0,0 l/m 1,6 km/h (1 Bft) S 180 0 min 0,000 mm 0,0 UV-I 0 W/m 4,2 C 4,9 C 1,6 km/h (1 Bft) 91,30 %
05.01.2018 22:22 4,9 C 3,9 C 94 % 1004,4 hPa 0,0 l/m 1,6 km/h (1 Bft) S 180 0 min 0,000 mm 0,0 UV-I 0 W/m 4,0 C 4,9 C 4,8 km/h (1 Bft) 95,65 %
05.01.2018 22:23 4,9 C 3,9 C 94 % 1004,4 hPa 0,0 l/m 1,6 km/h (1 Bft) S 180 0 min 0,000 mm 0,0 UV-I 0 W/m 4,0 C 4,9 C 3,2 km/h (1 Bft) 100,00 %
05.01.2018 22:24 4,9 C 3,9 C 94 % 1004,5 hPa 0,0 l/m 1,6 km/h (1 Bft) S 180 0 min 0,000 mm 0,0 UV-I 0 W/m 4,0 C 4,9 C 3,2 km/h (1 Bft) 95,65 %
05.01.2018 22:25 4,9 C 3,9 C 94 % 1004,5 hPa 0,0 l/m 3,2 km/h (1 Bft) S 180 0 min 0,000 mm 0,0 UV-I 0 W/m 4,0 C 4,9 C 4,8 km/h (1 Bft) 100,00 %
05.01.2018 22:26 4,9 C 3,9 C 94 % 1004,5 hPa 0,0 l/m 4,8 km/h (1 Bft) S 180 0 min 0,000 mm 0,0 UV-I 0 W/m 4,0 C 4,9 C 4,8 km/h (1 Bft) 95,65 %
05.01.2018 22:27 4,9 C 3,9 C 94 % 1004,5 hPa 0,0 l/m 4,8 km/h (1 Bft) SW 225 0 min 0,000 mm 0,0 UV-I 0 W/m 4,0 C 4,9 C 4,8 km/h (1 Bft) 100,00 %
05.01.2018 22:28 4,9 C 3,9 C 94 % 1004,5 hPa 0,0 l/m 4,8 km/h (1 Bft) SW 225 0 min 0,000 mm 0,0 UV-I 0 W/m 4,0 C 4,9 C 4,8 km/h (1 Bft) 91,30 %
05.01.2018 22:29 4,9 C 3,9 C 94 % 1004,5 hPa 0,0 l/m 4,8 km/h (1 Bft) SW 225 0 min 0,000 mm 0,0 UV-I 0 W/m 4,0 C 4,9 C 4,8 km/h (1 Bft) 100,00 %
05.01.2018 22:30 4,9 C 3,9 C 94 % 1004,5 hPa 0,0 l/m 4,8 km/h (1 Bft) SW 225 0 min 0,000 mm 0,0 UV-I 0 W/m 4,0 C 4,9 C 4,8 km/h (1 Bft) 95,65 %
05.01.2018 22:31 4,8 C 3,9 C 94 % 1004,5 hPa 0,0 l/m 4,8 km/h (1 Bft) SW 225 0 min 0,000 mm 0,0 UV-I 0 W/m 3,9 C 4,8 C 4,8 km/h (1 Bft) 100,00 %
05.01.2018 22:32 4,8 C 3,9 C 94 % 1004,5 hPa 0,0 l/m 4,8 km/h (1 Bft) SW 225 0 min 0,000 mm 0,0 UV-I 0 W/m 3,9 C 4,8 C 6,4 km/h (2 Bft) 95,65 %
05.01.2018 22:33 4,8 C 3,9 C 94 % 1004,5 hPa 0,0 l/m 6,4 km/h (2 Bft) SW 225 0 min 0,000 mm 0,0 UV-I 0 W/m 3,9 C 4,8 C 6,4 km/h (2 Bft) 95,65 %
05.01.2018 22:34 4,9 C 3,9 C 95 % 1004,6 hPa 0,0 l/m 4,8 km/h (1 Bft) SW 225 0 min 0,000 mm 0,0 UV-I 0 W/m 4,2 C 4,9 C 6,4 km/h (2 Bft) 100,00 %
05.01.2018 22:35 4,9 C 3,9 C 95 % 1004,6 hPa 0,0 l/m 4,8 km/h (1 Bft) SW 225 0 min 0,000 mm 0,0 UV-I 0 W/m 4,2 C 4,9 C 4,8 km/h (1 Bft) 91,30 %
05.01.2018 22:36 4,9 C 3,9 C 95 % 1004,5 hPa 0,0 l/m 3,2 km/h (1 Bft) SW 225 0 min 0,000 mm 0,0 UV-I 0 W/m 4,2 C 4,9 C 4,8 km/h (1 Bft) 100,00 %
05.01.2018 22:37 4,9 C 3,9 C 95 % 1004,5 hPa 0,0 l/m 1,6 km/h (1 Bft) SW 225 0 min 0,000 mm 0,0 UV-I 0 W/m 4,2 C 4,9 C 3,2 km/h (1 Bft) 95,65 %
05.01.2018 22:38 5,0 C 3,9 C 95 % 1004,6 hPa 0,0 l/m 3,2 km/h (1 Bft) SW 225 0 min 0,000 mm 0,0 UV-I 0 W/m 4,3 C 5,0 C 4,8 km/h (1 Bft) 100,00 %
05.01.2018 22:39 5,1 C 3,9 C 95 % 1004,5 hPa 0,0 l/m 4,8 km/h (1 Bft) SW 225 0 min 0,000 mm 0,0 UV-I 0 W/m 4,4 C 5,1 C 6,4 km/h (2 Bft) 95,65 %
05.01.2018 22:40 5,2 C 3,9 C 95 % 1004,6 hPa 0,0 l/m 4,8 km/h (1 Bft) SW 225 0 min 0,000 mm 0,0 UV-I 0 W/m 4,5 C 5,2 C 6,4 km/h (2 Bft) 100,00 %
05.01.2018 22:41 5,2 C 3,9 C 95 % 1004,6 hPa 0,0 l/m 3,2 km/h (1 Bft) S-SO 157 0 min 0,000 mm 0,0 UV-I 0 W/m 4,5 C 5,2 C 6,4 km/h (2 Bft) 95,65 %
05.01.2018 22:42 5,3 C 3,9 C 95 % 1004,6 hPa 0,0 l/m 1,6 km/h (1 Bft) S-SO 157 0 min 0,000 mm 0,0 UV-I 0 W/m 4,6 C 5,3 C 3,2 km/h (1 Bft) 95,65 %
05.01.2018 22:43 5,3 C 3,9 C 94 % 1004,7 hPa 0,0 l/m 4,8 km/h (1 Bft) S-SO 157 0 min 0,000 mm 0,0 UV-I 0 W/m 4,4 C 5,3 C 6,4 km/h (2 Bft) 95,65 %
05.01.2018 22:44 5,2 C 3,9 C 94 % 1004,7 hPa 0,0 l/m 4,8 km/h (1 Bft) S-SO 157 0 min 0,000 mm 0,0 UV-I 0 W/m 4,3 C 5,2 C 6,4 km/h (2 Bft) 95,65 %
05.01.2018 22:45 5,2 C 3,9 C 94 % 1004,7 hPa 0,0 l/m 3,2 km/h (1 Bft) S-SO 157 0 min 0,000 mm 0,0 UV-I 0 W/m 4,3 C 5,2 C 6,4 km/h (2 Bft) 100,00 %
05.01.2018 22:46 5,2 C 3,9 C 94 % 1004,7 hPa 0,0 l/m 1,6 km/h (1 Bft) S-SO 157 0 min 0,000 mm 0,0 UV-I 0 W/m 4,3 C 5,2 C 3,2 km/h (1 Bft) 100,00 %
05.01.2018 22:47 5,2 C 3,9 C 94 % 1004,8 hPa 0,0 l/m 3,2 km/h (1 Bft) S 180 0 min 0,000 mm 0,0 UV-I 0 W/m 4,3 C 5,2 C 3,2 km/h (1 Bft) 100,00 %
05.01.2018 22:48 5,2 C 3,9 C 94 % 1004,8 hPa 0,0 l/m 3,2 km/h (1 Bft) W 270 0 min 0,000 mm 0,0 UV-I 0 W/m 4,3 C 5,2 C 3,2 km/h (1 Bft) 100,00 %
05.01.2018 22:49 5,2 C 3,9 C 94 % 1004,8 hPa 0,0 l/m 3,2 km/h (1 Bft) W 270 0 min 0,000 mm 0,0 UV-I 0 W/m 4,3 C 5,2 C 4,8 km/h (1 Bft) 95,65 %
05.01.2018 22:50 5,2 C 3,9 C 94 % 1004,8 hPa 0,0 l/m 3,2 km/h (1 Bft) W 270 0 min 0,000 mm 0,0 UV-I 0 W/m 4,3 C 5,2 C 3,2 km/h (1 Bft) 100,00 %
05.01.2018 22:51 5,2 C 3,9 C 94 % 1004,8 hPa 0,0 l/m 1,6 km/h (1 Bft) W 270 0 min 0,000 mm 0,0 UV-I 0 W/m 4,3 C 5,2 C 3,2 km/h (1 Bft) 95,65 %
05.01.2018 22:52 5,2 C 3,9 C 94 % 1004,7 hPa 0,0 l/m 3,2 km/h (1 Bft) S-SW 202 0 min 0,000 mm 0,0 UV-I 0 W/m 4,3 C 5,2 C 3,2 km/h (1 Bft) 95,65 %
05.01.2018 22:53 5,3 C 3,9 C 94 % 1004,7 hPa 0,0 l/m 1,6 km/h (1 Bft) S-SW 202 0 min 0,000 mm 0,0 UV-I 0 W/m 4,4 C 5,3 C 3,2 km/h (1 Bft) 91,30 %
05.01.2018 22:54 5,3 C 3,9 C 94 % 1004,7 hPa 0,0 l/m 0,0 km/h (0 Bft) S-SW 202 0 min 0,000 mm 0,0 UV-I 0 W/m 4,4 C 5,3 C 1,6 km/h (1 Bft) 100,00 %
05.01.2018 22:55 5,3 C 3,9 C 94 % 1004,7 hPa 0,0 l/m 1,6 km/h (1 Bft) S-SW 202 0 min 0,000 mm 0,0 UV-I 0 W/m 4,4 C 5,3 C 3,2 km/h (1 Bft) 95,65 %
05.01.2018 22:56 5,3 C 3,9 C 94 % 1004,7 hPa 0,0 l/m 3,2 km/h (1 Bft) S-SW 202 0 min 0,000 mm 0,0 UV-I 0 W/m 4,4 C 5,3 C 4,8 km/h (1 Bft) 95,65 %
05.01.2018 22:57 5,2 C 3,9 C 94 % 1004,7 hPa 0,0 l/m 1,6 km/h (1 Bft) S-SW 202 0 min 0,000 mm 0,0 UV-I 0 W/m 4,3 C 5,2 C 3,2 km/h (1 Bft) 95,65 %
05.01.2018 22:58 5,2 C 3,9 C 94 % 1004,8 hPa 0,0 l/m 3,2 km/h (1 Bft) SW 225 0 min 0,000 mm 0,0 UV-I 0 W/m 4,3 C 5,2 C 6,4 km/h (2 Bft) 100,00 %
05.01.2018 22:59 5,2 C 3,9 C 94 % 1004,8 hPa 0,0 l/m 3,2 km/h (1 Bft) SW 225 0 min 0,000 mm 0,0 UV-I 0 W/m 4,3 C 5,2 C 4,8 km/h (1 Bft) 95,65 %
05.01.2018 23:00 5,3 C 3,9 C 94 % 1004,8 hPa 0,0 l/m 0,0 km/h (0 Bft) SW 225 0 min 0,000 mm 0,0 UV-I 0 W/m 4,4 C 5,3 C 1,6 km/h (1 Bft) 95,65 %
05.01.2018 23:01 5,3 C 3,9 C 94 % 1004,8 hPa 0,0 l/m 3,2 km/h (1 Bft) SW 225 0 min 0,000 mm 0,0 UV-I 0 W/m 4,4 C 5,3 C 3,2 km/h (1 Bft) 100,00 %
05.01.2018 23:02 5,4 C 3,9 C 94 % 1004,7 hPa 0,0 l/m 3,2 km/h (1 Bft) SW 225 0 min 0,000 mm 0,0 UV-I 0 W/m 4,5 C 5,4 C 3,2 km/h (1 Bft) 95,65 %
05.01.2018 23:03 5,4 C 3,9 C 94 % 1004,7 hPa 0,0 l/m 1,6 km/h (1 Bft) SW 225 0 min 0,000 mm 0,0 UV-I 0 W/m 4,5 C 5,4 C 4,8 km/h (1 Bft) 95,65 %
05.01.2018 23:04 5,5 C 3,9 C 94 % 1004,7 hPa 0,0 l/m 1,6 km/h (1 Bft) SW 225 0 min 0,000 mm 0,0 UV-I 0 W/m 4,6 C 5,5 C 4,8 km/h (1 Bft) 91,30 %
05.01.2018 23:05 5,6 C 3,9 C 94 % 1004,7 hPa 0,0 l/m 1,6 km/h (1 Bft) SW 225 0 min 0,000 mm 0,0 UV-I 0 W/m 4,7 C 5,6 C 3,2 km/h (1 Bft) 100,00 %
05.01.2018 23:06 5,6 C 3,9 C 93 % 1004,7 hPa 0,0 l/m 0,0 km/h (0 Bft) N 0 0 min 0,000 mm 0,0 UV-I 0 W/m 4,6 C 5,6 C 0,0 km/h (0 Bft) 91,30 %
05.01.2018 23:07 5,5 C 3,9 C 93 % 1004,7 hPa 0,0 l/m 1,6 km/h (1 Bft) SW 225 0 min 0,000 mm 0,0 UV-I 0 W/m 4,5 C 5,5 C 3,2 km/h (1 Bft) 95,65 %
05.01.2018 23:08 5,4 C 3,9 C 93 % 1004,7 hPa 0,0 l/m 1,6 km/h (1 Bft) SW 225 0 min 0,000 mm 0,0 UV-I 0 W/m 4,4 C 5,4 C 3,2 km/h (1 Bft) 100,00 %
05.01.2018 23:09 5,4 C 3,9 C 93 % 1004,8 hPa 0,0 l/m 1,6 km/h (1 Bft) SW 225 0 min 0,000 mm 0,0 UV-I 0 W/m 4,4 C 5,4 C 4,8 km/h (1 Bft) 95,65 %
05.01.2018 23:10 5,3 C 3,9 C 94 % 1004,8 hPa 0,0 l/m 3,2 km/h (1 Bft) W-NW 292 0 min 0,000 mm 0,0 UV-I 0 W/m 4,4 C 5,3 C 4,8 km/h (1 Bft) 95,65 %
05.01.2018 23:11 5,3 C 3,9 C 94 % 1004,9 hPa 0,0 l/m 3,2 km/h (1 Bft) W-NW 292 0 min 0,000 mm 0,0 UV-I 0 W/m 4,4 C 5,3 C 3,2 km/h (1 Bft) 91,30 %
05.01.2018 23:12 5,2 C 3,9 C 93 % 1004,8 hPa 0,0 l/m 1,6 km/h (1 Bft) W-NW 292 0 min 0,000 mm 0,0 UV-I 0 W/m 4,2 C 5,2 C 3,2 km/h (1 Bft) 100,00 %
05.01.2018 23:13 5,2 C 3,9 C 93 % 1004,8 hPa 0,0 l/m 0,0 km/h (0 Bft) W-NW 292 0 min 0,000 mm 0,0 UV-I 0 W/m 4,2 C 5,2 C 3,2 km/h (1 Bft) 91,30 %
05.01.2018 23:14 5,1 C 3,9 C 93 % 1004,7 hPa 0,0 l/m 4,8 km/h (1 Bft) O 90 0 min 0,000 mm 0,0 UV-I 0 W/m 4,1 C 5,1 C 6,4 km/h (2 Bft) 100,00 %
05.01.2018 23:15 5,0 C 3,9 C 94 % 1004,6 hPa 0,0 l/m 4,8 km/h (1 Bft) O 90 0 min 0,000 mm 0,0 UV-I 0 W/m 4,1 C 5,0 C 4,8 km/h (1 Bft) 91,30 %
05.01.2018 23:16 5,0 C 3,9 C 94 % 1004,7 hPa 0,0 l/m 3,2 km/h (1 Bft) O 90 0 min 0,000 mm 0,0 UV-I 0 W/m 4,1 C 5,0 C 4,8 km/h (1 Bft) 95,65 %
05.01.2018 23:17 5,0 C 3,9 C 94 % 1004,7 hPa 0,0 l/m 3,2 km/h (1 Bft) W 270 0 min 0,000 mm 0,0 UV-I 0 W/m 4,1 C 5,0 C 6,4 km/h (2 Bft) 91,30 %
05.01.2018 23:18 5,1 C 3,9 C 94 % 1004,8 hPa 0,0 l/m 4,8 km/h (1 Bft) W 270 0 min 0,000 mm 0,0 UV-I 0 W/m 4,2 C 5,1 C 4,8 km/h (1 Bft) 95,65 %
05.01.2018 23:19 5,1 C 3,9 C 95 % 1004,8 hPa 0,0 l/m 1,6 km/h (1 Bft) W 270 0 min 0,000 mm 0,0 UV-I 0 W/m 4,4 C 5,1 C 3,2 km/h (1 Bft) 100,00 %
05.01.2018 23:20 5,1 C 3,9 C 95 % 1004,9 hPa 0,0 l/m 0,0 km/h (0 Bft) N 0 0 min 0,000 mm 0,0 UV-I 0 W/m 4,4 C 5,1 C 0,0 km/h (0 Bft) 95,65 %
05.01.2018 23:21 5,2 C 3,9 C 94 % 1004,9 hPa 0,0 l/m 1,6 km/h (1 Bft) W 270 0 min 0,000 mm 0,0 UV-I 0 W/m 4,3 C 5,2 C 3,2 km/h (1 Bft) 100,00 %
05.01.2018 23:22 5,2 C 3,9 C 95 % 1004,9 hPa 0,0 l/m 1,6 km/h (1 Bft) W 270 0 min 0,000 mm 0,0 UV-I 0 W/m 4,5 C 5,2 C 3,2 km/h (1 Bft) 95,65 %
05.01.2018 23:23 5,2 C 3,9 C 95 % 1004,9 hPa 0,0 l/m 0,0 km/h (0 Bft) W 270 0 min 0,000 mm 0,0 UV-I 0 W/m 4,5 C 5,2 C 1,6 km/h (1 Bft) 100,00 %
05.01.2018 23:24 5,2 C 3,9 C 95 % 1004,9 hPa 0,0 l/m 0,0 km/h (0 Bft) N 0 0 min 0,000 mm 0,0 UV-I 0 W/m 4,5 C 5,2 C 0,0 km/h (0 Bft) 91,30 %
05.01.2018 23:25 5,2 C 3,9 C 95 % 1004,8 hPa 0,0 l/m 0,0 km/h (0 Bft) N 0 0 min 0,000 mm 0,0 UV-I 0 W/m 4,5 C 5,2 C 0,0 km/h (0 Bft) 95,65 %
05.01.2018 23:26 5,2 C 3,9 C 95 % 1004,9 hPa 0,0 l/m 3,2 km/h (1 Bft) W 270 0 min 0,000 mm 0,0 UV-I 0 W/m 4,5 C 5,2 C 4,8 km/h (1 Bft) 100,00 %
05.01.2018 23:27 5,2 C 3,9 C 95 % 1004,9 hPa 0,0 l/m 1,6 km/h (1 Bft) W 270 0 min 0,000 mm 0,0 UV-I 0 W/m 4,5 C 5,2 C 3,2 km/h (1 Bft) 95,65 %
05.01.2018 23:28 5,3 C 3,9 C 95 % 1004,9 hPa 0,0 l/m 1,6 km/h (1 Bft) W 270 0 min 0,000 mm 0,0 UV-I 0 W/m 4,6 C 5,3 C 1,6 km/h (1 Bft) 100,00 %
05.01.2018 23:29 5,3 C 3,9 C 94 % 1004,9 hPa 0,0 l/m 3,2 km/h (1 Bft) O-SO 112 0 min 0,000 mm 0,0 UV-I 0 W/m 4,4 C 5,3 C 4,8 km/h (1 Bft) 95,65 %
05.01.2018 23:30 5,3 C 3,9 C 94 % 1004,8 hPa 0,0 l/m 4,8 km/h (1 Bft) O-SO 112 0 min 0,000 mm 0,0 UV-I 0 W/m 4,4 C 5,3 C 4,8 km/h (1 Bft) 100,00 %
05.01.2018 23:31 5,2 C 3,9 C 94 % 1004,9 hPa 0,0 l/m 3,2 km/h (1 Bft) O-SO 112 0 min 0,000 mm 0,0 UV-I 0 W/m 4,3 C 5,2 C 4,8 km/h (1 Bft) 91,30 %
05.01.2018 23:32 5,2 C 3,9 C 94 % 1004,9 hPa 0,0 l/m 1,6 km/h (1 Bft) O-SO 112 0 min 0,000 mm 0,0 UV-I 0 W/m 4,3 C 5,2 C 3,2 km/h (1 Bft) 100,00 %
05.01.2018 23:33 5,2 C 3,9 C 94 % 1005,0 hPa 0,0 l/m 0,0 km/h (0 Bft) O-SO 112 0 min 0,000 mm 0,0 UV-I 0 W/m 4,3 C 5,2 C 1,6 km/h (1 Bft) 100,00 %
05.01.2018 23:34 5,3 C 3,9 C 94 % 1005,0 hPa 0,0 l/m 1,6 km/h (1 Bft) O-SO 112 0 min 0,000 mm 0,0 UV-I 0 W/m 4,4 C 5,3 C 3,2 km/h (1 Bft) 95,65 %
05.01.2018 23:35 5,3 C 3,9 C 94 % 1005,1 hPa 0,0 l/m 3,2 km/h (1 Bft) O-SO 112 0 min 0,000 mm 0,0 UV-I 0 W/m 4,4 C 5,3 C 3,2 km/h (1 Bft) 100,00 %
05.01.2018 23:36 5,3 C 3,9 C 94 % 1005,1 hPa 0,0 l/m 3,2 km/h (1 Bft) SO 135 0 min 0,000 mm 0,0 UV-I 0 W/m 4,4 C 5,3 C 3,2 km/h (1 Bft) 100,00 %
05.01.2018 23:37 5,3 C 3,9 C 94 % 1005,1 hPa 0,0 l/m 1,6 km/h (1 Bft) SO 135 0 min 0,000 mm 0,0 UV-I 0 W/m 4,4 C 5,3 C 3,2 km/h (1 Bft) 100,00 %
05.01.2018 23:38 5,4 C 3,9 C 94 % 1005,1 hPa 0,0 l/m 1,6 km/h (1 Bft) SO 135 0 min 0,000 mm 0,0 UV-I 0 W/m 4,5 C 5,4 C 1,6 km/h (1 Bft) 95,65 %
05.01.2018 23:39 5,4 C 3,9 C 94 % 1005,0 hPa 0,0 l/m 1,6 km/h (1 Bft) SO 135 0 min 0,000 mm 0,0 UV-I 0 W/m 4,5 C 5,4 C 1,6 km/h (1 Bft) 95,65 %
05.01.2018 23:40 5,4 C 3,9 C 94 % 1005,0 hPa 0,0 l/m 0,0 km/h (0 Bft) SO 135 0 min 0,000 mm 0,0 UV-I 0 W/m 4,5 C 5,4 C 1,6 km/h (1 Bft) 100,00 %
05.01.2018 23:41 5,5 C 3,9 C 94 % 1005,1 hPa 0,0 l/m 1,6 km/h (1 Bft) SO 135 0 min 0,000 mm 0,0 UV-I 0 W/m 4,6 C 5,5 C 1,6 km/h (1 Bft) 100,00 %
05.01.2018 23:42 5,6 C 3,9 C 94 % 1005,1 hPa 0,0 l/m 1,6 km/h (1 Bft) SO 135 0 min 0,000 mm 0,0 UV-I 0 W/m 4,7 C 5,6 C 3,2 km/h (1 Bft) 100,00 %
05.01.2018 23:43 5,6 C 3,9 C 94 % 1005,0 hPa 0,0 l/m 3,2 km/h (1 Bft) SO 135 0 min 0,000 mm 0,0 UV-I 0 W/m 4,7 C 5,6 C 4,8 km/h (1 Bft) 100,00 %
05.01.2018 23:44 5,6 C 3,9 C 94 % 1005,0 hPa 0,0 l/m 1,6 km/h (1 Bft) SO 135 0 min 0,000 mm 0,0 UV-I 0 W/m 4,7 C 5,6 C 3,2 km/h (1 Bft) 100,00 %
05.01.2018 23:45 5,6 C 3,9 C 93 % 1005,1 hPa 0,0 l/m 0,0 km/h (0 Bft) SO 135 0 min 0,000 mm 0,0 UV-I 0 W/m 4,6 C 5,6 C 1,6 km/h (1 Bft) 95,65 %
05.01.2018 23:46 5,5 C 3,9 C 93 % 1005,1 hPa 0,0 l/m 0,0 km/h (0 Bft) N 0 0 min 0,000 mm 0,0 UV-I 0 W/m 4,5 C 5,5 C 0,0 km/h (0 Bft) 100,00 %
05.01.2018 23:47 5,5 C 3,9 C 94 % 1005,1 hPa 0,0 l/m 0,0 km/h (0 Bft) SO 135 0 min 0,000 mm 0,0 UV-I 0 W/m 4,6 C 5,5 C 1,6 km/h (1 Bft) 95,65 %
05.01.2018 23:48 5,6 C 3,9 C 94 % 1005,0 hPa 0,0 l/m 1,6 km/h (1 Bft) SO 135 0 min 0,000 mm 0,0 UV-I 0 W/m 4,7 C 5,6 C 1,6 km/h (1 Bft) 100,00 %
05.01.2018 23:49 5,6 C 3,9 C 94 % 1005,1 hPa 0,0 l/m 0,0 km/h (0 Bft) SO 135 0 min 0,000 mm 0,0 UV-I 0 W/m 4,7 C 5,6 C 1,6 km/h (1 Bft) 91,30 %
05.01.2018 23:50 5,6 C 3,9 C 94 % 1005,1 hPa 0,0 l/m 0,0 km/h (0 Bft) SO 135 0 min 0,000 mm 0,0 UV-I 0 W/m 4,7 C 5,6 C 1,6 km/h (1 Bft) 100,00 %
05.01.2018 23:51 5,6 C 3,9 C 94 % 1005,1 hPa 0,0 l/m 3,2 km/h (1 Bft) W-SW 247 0 min 0,000 mm 0,0 UV-I 0 W/m 4,7 C 5,6 C 4,8 km/h (1 Bft) 95,65 %
05.01.2018 23:52 5,6 C 3,9 C 93 % 1005,2 hPa 0,0 l/m 4,8 km/h (1 Bft) W-SW 247 0 min 0,000 mm 0,0 UV-I 0 W/m 4,6 C 5,6 C 4,8 km/h (1 Bft) 95,65 %
05.01.2018 23:53 5,5 C 3,9 C 93 % 1005,2 hPa 0,0 l/m 1,6 km/h (1 Bft) W-SW 247 0 min 0,000 mm 0,0 UV-I 0 W/m 4,5 C 5,5 C 4,8 km/h (1 Bft) 95,65 %
05.01.2018 23:54 5,4 C 3,9 C 93 % 1005,1 hPa 0,0 l/m 0,0 km/h (0 Bft) W-SW 247 0 min 0,000 mm 0,0 UV-I 0 W/m 4,4 C 5,4 C 1,6 km/h (1 Bft) 95,65 %
05.01.2018 23:55 5,4 C 3,9 C 93 % 1005,1 hPa 0,0 l/m 0,0 km/h (0 Bft) N 0 0 min 0,000 mm 0,0 UV-I 0 W/m 4,4 C 5,4 C 0,0 km/h (0 Bft) 100,00 %
05.01.2018 23:56 5,4 C 3,9 C 94 % 1005,1 hPa 0,0 l/m 0,0 km/h (0 Bft) W-SW 247 0 min 0,000 mm 0,0 UV-I 0 W/m 4,5 C 5,4 C 1,6 km/h (1 Bft) 95,65 %
05.01.2018 23:57 5,4 C 3,9 C 94 % 1005,1 hPa 0,0 l/m 0,0 km/h (0 Bft) W-SW 247 0 min 0,000 mm 0,0 UV-I 0 W/m 4,5 C 5,4 C 1,6 km/h (1 Bft) 100,00 %
05.01.2018 23:58 5,4 C 3,9 C 94 % 1005,1 hPa 0,0 l/m 1,6 km/h (1 Bft) W-SW 247 0 min 0,000 mm 0,0 UV-I 0 W/m 4,5 C 5,4 C 1,6 km/h (1 Bft) 95,65 %
05.01.2018 23:59 5,4 C 3,9 C 94 % 1005,1 hPa 0,0 l/m 1,6 km/h (1 Bft) W-SW 247 0 min 0,000 mm 0,0 UV-I 0 W/m 4,5 C 5,4 C 1,6 km/h (1 Bft) 95,65 %
_ Min-Zeit 20:40 00:00 14:42 01:05 - 07:51 - - - - - - 20:39 03:17 09:11 09:13
Minimum _ 4,4 C 3,9 C 74 % 997,8 hPa - 0,0 km/h (0 Bft) - - - - - - 3,5 C -2,1 C 0,0 km/h (0 Bft) 21,74 %
_ Max-Zeit 14:38 00:00 00:05 09:12 01:22 03:17 - - 08:06 12:00 11:46 11:19 01:05 14:39 02:52 00:02
Maximum _ 12,9 C 3,9 C 98 % 1005,2 hPa 0,6 l/m 38,6 km/h
W (5 Bft)
- - 1 min 0,152 mm 0,7 UV-I 427 W/m 9,3 C 12,9 C 54,7 km/h
W-SW (7 Bft)
100,00 %
Durchschnitt _ 8,1 C 3,9 C 88 % 1003,3 hPa #5,2 l/m 6,8 km/h (2 Bft) W-SW - #5:27 h #0,912 mm 0,6 UV-I 163 W/m 6,2 C 6,7 C 10,0 km/h (2 Bft) 97,06 %